﻿<?xml version="1.0" encoding="utf-8" standalone="yes"?>
<gpx version="1.0" creator="CanWay - http://www.canwaygps.com" xmlns:xsi="http://www.w3.org/2001/XMLSchema-instance" xmlns="http://www.topografix.com/GPX/1/0" xsi:schemaLocation="http://www.topografix.com/GPX/1/0 http://www.topografix.com/GPX/1/0/gpx.xsd">
<time>2023-05-05T21:00:11Z</time>
<bounds minlat="47.408464" minlon="8.724245" maxlat="47.466577" maxlon="8.759365" />
<trk>
<name>Sennhof-Kyburg-Illnau</name>
<trkseg>
<trkpt lat="47.465431" lon="8.759365">
<ele>481.7</ele>
<time>2003-09-19T06:10:59Z</time>
<speed>1.4</speed>
</trkpt>
<trkpt lat="47.465421" lon="8.759277">
<ele>476.0</ele>
<time>2003-09-19T06:11:04Z</time>
<speed>1.1</speed>
</trkpt>
<trkpt lat="47.465483" lon="8.759202">
<ele>479.2</ele>
<time>2003-09-19T06:11:09Z</time>
<speed>1.1</speed>
</trkpt>
<trkpt lat="47.465500" lon="8.759139">
<ele>478.8</ele>
<time>2003-09-19T06:11:14Z</time>
<speed>0.8</speed>
</trkpt>
<trkpt lat="47.465565" lon="8.759136">
<ele>479.0</ele>
<time>2003-09-19T06:11:19Z</time>
<speed>1.1</speed>
</trkpt>
<trkpt lat="47.465617" lon="8.759118">
<ele>479.1</ele>
<time>2003-09-19T06:11:24Z</time>
<speed>1.1</speed>
</trkpt>
<trkpt lat="47.465659" lon="8.759071">
<ele>478.9</ele>
<time>2003-09-19T06:11:29Z</time>
<speed>1.1</speed>
</trkpt>
<trkpt lat="47.465713" lon="8.759040">
<ele>478.8</ele>
<time>2003-09-19T06:11:34Z</time>
<speed>1.1</speed>
</trkpt>
<trkpt lat="47.465763" lon="8.759046">
<ele>480.5</ele>
<time>2003-09-19T06:11:39Z</time>
<speed>0.8</speed>
</trkpt>
<trkpt lat="47.465810" lon="8.759013">
<ele>481.1</ele>
<time>2003-09-19T06:11:44Z</time>
<speed>1.1</speed>
</trkpt>
<trkpt lat="47.465822" lon="8.758934">
<ele>481.3</ele>
<time>2003-09-19T06:11:49Z</time>
<speed>0.6</speed>
</trkpt>
<trkpt lat="47.465807" lon="8.758878">
<ele>481.5</ele>
<time>2003-09-19T06:11:54Z</time>
<speed>0.3</speed>
</trkpt>
<trkpt lat="47.465756" lon="8.758870">
<ele>481.2</ele>
<time>2003-09-19T06:11:59Z</time>
<speed>0.6</speed>
</trkpt>
<trkpt lat="47.465707" lon="8.758833">
<ele>482.1</ele>
<time>2003-09-19T06:12:04Z</time>
<speed>0.8</speed>
</trkpt>
<trkpt lat="47.465646" lon="8.758797">
<ele>481.6</ele>
<time>2003-09-19T06:12:09Z</time>
<speed>1.1</speed>
</trkpt>
<trkpt lat="47.465591" lon="8.758761">
<ele>481.7</ele>
<time>2003-09-19T06:12:14Z</time>
<speed>1.1</speed>
</trkpt>
<trkpt lat="47.465522" lon="8.758735">
<ele>482.0</ele>
<time>2003-09-19T06:12:19Z</time>
<speed>1.1</speed>
</trkpt>
<trkpt lat="47.465491" lon="8.758716">
<ele>482.4</ele>
<time>2003-09-19T06:12:24Z</time>
<speed>0.0</speed>
</trkpt>
<trkpt lat="47.465454" lon="8.758710">
<ele>482.2</ele>
<time>2003-09-19T06:12:29Z</time>
<speed>0.8</speed>
</trkpt>
<trkpt lat="47.465409" lon="8.758717">
<ele>481.3</ele>
<time>2003-09-19T06:12:34Z</time>
<speed>0.8</speed>
</trkpt>
<trkpt lat="47.465334" lon="8.758692">
<ele>480.8</ele>
<time>2003-09-19T06:12:39Z</time>
<speed>1.1</speed>
</trkpt>
<trkpt lat="47.465252" lon="8.758665">
<ele>481.0</ele>
<time>2003-09-19T06:12:44Z</time>
<speed>1.1</speed>
</trkpt>
<trkpt lat="47.465190" lon="8.758642">
<ele>480.5</ele>
<time>2003-09-19T06:12:49Z</time>
<speed>1.1</speed>
</trkpt>
<trkpt lat="47.465142" lon="8.758607">
<ele>480.1</ele>
<time>2003-09-19T06:12:54Z</time>
<speed>0.3</speed>
</trkpt>
<trkpt lat="47.465121" lon="8.758570">
<ele>475.4</ele>
<time>2003-09-19T06:12:59Z</time>
<speed>1.1</speed>
</trkpt>
<trkpt lat="47.465185" lon="8.758567">
<ele>475.6</ele>
<time>2003-09-19T06:13:04Z</time>
<speed>1.1</speed>
</trkpt>
<trkpt lat="47.465249" lon="8.758564">
<ele>475.9</ele>
<time>2003-09-19T06:13:09Z</time>
<speed>1.1</speed>
</trkpt>
<trkpt lat="47.465320" lon="8.758561">
<ele>476.9</ele>
<time>2003-09-19T06:13:14Z</time>
<speed>1.1</speed>
</trkpt>
<trkpt lat="47.465384" lon="8.758558">
<ele>477.1</ele>
<time>2003-09-19T06:13:19Z</time>
<speed>1.1</speed>
</trkpt>
<trkpt lat="47.465448" lon="8.758540">
<ele>478.6</ele>
<time>2003-09-19T06:13:24Z</time>
<speed>1.1</speed>
</trkpt>
<trkpt lat="47.465513" lon="8.758537">
<ele>478.9</ele>
<time>2003-09-19T06:13:29Z</time>
<speed>1.1</speed>
</trkpt>
<trkpt lat="47.465571" lon="8.758519">
<ele>479.7</ele>
<time>2003-09-19T06:13:34Z</time>
<speed>1.1</speed>
</trkpt>
<trkpt lat="47.465637" lon="8.758489">
<ele>479.7</ele>
<time>2003-09-19T06:13:39Z</time>
<speed>1.1</speed>
</trkpt>
<trkpt lat="47.465696" lon="8.758471">
<ele>480.5</ele>
<time>2003-09-19T06:13:44Z</time>
<speed>1.1</speed>
</trkpt>
<trkpt lat="47.465756" lon="8.758442">
<ele>479.8</ele>
<time>2003-09-19T06:13:49Z</time>
<speed>1.1</speed>
</trkpt>
<trkpt lat="47.465815" lon="8.758424">
<ele>480.6</ele>
<time>2003-09-19T06:13:54Z</time>
<speed>1.1</speed>
</trkpt>
<trkpt lat="47.465863" lon="8.758378">
<ele>481.2</ele>
<time>2003-09-19T06:13:59Z</time>
<speed>1.1</speed>
</trkpt>
<trkpt lat="47.465922" lon="8.758346">
<ele>481.9</ele>
<time>2003-09-19T06:14:04Z</time>
<speed>1.1</speed>
</trkpt>
<trkpt lat="47.465976" lon="8.758315">
<ele>481.8</ele>
<time>2003-09-19T06:14:09Z</time>
<speed>1.1</speed>
</trkpt>
<trkpt lat="47.466030" lon="8.758269">
<ele>483.1</ele>
<time>2003-09-19T06:14:14Z</time>
<speed>1.1</speed>
</trkpt>
<trkpt lat="47.466085" lon="8.758224">
<ele>483.0</ele>
<time>2003-09-19T06:14:19Z</time>
<speed>1.1</speed>
</trkpt>
<trkpt lat="47.466138" lon="8.758193">
<ele>482.9</ele>
<time>2003-09-19T06:14:24Z</time>
<speed>1.1</speed>
</trkpt>
<trkpt lat="47.466193" lon="8.758149">
<ele>482.8</ele>
<time>2003-09-19T06:14:29Z</time>
<speed>1.1</speed>
</trkpt>
<trkpt lat="47.466235" lon="8.758102">
<ele>482.6</ele>
<time>2003-09-19T06:14:34Z</time>
<speed>0.8</speed>
</trkpt>
<trkpt lat="47.466289" lon="8.758058">
<ele>482.4</ele>
<time>2003-09-19T06:14:39Z</time>
<speed>1.1</speed>
</trkpt>
<trkpt lat="47.466337" lon="8.758012">
<ele>483.0</ele>
<time>2003-09-19T06:14:44Z</time>
<speed>1.1</speed>
</trkpt>
<trkpt lat="47.466379" lon="8.757965">
<ele>482.8</ele>
<time>2003-09-19T06:14:49Z</time>
<speed>0.8</speed>
</trkpt>
<trkpt lat="47.466426" lon="8.757932">
<ele>483.4</ele>
<time>2003-09-19T06:14:54Z</time>
<speed>1.1</speed>
</trkpt>
<trkpt lat="47.466481" lon="8.757888">
<ele>483.3</ele>
<time>2003-09-19T06:14:59Z</time>
<speed>1.1</speed>
</trkpt>
<trkpt lat="47.466535" lon="8.757841">
<ele>484.5</ele>
<time>2003-09-19T06:15:04Z</time>
<speed>1.1</speed>
</trkpt>
<trkpt lat="47.466577" lon="8.757795">
<ele>484.3</ele>
<time>2003-09-19T06:15:09Z</time>
<speed>1.1</speed>
</trkpt>
<trkpt lat="47.466550" lon="8.757723">
<ele>484.3</ele>
<time>2003-09-19T06:15:14Z</time>
<speed>0.8</speed>
</trkpt>
<trkpt lat="47.466503" lon="8.757661">
<ele>485.1</ele>
<time>2003-09-19T06:15:19Z</time>
<speed>1.1</speed>
</trkpt>
<trkpt lat="47.466457" lon="8.757587">
<ele>484.3</ele>
<time>2003-09-19T06:15:24Z</time>
<speed>0.8</speed>
</trkpt>
<trkpt lat="47.466437" lon="8.757516">
<ele>485.0</ele>
<time>2003-09-19T06:15:29Z</time>
<speed>0.8</speed>
</trkpt>
<trkpt lat="47.466396" lon="8.757455">
<ele>485.1</ele>
<time>2003-09-19T06:15:34Z</time>
<speed>0.8</speed>
</trkpt>
<trkpt lat="47.466376" lon="8.757385">
<ele>484.4</ele>
<time>2003-09-19T06:15:39Z</time>
<speed>0.8</speed>
</trkpt>
<trkpt lat="47.466355" lon="8.757314">
<ele>485.2</ele>
<time>2003-09-19T06:15:44Z</time>
<speed>0.8</speed>
</trkpt>
<trkpt lat="47.466323" lon="8.757242">
<ele>484.5</ele>
<time>2003-09-19T06:15:49Z</time>
<speed>0.8</speed>
</trkpt>
<trkpt lat="47.466303" lon="8.757158">
<ele>485.1</ele>
<time>2003-09-19T06:15:54Z</time>
<speed>0.8</speed>
</trkpt>
<trkpt lat="47.466262" lon="8.757097">
<ele>485.2</ele>
<time>2003-09-19T06:15:59Z</time>
<speed>0.8</speed>
</trkpt>
<trkpt lat="47.466219" lon="8.757076">
<ele>485.5</ele>
<time>2003-09-19T06:16:04Z</time>
<speed>0.8</speed>
</trkpt>
<trkpt lat="47.466164" lon="8.757040">
<ele>485.7</ele>
<time>2003-09-19T06:16:09Z</time>
<speed>0.8</speed>
</trkpt>
<trkpt lat="47.466122" lon="8.757005">
<ele>486.0</ele>
<time>2003-09-19T06:16:14Z</time>
<speed>1.1</speed>
</trkpt>
<trkpt lat="47.466078" lon="8.756984">
<ele>486.3</ele>
<time>2003-09-19T06:16:19Z</time>
<speed>1.1</speed>
</trkpt>
<trkpt lat="47.466029" lon="8.756963">
<ele>485.9</ele>
<time>2003-09-19T06:16:24Z</time>
<speed>0.6</speed>
</trkpt>
<trkpt lat="47.465924" lon="8.756920">
<ele>484.5</ele>
<time>2003-09-19T06:16:29Z</time>
<speed>0.8</speed>
</trkpt>
<trkpt lat="47.465892" lon="8.756914">
<ele>485.0</ele>
<time>2003-09-19T06:16:34Z</time>
<speed>0.6</speed>
</trkpt>
<trkpt lat="47.465848" lon="8.756893">
<ele>485.3</ele>
<time>2003-09-19T06:16:39Z</time>
<speed>0.6</speed>
</trkpt>
<trkpt lat="47.465811" lon="8.756874">
<ele>485.0</ele>
<time>2003-09-19T06:16:44Z</time>
<speed>0.6</speed>
</trkpt>
<trkpt lat="47.465781" lon="8.756855">
<ele>485.5</ele>
<time>2003-09-19T06:16:49Z</time>
<speed>0.6</speed>
</trkpt>
<trkpt lat="47.465761" lon="8.756849">
<ele>487.5</ele>
<time>2003-09-19T06:16:54Z</time>
<speed>0.6</speed>
</trkpt>
<trkpt lat="47.465724" lon="8.756828">
<ele>488.6</ele>
<time>2003-09-19T06:16:59Z</time>
<speed>0.6</speed>
</trkpt>
<trkpt lat="47.465691" lon="8.756820">
<ele>490.5</ele>
<time>2003-09-19T06:17:04Z</time>
<speed>0.6</speed>
</trkpt>
<trkpt lat="47.465653" lon="8.756814">
<ele>490.3</ele>
<time>2003-09-19T06:17:09Z</time>
<speed>0.6</speed>
</trkpt>
<trkpt lat="47.465627" lon="8.756821">
<ele>491.7</ele>
<time>2003-09-19T06:17:14Z</time>
<speed>0.3</speed>
</trkpt>
<trkpt lat="47.465582" lon="8.756810">
<ele>493.5</ele>
<time>2003-09-19T06:17:19Z</time>
<speed>0.6</speed>
</trkpt>
<trkpt lat="47.465557" lon="8.756791">
<ele>494.7</ele>
<time>2003-09-19T06:17:24Z</time>
<speed>0.3</speed>
</trkpt>
<trkpt lat="47.465525" lon="8.756785">
<ele>495.2</ele>
<time>2003-09-19T06:17:29Z</time>
<speed>0.6</speed>
</trkpt>
<trkpt lat="47.465494" lon="8.756764">
<ele>497.1</ele>
<time>2003-09-19T06:17:34Z</time>
<speed>0.3</speed>
</trkpt>
<trkpt lat="47.465475" lon="8.756760">
<ele>497.7</ele>
<time>2003-09-19T06:17:39Z</time>
<speed>0.3</speed>
</trkpt>
<trkpt lat="47.465436" lon="8.756767">
<ele>497.6</ele>
<time>2003-09-19T06:17:44Z</time>
<speed>0.3</speed>
</trkpt>
<trkpt lat="47.465424" lon="8.756752">
<ele>497.4</ele>
<time>2003-09-19T06:17:49Z</time>
<speed>0.6</speed>
</trkpt>
<trkpt lat="47.465392" lon="8.756744">
<ele>499.3</ele>
<time>2003-09-19T06:17:54Z</time>
<speed>0.3</speed>
</trkpt>
<trkpt lat="47.465373" lon="8.756742">
<ele>498.5</ele>
<time>2003-09-19T06:17:59Z</time>
<speed>0.3</speed>
</trkpt>
<trkpt lat="47.465353" lon="8.756749">
<ele>500.6</ele>
<time>2003-09-19T06:18:04Z</time>
<speed>0.6</speed>
</trkpt>
<trkpt lat="47.465328" lon="8.756730">
<ele>501.8</ele>
<time>2003-09-19T06:18:09Z</time>
<speed>0.6</speed>
</trkpt>
<trkpt lat="47.465283" lon="8.756722">
<ele>502.2</ele>
<time>2003-09-19T06:18:14Z</time>
<speed>0.3</speed>
</trkpt>
<trkpt lat="47.465259" lon="8.756703">
<ele>503.4</ele>
<time>2003-09-19T06:18:19Z</time>
<speed>0.6</speed>
</trkpt>
<trkpt lat="47.465227" lon="8.756696">
<ele>503.9</ele>
<time>2003-09-19T06:18:24Z</time>
<speed>0.6</speed>
</trkpt>
<trkpt lat="47.465214" lon="8.756694">
<ele>503.9</ele>
<time>2003-09-19T06:18:29Z</time>
<speed>0.6</speed>
</trkpt>
<trkpt lat="47.465176" lon="8.756686">
<ele>505.1</ele>
<time>2003-09-19T06:18:34Z</time>
<speed>0.8</speed>
</trkpt>
<trkpt lat="47.465113" lon="8.756676">
<ele>504.7</ele>
<time>2003-09-19T06:18:39Z</time>
<speed>0.6</speed>
</trkpt>
<trkpt lat="47.465070" lon="8.756657">
<ele>503.7</ele>
<time>2003-09-19T06:18:44Z</time>
<speed>0.3</speed>
</trkpt>
<trkpt lat="47.465046" lon="8.756640">
<ele>503.4</ele>
<time>2003-09-19T06:18:49Z</time>
<speed>0.6</speed>
</trkpt>
<trkpt lat="47.465021" lon="8.756621">
<ele>504.6</ele>
<time>2003-09-19T06:18:54Z</time>
<speed>0.3</speed>
</trkpt>
<trkpt lat="47.464990" lon="8.756602">
<ele>505.0</ele>
<time>2003-09-19T06:18:59Z</time>
<speed>0.0</speed>
</trkpt>
<trkpt lat="47.464953" lon="8.756582">
<ele>504.7</ele>
<time>2003-09-19T06:19:04Z</time>
<speed>0.6</speed>
</trkpt>
<trkpt lat="47.464935" lon="8.756563">
<ele>506.6</ele>
<time>2003-09-19T06:19:09Z</time>
<speed>0.3</speed>
</trkpt>
<trkpt lat="47.464921" lon="8.756559">
<ele>508.0</ele>
<time>2003-09-19T06:19:14Z</time>
<speed>0.6</speed>
</trkpt>
<trkpt lat="47.464902" lon="8.756555">
<ele>508.6</ele>
<time>2003-09-19T06:19:19Z</time>
<speed>0.6</speed>
</trkpt>
<trkpt lat="47.464878" lon="8.756536">
<ele>509.7</ele>
<time>2003-09-19T06:19:24Z</time>
<speed>0.3</speed>
</trkpt>
<trkpt lat="47.464854" lon="8.756504">
<ele>510.8</ele>
<time>2003-09-19T06:19:29Z</time>
<speed>0.3</speed>
</trkpt>
<trkpt lat="47.464829" lon="8.756485">
<ele>512.0</ele>
<time>2003-09-19T06:19:34Z</time>
<speed>0.3</speed>
</trkpt>
<trkpt lat="47.464805" lon="8.756452">
<ele>513.0</ele>
<time>2003-09-19T06:19:39Z</time>
<speed>0.6</speed>
</trkpt>
<trkpt lat="47.464776" lon="8.756420">
<ele>513.3</ele>
<time>2003-09-19T06:19:44Z</time>
<speed>0.3</speed>
</trkpt>
<trkpt lat="47.464752" lon="8.756373">
<ele>515.7</ele>
<time>2003-09-19T06:19:49Z</time>
<speed>0.0</speed>
</trkpt>
<trkpt lat="47.464728" lon="8.756354">
<ele>516.9</ele>
<time>2003-09-19T06:19:54Z</time>
<speed>0.3</speed>
</trkpt>
<trkpt lat="47.464704" lon="8.756321">
<ele>517.9</ele>
<time>2003-09-19T06:19:59Z</time>
<speed>0.8</speed>
</trkpt>
<trkpt lat="47.464680" lon="8.756289">
<ele>519.0</ele>
<time>2003-09-19T06:20:04Z</time>
<speed>0.3</speed>
</trkpt>
<trkpt lat="47.464662" lon="8.756270">
<ele>520.9</ele>
<time>2003-09-19T06:20:09Z</time>
<speed>0.3</speed>
</trkpt>
<trkpt lat="47.464642" lon="8.756266">
<ele>521.5</ele>
<time>2003-09-19T06:20:14Z</time>
<speed>0.3</speed>
</trkpt>
<trkpt lat="47.464612" lon="8.756247">
<ele>521.9</ele>
<time>2003-09-19T06:20:19Z</time>
<speed>0.0</speed>
</trkpt>
<trkpt lat="47.464593" lon="8.756243">
<ele>522.5</ele>
<time>2003-09-19T06:20:24Z</time>
<speed>0.6</speed>
</trkpt>
<trkpt lat="47.464574" lon="8.756225">
<ele>523.0</ele>
<time>2003-09-19T06:20:29Z</time>
<speed>0.3</speed>
</trkpt>
<trkpt lat="47.464549" lon="8.756221">
<ele>522.9</ele>
<time>2003-09-19T06:20:34Z</time>
<speed>0.6</speed>
</trkpt>
<trkpt lat="47.464531" lon="8.756206">
<ele>522.0</ele>
<time>2003-09-19T06:20:39Z</time>
<speed>0.3</speed>
</trkpt>
<trkpt lat="47.464501" lon="8.756187">
<ele>522.4</ele>
<time>2003-09-19T06:20:44Z</time>
<speed>0.3</speed>
</trkpt>
<trkpt lat="47.464482" lon="8.756170">
<ele>522.9</ele>
<time>2003-09-19T06:20:49Z</time>
<speed>0.6</speed>
</trkpt>
<trkpt lat="47.464451" lon="8.756164">
<ele>523.4</ele>
<time>2003-09-19T06:20:54Z</time>
<speed>0.3</speed>
</trkpt>
<trkpt lat="47.464421" lon="8.756132">
<ele>523.8</ele>
<time>2003-09-19T06:20:59Z</time>
<speed>0.6</speed>
</trkpt>
<trkpt lat="47.464384" lon="8.756112">
<ele>523.4</ele>
<time>2003-09-19T06:21:04Z</time>
<speed>0.3</speed>
</trkpt>
<trkpt lat="47.464372" lon="8.756095">
<ele>524.7</ele>
<time>2003-09-19T06:21:09Z</time>
<speed>0.3</speed>
</trkpt>
<trkpt lat="47.464334" lon="8.756089">
<ele>524.5</ele>
<time>2003-09-19T06:21:14Z</time>
<speed>0.6</speed>
</trkpt>
<trkpt lat="47.464310" lon="8.756072">
<ele>524.2</ele>
<time>2003-09-19T06:21:19Z</time>
<speed>0.6</speed>
</trkpt>
<trkpt lat="47.464278" lon="8.756068">
<ele>523.4</ele>
<time>2003-09-19T06:21:24Z</time>
<speed>0.3</speed>
</trkpt>
<trkpt lat="47.464259" lon="8.756064">
<ele>524.0</ele>
<time>2003-09-19T06:21:29Z</time>
<speed>0.3</speed>
</trkpt>
<trkpt lat="47.464215" lon="8.756056">
<ele>524.4</ele>
<time>2003-09-19T06:21:34Z</time>
<speed>0.3</speed>
</trkpt>
<trkpt lat="47.464184" lon="8.756037">
<ele>524.8</ele>
<time>2003-09-19T06:21:39Z</time>
<speed>0.3</speed>
</trkpt>
<trkpt lat="47.464153" lon="8.756016">
<ele>526.7</ele>
<time>2003-09-19T06:21:44Z</time>
<speed>0.3</speed>
</trkpt>
<trkpt lat="47.464122" lon="8.755996">
<ele>527.1</ele>
<time>2003-09-19T06:21:49Z</time>
<speed>0.3</speed>
</trkpt>
<trkpt lat="47.464083" lon="8.755988">
<ele>528.3</ele>
<time>2003-09-19T06:21:54Z</time>
<speed>0.6</speed>
</trkpt>
<trkpt lat="47.464059" lon="8.755969">
<ele>529.5</ele>
<time>2003-09-19T06:21:59Z</time>
<speed>0.6</speed>
</trkpt>
<trkpt lat="47.464028" lon="8.755948">
<ele>531.3</ele>
<time>2003-09-19T06:22:04Z</time>
<speed>0.6</speed>
</trkpt>
<trkpt lat="47.463990" lon="8.755927">
<ele>532.4</ele>
<time>2003-09-19T06:22:09Z</time>
<speed>0.6</speed>
</trkpt>
<trkpt lat="47.463959" lon="8.755908">
<ele>532.8</ele>
<time>2003-09-19T06:22:14Z</time>
<speed>0.6</speed>
</trkpt>
<trkpt lat="47.463928" lon="8.755904">
<ele>532.0</ele>
<time>2003-09-19T06:22:19Z</time>
<speed>0.3</speed>
</trkpt>
<trkpt lat="47.463910" lon="8.755888">
<ele>531.0</ele>
<time>2003-09-19T06:22:24Z</time>
<speed>0.0</speed>
</trkpt>
<trkpt lat="47.463878" lon="8.755880">
<ele>533.0</ele>
<time>2003-09-19T06:22:29Z</time>
<speed>0.3</speed>
</trkpt>
<trkpt lat="47.463853" lon="8.755861">
<ele>534.1</ele>
<time>2003-09-19T06:22:34Z</time>
<speed>0.3</speed>
</trkpt>
<trkpt lat="47.463840" lon="8.755857">
<ele>535.5</ele>
<time>2003-09-19T06:22:39Z</time>
<speed>0.6</speed>
</trkpt>
<trkpt lat="47.463816" lon="8.755840">
<ele>535.2</ele>
<time>2003-09-19T06:22:44Z</time>
<speed>0.3</speed>
</trkpt>
<trkpt lat="47.463805" lon="8.755810">
<ele>536.4</ele>
<time>2003-09-19T06:22:49Z</time>
<speed>0.3</speed>
</trkpt>
<trkpt lat="47.463780" lon="8.755791">
<ele>537.5</ele>
<time>2003-09-19T06:22:54Z</time>
<speed>0.3</speed>
</trkpt>
<trkpt lat="47.463757" lon="8.755760">
<ele>537.2</ele>
<time>2003-09-19T06:22:59Z</time>
<speed>0.3</speed>
</trkpt>
<trkpt lat="47.463728" lon="8.755715">
<ele>537.4</ele>
<time>2003-09-19T06:23:04Z</time>
<speed>0.6</speed>
</trkpt>
<trkpt lat="47.463698" lon="8.755683">
<ele>537.7</ele>
<time>2003-09-19T06:23:09Z</time>
<speed>0.8</speed>
</trkpt>
<trkpt lat="47.463657" lon="8.755635">
<ele>537.9</ele>
<time>2003-09-19T06:23:14Z</time>
<speed>0.8</speed>
</trkpt>
<trkpt lat="47.463627" lon="8.755603">
<ele>538.2</ele>
<time>2003-09-19T06:23:19Z</time>
<speed>0.3</speed>
</trkpt>
<trkpt lat="47.463603" lon="8.755571">
<ele>539.3</ele>
<time>2003-09-19T06:23:24Z</time>
<speed>0.3</speed>
</trkpt>
<trkpt lat="47.463562" lon="8.755523">
<ele>539.4</ele>
<time>2003-09-19T06:23:29Z</time>
<speed>0.8</speed>
</trkpt>
<trkpt lat="47.463533" lon="8.755476">
<ele>541.1</ele>
<time>2003-09-19T06:23:34Z</time>
<speed>0.8</speed>
</trkpt>
<trkpt lat="47.463498" lon="8.755431">
<ele>540.5</ele>
<time>2003-09-19T06:23:39Z</time>
<speed>0.6</speed>
</trkpt>
<trkpt lat="47.463462" lon="8.755398">
<ele>540.1</ele>
<time>2003-09-19T06:23:44Z</time>
<speed>0.6</speed>
</trkpt>
<trkpt lat="47.463426" lon="8.755366">
<ele>539.7</ele>
<time>2003-09-19T06:23:49Z</time>
<speed>0.3</speed>
</trkpt>
<trkpt lat="47.463379" lon="8.755319">
<ele>539.1</ele>
<time>2003-09-19T06:23:54Z</time>
<speed>0.6</speed>
</trkpt>
<trkpt lat="47.463348" lon="8.755300">
<ele>539.6</ele>
<time>2003-09-19T06:23:59Z</time>
<speed>0.3</speed>
</trkpt>
<trkpt lat="47.463312" lon="8.755265">
<ele>540.6</ele>
<time>2003-09-19T06:24:04Z</time>
<speed>0.8</speed>
</trkpt>
<trkpt lat="47.463270" lon="8.755216">
<ele>542.1</ele>
<time>2003-09-19T06:24:09Z</time>
<speed>0.8</speed>
</trkpt>
<trkpt lat="47.463222" lon="8.755166">
<ele>542.9</ele>
<time>2003-09-19T06:24:14Z</time>
<speed>0.3</speed>
</trkpt>
<trkpt lat="47.463186" lon="8.755134">
<ele>542.5</ele>
<time>2003-09-19T06:24:19Z</time>
<speed>0.3</speed>
</trkpt>
<trkpt lat="47.463150" lon="8.755087">
<ele>543.4</ele>
<time>2003-09-19T06:24:24Z</time>
<speed>0.6</speed>
</trkpt>
<trkpt lat="47.463108" lon="8.755050">
<ele>545.1</ele>
<time>2003-09-19T06:24:29Z</time>
<speed>0.6</speed>
</trkpt>
<trkpt lat="47.463077" lon="8.755031">
<ele>545.5</ele>
<time>2003-09-19T06:24:34Z</time>
<speed>0.6</speed>
</trkpt>
<trkpt lat="47.463041" lon="8.754999">
<ele>545.1</ele>
<time>2003-09-19T06:24:39Z</time>
<speed>0.8</speed>
</trkpt>
<trkpt lat="47.462998" lon="8.754965">
<ele>545.4</ele>
<time>2003-09-19T06:24:44Z</time>
<speed>0.6</speed>
</trkpt>
<trkpt lat="47.462969" lon="8.754934">
<ele>544.3</ele>
<time>2003-09-19T06:24:49Z</time>
<speed>0.6</speed>
</trkpt>
<trkpt lat="47.462939" lon="8.754900">
<ele>546.0</ele>
<time>2003-09-19T06:24:54Z</time>
<speed>0.3</speed>
</trkpt>
<trkpt lat="47.462908" lon="8.754881">
<ele>546.4</ele>
<time>2003-09-19T06:24:59Z</time>
<speed>0.6</speed>
</trkpt>
<trkpt lat="47.462872" lon="8.754849">
<ele>546.0</ele>
<time>2003-09-19T06:25:04Z</time>
<speed>0.0</speed>
</trkpt>
<trkpt lat="47.462848" lon="8.754832">
<ele>545.8</ele>
<time>2003-09-19T06:25:09Z</time>
<speed>0.3</speed>
</trkpt>
<trkpt lat="47.462831" lon="8.754801">
<ele>546.2</ele>
<time>2003-09-19T06:25:14Z</time>
<speed>0.3</speed>
</trkpt>
<trkpt lat="47.462800" lon="8.754784">
<ele>545.2</ele>
<time>2003-09-19T06:25:19Z</time>
<speed>0.0</speed>
</trkpt>
<trkpt lat="47.462764" lon="8.754765">
<ele>544.9</ele>
<time>2003-09-19T06:25:24Z</time>
<speed>0.3</speed>
</trkpt>
<trkpt lat="47.462728" lon="8.754733">
<ele>544.5</ele>
<time>2003-09-19T06:25:29Z</time>
<speed>0.6</speed>
</trkpt>
<trkpt lat="47.462697" lon="8.754714">
<ele>544.9</ele>
<time>2003-09-19T06:25:34Z</time>
<speed>0.3</speed>
</trkpt>
<trkpt lat="47.462680" lon="8.754683">
<ele>545.3</ele>
<time>2003-09-19T06:25:39Z</time>
<speed>0.3</speed>
</trkpt>
<trkpt lat="47.462655" lon="8.754664">
<ele>546.5</ele>
<time>2003-09-19T06:25:44Z</time>
<speed>0.3</speed>
</trkpt>
<trkpt lat="47.462625" lon="8.754632">
<ele>546.8</ele>
<time>2003-09-19T06:25:49Z</time>
<speed>0.6</speed>
</trkpt>
<trkpt lat="47.462588" lon="8.754611">
<ele>547.9</ele>
<time>2003-09-19T06:25:54Z</time>
<speed>0.6</speed>
</trkpt>
<trkpt lat="47.462556" lon="8.754603">
<ele>549.8</ele>
<time>2003-09-19T06:25:59Z</time>
<speed>0.6</speed>
</trkpt>
<trkpt lat="47.462517" lon="8.754595">
<ele>551.0</ele>
<time>2003-09-19T06:26:04Z</time>
<speed>0.6</speed>
</trkpt>
<trkpt lat="47.462469" lon="8.754562">
<ele>549.1</ele>
<time>2003-09-19T06:26:09Z</time>
<speed>0.6</speed>
</trkpt>
<trkpt lat="47.462438" lon="8.754558">
<ele>548.3</ele>
<time>2003-09-19T06:26:14Z</time>
<speed>0.6</speed>
</trkpt>
<trkpt lat="47.462406" lon="8.754550">
<ele>550.2</ele>
<time>2003-09-19T06:26:19Z</time>
<speed>0.6</speed>
</trkpt>
<trkpt lat="47.462373" lon="8.754542">
<ele>552.1</ele>
<time>2003-09-19T06:26:24Z</time>
<speed>0.6</speed>
</trkpt>
<trkpt lat="47.462330" lon="8.754521">
<ele>552.5</ele>
<time>2003-09-19T06:26:29Z</time>
<speed>0.3</speed>
</trkpt>
<trkpt lat="47.462304" lon="8.754515">
<ele>553.8</ele>
<time>2003-09-19T06:26:34Z</time>
<speed>0.3</speed>
</trkpt>
<trkpt lat="47.462265" lon="8.754520">
<ele>555.1</ele>
<time>2003-09-19T06:26:39Z</time>
<speed>0.3</speed>
</trkpt>
<trkpt lat="47.462232" lon="8.754527">
<ele>555.7</ele>
<time>2003-09-19T06:26:44Z</time>
<speed>0.6</speed>
</trkpt>
<trkpt lat="47.462206" lon="8.754536">
<ele>555.7</ele>
<time>2003-09-19T06:26:49Z</time>
<speed>0.6</speed>
</trkpt>
<trkpt lat="47.462186" lon="8.754530">
<ele>557.7</ele>
<time>2003-09-19T06:26:54Z</time>
<speed>0.0</speed>
</trkpt>
<trkpt lat="47.462143" lon="8.754511">
<ele>556.6</ele>
<time>2003-09-19T06:26:59Z</time>
<speed>0.6</speed>
</trkpt>
<trkpt lat="47.462086" lon="8.754503">
<ele>555.6</ele>
<time>2003-09-19T06:27:04Z</time>
<speed>0.3</speed>
</trkpt>
<trkpt lat="47.462042" lon="8.754510">
<ele>554.8</ele>
<time>2003-09-19T06:27:09Z</time>
<speed>0.6</speed>
</trkpt>
<trkpt lat="47.462003" lon="8.754517">
<ele>554.7</ele>
<time>2003-09-19T06:27:14Z</time>
<speed>0.6</speed>
</trkpt>
<trkpt lat="47.461976" lon="8.754526">
<ele>554.6</ele>
<time>2003-09-19T06:27:19Z</time>
<speed>0.3</speed>
</trkpt>
<trkpt lat="47.461957" lon="8.754522">
<ele>555.2</ele>
<time>2003-09-19T06:27:24Z</time>
<speed>0.6</speed>
</trkpt>
<trkpt lat="47.461926" lon="8.754518">
<ele>554.4</ele>
<time>2003-09-19T06:27:29Z</time>
<speed>0.3</speed>
</trkpt>
<trkpt lat="47.461905" lon="8.754525">
<ele>556.5</ele>
<time>2003-09-19T06:27:34Z</time>
<speed>0.6</speed>
</trkpt>
<trkpt lat="47.461879" lon="8.754519">
<ele>557.7</ele>
<time>2003-09-19T06:27:39Z</time>
<speed>0.6</speed>
</trkpt>
<trkpt lat="47.461840" lon="8.754522">
<ele>560.4</ele>
<time>2003-09-19T06:27:44Z</time>
<speed>0.6</speed>
</trkpt>
<trkpt lat="47.461814" lon="8.754518">
<ele>560.3</ele>
<time>2003-09-19T06:27:49Z</time>
<speed>0.6</speed>
</trkpt>
<trkpt lat="47.461783" lon="8.754512">
<ele>560.8</ele>
<time>2003-09-19T06:27:54Z</time>
<speed>0.6</speed>
</trkpt>
<trkpt lat="47.461733" lon="8.754493">
<ele>559.0</ele>
<time>2003-09-19T06:27:59Z</time>
<speed>0.6</speed>
</trkpt>
<trkpt lat="47.461714" lon="8.754504">
<ele>558.3</ele>
<time>2003-09-19T06:28:04Z</time>
<speed>0.6</speed>
</trkpt>
<trkpt lat="47.461689" lon="8.754500">
<ele>558.2</ele>
<time>2003-09-19T06:28:09Z</time>
<speed>0.6</speed>
</trkpt>
<trkpt lat="47.461656" lon="8.754507">
<ele>558.8</ele>
<time>2003-09-19T06:28:14Z</time>
<speed>0.6</speed>
</trkpt>
<trkpt lat="47.461618" lon="8.754486">
<ele>559.9</ele>
<time>2003-09-19T06:28:19Z</time>
<speed>0.6</speed>
</trkpt>
<trkpt lat="47.461564" lon="8.754453">
<ele>557.3</ele>
<time>2003-09-19T06:28:24Z</time>
<speed>0.6</speed>
</trkpt>
<trkpt lat="47.461534" lon="8.754419">
<ele>559.0</ele>
<time>2003-09-19T06:28:29Z</time>
<speed>0.6</speed>
</trkpt>
<trkpt lat="47.461509" lon="8.754400">
<ele>560.2</ele>
<time>2003-09-19T06:28:34Z</time>
<speed>0.0</speed>
</trkpt>
<trkpt lat="47.461485" lon="8.754381">
<ele>561.4</ele>
<time>2003-09-19T06:28:39Z</time>
<speed>0.6</speed>
</trkpt>
<trkpt lat="47.461452" lon="8.754388">
<ele>562.0</ele>
<time>2003-09-19T06:28:44Z</time>
<speed>0.3</speed>
</trkpt>
<trkpt lat="47.461433" lon="8.754369">
<ele>563.9</ele>
<time>2003-09-19T06:28:49Z</time>
<speed>0.3</speed>
</trkpt>
<trkpt lat="47.461396" lon="8.754347">
<ele>565.0</ele>
<time>2003-09-19T06:28:55Z</time>
<speed>0.6</speed>
</trkpt>
<trkpt lat="47.461347" lon="8.754313">
<ele>564.5</ele>
<time>2003-09-19T06:29:00Z</time>
<speed>0.6</speed>
</trkpt>
<trkpt lat="47.461328" lon="8.754309">
<ele>565.1</ele>
<time>2003-09-19T06:29:05Z</time>
<speed>0.3</speed>
</trkpt>
<trkpt lat="47.461302" lon="8.754303">
<ele>566.4</ele>
<time>2003-09-19T06:29:10Z</time>
<speed>0.3</speed>
</trkpt>
<trkpt lat="47.461264" lon="8.754297">
<ele>566.2</ele>
<time>2003-09-19T06:29:15Z</time>
<speed>0.6</speed>
</trkpt>
<trkpt lat="47.461228" lon="8.754278">
<ele>565.9</ele>
<time>2003-09-19T06:29:20Z</time>
<speed>0.3</speed>
</trkpt>
<trkpt lat="47.461178" lon="8.754257">
<ele>565.5</ele>
<time>2003-09-19T06:29:25Z</time>
<speed>0.6</speed>
</trkpt>
<trkpt lat="47.461152" lon="8.754251">
<ele>566.8</ele>
<time>2003-09-19T06:29:30Z</time>
<speed>0.3</speed>
</trkpt>
<trkpt lat="47.461109" lon="8.754229">
<ele>567.1</ele>
<time>2003-09-19T06:29:35Z</time>
<speed>0.3</speed>
</trkpt>
<trkpt lat="47.461047" lon="8.754208">
<ele>565.3</ele>
<time>2003-09-19T06:29:40Z</time>
<speed>0.8</speed>
</trkpt>
<trkpt lat="47.460986" lon="8.754170">
<ele>566.1</ele>
<time>2003-09-19T06:29:45Z</time>
<speed>0.6</speed>
</trkpt>
<trkpt lat="47.460942" lon="8.754149">
<ele>566.5</ele>
<time>2003-09-19T06:29:50Z</time>
<speed>0.8</speed>
</trkpt>
<trkpt lat="47.460905" lon="8.754129">
<ele>566.2</ele>
<time>2003-09-19T06:29:55Z</time>
<speed>0.6</speed>
</trkpt>
<trkpt lat="47.460875" lon="8.754097">
<ele>566.5</ele>
<time>2003-09-19T06:30:00Z</time>
<speed>0.6</speed>
</trkpt>
<trkpt lat="47.460862" lon="8.754093">
<ele>567.9</ele>
<time>2003-09-19T06:30:05Z</time>
<speed>0.8</speed>
</trkpt>
<trkpt lat="47.460855" lon="8.754089">
<ele>569.9</ele>
<time>2003-09-19T06:30:10Z</time>
<speed>0.0</speed>
</trkpt>
<trkpt lat="47.460825" lon="8.754070">
<ele>570.4</ele>
<time>2003-09-19T06:30:15Z</time>
<speed>0.3</speed>
</trkpt>
<trkpt lat="47.460799" lon="8.754049">
<ele>572.9</ele>
<time>2003-09-19T06:30:20Z</time>
<speed>0.6</speed>
</trkpt>
<trkpt lat="47.460767" lon="8.754041">
<ele>574.9</ele>
<time>2003-09-19T06:30:25Z</time>
<speed>0.8</speed>
</trkpt>
<trkpt lat="47.460724" lon="8.754020">
<ele>575.2</ele>
<time>2003-09-19T06:30:30Z</time>
<speed>0.8</speed>
</trkpt>
<trkpt lat="47.460678" lon="8.754023">
<ele>577.2</ele>
<time>2003-09-19T06:30:35Z</time>
<speed>1.1</speed>
</trkpt>
<trkpt lat="47.460637" lon="8.754041">
<ele>578.6</ele>
<time>2003-09-19T06:30:40Z</time>
<speed>0.3</speed>
</trkpt>
<trkpt lat="47.460617" lon="8.754065">
<ele>578.0</ele>
<time>2003-09-19T06:30:45Z</time>
<speed>0.8</speed>
</trkpt>
<trkpt lat="47.460565" lon="8.754070">
<ele>577.8</ele>
<time>2003-09-19T06:30:50Z</time>
<speed>0.8</speed>
</trkpt>
<trkpt lat="47.460543" lon="8.754122">
<ele>576.0</ele>
<time>2003-09-19T06:30:55Z</time>
<speed>0.0</speed>
</trkpt>
<trkpt lat="47.460551" lon="8.754156">
<ele>582.0</ele>
<time>2003-09-19T06:31:00Z</time>
<speed>0.6</speed>
</trkpt>
<trkpt lat="47.460522" lon="8.754174">
<ele>584.9</ele>
<time>2003-09-19T06:31:05Z</time>
<speed>0.0</speed>
</trkpt>
<trkpt lat="47.460490" lon="8.754181">
<ele>585.5</ele>
<time>2003-09-19T06:31:10Z</time>
<speed>0.8</speed>
</trkpt>
<trkpt lat="47.460437" lon="8.754197">
<ele>586.9</ele>
<time>2003-09-19T06:31:15Z</time>
<speed>0.8</speed>
</trkpt>
<trkpt lat="47.460390" lon="8.754215">
<ele>587.5</ele>
<time>2003-09-19T06:31:20Z</time>
<speed>0.6</speed>
</trkpt>
<trkpt lat="47.460377" lon="8.754211">
<ele>588.9</ele>
<time>2003-09-19T06:31:25Z</time>
<speed>0.0</speed>
</trkpt>
<trkpt lat="47.460331" lon="8.754229">
<ele>589.5</ele>
<time>2003-09-19T06:31:30Z</time>
<speed>0.8</speed>
</trkpt>
<trkpt lat="47.460290" lon="8.754262">
<ele>589.6</ele>
<time>2003-09-19T06:31:35Z</time>
<speed>0.8</speed>
</trkpt>
<trkpt lat="47.460243" lon="8.754281">
<ele>590.3</ele>
<time>2003-09-19T06:31:40Z</time>
<speed>0.8</speed>
</trkpt>
<trkpt lat="47.460216" lon="8.754303">
<ele>590.4</ele>
<time>2003-09-19T06:31:45Z</time>
<speed>0.0</speed>
</trkpt>
<trkpt lat="47.460176" lon="8.754323">
<ele>590.4</ele>
<time>2003-09-19T06:31:50Z</time>
<speed>0.6</speed>
</trkpt>
<trkpt lat="47.460131" lon="8.754328">
<ele>590.9</ele>
<time>2003-09-19T06:31:55Z</time>
<speed>0.6</speed>
</trkpt>
<trkpt lat="47.460083" lon="8.754359">
<ele>591.7</ele>
<time>2003-09-19T06:32:00Z</time>
<speed>0.6</speed>
</trkpt>
<trkpt lat="47.460030" lon="8.754390">
<ele>591.8</ele>
<time>2003-09-19T06:32:05Z</time>
<speed>0.8</speed>
</trkpt>
<trkpt lat="47.459982" lon="8.754422">
<ele>592.5</ele>
<time>2003-09-19T06:32:10Z</time>
<speed>0.8</speed>
</trkpt>
<trkpt lat="47.459928" lon="8.754453">
<ele>592.6</ele>
<time>2003-09-19T06:32:15Z</time>
<speed>0.8</speed>
</trkpt>
<trkpt lat="47.459876" lon="8.754471">
<ele>592.5</ele>
<time>2003-09-19T06:32:20Z</time>
<speed>0.8</speed>
</trkpt>
<trkpt lat="47.459823" lon="8.754489">
<ele>592.4</ele>
<time>2003-09-19T06:32:25Z</time>
<speed>1.1</speed>
</trkpt>
<trkpt lat="47.459783" lon="8.754522">
<ele>592.5</ele>
<time>2003-09-19T06:32:30Z</time>
<speed>0.6</speed>
</trkpt>
<trkpt lat="47.459737" lon="8.754528">
<ele>593.1</ele>
<time>2003-09-19T06:32:35Z</time>
<speed>0.6</speed>
</trkpt>
<trkpt lat="47.459706" lon="8.754523">
<ele>592.2</ele>
<time>2003-09-19T06:32:40Z</time>
<speed>0.0</speed>
</trkpt>
<trkpt lat="47.459692" lon="8.754533">
<ele>593.7</ele>
<time>2003-09-19T06:32:45Z</time>
<speed>0.6</speed>
</trkpt>
<trkpt lat="47.459632" lon="8.754562">
<ele>594.4</ele>
<time>2003-09-19T06:32:50Z</time>
<speed>0.8</speed>
</trkpt>
<trkpt lat="47.459567" lon="8.754563">
<ele>595.5</ele>
<time>2003-09-19T06:32:55Z</time>
<speed>1.1</speed>
</trkpt>
<trkpt lat="47.459509" lon="8.754568">
<ele>594.6</ele>
<time>2003-09-19T06:33:00Z</time>
<speed>0.8</speed>
</trkpt>
<trkpt lat="47.459468" lon="8.754599">
<ele>596.1</ele>
<time>2003-09-19T06:33:05Z</time>
<speed>0.8</speed>
</trkpt>
<trkpt lat="47.459423" lon="8.754589">
<ele>598.0</ele>
<time>2003-09-19T06:33:10Z</time>
<speed>0.6</speed>
</trkpt>
<trkpt lat="47.459372" lon="8.754577">
<ele>600.5</ele>
<time>2003-09-19T06:33:15Z</time>
<speed>0.8</speed>
</trkpt>
<trkpt lat="47.459333" lon="8.754584">
<ele>600.4</ele>
<time>2003-09-19T06:33:20Z</time>
<speed>0.8</speed>
</trkpt>
<trkpt lat="47.459301" lon="8.754563">
<ele>602.3</ele>
<time>2003-09-19T06:33:25Z</time>
<speed>0.6</speed>
</trkpt>
<trkpt lat="47.459282" lon="8.754559">
<ele>602.9</ele>
<time>2003-09-19T06:33:30Z</time>
<speed>0.6</speed>
</trkpt>
<trkpt lat="47.459238" lon="8.754551">
<ele>603.3</ele>
<time>2003-09-19T06:33:35Z</time>
<speed>0.6</speed>
</trkpt>
<trkpt lat="47.459207" lon="8.754531">
<ele>603.7</ele>
<time>2003-09-19T06:33:40Z</time>
<speed>0.8</speed>
</trkpt>
<trkpt lat="47.459170" lon="8.754512">
<ele>603.4</ele>
<time>2003-09-19T06:33:45Z</time>
<speed>0.6</speed>
</trkpt>
<trkpt lat="47.459140" lon="8.754480">
<ele>603.8</ele>
<time>2003-09-19T06:33:50Z</time>
<speed>0.8</speed>
</trkpt>
<trkpt lat="47.459105" lon="8.754433">
<ele>604.7</ele>
<time>2003-09-19T06:33:55Z</time>
<speed>0.3</speed>
</trkpt>
<trkpt lat="47.459088" lon="8.754402">
<ele>605.0</ele>
<time>2003-09-19T06:34:00Z</time>
<speed>0.0</speed>
</trkpt>
<trkpt lat="47.459052" lon="8.754370">
<ele>604.6</ele>
<time>2003-09-19T06:34:05Z</time>
<speed>0.3</speed>
</trkpt>
<trkpt lat="47.459028" lon="8.754338">
<ele>605.7</ele>
<time>2003-09-19T06:34:10Z</time>
<speed>0.6</speed>
</trkpt>
<trkpt lat="47.458987" lon="8.754290">
<ele>605.9</ele>
<time>2003-09-19T06:34:15Z</time>
<speed>0.6</speed>
</trkpt>
<trkpt lat="47.458946" lon="8.754230">
<ele>605.9</ele>
<time>2003-09-19T06:34:20Z</time>
<speed>0.6</speed>
</trkpt>
<trkpt lat="47.458917" lon="8.754183">
<ele>607.5</ele>
<time>2003-09-19T06:34:25Z</time>
<speed>0.3</speed>
</trkpt>
<trkpt lat="47.458888" lon="8.754137">
<ele>607.8</ele>
<time>2003-09-19T06:34:30Z</time>
<speed>0.6</speed>
</trkpt>
<trkpt lat="47.458859" lon="8.754090">
<ele>609.4</ele>
<time>2003-09-19T06:34:35Z</time>
<speed>0.6</speed>
</trkpt>
<trkpt lat="47.458836" lon="8.754060">
<ele>609.0</ele>
<time>2003-09-19T06:34:40Z</time>
<speed>0.6</speed>
</trkpt>
<trkpt lat="47.458802" lon="8.753999">
<ele>609.8</ele>
<time>2003-09-19T06:34:45Z</time>
<speed>0.6</speed>
</trkpt>
<trkpt lat="47.458774" lon="8.753941">
<ele>609.9</ele>
<time>2003-09-19T06:34:50Z</time>
<speed>0.6</speed>
</trkpt>
<trkpt lat="47.458734" lon="8.753867">
<ele>609.9</ele>
<time>2003-09-19T06:34:55Z</time>
<speed>0.8</speed>
</trkpt>
<trkpt lat="47.458700" lon="8.753806">
<ele>610.7</ele>
<time>2003-09-19T06:35:00Z</time>
<speed>0.6</speed>
</trkpt>
<trkpt lat="47.458648" lon="8.753733">
<ele>609.2</ele>
<time>2003-09-19T06:35:05Z</time>
<speed>0.6</speed>
</trkpt>
<trkpt lat="47.458615" lon="8.753674">
<ele>608.5</ele>
<time>2003-09-19T06:35:10Z</time>
<speed>0.6</speed>
</trkpt>
<trkpt lat="47.458580" lon="8.753614">
<ele>609.3</ele>
<time>2003-09-19T06:35:15Z</time>
<speed>0.6</speed>
</trkpt>
<trkpt lat="47.458569" lon="8.753584">
<ele>610.5</ele>
<time>2003-09-19T06:35:20Z</time>
<speed>0.0</speed>
</trkpt>
<trkpt lat="47.458546" lon="8.753538">
<ele>611.4</ele>
<time>2003-09-19T06:35:25Z</time>
<speed>0.3</speed>
</trkpt>
<trkpt lat="47.458523" lon="8.753506">
<ele>612.5</ele>
<time>2003-09-19T06:35:30Z</time>
<speed>0.6</speed>
</trkpt>
<trkpt lat="47.458506" lon="8.753461">
<ele>614.2</ele>
<time>2003-09-19T06:35:35Z</time>
<speed>0.3</speed>
</trkpt>
<trkpt lat="47.458483" lon="8.753415">
<ele>615.1</ele>
<time>2003-09-19T06:35:40Z</time>
<speed>0.3</speed>
</trkpt>
<trkpt lat="47.458461" lon="8.753355">
<ele>617.4</ele>
<time>2003-09-19T06:35:45Z</time>
<speed>0.3</speed>
</trkpt>
<trkpt lat="47.458445" lon="8.753309">
<ele>619.1</ele>
<time>2003-09-19T06:35:50Z</time>
<speed>0.0</speed>
</trkpt>
<trkpt lat="47.458428" lon="8.753279">
<ele>619.5</ele>
<time>2003-09-19T06:35:55Z</time>
<speed>0.3</speed>
</trkpt>
<trkpt lat="47.458386" lon="8.753232">
<ele>619.6</ele>
<time>2003-09-19T06:36:00Z</time>
<speed>0.6</speed>
</trkpt>
<trkpt lat="47.458345" lon="8.753169">
<ele>621.1</ele>
<time>2003-09-19T06:36:05Z</time>
<speed>0.6</speed>
</trkpt>
<trkpt lat="47.458315" lon="8.753135">
<ele>622.8</ele>
<time>2003-09-19T06:36:10Z</time>
<speed>0.3</speed>
</trkpt>
<trkpt lat="47.458280" lon="8.753088">
<ele>623.7</ele>
<time>2003-09-19T06:36:15Z</time>
<speed>0.3</speed>
</trkpt>
<trkpt lat="47.458250" lon="8.753055">
<ele>624.0</ele>
<time>2003-09-19T06:36:20Z</time>
<speed>0.6</speed>
</trkpt>
<trkpt lat="47.458203" lon="8.752993">
<ele>624.8</ele>
<time>2003-09-19T06:36:26Z</time>
<speed>0.3</speed>
</trkpt>
<trkpt lat="47.458167" lon="8.752958">
<ele>625.8</ele>
<time>2003-09-19T06:36:31Z</time>
<speed>0.3</speed>
</trkpt>
<trkpt lat="47.458125" lon="8.752911">
<ele>625.9</ele>
<time>2003-09-19T06:36:36Z</time>
<speed>0.6</speed>
</trkpt>
<trkpt lat="47.458071" lon="8.752860">
<ele>627.4</ele>
<time>2003-09-19T06:36:41Z</time>
<speed>0.6</speed>
</trkpt>
<trkpt lat="47.458023" lon="8.752810">
<ele>628.2</ele>
<time>2003-09-19T06:36:46Z</time>
<speed>0.6</speed>
</trkpt>
<trkpt lat="47.457993" lon="8.752763">
<ele>629.8</ele>
<time>2003-09-19T06:36:51Z</time>
<speed>0.6</speed>
</trkpt>
<trkpt lat="47.457951" lon="8.752729">
<ele>630.1</ele>
<time>2003-09-19T06:36:56Z</time>
<speed>0.6</speed>
</trkpt>
<trkpt lat="47.457921" lon="8.752694">
<ele>631.8</ele>
<time>2003-09-19T06:37:01Z</time>
<speed>0.6</speed>
</trkpt>
<trkpt lat="47.457879" lon="8.752645">
<ele>633.4</ele>
<time>2003-09-19T06:37:06Z</time>
<speed>0.6</speed>
</trkpt>
<trkpt lat="47.457843" lon="8.752613">
<ele>633.0</ele>
<time>2003-09-19T06:37:11Z</time>
<speed>0.6</speed>
</trkpt>
<trkpt lat="47.457812" lon="8.752593">
<ele>633.4</ele>
<time>2003-09-19T06:37:16Z</time>
<speed>0.3</speed>
</trkpt>
<trkpt lat="47.457768" lon="8.752570">
<ele>635.2</ele>
<time>2003-09-19T06:37:21Z</time>
<speed>0.8</speed>
</trkpt>
<trkpt lat="47.457726" lon="8.752536">
<ele>635.4</ele>
<time>2003-09-19T06:37:26Z</time>
<speed>0.6</speed>
</trkpt>
<trkpt lat="47.457707" lon="8.752532">
<ele>636.0</ele>
<time>2003-09-19T06:37:31Z</time>
<speed>0.0</speed>
</trkpt>
<trkpt lat="47.457694" lon="8.752530">
<ele>636.0</ele>
<time>2003-09-19T06:37:36Z</time>
<speed>0.3</speed>
</trkpt>
<trkpt lat="47.457645" lon="8.752509">
<ele>635.6</ele>
<time>2003-09-19T06:37:41Z</time>
<speed>0.6</speed>
</trkpt>
<trkpt lat="47.457625" lon="8.752505">
<ele>636.2</ele>
<time>2003-09-19T06:37:46Z</time>
<speed>0.3</speed>
</trkpt>
<trkpt lat="47.457569" lon="8.752497">
<ele>635.2</ele>
<time>2003-09-19T06:37:51Z</time>
<speed>0.6</speed>
</trkpt>
<trkpt lat="47.457519" lon="8.752475">
<ele>634.8</ele>
<time>2003-09-19T06:37:56Z</time>
<speed>0.6</speed>
</trkpt>
<trkpt lat="47.457444" lon="8.752465">
<ele>633.0</ele>
<time>2003-09-19T06:38:01Z</time>
<speed>0.8</speed>
</trkpt>
<trkpt lat="47.457405" lon="8.752472">
<ele>632.9</ele>
<time>2003-09-19T06:38:06Z</time>
<speed>0.3</speed>
</trkpt>
<trkpt lat="47.457368" lon="8.752453">
<ele>632.6</ele>
<time>2003-09-19T06:38:11Z</time>
<speed>0.3</speed>
</trkpt>
<trkpt lat="47.457311" lon="8.752458">
<ele>631.7</ele>
<time>2003-09-19T06:38:16Z</time>
<speed>0.6</speed>
</trkpt>
<trkpt lat="47.457265" lon="8.752463">
<ele>632.2</ele>
<time>2003-09-19T06:38:21Z</time>
<speed>0.8</speed>
</trkpt>
<trkpt lat="47.457231" lon="8.752481">
<ele>634.4</ele>
<time>2003-09-19T06:38:26Z</time>
<speed>0.6</speed>
</trkpt>
<trkpt lat="47.457184" lon="8.752500">
<ele>635.0</ele>
<time>2003-09-19T06:38:31Z</time>
<speed>0.6</speed>
</trkpt>
<trkpt lat="47.457142" lon="8.752546">
<ele>635.2</ele>
<time>2003-09-19T06:38:36Z</time>
<speed>0.6</speed>
</trkpt>
<trkpt lat="47.457108" lon="8.752581">
<ele>634.7</ele>
<time>2003-09-19T06:38:41Z</time>
<speed>0.3</speed>
</trkpt>
<trkpt lat="47.457075" lon="8.752586">
<ele>636.7</ele>
<time>2003-09-19T06:38:46Z</time>
<speed>0.0</speed>
</trkpt>
<trkpt lat="47.457067" lon="8.752613">
<ele>636.2</ele>
<time>2003-09-19T06:38:51Z</time>
<speed>0.0</speed>
</trkpt>
<trkpt lat="47.457053" lon="8.752624">
<ele>636.2</ele>
<time>2003-09-19T06:38:56Z</time>
<speed>0.0</speed>
</trkpt>
<trkpt lat="47.457072" lon="8.752611">
<ele>638.3</ele>
<time>2003-09-19T06:39:01Z</time>
<speed>0.0</speed>
</trkpt>
<trkpt lat="47.457085" lon="8.752613">
<ele>638.4</ele>
<time>2003-09-19T06:39:06Z</time>
<speed>0.0</speed>
</trkpt>
<trkpt lat="47.457086" lon="8.752599">
<ele>638.3</ele>
<time>2003-09-19T06:39:11Z</time>
<speed>0.0</speed>
</trkpt>
<trkpt lat="47.457086" lon="8.752599">
<ele>638.3</ele>
<time>2003-09-19T06:39:16Z</time>
<speed>0.0</speed>
</trkpt>
<trkpt lat="47.457086" lon="8.752599">
<ele>638.3</ele>
<time>2003-09-19T06:39:21Z</time>
<speed>0.0</speed>
</trkpt>
<trkpt lat="47.457086" lon="8.752599">
<ele>638.3</ele>
<time>2003-09-19T06:39:26Z</time>
<speed>0.0</speed>
</trkpt>
<trkpt lat="47.457086" lon="8.752599">
<ele>638.3</ele>
<time>2003-09-19T06:39:31Z</time>
<speed>0.0</speed>
</trkpt>
<trkpt lat="47.457086" lon="8.752599">
<ele>638.3</ele>
<time>2003-09-19T06:39:36Z</time>
<speed>0.0</speed>
</trkpt>
<trkpt lat="47.457085" lon="8.752613">
<ele>638.4</ele>
<time>2003-09-19T06:39:41Z</time>
<speed>0.0</speed>
</trkpt>
<trkpt lat="47.457085" lon="8.752613">
<ele>638.4</ele>
<time>2003-09-19T06:39:46Z</time>
<speed>0.3</speed>
</trkpt>
<trkpt lat="47.457072" lon="8.752611">
<ele>638.3</ele>
<time>2003-09-19T06:39:51Z</time>
<speed>0.0</speed>
</trkpt>
<trkpt lat="47.457072" lon="8.752611">
<ele>638.3</ele>
<time>2003-09-19T06:39:56Z</time>
<speed>0.0</speed>
</trkpt>
<trkpt lat="47.457066" lon="8.752611">
<ele>637.6</ele>
<time>2003-09-19T06:40:01Z</time>
<speed>0.0</speed>
</trkpt>
<trkpt lat="47.457060" lon="8.752611">
<ele>636.9</ele>
<time>2003-09-19T06:40:06Z</time>
<speed>0.0</speed>
</trkpt>
<trkpt lat="47.457060" lon="8.752611">
<ele>636.9</ele>
<time>2003-09-19T06:40:11Z</time>
<speed>0.0</speed>
</trkpt>
<trkpt lat="47.457061" lon="8.752597">
<ele>636.8</ele>
<time>2003-09-19T06:40:16Z</time>
<speed>0.0</speed>
</trkpt>
<trkpt lat="47.457061" lon="8.752597">
<ele>636.8</ele>
<time>2003-09-19T06:40:21Z</time>
<speed>0.0</speed>
</trkpt>
<trkpt lat="47.457061" lon="8.752597">
<ele>636.8</ele>
<time>2003-09-19T06:40:26Z</time>
<speed>0.0</speed>
</trkpt>
<trkpt lat="47.457068" lon="8.752599">
<ele>636.1</ele>
<time>2003-09-19T06:40:31Z</time>
<speed>0.0</speed>
</trkpt>
<trkpt lat="47.457062" lon="8.752599">
<ele>635.4</ele>
<time>2003-09-19T06:40:36Z</time>
<speed>0.0</speed>
</trkpt>
<trkpt lat="47.457062" lon="8.752599">
<ele>635.4</ele>
<time>2003-09-19T06:40:41Z</time>
<speed>0.0</speed>
</trkpt>
<trkpt lat="47.457068" lon="8.752601">
<ele>634.7</ele>
<time>2003-09-19T06:40:46Z</time>
<speed>0.0</speed>
</trkpt>
<trkpt lat="47.457068" lon="8.752601">
<ele>634.7</ele>
<time>2003-09-19T06:40:51Z</time>
<speed>0.0</speed>
</trkpt>
<trkpt lat="47.457068" lon="8.752601">
<ele>634.7</ele>
<time>2003-09-19T06:40:56Z</time>
<speed>0.0</speed>
</trkpt>
<trkpt lat="47.457068" lon="8.752601">
<ele>634.7</ele>
<time>2003-09-19T06:41:01Z</time>
<speed>0.0</speed>
</trkpt>
<trkpt lat="47.457068" lon="8.752601">
<ele>634.7</ele>
<time>2003-09-19T06:41:06Z</time>
<speed>0.0</speed>
</trkpt>
<trkpt lat="47.457068" lon="8.752601">
<ele>634.7</ele>
<time>2003-09-19T06:41:11Z</time>
<speed>0.0</speed>
</trkpt>
<trkpt lat="47.457081" lon="8.752603">
<ele>634.8</ele>
<time>2003-09-19T06:41:16Z</time>
<speed>0.3</speed>
</trkpt>
<trkpt lat="47.457075" lon="8.752603">
<ele>634.0</ele>
<time>2003-09-19T06:41:21Z</time>
<speed>0.0</speed>
</trkpt>
<trkpt lat="47.457075" lon="8.752603">
<ele>634.0</ele>
<time>2003-09-19T06:41:26Z</time>
<speed>0.0</speed>
</trkpt>
<trkpt lat="47.457074" lon="8.752617">
<ele>634.1</ele>
<time>2003-09-19T06:41:31Z</time>
<speed>0.0</speed>
</trkpt>
<trkpt lat="47.457074" lon="8.752617">
<ele>634.1</ele>
<time>2003-09-19T06:41:36Z</time>
<speed>0.0</speed>
</trkpt>
<trkpt lat="47.457074" lon="8.752617">
<ele>634.1</ele>
<time>2003-09-19T06:41:41Z</time>
<speed>0.0</speed>
</trkpt>
<trkpt lat="47.457074" lon="8.752617">
<ele>634.1</ele>
<time>2003-09-19T06:41:46Z</time>
<speed>0.0</speed>
</trkpt>
<trkpt lat="47.457074" lon="8.752617">
<ele>634.1</ele>
<time>2003-09-19T06:41:51Z</time>
<speed>0.0</speed>
</trkpt>
<trkpt lat="47.457073" lon="8.752630">
<ele>634.2</ele>
<time>2003-09-19T06:41:56Z</time>
<speed>0.0</speed>
</trkpt>
<trkpt lat="47.457073" lon="8.752630">
<ele>634.2</ele>
<time>2003-09-19T06:42:01Z</time>
<speed>0.0</speed>
</trkpt>
<trkpt lat="47.457067" lon="8.752630">
<ele>633.5</ele>
<time>2003-09-19T06:42:06Z</time>
<speed>0.0</speed>
</trkpt>
<trkpt lat="47.457074" lon="8.752619">
<ele>632.7</ele>
<time>2003-09-19T06:42:11Z</time>
<speed>0.0</speed>
</trkpt>
<trkpt lat="47.457080" lon="8.752619">
<ele>633.5</ele>
<time>2003-09-19T06:42:16Z</time>
<speed>0.0</speed>
</trkpt>
<trkpt lat="47.457087" lon="8.752621">
<ele>632.8</ele>
<time>2003-09-19T06:42:21Z</time>
<speed>0.0</speed>
</trkpt>
<trkpt lat="47.457087" lon="8.752621">
<ele>632.8</ele>
<time>2003-09-19T06:42:26Z</time>
<speed>0.0</speed>
</trkpt>
<trkpt lat="47.457098" lon="8.752636">
<ele>633.0</ele>
<time>2003-09-19T06:42:31Z</time>
<speed>0.3</speed>
</trkpt>
<trkpt lat="47.457070" lon="8.752671">
<ele>633.1</ele>
<time>2003-09-19T06:42:36Z</time>
<speed>0.6</speed>
</trkpt>
<trkpt lat="47.457069" lon="8.752684">
<ele>633.2</ele>
<time>2003-09-19T06:42:41Z</time>
<speed>0.0</speed>
</trkpt>
<trkpt lat="47.457064" lon="8.752669">
<ele>633.8</ele>
<time>2003-09-19T06:42:46Z</time>
<speed>0.0</speed>
</trkpt>
<trkpt lat="47.457064" lon="8.752669">
<ele>633.8</ele>
<time>2003-09-19T06:42:51Z</time>
<speed>0.0</speed>
</trkpt>
<trkpt lat="47.457064" lon="8.752669">
<ele>633.8</ele>
<time>2003-09-19T06:42:56Z</time>
<speed>0.0</speed>
</trkpt>
<trkpt lat="47.457063" lon="8.752682">
<ele>633.9</ele>
<time>2003-09-19T06:43:01Z</time>
<speed>0.3</speed>
</trkpt>
<trkpt lat="47.457055" lon="8.752693">
<ele>634.7</ele>
<time>2003-09-19T06:43:06Z</time>
<speed>0.0</speed>
</trkpt>
<trkpt lat="47.457046" lon="8.752717">
<ele>635.5</ele>
<time>2003-09-19T06:43:11Z</time>
<speed>0.0</speed>
</trkpt>
<trkpt lat="47.457046" lon="8.752717">
<ele>635.5</ele>
<time>2003-09-19T06:43:16Z</time>
<speed>0.0</speed>
</trkpt>
<trkpt lat="47.457046" lon="8.752717">
<ele>635.5</ele>
<time>2003-09-19T06:43:21Z</time>
<speed>0.0</speed>
</trkpt>
<trkpt lat="47.457046" lon="8.752717">
<ele>635.5</ele>
<time>2003-09-19T06:43:26Z</time>
<speed>0.0</speed>
</trkpt>
<trkpt lat="47.457046" lon="8.752717">
<ele>635.5</ele>
<time>2003-09-19T06:43:31Z</time>
<speed>0.0</speed>
</trkpt>
<trkpt lat="47.457046" lon="8.752717">
<ele>635.5</ele>
<time>2003-09-19T06:43:36Z</time>
<speed>0.0</speed>
</trkpt>
<trkpt lat="47.457045" lon="8.752730">
<ele>635.6</ele>
<time>2003-09-19T06:43:41Z</time>
<speed>0.0</speed>
</trkpt>
<trkpt lat="47.457045" lon="8.752730">
<ele>635.6</ele>
<time>2003-09-19T06:43:46Z</time>
<speed>0.0</speed>
</trkpt>
<trkpt lat="47.457045" lon="8.752730">
<ele>635.6</ele>
<time>2003-09-19T06:43:51Z</time>
<speed>0.0</speed>
</trkpt>
<trkpt lat="47.457045" lon="8.752730">
<ele>635.6</ele>
<time>2003-09-19T06:43:56Z</time>
<speed>0.0</speed>
</trkpt>
<trkpt lat="47.457045" lon="8.752730">
<ele>635.6</ele>
<time>2003-09-19T06:44:01Z</time>
<speed>0.0</speed>
</trkpt>
<trkpt lat="47.457052" lon="8.752733">
<ele>635.0</ele>
<time>2003-09-19T06:44:06Z</time>
<speed>0.0</speed>
</trkpt>
<trkpt lat="47.457052" lon="8.752733">
<ele>635.0</ele>
<time>2003-09-19T06:44:11Z</time>
<speed>0.0</speed>
</trkpt>
<trkpt lat="47.457058" lon="8.752748">
<ele>634.4</ele>
<time>2003-09-19T06:44:16Z</time>
<speed>0.0</speed>
</trkpt>
<trkpt lat="47.457058" lon="8.752748">
<ele>634.4</ele>
<time>2003-09-19T06:44:21Z</time>
<speed>0.0</speed>
</trkpt>
<trkpt lat="47.457058" lon="8.752748">
<ele>634.4</ele>
<time>2003-09-19T06:44:26Z</time>
<speed>0.0</speed>
</trkpt>
<trkpt lat="47.457058" lon="8.752748">
<ele>634.4</ele>
<time>2003-09-19T06:44:31Z</time>
<speed>0.0</speed>
</trkpt>
<trkpt lat="47.457050" lon="8.752759">
<ele>635.2</ele>
<time>2003-09-19T06:44:36Z</time>
<speed>0.6</speed>
</trkpt>
<trkpt lat="47.457049" lon="8.752772">
<ele>635.3</ele>
<time>2003-09-19T06:44:41Z</time>
<speed>0.3</speed>
</trkpt>
<trkpt lat="47.457027" lon="8.752809">
<ele>634.8</ele>
<time>2003-09-19T06:44:46Z</time>
<speed>0.6</speed>
</trkpt>
<trkpt lat="47.456992" lon="8.752842">
<ele>635.6</ele>
<time>2003-09-19T06:44:51Z</time>
<speed>0.6</speed>
</trkpt>
<trkpt lat="47.456970" lon="8.752878">
<ele>636.5</ele>
<time>2003-09-19T06:44:56Z</time>
<speed>0.3</speed>
</trkpt>
<trkpt lat="47.456941" lon="8.752926">
<ele>636.8</ele>
<time>2003-09-19T06:45:01Z</time>
<speed>0.8</speed>
</trkpt>
<trkpt lat="47.456918" lon="8.752974">
<ele>637.8</ele>
<time>2003-09-19T06:45:07Z</time>
<speed>0.6</speed>
</trkpt>
<trkpt lat="47.456875" lon="8.753034">
<ele>638.1</ele>
<time>2003-09-19T06:45:12Z</time>
<speed>0.8</speed>
</trkpt>
<trkpt lat="47.456852" lon="8.753084">
<ele>637.7</ele>
<time>2003-09-19T06:45:17Z</time>
<speed>0.6</speed>
</trkpt>
<trkpt lat="47.456847" lon="8.753150">
<ele>638.3</ele>
<time>2003-09-19T06:45:22Z</time>
<speed>0.6</speed>
</trkpt>
<trkpt lat="47.456817" lon="8.753211">
<ele>638.6</ele>
<time>2003-09-19T06:45:27Z</time>
<speed>0.8</speed>
</trkpt>
<trkpt lat="47.456787" lon="8.753258">
<ele>640.3</ele>
<time>2003-09-19T06:45:32Z</time>
<speed>0.8</speed>
</trkpt>
<trkpt lat="47.456751" lon="8.753304">
<ele>641.3</ele>
<time>2003-09-19T06:45:37Z</time>
<speed>0.6</speed>
</trkpt>
<trkpt lat="47.456721" lon="8.753350">
<ele>642.9</ele>
<time>2003-09-19T06:45:42Z</time>
<speed>0.8</speed>
</trkpt>
<trkpt lat="47.456692" lon="8.753399">
<ele>643.2</ele>
<time>2003-09-19T06:45:47Z</time>
<speed>0.6</speed>
</trkpt>
<trkpt lat="47.456661" lon="8.753458">
<ele>645.0</ele>
<time>2003-09-19T06:45:52Z</time>
<speed>0.6</speed>
</trkpt>
<trkpt lat="47.456637" lon="8.753522">
<ele>644.7</ele>
<time>2003-09-19T06:45:57Z</time>
<speed>0.6</speed>
</trkpt>
<trkpt lat="47.456620" lon="8.753585">
<ele>645.1</ele>
<time>2003-09-19T06:46:02Z</time>
<speed>0.6</speed>
</trkpt>
<trkpt lat="47.456597" lon="8.753636">
<ele>644.8</ele>
<time>2003-09-19T06:46:07Z</time>
<speed>0.6</speed>
</trkpt>
<trkpt lat="47.456559" lon="8.753708">
<ele>645.9</ele>
<time>2003-09-19T06:46:12Z</time>
<speed>0.6</speed>
</trkpt>
<trkpt lat="47.456515" lon="8.753796">
<ele>645.0</ele>
<time>2003-09-19T06:46:17Z</time>
<speed>0.8</speed>
</trkpt>
<trkpt lat="47.456475" lon="8.753897">
<ele>645.0</ele>
<time>2003-09-19T06:46:22Z</time>
<speed>0.6</speed>
</trkpt>
<trkpt lat="47.456432" lon="8.753954">
<ele>646.7</ele>
<time>2003-09-19T06:46:27Z</time>
<speed>0.6</speed>
</trkpt>
<trkpt lat="47.456383" lon="8.754014">
<ele>646.2</ele>
<time>2003-09-19T06:46:32Z</time>
<speed>1.1</speed>
</trkpt>
<trkpt lat="47.456361" lon="8.754049">
<ele>647.2</ele>
<time>2003-09-19T06:46:37Z</time>
<speed>0.8</speed>
</trkpt>
<trkpt lat="47.456312" lon="8.754093">
<ele>648.0</ele>
<time>2003-09-19T06:46:42Z</time>
<speed>1.1</speed>
</trkpt>
<trkpt lat="47.456264" lon="8.754138">
<ele>648.9</ele>
<time>2003-09-19T06:46:47Z</time>
<speed>0.6</speed>
</trkpt>
<trkpt lat="47.456241" lon="8.754186">
<ele>649.9</ele>
<time>2003-09-19T06:46:52Z</time>
<speed>0.6</speed>
</trkpt>
<trkpt lat="47.456199" lon="8.754217">
<ele>651.4</ele>
<time>2003-09-19T06:46:57Z</time>
<speed>0.6</speed>
</trkpt>
<trkpt lat="47.456164" lon="8.754251">
<ele>652.3</ele>
<time>2003-09-19T06:47:02Z</time>
<speed>0.6</speed>
</trkpt>
<trkpt lat="47.456117" lon="8.754284">
<ele>651.6</ele>
<time>2003-09-19T06:47:07Z</time>
<speed>0.6</speed>
</trkpt>
<trkpt lat="47.456056" lon="8.754341">
<ele>651.1</ele>
<time>2003-09-19T06:47:12Z</time>
<speed>1.1</speed>
</trkpt>
<trkpt lat="47.456001" lon="8.754386">
<ele>651.3</ele>
<time>2003-09-19T06:47:17Z</time>
<speed>1.1</speed>
</trkpt>
<trkpt lat="47.455955" lon="8.754404">
<ele>651.9</ele>
<time>2003-09-19T06:47:22Z</time>
<speed>0.8</speed>
</trkpt>
<trkpt lat="47.455901" lon="8.754435">
<ele>652.0</ele>
<time>2003-09-19T06:47:27Z</time>
<speed>0.6</speed>
</trkpt>
<trkpt lat="47.455830" lon="8.754436">
<ele>652.4</ele>
<time>2003-09-19T06:47:32Z</time>
<speed>0.8</speed>
</trkpt>
<trkpt lat="47.455783" lon="8.754467">
<ele>653.2</ele>
<time>2003-09-19T06:47:37Z</time>
<speed>0.8</speed>
</trkpt>
<trkpt lat="47.455736" lon="8.754501">
<ele>652.5</ele>
<time>2003-09-19T06:47:42Z</time>
<speed>0.3</speed>
</trkpt>
<trkpt lat="47.455677" lon="8.754519">
<ele>651.7</ele>
<time>2003-09-19T06:47:47Z</time>
<speed>0.6</speed>
</trkpt>
<trkpt lat="47.455617" lon="8.754563">
<ele>651.1</ele>
<time>2003-09-19T06:47:52Z</time>
<speed>0.6</speed>
</trkpt>
<trkpt lat="47.455564" lon="8.754596">
<ele>649.8</ele>
<time>2003-09-19T06:47:57Z</time>
<speed>0.6</speed>
</trkpt>
<trkpt lat="47.455517" lon="8.754630">
<ele>649.1</ele>
<time>2003-09-19T06:48:02Z</time>
<speed>0.8</speed>
</trkpt>
<trkpt lat="47.455463" lon="8.754661">
<ele>649.2</ele>
<time>2003-09-19T06:48:07Z</time>
<speed>0.8</speed>
</trkpt>
<trkpt lat="47.455435" lon="8.754696">
<ele>649.3</ele>
<time>2003-09-19T06:48:12Z</time>
<speed>0.3</speed>
</trkpt>
<trkpt lat="47.455388" lon="8.754729">
<ele>648.7</ele>
<time>2003-09-19T06:48:17Z</time>
<speed>0.6</speed>
</trkpt>
<trkpt lat="47.455345" lon="8.754774">
<ele>650.3</ele>
<time>2003-09-19T06:48:22Z</time>
<speed>0.6</speed>
</trkpt>
<trkpt lat="47.455293" lon="8.754775">
<ele>653.0</ele>
<time>2003-09-19T06:48:27Z</time>
<speed>0.3</speed>
</trkpt>
<trkpt lat="47.455253" lon="8.754793">
<ele>654.4</ele>
<time>2003-09-19T06:48:32Z</time>
<speed>0.3</speed>
</trkpt>
<trkpt lat="47.455184" lon="8.754848">
<ele>654.5</ele>
<time>2003-09-19T06:48:37Z</time>
<speed>0.3</speed>
</trkpt>
<trkpt lat="47.455145" lon="8.754853">
<ele>655.8</ele>
<time>2003-09-19T06:48:42Z</time>
<speed>0.3</speed>
</trkpt>
<trkpt lat="47.455109" lon="8.754900">
<ele>656.8</ele>
<time>2003-09-19T06:48:47Z</time>
<speed>0.6</speed>
</trkpt>
<trkpt lat="47.455044" lon="8.754914">
<ele>658.0</ele>
<time>2003-09-19T06:48:52Z</time>
<speed>1.1</speed>
</trkpt>
<trkpt lat="47.454997" lon="8.754932">
<ele>658.7</ele>
<time>2003-09-19T06:48:57Z</time>
<speed>0.8</speed>
</trkpt>
<trkpt lat="47.454938" lon="8.754950">
<ele>657.9</ele>
<time>2003-09-19T06:49:02Z</time>
<speed>0.8</speed>
</trkpt>
<trkpt lat="47.454901" lon="8.754944">
<ele>657.7</ele>
<time>2003-09-19T06:49:07Z</time>
<speed>0.3</speed>
</trkpt>
<trkpt lat="47.454834" lon="8.754895">
<ele>656.3</ele>
<time>2003-09-19T06:49:12Z</time>
<speed>0.6</speed>
</trkpt>
<trkpt lat="47.454787" lon="8.754849">
<ele>654.3</ele>
<time>2003-09-19T06:49:17Z</time>
<speed>0.8</speed>
</trkpt>
<trkpt lat="47.454740" lon="8.754802">
<ele>653.7</ele>
<time>2003-09-19T06:49:22Z</time>
<speed>0.6</speed>
</trkpt>
<trkpt lat="47.454704" lon="8.754772">
<ele>651.9</ele>
<time>2003-09-19T06:49:27Z</time>
<speed>0.8</speed>
</trkpt>
<trkpt lat="47.454676" lon="8.754726">
<ele>652.2</ele>
<time>2003-09-19T06:49:32Z</time>
<speed>0.6</speed>
</trkpt>
<trkpt lat="47.454661" lon="8.754670">
<ele>652.3</ele>
<time>2003-09-19T06:49:37Z</time>
<speed>0.6</speed>
</trkpt>
<trkpt lat="47.454638" lon="8.754624">
<ele>653.3</ele>
<time>2003-09-19T06:49:42Z</time>
<speed>0.6</speed>
</trkpt>
<trkpt lat="47.454623" lon="8.754568">
<ele>653.5</ele>
<time>2003-09-19T06:49:47Z</time>
<speed>0.8</speed>
</trkpt>
<trkpt lat="47.454589" lon="8.754494">
<ele>654.2</ele>
<time>2003-09-19T06:49:52Z</time>
<speed>0.6</speed>
</trkpt>
<trkpt lat="47.454573" lon="8.754466">
<ele>653.2</ele>
<time>2003-09-19T06:49:57Z</time>
<speed>0.0</speed>
</trkpt>
<trkpt lat="47.454533" lon="8.754393">
<ele>653.1</ele>
<time>2003-09-19T06:50:02Z</time>
<speed>0.8</speed>
</trkpt>
<trkpt lat="47.454458" lon="8.754289">
<ele>651.2</ele>
<time>2003-09-19T06:50:07Z</time>
<speed>0.8</speed>
</trkpt>
<trkpt lat="47.454426" lon="8.754217">
<ele>650.5</ele>
<time>2003-09-19T06:50:12Z</time>
<speed>0.8</speed>
</trkpt>
<trkpt lat="47.454405" lon="8.754148">
<ele>649.9</ele>
<time>2003-09-19T06:50:17Z</time>
<speed>0.6</speed>
</trkpt>
<trkpt lat="47.454384" lon="8.754089">
<ele>650.7</ele>
<time>2003-09-19T06:50:22Z</time>
<speed>0.3</speed>
</trkpt>
<trkpt lat="47.454349" lon="8.754029">
<ele>651.5</ele>
<time>2003-09-19T06:50:27Z</time>
<speed>0.8</speed>
</trkpt>
<trkpt lat="47.454323" lon="8.753957">
<ele>651.5</ele>
<time>2003-09-19T06:50:32Z</time>
<speed>0.6</speed>
</trkpt>
<trkpt lat="47.454319" lon="8.753916">
<ele>651.9</ele>
<time>2003-09-19T06:50:37Z</time>
<speed>0.3</speed>
</trkpt>
<trkpt lat="47.454272" lon="8.753853">
<ele>652.6</ele>
<time>2003-09-19T06:50:42Z</time>
<speed>0.6</speed>
</trkpt>
<trkpt lat="47.454257" lon="8.753797">
<ele>652.8</ele>
<time>2003-09-19T06:50:47Z</time>
<speed>0.6</speed>
</trkpt>
<trkpt lat="47.454216" lon="8.753734">
<ele>654.3</ele>
<time>2003-09-19T06:50:52Z</time>
<speed>0.6</speed>
</trkpt>
<trkpt lat="47.454194" lon="8.753676">
<ele>655.1</ele>
<time>2003-09-19T06:50:57Z</time>
<speed>0.6</speed>
</trkpt>
<trkpt lat="47.454168" lon="8.753604">
<ele>655.1</ele>
<time>2003-09-19T06:51:02Z</time>
<speed>0.3</speed>
</trkpt>
<trkpt lat="47.454151" lon="8.753559">
<ele>656.8</ele>
<time>2003-09-19T06:51:07Z</time>
<speed>0.3</speed>
</trkpt>
<trkpt lat="47.454134" lon="8.753531">
<ele>655.8</ele>
<time>2003-09-19T06:51:12Z</time>
<speed>0.6</speed>
</trkpt>
<trkpt lat="47.454088" lon="8.753470">
<ele>655.1</ele>
<time>2003-09-19T06:51:17Z</time>
<speed>0.6</speed>
</trkpt>
<trkpt lat="47.454078" lon="8.753429">
<ele>654.8</ele>
<time>2003-09-19T06:51:22Z</time>
<speed>0.8</speed>
</trkpt>
<trkpt lat="47.454057" lon="8.753372">
<ele>654.2</ele>
<time>2003-09-19T06:51:27Z</time>
<speed>0.3</speed>
</trkpt>
<trkpt lat="47.454041" lon="8.753329">
<ele>654.5</ele>
<time>2003-09-19T06:51:32Z</time>
<speed>0.6</speed>
</trkpt>
<trkpt lat="47.454026" lon="8.753274">
<ele>653.3</ele>
<time>2003-09-19T06:51:37Z</time>
<speed>0.3</speed>
</trkpt>
<trkpt lat="47.454005" lon="8.753218">
<ele>652.7</ele>
<time>2003-09-19T06:51:42Z</time>
<speed>0.6</speed>
</trkpt>
<trkpt lat="47.454008" lon="8.753179">
<ele>652.4</ele>
<time>2003-09-19T06:51:47Z</time>
<speed>0.0</speed>
</trkpt>
<trkpt lat="47.453980" lon="8.753120">
<ele>652.5</ele>
<time>2003-09-19T06:51:52Z</time>
<speed>0.6</speed>
</trkpt>
<trkpt lat="47.453966" lon="8.753051">
<ele>652.6</ele>
<time>2003-09-19T06:51:57Z</time>
<speed>0.3</speed>
</trkpt>
<trkpt lat="47.453997" lon="8.752991">
<ele>650.8</ele>
<time>2003-09-19T06:52:02Z</time>
<speed>0.3</speed>
</trkpt>
<trkpt lat="47.454007" lon="8.752941">
<ele>649.8</ele>
<time>2003-09-19T06:52:07Z</time>
<speed>0.6</speed>
</trkpt>
<trkpt lat="47.453993" lon="8.752886">
<ele>648.6</ele>
<time>2003-09-19T06:52:12Z</time>
<speed>0.3</speed>
</trkpt>
<trkpt lat="47.453996" lon="8.752847">
<ele>648.2</ele>
<time>2003-09-19T06:52:17Z</time>
<speed>0.3</speed>
</trkpt>
<trkpt lat="47.453980" lon="8.752806">
<ele>647.1</ele>
<time>2003-09-19T06:52:22Z</time>
<speed>0.3</speed>
</trkpt>
<trkpt lat="47.453965" lon="8.752749">
<ele>647.3</ele>
<time>2003-09-19T06:52:27Z</time>
<speed>0.3</speed>
</trkpt>
<trkpt lat="47.453938" lon="8.752678">
<ele>647.3</ele>
<time>2003-09-19T06:52:32Z</time>
<speed>0.3</speed>
</trkpt>
<trkpt lat="47.453930" lon="8.752623">
<ele>646.9</ele>
<time>2003-09-19T06:52:37Z</time>
<speed>0.3</speed>
</trkpt>
<trkpt lat="47.453914" lon="8.752567">
<ele>647.0</ele>
<time>2003-09-19T06:52:42Z</time>
<speed>0.6</speed>
</trkpt>
<trkpt lat="47.453894" lon="8.752495">
<ele>647.8</ele>
<time>2003-09-19T06:52:47Z</time>
<speed>0.3</speed>
</trkpt>
<trkpt lat="47.453873" lon="8.752439">
<ele>647.2</ele>
<time>2003-09-19T06:52:52Z</time>
<speed>0.3</speed>
</trkpt>
<trkpt lat="47.453877" lon="8.752386">
<ele>646.8</ele>
<time>2003-09-19T06:52:57Z</time>
<speed>0.6</speed>
</trkpt>
<trkpt lat="47.453849" lon="8.752345">
<ele>644.2</ele>
<time>2003-09-19T06:53:02Z</time>
<speed>0.3</speed>
</trkpt>
<trkpt lat="47.453822" lon="8.752291">
<ele>641.6</ele>
<time>2003-09-19T06:53:07Z</time>
<speed>0.3</speed>
</trkpt>
<trkpt lat="47.453764" lon="8.752234">
<ele>636.6</ele>
<time>2003-09-19T06:53:12Z</time>
<speed>0.3</speed>
</trkpt>
<trkpt lat="47.453741" lon="8.752204">
<ele>636.2</ele>
<time>2003-09-19T06:53:17Z</time>
<speed>0.3</speed>
</trkpt>
<trkpt lat="47.453719" lon="8.752160">
<ele>635.8</ele>
<time>2003-09-19T06:53:22Z</time>
<speed>0.3</speed>
</trkpt>
<trkpt lat="47.453694" lon="8.752143">
<ele>635.6</ele>
<time>2003-09-19T06:53:27Z</time>
<speed>0.3</speed>
</trkpt>
<trkpt lat="47.453652" lon="8.752111">
<ele>634.4</ele>
<time>2003-09-19T06:53:33Z</time>
<speed>0.6</speed>
</trkpt>
<trkpt lat="47.453630" lon="8.752066">
<ele>635.4</ele>
<time>2003-09-19T06:53:38Z</time>
<speed>0.3</speed>
</trkpt>
<trkpt lat="47.453602" lon="8.752005">
<ele>636.9</ele>
<time>2003-09-19T06:53:43Z</time>
<speed>0.6</speed>
</trkpt>
<trkpt lat="47.453571" lon="8.751971">
<ele>638.6</ele>
<time>2003-09-19T06:53:48Z</time>
<speed>0.3</speed>
</trkpt>
<trkpt lat="47.453555" lon="8.751928">
<ele>638.9</ele>
<time>2003-09-19T06:53:53Z</time>
<speed>0.3</speed>
</trkpt>
<trkpt lat="47.453568" lon="8.751932">
<ele>637.6</ele>
<time>2003-09-19T06:53:58Z</time>
<speed>0.6</speed>
</trkpt>
<trkpt lat="47.453549" lon="8.751947">
<ele>634.1</ele>
<time>2003-09-19T06:54:03Z</time>
<speed>0.3</speed>
</trkpt>
<trkpt lat="47.453555" lon="8.751979">
<ele>630.8</ele>
<time>2003-09-19T06:54:08Z</time>
<speed>0.0</speed>
</trkpt>
<trkpt lat="47.453586" lon="8.751983">
<ele>631.7</ele>
<time>2003-09-19T06:54:13Z</time>
<speed>0.3</speed>
</trkpt>
<trkpt lat="47.453625" lon="8.751991">
<ele>630.5</ele>
<time>2003-09-19T06:54:18Z</time>
<speed>0.0</speed>
</trkpt>
<trkpt lat="47.453625" lon="8.751991">
<ele>630.5</ele>
<time>2003-09-19T06:54:23Z</time>
<speed>0.0</speed>
</trkpt>
<trkpt lat="47.453625" lon="8.751991">
<ele>630.5</ele>
<time>2003-09-19T06:54:28Z</time>
<speed>0.0</speed>
</trkpt>
<trkpt lat="47.453633" lon="8.751965">
<ele>631.0</ele>
<time>2003-09-19T06:54:33Z</time>
<speed>0.3</speed>
</trkpt>
<trkpt lat="47.453662" lon="8.751917">
<ele>630.7</ele>
<time>2003-09-19T06:54:38Z</time>
<speed>0.3</speed>
</trkpt>
<trkpt lat="47.453679" lon="8.751866">
<ele>630.4</ele>
<time>2003-09-19T06:54:43Z</time>
<speed>0.3</speed>
</trkpt>
<trkpt lat="47.453699" lon="8.751840">
<ele>632.4</ele>
<time>2003-09-19T06:54:48Z</time>
<speed>0.0</speed>
</trkpt>
<trkpt lat="47.453728" lon="8.751790">
<ele>633.5</ele>
<time>2003-09-19T06:54:53Z</time>
<speed>0.3</speed>
</trkpt>
<trkpt lat="47.453756" lon="8.751754">
<ele>633.3</ele>
<time>2003-09-19T06:54:58Z</time>
<speed>0.0</speed>
</trkpt>
<trkpt lat="47.453772" lon="8.751717">
<ele>633.1</ele>
<time>2003-09-19T06:55:03Z</time>
<speed>0.3</speed>
</trkpt>
<trkpt lat="47.453788" lon="8.751667">
<ele>632.8</ele>
<time>2003-09-19T06:55:08Z</time>
<speed>0.3</speed>
</trkpt>
<trkpt lat="47.453804" lon="8.751629">
<ele>632.5</ele>
<time>2003-09-19T06:55:13Z</time>
<speed>0.3</speed>
</trkpt>
<trkpt lat="47.453812" lon="8.751603">
<ele>633.1</ele>
<time>2003-09-19T06:55:18Z</time>
<speed>0.3</speed>
</trkpt>
<trkpt lat="47.453829" lon="8.751553">
<ele>632.7</ele>
<time>2003-09-19T06:55:23Z</time>
<speed>0.3</speed>
</trkpt>
<trkpt lat="47.453833" lon="8.751500">
<ele>632.3</ele>
<time>2003-09-19T06:55:28Z</time>
<speed>0.3</speed>
</trkpt>
<trkpt lat="47.453837" lon="8.751433">
<ele>633.2</ele>
<time>2003-09-19T06:55:33Z</time>
<speed>0.3</speed>
</trkpt>
<trkpt lat="47.453836" lon="8.751365">
<ele>633.3</ele>
<time>2003-09-19T06:55:38Z</time>
<speed>0.6</speed>
</trkpt>
<trkpt lat="47.453852" lon="8.751313">
<ele>634.4</ele>
<time>2003-09-19T06:55:43Z</time>
<speed>0.3</speed>
</trkpt>
<trkpt lat="47.453872" lon="8.751302">
<ele>635.1</ele>
<time>2003-09-19T06:55:48Z</time>
<speed>0.6</speed>
</trkpt>
<trkpt lat="47.453900" lon="8.751266">
<ele>634.9</ele>
<time>2003-09-19T06:55:53Z</time>
<speed>0.3</speed>
</trkpt>
<trkpt lat="47.453922" lon="8.751229">
<ele>635.4</ele>
<time>2003-09-19T06:55:58Z</time>
<speed>0.3</speed>
</trkpt>
<trkpt lat="47.453932" lon="8.751177">
<ele>635.8</ele>
<time>2003-09-19T06:56:03Z</time>
<speed>0.6</speed>
</trkpt>
<trkpt lat="47.453922" lon="8.751135">
<ele>635.4</ele>
<time>2003-09-19T06:56:08Z</time>
<speed>0.6</speed>
</trkpt>
<trkpt lat="47.453914" lon="8.751081">
<ele>634.9</ele>
<time>2003-09-19T06:56:13Z</time>
<speed>0.6</speed>
</trkpt>
<trkpt lat="47.453916" lon="8.751039">
<ele>636.0</ele>
<time>2003-09-19T06:56:18Z</time>
<speed>0.8</speed>
</trkpt>
<trkpt lat="47.453916" lon="8.750959">
<ele>636.1</ele>
<time>2003-09-19T06:56:23Z</time>
<speed>0.8</speed>
</trkpt>
<trkpt lat="47.453902" lon="8.750891">
<ele>634.7</ele>
<time>2003-09-19T06:56:28Z</time>
<speed>0.8</speed>
</trkpt>
<trkpt lat="47.453896" lon="8.750798">
<ele>633.9</ele>
<time>2003-09-19T06:56:33Z</time>
<speed>1.1</speed>
</trkpt>
<trkpt lat="47.453896" lon="8.750717">
<ele>634.0</ele>
<time>2003-09-19T06:56:38Z</time>
<speed>0.8</speed>
</trkpt>
<trkpt lat="47.453889" lon="8.750636">
<ele>633.3</ele>
<time>2003-09-19T06:56:43Z</time>
<speed>1.1</speed>
</trkpt>
<trkpt lat="47.453890" lon="8.750542">
<ele>633.3</ele>
<time>2003-09-19T06:56:48Z</time>
<speed>1.1</speed>
</trkpt>
<trkpt lat="47.453889" lon="8.750462">
<ele>633.3</ele>
<time>2003-09-19T06:56:53Z</time>
<speed>1.1</speed>
</trkpt>
<trkpt lat="47.453889" lon="8.750381">
<ele>633.4</ele>
<time>2003-09-19T06:56:58Z</time>
<speed>1.4</speed>
</trkpt>
<trkpt lat="47.453896" lon="8.750289">
<ele>632.6</ele>
<time>2003-09-19T06:57:03Z</time>
<speed>1.1</speed>
</trkpt>
<trkpt lat="47.453895" lon="8.750209">
<ele>632.7</ele>
<time>2003-09-19T06:57:08Z</time>
<speed>1.1</speed>
</trkpt>
<trkpt lat="47.453896" lon="8.750115">
<ele>632.6</ele>
<time>2003-09-19T06:57:13Z</time>
<speed>1.4</speed>
</trkpt>
<trkpt lat="47.453896" lon="8.750021">
<ele>632.6</ele>
<time>2003-09-19T06:57:18Z</time>
<speed>1.1</speed>
</trkpt>
<trkpt lat="47.453896" lon="8.749941">
<ele>632.6</ele>
<time>2003-09-19T06:57:23Z</time>
<speed>1.1</speed>
</trkpt>
<trkpt lat="47.453902" lon="8.749862">
<ele>632.0</ele>
<time>2003-09-19T06:57:28Z</time>
<speed>1.1</speed>
</trkpt>
<trkpt lat="47.453895" lon="8.749781">
<ele>631.3</ele>
<time>2003-09-19T06:57:33Z</time>
<speed>1.1</speed>
</trkpt>
<trkpt lat="47.453901" lon="8.749703">
<ele>630.7</ele>
<time>2003-09-19T06:57:38Z</time>
<speed>0.3</speed>
</trkpt>
<trkpt lat="47.453908" lon="8.749703">
<ele>631.5</ele>
<time>2003-09-19T06:57:43Z</time>
<speed>0.0</speed>
</trkpt>
<trkpt lat="47.453908" lon="8.749703">
<ele>631.5</ele>
<time>2003-09-19T06:57:48Z</time>
<speed>0.0</speed>
</trkpt>
<trkpt lat="47.453908" lon="8.749703">
<ele>631.5</ele>
<time>2003-09-19T06:57:53Z</time>
<speed>0.0</speed>
</trkpt>
<trkpt lat="47.453908" lon="8.749703">
<ele>631.5</ele>
<time>2003-09-19T06:57:58Z</time>
<speed>0.0</speed>
</trkpt>
<trkpt lat="47.453934" lon="8.749694">
<ele>631.5</ele>
<time>2003-09-19T06:58:03Z</time>
<speed>0.0</speed>
</trkpt>
<trkpt lat="47.453928" lon="8.749694">
<ele>630.8</ele>
<time>2003-09-19T06:58:08Z</time>
<speed>0.0</speed>
</trkpt>
<trkpt lat="47.453928" lon="8.749694">
<ele>630.8</ele>
<time>2003-09-19T06:58:13Z</time>
<speed>0.0</speed>
</trkpt>
<trkpt lat="47.453934" lon="8.749694">
<ele>631.5</ele>
<time>2003-09-19T06:58:18Z</time>
<speed>0.0</speed>
</trkpt>
<trkpt lat="47.453934" lon="8.749694">
<ele>631.5</ele>
<time>2003-09-19T06:58:23Z</time>
<speed>0.0</speed>
</trkpt>
<trkpt lat="47.453934" lon="8.749694">
<ele>631.5</ele>
<time>2003-09-19T06:58:28Z</time>
<speed>0.0</speed>
</trkpt>
<trkpt lat="47.453934" lon="8.749694">
<ele>631.5</ele>
<time>2003-09-19T06:58:33Z</time>
<speed>0.0</speed>
</trkpt>
<trkpt lat="47.453934" lon="8.749694">
<ele>631.5</ele>
<time>2003-09-19T06:58:38Z</time>
<speed>0.0</speed>
</trkpt>
<trkpt lat="47.453934" lon="8.749694">
<ele>631.5</ele>
<time>2003-09-19T06:58:43Z</time>
<speed>0.0</speed>
</trkpt>
<trkpt lat="47.453934" lon="8.749694">
<ele>631.5</ele>
<time>2003-09-19T06:58:48Z</time>
<speed>0.0</speed>
</trkpt>
<trkpt lat="47.453934" lon="8.749694">
<ele>631.5</ele>
<time>2003-09-19T06:58:53Z</time>
<speed>0.0</speed>
</trkpt>
<trkpt lat="47.453934" lon="8.749694">
<ele>631.5</ele>
<time>2003-09-19T06:58:58Z</time>
<speed>0.0</speed>
</trkpt>
<trkpt lat="47.453934" lon="8.749694">
<ele>631.5</ele>
<time>2003-09-19T06:59:03Z</time>
<speed>0.0</speed>
</trkpt>
<trkpt lat="47.453934" lon="8.749694">
<ele>631.5</ele>
<time>2003-09-19T06:59:08Z</time>
<speed>0.0</speed>
</trkpt>
<trkpt lat="47.453934" lon="8.749694">
<ele>631.5</ele>
<time>2003-09-19T06:59:13Z</time>
<speed>0.0</speed>
</trkpt>
<trkpt lat="47.453934" lon="8.749694">
<ele>631.5</ele>
<time>2003-09-19T06:59:18Z</time>
<speed>0.0</speed>
</trkpt>
<trkpt lat="47.453934" lon="8.749694">
<ele>631.5</ele>
<time>2003-09-19T06:59:23Z</time>
<speed>0.0</speed>
</trkpt>
<trkpt lat="47.453934" lon="8.749694">
<ele>631.5</ele>
<time>2003-09-19T06:59:28Z</time>
<speed>0.0</speed>
</trkpt>
<trkpt lat="47.453934" lon="8.749694">
<ele>631.5</ele>
<time>2003-09-19T06:59:33Z</time>
<speed>0.0</speed>
</trkpt>
<trkpt lat="47.453934" lon="8.749694">
<ele>631.5</ele>
<time>2003-09-19T06:59:38Z</time>
<speed>0.0</speed>
</trkpt>
<trkpt lat="47.453923" lon="8.749665">
<ele>631.2</ele>
<time>2003-09-19T06:59:43Z</time>
<speed>0.8</speed>
</trkpt>
<trkpt lat="47.453929" lon="8.749587">
<ele>630.6</ele>
<time>2003-09-19T06:59:48Z</time>
<speed>0.8</speed>
</trkpt>
<trkpt lat="47.453930" lon="8.749574">
<ele>630.5</ele>
<time>2003-09-19T06:59:53Z</time>
<speed>0.6</speed>
</trkpt>
<trkpt lat="47.453932" lon="8.749467">
<ele>630.3</ele>
<time>2003-09-19T06:59:58Z</time>
<speed>1.4</speed>
</trkpt>
<trkpt lat="47.453932" lon="8.749373">
<ele>630.3</ele>
<time>2003-09-19T07:00:03Z</time>
<speed>1.1</speed>
</trkpt>
<trkpt lat="47.453939" lon="8.749281">
<ele>629.6</ele>
<time>2003-09-19T07:00:08Z</time>
<speed>1.4</speed>
</trkpt>
<trkpt lat="47.453940" lon="8.749188">
<ele>629.5</ele>
<time>2003-09-19T07:00:13Z</time>
<speed>1.1</speed>
</trkpt>
<trkpt lat="47.453946" lon="8.749094">
<ele>630.2</ele>
<time>2003-09-19T07:00:18Z</time>
<speed>1.4</speed>
</trkpt>
<trkpt lat="47.453946" lon="8.749013">
<ele>630.3</ele>
<time>2003-09-19T07:00:23Z</time>
<speed>1.1</speed>
</trkpt>
<trkpt lat="47.453953" lon="8.748919">
<ele>630.9</ele>
<time>2003-09-19T07:00:28Z</time>
<speed>1.4</speed>
</trkpt>
<trkpt lat="47.453953" lon="8.748826">
<ele>630.9</ele>
<time>2003-09-19T07:00:33Z</time>
<speed>1.1</speed>
</trkpt>
<trkpt lat="47.453954" lon="8.748732">
<ele>630.8</ele>
<time>2003-09-19T07:00:38Z</time>
<speed>1.4</speed>
</trkpt>
<trkpt lat="47.453955" lon="8.748625">
<ele>630.7</ele>
<time>2003-09-19T07:00:43Z</time>
<speed>1.1</speed>
</trkpt>
<trkpt lat="47.453961" lon="8.748546">
<ele>630.1</ele>
<time>2003-09-19T07:00:48Z</time>
<speed>1.1</speed>
</trkpt>
<trkpt lat="47.453961" lon="8.748466">
<ele>630.1</ele>
<time>2003-09-19T07:00:53Z</time>
<speed>1.4</speed>
</trkpt>
<trkpt lat="47.453960" lon="8.748385">
<ele>630.2</ele>
<time>2003-09-19T07:00:58Z</time>
<speed>0.8</speed>
</trkpt>
<trkpt lat="47.453956" lon="8.748357">
<ele>630.6</ele>
<time>2003-09-19T07:01:03Z</time>
<speed>0.8</speed>
</trkpt>
<trkpt lat="47.453955" lon="8.748276">
<ele>630.7</ele>
<time>2003-09-19T07:01:08Z</time>
<speed>1.1</speed>
</trkpt>
<trkpt lat="47.453954" lon="8.748209">
<ele>630.8</ele>
<time>2003-09-19T07:01:13Z</time>
<speed>0.8</speed>
</trkpt>
<trkpt lat="47.453989" lon="8.748160">
<ele>631.3</ele>
<time>2003-09-19T07:01:18Z</time>
<speed>0.8</speed>
</trkpt>
<trkpt lat="47.454054" lon="8.748142">
<ele>632.8</ele>
<time>2003-09-19T07:01:23Z</time>
<speed>1.1</speed>
</trkpt>
<trkpt lat="47.454112" lon="8.748139">
<ele>632.3</ele>
<time>2003-09-19T07:01:28Z</time>
<speed>1.1</speed>
</trkpt>
<trkpt lat="47.454182" lon="8.748138">
<ele>631.9</ele>
<time>2003-09-19T07:01:33Z</time>
<speed>1.1</speed>
</trkpt>
<trkpt lat="47.454242" lon="8.748122">
<ele>631.3</ele>
<time>2003-09-19T07:01:38Z</time>
<speed>1.4</speed>
</trkpt>
<trkpt lat="47.454301" lon="8.748106">
<ele>630.7</ele>
<time>2003-09-19T07:01:43Z</time>
<speed>1.1</speed>
</trkpt>
<trkpt lat="47.454361" lon="8.748077">
<ele>630.0</ele>
<time>2003-09-19T07:01:48Z</time>
<speed>1.1</speed>
</trkpt>
<trkpt lat="47.454421" lon="8.748047">
<ele>629.3</ele>
<time>2003-09-19T07:01:53Z</time>
<speed>1.4</speed>
</trkpt>
<trkpt lat="47.454481" lon="8.748018">
<ele>628.6</ele>
<time>2003-09-19T07:01:58Z</time>
<speed>1.4</speed>
</trkpt>
<trkpt lat="47.454548" lon="8.747991">
<ele>627.2</ele>
<time>2003-09-19T07:02:03Z</time>
<speed>1.4</speed>
</trkpt>
<trkpt lat="47.454608" lon="8.747962">
<ele>626.5</ele>
<time>2003-09-19T07:02:08Z</time>
<speed>1.4</speed>
</trkpt>
<trkpt lat="47.454668" lon="8.747933">
<ele>625.8</ele>
<time>2003-09-19T07:02:13Z</time>
<speed>1.1</speed>
</trkpt>
<trkpt lat="47.454722" lon="8.747888">
<ele>625.7</ele>
<time>2003-09-19T07:02:18Z</time>
<speed>1.1</speed>
</trkpt>
<trkpt lat="47.454782" lon="8.747859">
<ele>625.0</ele>
<time>2003-09-19T07:02:23Z</time>
<speed>1.4</speed>
</trkpt>
<trkpt lat="47.454836" lon="8.747828">
<ele>624.9</ele>
<time>2003-09-19T07:02:28Z</time>
<speed>1.1</speed>
</trkpt>
<trkpt lat="47.454896" lon="8.747798">
<ele>624.2</ele>
<time>2003-09-19T07:02:33Z</time>
<speed>1.1</speed>
</trkpt>
<trkpt lat="47.454950" lon="8.747767">
<ele>624.2</ele>
<time>2003-09-19T07:02:38Z</time>
<speed>1.1</speed>
</trkpt>
<trkpt lat="47.455010" lon="8.747738">
<ele>623.5</ele>
<time>2003-09-19T07:02:43Z</time>
<speed>1.4</speed>
</trkpt>
<trkpt lat="47.455063" lon="8.747707">
<ele>623.5</ele>
<time>2003-09-19T07:02:48Z</time>
<speed>1.1</speed>
</trkpt>
<trkpt lat="47.455123" lon="8.747675">
<ele>624.2</ele>
<time>2003-09-19T07:02:53Z</time>
<speed>1.4</speed>
</trkpt>
<trkpt lat="47.455183" lon="8.747646">
<ele>623.5</ele>
<time>2003-09-19T07:02:58Z</time>
<speed>1.1</speed>
</trkpt>
<trkpt lat="47.455236" lon="8.747615">
<ele>623.4</ele>
<time>2003-09-19T07:03:03Z</time>
<speed>1.1</speed>
</trkpt>
<trkpt lat="47.455290" lon="8.747584">
<ele>623.4</ele>
<time>2003-09-19T07:03:08Z</time>
<speed>1.1</speed>
</trkpt>
<trkpt lat="47.455350" lon="8.747555">
<ele>622.7</ele>
<time>2003-09-19T07:03:13Z</time>
<speed>1.1</speed>
</trkpt>
<trkpt lat="47.455410" lon="8.747523">
<ele>623.4</ele>
<time>2003-09-19T07:03:18Z</time>
<speed>1.1</speed>
</trkpt>
<trkpt lat="47.455469" lon="8.747507">
<ele>622.8</ele>
<time>2003-09-19T07:03:23Z</time>
<speed>1.1</speed>
</trkpt>
<trkpt lat="47.455522" lon="8.747476">
<ele>622.8</ele>
<time>2003-09-19T07:03:28Z</time>
<speed>1.1</speed>
</trkpt>
<trkpt lat="47.455570" lon="8.747429">
<ele>623.3</ele>
<time>2003-09-19T07:03:33Z</time>
<speed>1.1</speed>
</trkpt>
<trkpt lat="47.455602" lon="8.747355">
<ele>622.8</ele>
<time>2003-09-19T07:03:38Z</time>
<speed>1.1</speed>
</trkpt>
<trkpt lat="47.455614" lon="8.747276">
<ele>622.9</ele>
<time>2003-09-19T07:03:43Z</time>
<speed>1.1</speed>
</trkpt>
<trkpt lat="47.455620" lon="8.747198">
<ele>622.3</ele>
<time>2003-09-19T07:03:48Z</time>
<speed>0.8</speed>
</trkpt>
<trkpt lat="47.455625" lon="8.747117">
<ele>623.1</ele>
<time>2003-09-19T07:03:53Z</time>
<speed>1.1</speed>
</trkpt>
<trkpt lat="47.455632" lon="8.747025">
<ele>622.4</ele>
<time>2003-09-19T07:03:58Z</time>
<speed>1.1</speed>
</trkpt>
<trkpt lat="47.455638" lon="8.746945">
<ele>623.2</ele>
<time>2003-09-19T07:04:03Z</time>
<speed>1.1</speed>
</trkpt>
<trkpt lat="47.455645" lon="8.746853">
<ele>622.5</ele>
<time>2003-09-19T07:04:08Z</time>
<speed>1.1</speed>
</trkpt>
<trkpt lat="47.455646" lon="8.746759">
<ele>622.4</ele>
<time>2003-09-19T07:04:13Z</time>
<speed>1.4</speed>
</trkpt>
<trkpt lat="47.455645" lon="8.746678">
<ele>622.5</ele>
<time>2003-09-19T07:04:18Z</time>
<speed>0.8</speed>
</trkpt>
<trkpt lat="47.455652" lon="8.746585">
<ele>623.1</ele>
<time>2003-09-19T07:04:23Z</time>
<speed>1.1</speed>
</trkpt>
<trkpt lat="47.455652" lon="8.746491">
<ele>623.1</ele>
<time>2003-09-19T07:04:28Z</time>
<speed>1.1</speed>
</trkpt>
<trkpt lat="47.455639" lon="8.746408">
<ele>623.1</ele>
<time>2003-09-19T07:04:33Z</time>
<speed>1.1</speed>
</trkpt>
<trkpt lat="47.455626" lon="8.746326">
<ele>623.1</ele>
<time>2003-09-19T07:04:38Z</time>
<speed>1.1</speed>
</trkpt>
<trkpt lat="47.455602" lon="8.746230">
<ele>621.5</ele>
<time>2003-09-19T07:04:43Z</time>
<speed>1.1</speed>
</trkpt>
<trkpt lat="47.455583" lon="8.746132">
<ele>622.0</ele>
<time>2003-09-19T07:04:48Z</time>
<speed>1.1</speed>
</trkpt>
<trkpt lat="47.455564" lon="8.746049">
<ele>621.3</ele>
<time>2003-09-19T07:04:53Z</time>
<speed>0.8</speed>
</trkpt>
<trkpt lat="47.455538" lon="8.745965">
<ele>621.2</ele>
<time>2003-09-19T07:04:58Z</time>
<speed>1.1</speed>
</trkpt>
<trkpt lat="47.455530" lon="8.745897">
<ele>620.6</ele>
<time>2003-09-19T07:05:03Z</time>
<speed>0.8</speed>
</trkpt>
<trkpt lat="47.455511" lon="8.745812">
<ele>621.2</ele>
<time>2003-09-19T07:05:08Z</time>
<speed>1.1</speed>
</trkpt>
<trkpt lat="47.455499" lon="8.745717">
<ele>621.1</ele>
<time>2003-09-19T07:05:13Z</time>
<speed>1.4</speed>
</trkpt>
<trkpt lat="47.455485" lon="8.745632">
<ele>622.5</ele>
<time>2003-09-19T07:05:18Z</time>
<speed>1.1</speed>
</trkpt>
<trkpt lat="47.455466" lon="8.745549">
<ele>621.8</ele>
<time>2003-09-19T07:05:23Z</time>
<speed>1.1</speed>
</trkpt>
<trkpt lat="47.455433" lon="8.745463">
<ele>622.3</ele>
<time>2003-09-19T07:05:28Z</time>
<speed>1.1</speed>
</trkpt>
<trkpt lat="47.455413" lon="8.745393">
<ele>621.7</ele>
<time>2003-09-19T07:05:33Z</time>
<speed>1.4</speed>
</trkpt>
<trkpt lat="47.455375" lon="8.745306">
<ele>621.5</ele>
<time>2003-09-19T07:05:38Z</time>
<speed>1.1</speed>
</trkpt>
<trkpt lat="47.455349" lon="8.745222">
<ele>621.4</ele>
<time>2003-09-19T07:05:43Z</time>
<speed>1.1</speed>
</trkpt>
<trkpt lat="47.455329" lon="8.745152">
<ele>620.8</ele>
<time>2003-09-19T07:05:48Z</time>
<speed>0.8</speed>
</trkpt>
<trkpt lat="47.455315" lon="8.745083">
<ele>620.9</ele>
<time>2003-09-19T07:05:53Z</time>
<speed>0.8</speed>
</trkpt>
<trkpt lat="47.455294" lon="8.745011">
<ele>621.6</ele>
<time>2003-09-19T07:05:58Z</time>
<speed>0.8</speed>
</trkpt>
<trkpt lat="47.455280" lon="8.744941">
<ele>621.7</ele>
<time>2003-09-19T07:06:03Z</time>
<speed>0.8</speed>
</trkpt>
<trkpt lat="47.455258" lon="8.744883">
<ele>622.6</ele>
<time>2003-09-19T07:06:08Z</time>
<speed>0.8</speed>
</trkpt>
<trkpt lat="47.455237" lon="8.744811">
<ele>623.3</ele>
<time>2003-09-19T07:06:13Z</time>
<speed>1.1</speed>
</trkpt>
<trkpt lat="47.455204" lon="8.744753">
<ele>622.7</ele>
<time>2003-09-19T07:06:18Z</time>
<speed>0.8</speed>
</trkpt>
<trkpt lat="47.455182" lon="8.744694">
<ele>623.6</ele>
<time>2003-09-19T07:06:23Z</time>
<speed>0.8</speed>
</trkpt>
<trkpt lat="47.455161" lon="8.744623">
<ele>624.3</ele>
<time>2003-09-19T07:06:28Z</time>
<speed>0.6</speed>
</trkpt>
<trkpt lat="47.455153" lon="8.744553">
<ele>625.2</ele>
<time>2003-09-19T07:06:33Z</time>
<speed>0.8</speed>
</trkpt>
<trkpt lat="47.455145" lon="8.744499">
<ele>624.7</ele>
<time>2003-09-19T07:06:38Z</time>
<speed>0.6</speed>
</trkpt>
<trkpt lat="47.455177" lon="8.744507">
<ele>622.7</ele>
<time>2003-09-19T07:06:43Z</time>
<speed>0.8</speed>
</trkpt>
<trkpt lat="47.455231" lon="8.744558">
<ele>621.2</ele>
<time>2003-09-19T07:06:48Z</time>
<speed>1.1</speed>
</trkpt>
<trkpt lat="47.455265" lon="8.744617">
<ele>621.9</ele>
<time>2003-09-19T07:06:53Z</time>
<speed>0.8</speed>
</trkpt>
<trkpt lat="47.455292" lon="8.744688">
<ele>621.8</ele>
<time>2003-09-19T07:06:58Z</time>
<speed>1.1</speed>
</trkpt>
<trkpt lat="47.455326" lon="8.744747">
<ele>622.5</ele>
<time>2003-09-19T07:07:03Z</time>
<speed>0.8</speed>
</trkpt>
<trkpt lat="47.455366" lon="8.744807">
<ele>622.4</ele>
<time>2003-09-19T07:07:08Z</time>
<speed>1.1</speed>
</trkpt>
<trkpt lat="47.455387" lon="8.744864">
<ele>623.0</ele>
<time>2003-09-19T07:07:13Z</time>
<speed>0.8</speed>
</trkpt>
<trkpt lat="47.455416" lon="8.744909">
<ele>622.7</ele>
<time>2003-09-19T07:07:18Z</time>
<speed>0.8</speed>
</trkpt>
<trkpt lat="47.455451" lon="8.744876">
<ele>621.9</ele>
<time>2003-09-19T07:07:23Z</time>
<speed>1.1</speed>
</trkpt>
<trkpt lat="47.455489" lon="8.744803">
<ele>620.7</ele>
<time>2003-09-19T07:07:28Z</time>
<speed>0.8</speed>
</trkpt>
<trkpt lat="47.455550" lon="8.744759">
<ele>621.3</ele>
<time>2003-09-19T07:07:33Z</time>
<speed>0.8</speed>
</trkpt>
<trkpt lat="47.455591" lon="8.744713">
<ele>621.1</ele>
<time>2003-09-19T07:07:38Z</time>
<speed>1.1</speed>
</trkpt>
<trkpt lat="47.455639" lon="8.744666">
<ele>621.7</ele>
<time>2003-09-19T07:07:43Z</time>
<speed>0.8</speed>
</trkpt>
<trkpt lat="47.455681" lon="8.744698">
<ele>622.8</ele>
<time>2003-09-19T07:07:48Z</time>
<speed>0.8</speed>
</trkpt>
<trkpt lat="47.455721" lon="8.744772">
<ele>622.9</ele>
<time>2003-09-19T07:07:53Z</time>
<speed>1.4</speed>
</trkpt>
<trkpt lat="47.455775" lon="8.744821">
<ele>622.8</ele>
<time>2003-09-19T07:07:58Z</time>
<speed>1.1</speed>
</trkpt>
<trkpt lat="47.455821" lon="8.744882">
<ele>623.5</ele>
<time>2003-09-19T07:08:03Z</time>
<speed>1.1</speed>
</trkpt>
<trkpt lat="47.455863" lon="8.744929">
<ele>623.3</ele>
<time>2003-09-19T07:08:08Z</time>
<speed>0.8</speed>
</trkpt>
<trkpt lat="47.455899" lon="8.744964">
<ele>622.3</ele>
<time>2003-09-19T07:08:13Z</time>
<speed>0.6</speed>
</trkpt>
<trkpt lat="47.455937" lon="8.744970">
<ele>622.5</ele>
<time>2003-09-19T07:08:18Z</time>
<speed>0.6</speed>
</trkpt>
<trkpt lat="47.455980" lon="8.744991">
<ele>622.2</ele>
<time>2003-09-19T07:08:23Z</time>
<speed>1.1</speed>
</trkpt>
<trkpt lat="47.456024" lon="8.745012">
<ele>621.8</ele>
<time>2003-09-19T07:08:28Z</time>
<speed>0.8</speed>
</trkpt>
<trkpt lat="47.456063" lon="8.745007">
<ele>620.5</ele>
<time>2003-09-19T07:08:33Z</time>
<speed>0.6</speed>
</trkpt>
<trkpt lat="47.456077" lon="8.744996">
<ele>620.5</ele>
<time>2003-09-19T07:08:38Z</time>
<speed>0.0</speed>
</trkpt>
<trkpt lat="47.456078" lon="8.744983">
<ele>620.4</ele>
<time>2003-09-19T07:08:43Z</time>
<speed>0.0</speed>
</trkpt>
<trkpt lat="47.456098" lon="8.744974">
<ele>619.7</ele>
<time>2003-09-19T07:08:48Z</time>
<speed>0.3</speed>
</trkpt>
<trkpt lat="47.456095" lon="8.744932">
<ele>620.0</ele>
<time>2003-09-19T07:08:53Z</time>
<speed>0.8</speed>
</trkpt>
<trkpt lat="47.456076" lon="8.744915">
<ele>620.5</ele>
<time>2003-09-19T07:08:58Z</time>
<speed>0.6</speed>
</trkpt>
<trkpt lat="47.456076" lon="8.744915">
<ele>620.5</ele>
<time>2003-09-19T07:09:03Z</time>
<speed>0.0</speed>
</trkpt>
<trkpt lat="47.456097" lon="8.744889">
<ele>622.5</ele>
<time>2003-09-19T07:09:08Z</time>
<speed>0.3</speed>
</trkpt>
<trkpt lat="47.456111" lon="8.744863">
<ele>623.8</ele>
<time>2003-09-19T07:09:13Z</time>
<speed>0.3</speed>
</trkpt>
<trkpt lat="47.456125" lon="8.744839">
<ele>623.7</ele>
<time>2003-09-19T07:09:18Z</time>
<speed>0.8</speed>
</trkpt>
<trkpt lat="47.456156" lon="8.744777">
<ele>623.3</ele>
<time>2003-09-19T07:09:23Z</time>
<speed>1.1</speed>
</trkpt>
<trkpt lat="47.456193" lon="8.744702">
<ele>623.5</ele>
<time>2003-09-19T07:09:28Z</time>
<speed>1.1</speed>
</trkpt>
<trkpt lat="47.456223" lon="8.744641">
<ele>623.2</ele>
<time>2003-09-19T07:09:33Z</time>
<speed>1.1</speed>
</trkpt>
<trkpt lat="47.456260" lon="8.744579">
<ele>623.5</ele>
<time>2003-09-19T07:09:38Z</time>
<speed>0.8</speed>
</trkpt>
<trkpt lat="47.456297" lon="8.744505">
<ele>623.8</ele>
<time>2003-09-19T07:09:43Z</time>
<speed>1.1</speed>
</trkpt>
<trkpt lat="47.456321" lon="8.744441">
<ele>624.1</ele>
<time>2003-09-19T07:09:48Z</time>
<speed>0.8</speed>
</trkpt>
<trkpt lat="47.456369" lon="8.744395">
<ele>624.6</ele>
<time>2003-09-19T07:09:53Z</time>
<speed>0.8</speed>
</trkpt>
<trkpt lat="47.456418" lon="8.744416">
<ele>625.0</ele>
<time>2003-09-19T07:09:58Z</time>
<speed>0.8</speed>
</trkpt>
<trkpt lat="47.456443" lon="8.744433">
<ele>625.2</ele>
<time>2003-09-19T07:10:03Z</time>
<speed>0.3</speed>
</trkpt>
<trkpt lat="47.456475" lon="8.744439">
<ele>624.7</ele>
<time>2003-09-19T07:10:08Z</time>
<speed>0.6</speed>
</trkpt>
<trkpt lat="47.456582" lon="8.744455">
<ele>626.0</ele>
<time>2003-09-19T07:10:13Z</time>
<speed>1.1</speed>
</trkpt>
<trkpt lat="47.456663" lon="8.744483">
<ele>625.8</ele>
<time>2003-09-19T07:10:18Z</time>
<speed>1.1</speed>
</trkpt>
<trkpt lat="47.456731" lon="8.744506">
<ele>627.0</ele>
<time>2003-09-19T07:10:23Z</time>
<speed>1.1</speed>
</trkpt>
<trkpt lat="47.456782" lon="8.744514">
<ele>627.3</ele>
<time>2003-09-19T07:10:28Z</time>
<speed>0.8</speed>
</trkpt>
<trkpt lat="47.456839" lon="8.744524">
<ele>626.9</ele>
<time>2003-09-19T07:10:33Z</time>
<speed>1.1</speed>
</trkpt>
<trkpt lat="47.456872" lon="8.744517">
<ele>626.2</ele>
<time>2003-09-19T07:10:38Z</time>
<speed>0.3</speed>
</trkpt>
<trkpt lat="47.456890" lon="8.744519">
<ele>627.0</ele>
<time>2003-09-19T07:10:43Z</time>
<speed>0.3</speed>
</trkpt>
<trkpt lat="47.456948" lon="8.744516">
<ele>626.5</ele>
<time>2003-09-19T07:10:48Z</time>
<speed>1.1</speed>
</trkpt>
<trkpt lat="47.457003" lon="8.744552">
<ele>626.4</ele>
<time>2003-09-19T07:10:53Z</time>
<speed>0.6</speed>
</trkpt>
<trkpt lat="47.457061" lon="8.744562">
<ele>626.0</ele>
<time>2003-09-19T07:10:58Z</time>
<speed>0.8</speed>
</trkpt>
<trkpt lat="47.457119" lon="8.744544">
<ele>626.8</ele>
<time>2003-09-19T07:11:03Z</time>
<speed>1.1</speed>
</trkpt>
<trkpt lat="47.457179" lon="8.744515">
<ele>626.1</ele>
<time>2003-09-19T07:11:08Z</time>
<speed>1.1</speed>
</trkpt>
<trkpt lat="47.457225" lon="8.744495">
<ele>626.8</ele>
<time>2003-09-19T07:11:13Z</time>
<speed>0.6</speed>
</trkpt>
<trkpt lat="47.457267" lon="8.744448">
<ele>626.6</ele>
<time>2003-09-19T07:11:18Z</time>
<speed>0.8</speed>
</trkpt>
<trkpt lat="47.457296" lon="8.744400">
<ele>626.3</ele>
<time>2003-09-19T07:11:23Z</time>
<speed>0.8</speed>
</trkpt>
<trkpt lat="47.457332" lon="8.744354">
<ele>625.4</ele>
<time>2003-09-19T07:11:28Z</time>
<speed>0.8</speed>
</trkpt>
<trkpt lat="47.457381" lon="8.744309">
<ele>624.5</ele>
<time>2003-09-19T07:11:33Z</time>
<speed>1.1</speed>
</trkpt>
<trkpt lat="47.457417" lon="8.744248">
<ele>624.9</ele>
<time>2003-09-19T07:11:38Z</time>
<speed>1.1</speed>
</trkpt>
<trkpt lat="47.457427" lon="8.744195">
<ele>625.2</ele>
<time>2003-09-19T07:11:43Z</time>
<speed>0.3</speed>
</trkpt>
<trkpt lat="47.457434" lon="8.744182">
<ele>625.8</ele>
<time>2003-09-19T07:11:48Z</time>
<speed>0.0</speed>
</trkpt>
<trkpt lat="47.457441" lon="8.744184">
<ele>625.2</ele>
<time>2003-09-19T07:11:53Z</time>
<speed>0.8</speed>
</trkpt>
<trkpt lat="47.457464" lon="8.744134">
<ele>625.5</ele>
<time>2003-09-19T07:11:58Z</time>
<speed>0.0</speed>
</trkpt>
<trkpt lat="47.457464" lon="8.744134">
<ele>625.5</ele>
<time>2003-09-19T07:12:03Z</time>
<speed>0.0</speed>
</trkpt>
<trkpt lat="47.457498" lon="8.744099">
<ele>626.1</ele>
<time>2003-09-19T07:12:08Z</time>
<speed>0.3</speed>
</trkpt>
<trkpt lat="47.457548" lon="8.744107">
<ele>626.4</ele>
<time>2003-09-19T07:12:13Z</time>
<speed>0.6</speed>
</trkpt>
<trkpt lat="47.457584" lon="8.744139">
<ele>626.8</ele>
<time>2003-09-19T07:12:18Z</time>
<speed>0.8</speed>
</trkpt>
<trkpt lat="47.457621" lon="8.744158">
<ele>627.1</ele>
<time>2003-09-19T07:12:23Z</time>
<speed>0.8</speed>
</trkpt>
<trkpt lat="47.457657" lon="8.744190">
<ele>627.5</ele>
<time>2003-09-19T07:12:28Z</time>
<speed>0.8</speed>
</trkpt>
<trkpt lat="47.457675" lon="8.744205">
<ele>628.4</ele>
<time>2003-09-19T07:12:33Z</time>
<speed>0.0</speed>
</trkpt>
<trkpt lat="47.457706" lon="8.744225">
<ele>628.0</ele>
<time>2003-09-19T07:12:38Z</time>
<speed>0.6</speed>
</trkpt>
<trkpt lat="47.457717" lon="8.744240">
<ele>628.2</ele>
<time>2003-09-19T07:12:43Z</time>
<speed>0.3</speed>
</trkpt>
<trkpt lat="47.457823" lon="8.744284">
<ele>628.3</ele>
<time>2003-09-19T07:12:48Z</time>
<speed>1.1</speed>
</trkpt>
<trkpt lat="47.457882" lon="8.744347">
<ele>629.0</ele>
<time>2003-09-19T07:12:53Z</time>
<speed>0.8</speed>
</trkpt>
<trkpt lat="47.457945" lon="8.744357">
<ele>629.4</ele>
<time>2003-09-19T07:12:58Z</time>
<speed>1.1</speed>
</trkpt>
<trkpt lat="47.457999" lon="8.744325">
<ele>629.3</ele>
<time>2003-09-19T07:13:03Z</time>
<speed>1.1</speed>
</trkpt>
<trkpt lat="47.458047" lon="8.744281">
<ele>628.4</ele>
<time>2003-09-19T07:13:08Z</time>
<speed>0.8</speed>
</trkpt>
<trkpt lat="47.458101" lon="8.744250">
<ele>628.4</ele>
<time>2003-09-19T07:13:13Z</time>
<speed>0.8</speed>
</trkpt>
<trkpt lat="47.458148" lon="8.744216">
<ele>629.0</ele>
<time>2003-09-19T07:13:18Z</time>
<speed>0.8</speed>
</trkpt>
<trkpt lat="47.458195" lon="8.744185">
<ele>628.3</ele>
<time>2003-09-19T07:13:23Z</time>
<speed>0.8</speed>
</trkpt>
<trkpt lat="47.458237" lon="8.744139">
<ele>628.1</ele>
<time>2003-09-19T07:13:28Z</time>
<speed>0.8</speed>
</trkpt>
<trkpt lat="47.458279" lon="8.744092">
<ele>627.9</ele>
<time>2003-09-19T07:13:33Z</time>
<speed>0.8</speed>
</trkpt>
<trkpt lat="47.458294" lon="8.744068">
<ele>627.7</ele>
<time>2003-09-19T07:13:38Z</time>
<speed>0.0</speed>
</trkpt>
<trkpt lat="47.458315" lon="8.744046">
<ele>626.9</ele>
<time>2003-09-19T07:13:43Z</time>
<speed>0.6</speed>
</trkpt>
<trkpt lat="47.458336" lon="8.744009">
<ele>627.4</ele>
<time>2003-09-19T07:13:48Z</time>
<speed>0.6</speed>
</trkpt>
<trkpt lat="47.458338" lon="8.743996">
<ele>627.3</ele>
<time>2003-09-19T07:13:53Z</time>
<speed>0.3</speed>
</trkpt>
<trkpt lat="47.458332" lon="8.743981">
<ele>627.9</ele>
<time>2003-09-19T07:13:58Z</time>
<speed>0.0</speed>
</trkpt>
<trkpt lat="47.458332" lon="8.743981">
<ele>627.9</ele>
<time>2003-09-19T07:14:03Z</time>
<speed>0.0</speed>
</trkpt>
<trkpt lat="47.458345" lon="8.743983">
<ele>627.9</ele>
<time>2003-09-19T07:14:08Z</time>
<speed>0.3</speed>
</trkpt>
<trkpt lat="47.458371" lon="8.743973">
<ele>628.0</ele>
<time>2003-09-19T07:14:13Z</time>
<speed>0.6</speed>
</trkpt>
<trkpt lat="47.458386" lon="8.743949">
<ele>627.8</ele>
<time>2003-09-19T07:14:18Z</time>
<speed>0.6</speed>
</trkpt>
<trkpt lat="47.458393" lon="8.743936">
<ele>628.5</ele>
<time>2003-09-19T07:14:23Z</time>
<speed>0.0</speed>
</trkpt>
<trkpt lat="47.458393" lon="8.743936">
<ele>628.5</ele>
<time>2003-09-19T07:14:28Z</time>
<speed>0.0</speed>
</trkpt>
<trkpt lat="47.458393" lon="8.743936">
<ele>628.5</ele>
<time>2003-09-19T07:14:33Z</time>
<speed>0.0</speed>
</trkpt>
<trkpt lat="47.458399" lon="8.743936">
<ele>629.2</ele>
<time>2003-09-19T07:14:38Z</time>
<speed>0.0</speed>
</trkpt>
<trkpt lat="47.458399" lon="8.743936">
<ele>629.2</ele>
<time>2003-09-19T07:14:43Z</time>
<speed>0.0</speed>
</trkpt>
<trkpt lat="47.458399" lon="8.743936">
<ele>629.2</ele>
<time>2003-09-19T07:14:48Z</time>
<speed>0.0</speed>
</trkpt>
<trkpt lat="47.458392" lon="8.743934">
<ele>629.9</ele>
<time>2003-09-19T07:14:53Z</time>
<speed>0.0</speed>
</trkpt>
<trkpt lat="47.458392" lon="8.743934">
<ele>629.9</ele>
<time>2003-09-19T07:14:58Z</time>
<speed>0.0</speed>
</trkpt>
<trkpt lat="47.458392" lon="8.743934">
<ele>629.9</ele>
<time>2003-09-19T07:15:03Z</time>
<speed>0.0</speed>
</trkpt>
<trkpt lat="47.458392" lon="8.743934">
<ele>629.9</ele>
<time>2003-09-19T07:15:08Z</time>
<speed>0.0</speed>
</trkpt>
<trkpt lat="47.458392" lon="8.743934">
<ele>629.9</ele>
<time>2003-09-19T07:15:13Z</time>
<speed>0.0</speed>
</trkpt>
<trkpt lat="47.458392" lon="8.743934">
<ele>629.9</ele>
<time>2003-09-19T07:15:18Z</time>
<speed>0.0</speed>
</trkpt>
<trkpt lat="47.458392" lon="8.743934">
<ele>629.9</ele>
<time>2003-09-19T07:15:23Z</time>
<speed>0.0</speed>
</trkpt>
<trkpt lat="47.458392" lon="8.743934">
<ele>629.9</ele>
<time>2003-09-19T07:15:28Z</time>
<speed>0.0</speed>
</trkpt>
<trkpt lat="47.458392" lon="8.743934">
<ele>629.9</ele>
<time>2003-09-19T07:15:33Z</time>
<speed>0.0</speed>
</trkpt>
<trkpt lat="47.458379" lon="8.743932">
<ele>629.8</ele>
<time>2003-09-19T07:15:38Z</time>
<speed>0.0</speed>
</trkpt>
<trkpt lat="47.458379" lon="8.743932">
<ele>629.8</ele>
<time>2003-09-19T07:15:43Z</time>
<speed>0.0</speed>
</trkpt>
<trkpt lat="47.458378" lon="8.743945">
<ele>629.9</ele>
<time>2003-09-19T07:15:48Z</time>
<speed>0.0</speed>
</trkpt>
<trkpt lat="47.458378" lon="8.743945">
<ele>629.9</ele>
<time>2003-09-19T07:15:53Z</time>
<speed>0.0</speed>
</trkpt>
<trkpt lat="47.458391" lon="8.743947">
<ele>630.0</ele>
<time>2003-09-19T07:15:58Z</time>
<speed>0.0</speed>
</trkpt>
<trkpt lat="47.458397" lon="8.743947">
<ele>630.7</ele>
<time>2003-09-19T07:16:03Z</time>
<speed>0.0</speed>
</trkpt>
<trkpt lat="47.458397" lon="8.743947">
<ele>630.7</ele>
<time>2003-09-19T07:16:08Z</time>
<speed>0.0</speed>
</trkpt>
<trkpt lat="47.458397" lon="8.743947">
<ele>630.7</ele>
<time>2003-09-19T07:16:13Z</time>
<speed>0.0</speed>
</trkpt>
<trkpt lat="47.458397" lon="8.743947">
<ele>630.7</ele>
<time>2003-09-19T07:16:18Z</time>
<speed>0.0</speed>
</trkpt>
<trkpt lat="47.458403" lon="8.743947">
<ele>631.5</ele>
<time>2003-09-19T07:16:23Z</time>
<speed>0.0</speed>
</trkpt>
<trkpt lat="47.458403" lon="8.743947">
<ele>631.5</ele>
<time>2003-09-19T07:16:28Z</time>
<speed>0.0</speed>
</trkpt>
<trkpt lat="47.458403" lon="8.743947">
<ele>631.5</ele>
<time>2003-09-19T07:16:33Z</time>
<speed>0.3</speed>
</trkpt>
<trkpt lat="47.458391" lon="8.743945">
<ele>631.4</ele>
<time>2003-09-19T07:16:38Z</time>
<speed>0.6</speed>
</trkpt>
<trkpt lat="47.458350" lon="8.743979">
<ele>631.5</ele>
<time>2003-09-19T07:16:43Z</time>
<speed>0.6</speed>
</trkpt>
<trkpt lat="47.458314" lon="8.744027">
<ele>631.0</ele>
<time>2003-09-19T07:16:48Z</time>
<speed>0.6</speed>
</trkpt>
<trkpt lat="47.458272" lon="8.744073">
<ele>631.2</ele>
<time>2003-09-19T07:16:53Z</time>
<speed>0.8</speed>
</trkpt>
<trkpt lat="47.458234" lon="8.744080">
<ele>631.1</ele>
<time>2003-09-19T07:16:58Z</time>
<speed>0.6</speed>
</trkpt>
<trkpt lat="47.458191" lon="8.744044">
<ele>632.8</ele>
<time>2003-09-19T07:17:03Z</time>
<speed>0.8</speed>
</trkpt>
<trkpt lat="47.458150" lon="8.743984">
<ele>632.8</ele>
<time>2003-09-19T07:17:08Z</time>
<speed>1.1</speed>
</trkpt>
<trkpt lat="47.458115" lon="8.743938">
<ele>632.3</ele>
<time>2003-09-19T07:17:13Z</time>
<speed>0.6</speed>
</trkpt>
<trkpt lat="47.458088" lon="8.743880">
<ele>632.5</ele>
<time>2003-09-19T07:17:18Z</time>
<speed>0.8</speed>
</trkpt>
<trkpt lat="47.458059" lon="8.743834">
<ele>632.7</ele>
<time>2003-09-19T07:17:23Z</time>
<speed>0.3</speed>
</trkpt>
<trkpt lat="47.458043" lon="8.743791">
<ele>633.0</ele>
<time>2003-09-19T07:17:28Z</time>
<speed>0.6</speed>
</trkpt>
<trkpt lat="47.458026" lon="8.743748">
<ele>633.3</ele>
<time>2003-09-19T07:17:33Z</time>
<speed>0.0</speed>
</trkpt>
<trkpt lat="47.458022" lon="8.743719">
<ele>633.7</ele>
<time>2003-09-19T07:17:38Z</time>
<speed>0.6</speed>
</trkpt>
<trkpt lat="47.458000" lon="8.743676">
<ele>633.3</ele>
<time>2003-09-19T07:17:43Z</time>
<speed>0.6</speed>
</trkpt>
<trkpt lat="47.457971" lon="8.743633">
<ele>632.1</ele>
<time>2003-09-19T07:17:48Z</time>
<speed>0.6</speed>
</trkpt>
<trkpt lat="47.457942" lon="8.743600">
<ele>632.4</ele>
<time>2003-09-19T07:17:53Z</time>
<speed>0.8</speed>
</trkpt>
<trkpt lat="47.457933" lon="8.743548">
<ele>630.5</ele>
<time>2003-09-19T07:17:58Z</time>
<speed>0.8</speed>
</trkpt>
<trkpt lat="47.457923" lon="8.743505">
<ele>631.6</ele>
<time>2003-09-19T07:18:03Z</time>
<speed>0.6</speed>
</trkpt>
<trkpt lat="47.457895" lon="8.743459">
<ele>631.8</ele>
<time>2003-09-19T07:18:08Z</time>
<speed>0.6</speed>
</trkpt>
<trkpt lat="47.457878" lon="8.743412">
<ele>634.9</ele>
<time>2003-09-19T07:18:13Z</time>
<speed>0.3</speed>
</trkpt>
<trkpt lat="47.457884" lon="8.743412">
<ele>635.6</ele>
<time>2003-09-19T07:18:18Z</time>
<speed>0.0</speed>
</trkpt>
<trkpt lat="47.457884" lon="8.743412">
<ele>635.6</ele>
<time>2003-09-19T07:18:23Z</time>
<speed>0.0</speed>
</trkpt>
<trkpt lat="47.457884" lon="8.743412">
<ele>635.6</ele>
<time>2003-09-19T07:18:28Z</time>
<speed>0.0</speed>
</trkpt>
<trkpt lat="47.457884" lon="8.743412">
<ele>635.6</ele>
<time>2003-09-19T07:18:33Z</time>
<speed>0.0</speed>
</trkpt>
<trkpt lat="47.457883" lon="8.743425">
<ele>635.7</ele>
<time>2003-09-19T07:18:38Z</time>
<speed>0.0</speed>
</trkpt>
<trkpt lat="47.457883" lon="8.743425">
<ele>635.7</ele>
<time>2003-09-19T07:18:43Z</time>
<speed>0.0</speed>
</trkpt>
<trkpt lat="47.457883" lon="8.743425">
<ele>635.7</ele>
<time>2003-09-19T07:18:48Z</time>
<speed>0.0</speed>
</trkpt>
<trkpt lat="47.457883" lon="8.743425">
<ele>635.7</ele>
<time>2003-09-19T07:18:53Z</time>
<speed>0.0</speed>
</trkpt>
<trkpt lat="47.457883" lon="8.743425">
<ele>635.7</ele>
<time>2003-09-19T07:18:58Z</time>
<speed>0.0</speed>
</trkpt>
<trkpt lat="47.457883" lon="8.743425">
<ele>635.7</ele>
<time>2003-09-19T07:19:03Z</time>
<speed>0.0</speed>
</trkpt>
<trkpt lat="47.457883" lon="8.743425">
<ele>635.7</ele>
<time>2003-09-19T07:19:08Z</time>
<speed>0.0</speed>
</trkpt>
<trkpt lat="47.457878" lon="8.743412">
<ele>634.9</ele>
<time>2003-09-19T07:19:13Z</time>
<speed>0.3</speed>
</trkpt>
<trkpt lat="47.457878" lon="8.743412">
<ele>634.9</ele>
<time>2003-09-19T07:19:18Z</time>
<speed>0.0</speed>
</trkpt>
<trkpt lat="47.457878" lon="8.743412">
<ele>634.9</ele>
<time>2003-09-19T07:19:23Z</time>
<speed>0.0</speed>
</trkpt>
<trkpt lat="47.457878" lon="8.743412">
<ele>634.9</ele>
<time>2003-09-19T07:19:28Z</time>
<speed>0.0</speed>
</trkpt>
<trkpt lat="47.457878" lon="8.743412">
<ele>634.9</ele>
<time>2003-09-19T07:19:33Z</time>
<speed>0.0</speed>
</trkpt>
<trkpt lat="47.457878" lon="8.743412">
<ele>634.9</ele>
<time>2003-09-19T07:19:38Z</time>
<speed>0.0</speed>
</trkpt>
<trkpt lat="47.457878" lon="8.743412">
<ele>634.9</ele>
<time>2003-09-19T07:19:43Z</time>
<speed>0.0</speed>
</trkpt>
<trkpt lat="47.457878" lon="8.743412">
<ele>634.9</ele>
<time>2003-09-19T07:19:48Z</time>
<speed>0.0</speed>
</trkpt>
<trkpt lat="47.457878" lon="8.743414">
<ele>633.5</ele>
<time>2003-09-19T07:19:53Z</time>
<speed>0.0</speed>
</trkpt>
<trkpt lat="47.457895" lon="8.743364">
<ele>633.1</ele>
<time>2003-09-19T07:19:58Z</time>
<speed>0.6</speed>
</trkpt>
<trkpt lat="47.457876" lon="8.743346">
<ele>633.6</ele>
<time>2003-09-19T07:20:03Z</time>
<speed>0.0</speed>
</trkpt>
<trkpt lat="47.457882" lon="8.743360">
<ele>634.5</ele>
<time>2003-09-19T07:20:08Z</time>
<speed>0.3</speed>
</trkpt>
<trkpt lat="47.457886" lon="8.743371">
<ele>636.7</ele>
<time>2003-09-19T07:20:13Z</time>
<speed>0.0</speed>
</trkpt>
<trkpt lat="47.457915" lon="8.743416">
<ele>636.5</ele>
<time>2003-09-19T07:20:18Z</time>
<speed>0.6</speed>
</trkpt>
<trkpt lat="47.457944" lon="8.743461">
<ele>636.3</ele>
<time>2003-09-19T07:20:23Z</time>
<speed>0.6</speed>
</trkpt>
<trkpt lat="47.457949" lon="8.743476">
<ele>635.7</ele>
<time>2003-09-19T07:20:28Z</time>
<speed>0.0</speed>
</trkpt>
<trkpt lat="47.457952" lon="8.743516">
<ele>636.8</ele>
<time>2003-09-19T07:20:33Z</time>
<speed>0.8</speed>
</trkpt>
<trkpt lat="47.457968" lon="8.743559">
<ele>636.5</ele>
<time>2003-09-19T07:20:38Z</time>
<speed>0.6</speed>
</trkpt>
<trkpt lat="47.457999" lon="8.743578">
<ele>636.0</ele>
<time>2003-09-19T07:20:43Z</time>
<speed>0.6</speed>
</trkpt>
<trkpt lat="47.458019" lon="8.743569">
<ele>635.3</ele>
<time>2003-09-19T07:20:48Z</time>
<speed>0.0</speed>
</trkpt>
<trkpt lat="47.458020" lon="8.743556">
<ele>635.2</ele>
<time>2003-09-19T07:20:53Z</time>
<speed>0.0</speed>
</trkpt>
<trkpt lat="47.458048" lon="8.743536">
<ele>633.8</ele>
<time>2003-09-19T07:20:58Z</time>
<speed>0.3</speed>
</trkpt>
<trkpt lat="47.458066" lon="8.743553">
<ele>633.3</ele>
<time>2003-09-19T07:21:03Z</time>
<speed>0.3</speed>
</trkpt>
<trkpt lat="47.458079" lon="8.743555">
<ele>633.3</ele>
<time>2003-09-19T07:21:08Z</time>
<speed>0.0</speed>
</trkpt>
<trkpt lat="47.458079" lon="8.743555">
<ele>633.3</ele>
<time>2003-09-19T07:21:13Z</time>
<speed>0.0</speed>
</trkpt>
<trkpt lat="47.458073" lon="8.743555">
<ele>632.6</ele>
<time>2003-09-19T07:21:18Z</time>
<speed>0.3</speed>
</trkpt>
<trkpt lat="47.458058" lon="8.743499">
<ele>632.8</ele>
<time>2003-09-19T07:21:23Z</time>
<speed>0.6</speed>
</trkpt>
<trkpt lat="47.458043" lon="8.743444">
<ele>631.6</ele>
<time>2003-09-19T07:21:28Z</time>
<speed>0.3</speed>
</trkpt>
<trkpt lat="47.458046" lon="8.743405">
<ele>631.3</ele>
<time>2003-09-19T07:21:33Z</time>
<speed>0.3</speed>
</trkpt>
<trkpt lat="47.458044" lon="8.743350">
<ele>631.5</ele>
<time>2003-09-19T07:21:38Z</time>
<speed>0.6</speed>
</trkpt>
<trkpt lat="47.458046" lon="8.743309">
<ele>632.6</ele>
<time>2003-09-19T07:21:43Z</time>
<speed>0.6</speed>
</trkpt>
<trkpt lat="47.458069" lon="8.743261">
<ele>631.6</ele>
<time>2003-09-19T07:21:48Z</time>
<speed>0.6</speed>
</trkpt>
<trkpt lat="47.458099" lon="8.743212">
<ele>631.3</ele>
<time>2003-09-19T07:21:53Z</time>
<speed>0.8</speed>
</trkpt>
<trkpt lat="47.458116" lon="8.743149">
<ele>630.9</ele>
<time>2003-09-19T07:21:58Z</time>
<speed>0.3</speed>
</trkpt>
<trkpt lat="47.458150" lon="8.743129">
<ele>630.1</ele>
<time>2003-09-19T07:22:03Z</time>
<speed>0.3</speed>
</trkpt>
<trkpt lat="47.458193" lon="8.743069">
<ele>629.8</ele>
<time>2003-09-19T07:22:08Z</time>
<speed>0.6</speed>
</trkpt>
<trkpt lat="47.458229" lon="8.743023">
<ele>628.9</ele>
<time>2003-09-19T07:22:13Z</time>
<speed>0.3</speed>
</trkpt>
<trkpt lat="47.458252" lon="8.742972">
<ele>629.3</ele>
<time>2003-09-19T07:22:18Z</time>
<speed>0.6</speed>
</trkpt>
<trkpt lat="47.458298" lon="8.742954">
<ele>628.6</ele>
<time>2003-09-19T07:22:23Z</time>
<speed>0.8</speed>
</trkpt>
<trkpt lat="47.458326" lon="8.742919">
<ele>628.4</ele>
<time>2003-09-19T07:22:28Z</time>
<speed>0.6</speed>
</trkpt>
<trkpt lat="47.458380" lon="8.742888">
<ele>628.4</ele>
<time>2003-09-19T07:22:33Z</time>
<speed>0.8</speed>
</trkpt>
<trkpt lat="47.458414" lon="8.742867">
<ele>627.7</ele>
<time>2003-09-19T07:22:38Z</time>
<speed>0.6</speed>
</trkpt>
<trkpt lat="47.458444" lon="8.742885">
<ele>628.7</ele>
<time>2003-09-19T07:22:43Z</time>
<speed>0.3</speed>
</trkpt>
<trkpt lat="47.458474" lon="8.742902">
<ele>629.6</ele>
<time>2003-09-19T07:22:48Z</time>
<speed>0.0</speed>
</trkpt>
<trkpt lat="47.458487" lon="8.742904">
<ele>629.7</ele>
<time>2003-09-19T07:22:53Z</time>
<speed>0.0</speed>
</trkpt>
<trkpt lat="47.458487" lon="8.742904">
<ele>629.7</ele>
<time>2003-09-19T07:22:58Z</time>
<speed>0.0</speed>
</trkpt>
<trkpt lat="47.458487" lon="8.742904">
<ele>629.7</ele>
<time>2003-09-19T07:23:03Z</time>
<speed>0.0</speed>
</trkpt>
<trkpt lat="47.458493" lon="8.742904">
<ele>630.4</ele>
<time>2003-09-19T07:23:08Z</time>
<speed>0.0</speed>
</trkpt>
<trkpt lat="47.458493" lon="8.742904">
<ele>630.4</ele>
<time>2003-09-19T07:23:13Z</time>
<speed>0.0</speed>
</trkpt>
<trkpt lat="47.458532" lon="8.742878">
<ele>634.6</ele>
<time>2003-09-19T07:23:18Z</time>
<speed>0.3</speed>
</trkpt>
<trkpt lat="47.458536" lon="8.742889">
<ele>636.9</ele>
<time>2003-09-19T07:23:23Z</time>
<speed>0.0</speed>
</trkpt>
<trkpt lat="47.458547" lon="8.742917">
<ele>637.2</ele>
<time>2003-09-19T07:23:28Z</time>
<speed>0.0</speed>
</trkpt>
<trkpt lat="47.458551" lon="8.742943">
<ele>638.1</ele>
<time>2003-09-19T07:23:33Z</time>
<speed>0.3</speed>
</trkpt>
<trkpt lat="47.458554" lon="8.742984">
<ele>637.8</ele>
<time>2003-09-19T07:23:38Z</time>
<speed>0.6</speed>
</trkpt>
<trkpt lat="47.458577" lon="8.743028">
<ele>638.2</ele>
<time>2003-09-19T07:23:43Z</time>
<speed>0.6</speed>
</trkpt>
<trkpt lat="47.458587" lon="8.743056">
<ele>638.5</ele>
<time>2003-09-19T07:23:48Z</time>
<speed>0.6</speed>
</trkpt>
<trkpt lat="47.458602" lon="8.743112">
<ele>638.3</ele>
<time>2003-09-19T07:23:53Z</time>
<speed>0.8</speed>
</trkpt>
<trkpt lat="47.458619" lon="8.743156">
<ele>638.0</ele>
<time>2003-09-19T07:23:58Z</time>
<speed>0.6</speed>
</trkpt>
<trkpt lat="47.458622" lon="8.743195">
<ele>639.0</ele>
<time>2003-09-19T07:24:03Z</time>
<speed>0.3</speed>
</trkpt>
<trkpt lat="47.458613" lon="8.743234">
<ele>638.6</ele>
<time>2003-09-19T07:24:08Z</time>
<speed>0.8</speed>
</trkpt>
<trkpt lat="47.458615" lon="8.743289">
<ele>638.3</ele>
<time>2003-09-19T07:24:13Z</time>
<speed>0.8</speed>
</trkpt>
<trkpt lat="47.458641" lon="8.743358">
<ele>639.7</ele>
<time>2003-09-19T07:24:18Z</time>
<speed>0.8</speed>
</trkpt>
<trkpt lat="47.458649" lon="8.743428">
<ele>638.9</ele>
<time>2003-09-19T07:24:23Z</time>
<speed>0.8</speed>
</trkpt>
<trkpt lat="47.458632" lon="8.743509">
<ele>636.7</ele>
<time>2003-09-19T07:24:28Z</time>
<speed>0.8</speed>
</trkpt>
<trkpt lat="47.458608" lon="8.743572">
<ele>636.4</ele>
<time>2003-09-19T07:24:33Z</time>
<speed>0.8</speed>
</trkpt>
<trkpt lat="47.458583" lon="8.743649">
<ele>636.2</ele>
<time>2003-09-19T07:24:38Z</time>
<speed>0.6</speed>
</trkpt>
<trkpt lat="47.458536" lon="8.743682">
<ele>635.5</ele>
<time>2003-09-19T07:24:43Z</time>
<speed>0.6</speed>
</trkpt>
<trkpt lat="47.458490" lon="8.743622">
<ele>634.9</ele>
<time>2003-09-19T07:24:48Z</time>
<speed>0.6</speed>
</trkpt>
<trkpt lat="47.458447" lon="8.743602">
<ele>633.8</ele>
<time>2003-09-19T07:24:53Z</time>
<speed>0.3</speed>
</trkpt>
<trkpt lat="47.458386" lon="8.743566">
<ele>633.3</ele>
<time>2003-09-19T07:24:58Z</time>
<speed>0.8</speed>
</trkpt>
<trkpt lat="47.458377" lon="8.743512">
<ele>632.8</ele>
<time>2003-09-19T07:25:03Z</time>
<speed>0.6</speed>
</trkpt>
<trkpt lat="47.458390" lon="8.743420">
<ele>632.8</ele>
<time>2003-09-19T07:25:08Z</time>
<speed>1.1</speed>
</trkpt>
<trkpt lat="47.458363" lon="8.743348">
<ele>632.8</ele>
<time>2003-09-19T07:25:13Z</time>
<speed>0.8</speed>
</trkpt>
<trkpt lat="47.458342" lon="8.743275">
<ele>635.0</ele>
<time>2003-09-19T07:25:18Z</time>
<speed>0.8</speed>
</trkpt>
<trkpt lat="47.458321" lon="8.743216">
<ele>635.8</ele>
<time>2003-09-19T07:25:23Z</time>
<speed>0.6</speed>
</trkpt>
<trkpt lat="47.458292" lon="8.743156">
<ele>637.4</ele>
<time>2003-09-19T07:25:28Z</time>
<speed>0.6</speed>
</trkpt>
<trkpt lat="47.458283" lon="8.743114">
<ele>637.0</ele>
<time>2003-09-19T07:25:33Z</time>
<speed>0.0</speed>
</trkpt>
<trkpt lat="47.458308" lon="8.743119">
<ele>637.1</ele>
<time>2003-09-19T07:25:38Z</time>
<speed>0.3</speed>
</trkpt>
<trkpt lat="47.458285" lon="8.743105">
<ele>634.1</ele>
<time>2003-09-19T07:26:36Z</time>
<speed>0.6</speed>
</trkpt>
<trkpt lat="47.458393" lon="8.743212">
<ele>647.5</ele>
<time>2003-09-19T07:26:41Z</time>
<speed>0.0</speed>
</trkpt>
<trkpt lat="47.458375" lon="8.743199">
<ele>645.2</ele>
<time>2003-09-19T07:26:46Z</time>
<speed>0.0</speed>
</trkpt>
<trkpt lat="47.458375" lon="8.743197">
<ele>646.6</ele>
<time>2003-09-19T07:26:51Z</time>
<speed>0.0</speed>
</trkpt>
<trkpt lat="47.458391" lon="8.743162">
<ele>644.9</ele>
<time>2003-09-19T07:26:56Z</time>
<speed>0.6</speed>
</trkpt>
<trkpt lat="47.458399" lon="8.743155">
<ele>641.3</ele>
<time>2003-09-19T07:27:01Z</time>
<speed>0.6</speed>
</trkpt>
<trkpt lat="47.458395" lon="8.743144">
<ele>639.1</ele>
<time>2003-09-19T07:27:06Z</time>
<speed>0.0</speed>
</trkpt>
<trkpt lat="47.458395" lon="8.743144">
<ele>639.1</ele>
<time>2003-09-19T07:27:11Z</time>
<speed>0.0</speed>
</trkpt>
<trkpt lat="47.458395" lon="8.743144">
<ele>639.1</ele>
<time>2003-09-19T07:27:16Z</time>
<speed>0.0</speed>
</trkpt>
<trkpt lat="47.458395" lon="8.743144">
<ele>639.1</ele>
<time>2003-09-19T07:27:21Z</time>
<speed>0.0</speed>
</trkpt>
<trkpt lat="47.458395" lon="8.743144">
<ele>639.1</ele>
<time>2003-09-19T07:27:26Z</time>
<speed>0.0</speed>
</trkpt>
<trkpt lat="47.458395" lon="8.743144">
<ele>639.1</ele>
<time>2003-09-19T07:27:31Z</time>
<speed>0.0</speed>
</trkpt>
<trkpt lat="47.458395" lon="8.743144">
<ele>639.1</ele>
<time>2003-09-19T07:27:36Z</time>
<speed>0.0</speed>
</trkpt>
<trkpt lat="47.458395" lon="8.743144">
<ele>639.1</ele>
<time>2003-09-19T07:27:41Z</time>
<speed>0.0</speed>
</trkpt>
<trkpt lat="47.458383" lon="8.743129">
<ele>638.9</ele>
<time>2003-09-19T07:27:46Z</time>
<speed>0.0</speed>
</trkpt>
<trkpt lat="47.458383" lon="8.743129">
<ele>638.9</ele>
<time>2003-09-19T07:27:51Z</time>
<speed>0.0</speed>
</trkpt>
<trkpt lat="47.458377" lon="8.743129">
<ele>638.2</ele>
<time>2003-09-19T07:27:56Z</time>
<speed>0.0</speed>
</trkpt>
<trkpt lat="47.458377" lon="8.743129">
<ele>638.2</ele>
<time>2003-09-19T07:28:01Z</time>
<speed>0.0</speed>
</trkpt>
<trkpt lat="47.458377" lon="8.743129">
<ele>638.2</ele>
<time>2003-09-19T07:28:06Z</time>
<speed>0.0</speed>
</trkpt>
<trkpt lat="47.458366" lon="8.743113">
<ele>638.0</ele>
<time>2003-09-19T07:28:11Z</time>
<speed>0.0</speed>
</trkpt>
<trkpt lat="47.458359" lon="8.743113">
<ele>637.3</ele>
<time>2003-09-19T07:28:16Z</time>
<speed>0.0</speed>
</trkpt>
<trkpt lat="47.458353" lon="8.743111">
<ele>638.0</ele>
<time>2003-09-19T07:28:21Z</time>
<speed>0.0</speed>
</trkpt>
<trkpt lat="47.458359" lon="8.743113">
<ele>637.3</ele>
<time>2003-09-19T07:28:26Z</time>
<speed>0.0</speed>
</trkpt>
<trkpt lat="47.458366" lon="8.743113">
<ele>638.0</ele>
<time>2003-09-19T07:28:31Z</time>
<speed>0.0</speed>
</trkpt>
<trkpt lat="47.458366" lon="8.743113">
<ele>638.0</ele>
<time>2003-09-19T07:28:36Z</time>
<speed>0.0</speed>
</trkpt>
<trkpt lat="47.458353" lon="8.743111">
<ele>638.0</ele>
<time>2003-09-19T07:28:41Z</time>
<speed>0.0</speed>
</trkpt>
<trkpt lat="47.458353" lon="8.743111">
<ele>638.0</ele>
<time>2003-09-19T07:28:46Z</time>
<speed>0.0</speed>
</trkpt>
<trkpt lat="47.458353" lon="8.743111">
<ele>638.0</ele>
<time>2003-09-19T07:28:51Z</time>
<speed>0.0</speed>
</trkpt>
<trkpt lat="47.458353" lon="8.743111">
<ele>638.0</ele>
<time>2003-09-19T07:28:56Z</time>
<speed>0.0</speed>
</trkpt>
<trkpt lat="47.458353" lon="8.743111">
<ele>638.0</ele>
<time>2003-09-19T07:29:01Z</time>
<speed>0.0</speed>
</trkpt>
<trkpt lat="47.458353" lon="8.743111">
<ele>638.0</ele>
<time>2003-09-19T07:29:06Z</time>
<speed>0.0</speed>
</trkpt>
<trkpt lat="47.458353" lon="8.743111">
<ele>638.0</ele>
<time>2003-09-19T07:29:11Z</time>
<speed>0.0</speed>
</trkpt>
<trkpt lat="47.458346" lon="8.743109">
<ele>638.6</ele>
<time>2003-09-19T07:29:16Z</time>
<speed>0.0</speed>
</trkpt>
<trkpt lat="47.458340" lon="8.743109">
<ele>637.9</ele>
<time>2003-09-19T07:29:21Z</time>
<speed>0.0</speed>
</trkpt>
<trkpt lat="47.458340" lon="8.743109">
<ele>637.9</ele>
<time>2003-09-19T07:29:26Z</time>
<speed>0.0</speed>
</trkpt>
<trkpt lat="47.458340" lon="8.743109">
<ele>637.9</ele>
<time>2003-09-19T07:29:31Z</time>
<speed>0.0</speed>
</trkpt>
<trkpt lat="47.458340" lon="8.743109">
<ele>637.9</ele>
<time>2003-09-19T07:29:36Z</time>
<speed>0.0</speed>
</trkpt>
<trkpt lat="47.458340" lon="8.743109">
<ele>637.9</ele>
<time>2003-09-19T07:29:41Z</time>
<speed>0.0</speed>
</trkpt>
<trkpt lat="47.458340" lon="8.743109">
<ele>637.9</ele>
<time>2003-09-19T07:29:46Z</time>
<speed>0.0</speed>
</trkpt>
<trkpt lat="47.458340" lon="8.743109">
<ele>637.9</ele>
<time>2003-09-19T07:29:51Z</time>
<speed>0.0</speed>
</trkpt>
<trkpt lat="47.458340" lon="8.743109">
<ele>637.9</ele>
<time>2003-09-19T07:29:56Z</time>
<speed>0.0</speed>
</trkpt>
<trkpt lat="47.458340" lon="8.743109">
<ele>637.9</ele>
<time>2003-09-19T07:30:01Z</time>
<speed>0.0</speed>
</trkpt>
<trkpt lat="47.458340" lon="8.743109">
<ele>637.9</ele>
<time>2003-09-19T07:30:06Z</time>
<speed>0.0</speed>
</trkpt>
<trkpt lat="47.458340" lon="8.743109">
<ele>637.9</ele>
<time>2003-09-19T07:30:11Z</time>
<speed>0.0</speed>
</trkpt>
<trkpt lat="47.458340" lon="8.743109">
<ele>637.9</ele>
<time>2003-09-19T07:30:16Z</time>
<speed>0.0</speed>
</trkpt>
<trkpt lat="47.458340" lon="8.743109">
<ele>637.9</ele>
<time>2003-09-19T07:30:21Z</time>
<speed>0.0</speed>
</trkpt>
<trkpt lat="47.458340" lon="8.743109">
<ele>637.9</ele>
<time>2003-09-19T07:30:26Z</time>
<speed>0.0</speed>
</trkpt>
<trkpt lat="47.458340" lon="8.743109">
<ele>637.9</ele>
<time>2003-09-19T07:30:31Z</time>
<speed>0.0</speed>
</trkpt>
<trkpt lat="47.458340" lon="8.743109">
<ele>637.9</ele>
<time>2003-09-19T07:30:36Z</time>
<speed>0.0</speed>
</trkpt>
<trkpt lat="47.458340" lon="8.743109">
<ele>637.9</ele>
<time>2003-09-19T07:30:41Z</time>
<speed>0.0</speed>
</trkpt>
<trkpt lat="47.458340" lon="8.743109">
<ele>637.9</ele>
<time>2003-09-19T07:30:46Z</time>
<speed>0.0</speed>
</trkpt>
<trkpt lat="47.458340" lon="8.743109">
<ele>637.9</ele>
<time>2003-09-19T07:30:51Z</time>
<speed>0.0</speed>
</trkpt>
<trkpt lat="47.458340" lon="8.743109">
<ele>637.9</ele>
<time>2003-09-19T07:30:56Z</time>
<speed>0.0</speed>
</trkpt>
<trkpt lat="47.458340" lon="8.743109">
<ele>637.9</ele>
<time>2003-09-19T07:31:01Z</time>
<speed>0.0</speed>
</trkpt>
<trkpt lat="47.458340" lon="8.743109">
<ele>637.9</ele>
<time>2003-09-19T07:31:06Z</time>
<speed>0.0</speed>
</trkpt>
<trkpt lat="47.458340" lon="8.743109">
<ele>637.9</ele>
<time>2003-09-19T07:31:11Z</time>
<speed>0.0</speed>
</trkpt>
<trkpt lat="47.458340" lon="8.743109">
<ele>637.9</ele>
<time>2003-09-19T07:31:16Z</time>
<speed>0.0</speed>
</trkpt>
<trkpt lat="47.458334" lon="8.743109">
<ele>637.2</ele>
<time>2003-09-19T07:31:21Z</time>
<speed>0.0</speed>
</trkpt>
<trkpt lat="47.458334" lon="8.743109">
<ele>637.2</ele>
<time>2003-09-19T07:31:26Z</time>
<speed>0.0</speed>
</trkpt>
<trkpt lat="47.458334" lon="8.743109">
<ele>637.2</ele>
<time>2003-09-19T07:31:31Z</time>
<speed>0.0</speed>
</trkpt>
<trkpt lat="47.458334" lon="8.743109">
<ele>637.2</ele>
<time>2003-09-19T07:31:36Z</time>
<speed>0.0</speed>
</trkpt>
<trkpt lat="47.458334" lon="8.743109">
<ele>637.2</ele>
<time>2003-09-19T07:31:41Z</time>
<speed>0.0</speed>
</trkpt>
<trkpt lat="47.458334" lon="8.743109">
<ele>637.2</ele>
<time>2003-09-19T07:31:46Z</time>
<speed>0.0</speed>
</trkpt>
<trkpt lat="47.458334" lon="8.743109">
<ele>637.2</ele>
<time>2003-09-19T07:31:51Z</time>
<speed>0.0</speed>
</trkpt>
<trkpt lat="47.458334" lon="8.743109">
<ele>637.2</ele>
<time>2003-09-19T07:31:56Z</time>
<speed>0.0</speed>
</trkpt>
<trkpt lat="47.458334" lon="8.743109">
<ele>637.2</ele>
<time>2003-09-19T07:32:01Z</time>
<speed>0.0</speed>
</trkpt>
<trkpt lat="47.458334" lon="8.743109">
<ele>637.2</ele>
<time>2003-09-19T07:32:06Z</time>
<speed>0.0</speed>
</trkpt>
<trkpt lat="47.458334" lon="8.743109">
<ele>637.2</ele>
<time>2003-09-19T07:32:11Z</time>
<speed>0.0</speed>
</trkpt>
<trkpt lat="47.458334" lon="8.743109">
<ele>637.2</ele>
<time>2003-09-19T07:32:16Z</time>
<speed>0.0</speed>
</trkpt>
<trkpt lat="47.458334" lon="8.743109">
<ele>637.2</ele>
<time>2003-09-19T07:32:21Z</time>
<speed>0.0</speed>
</trkpt>
<trkpt lat="47.458334" lon="8.743109">
<ele>637.2</ele>
<time>2003-09-19T07:32:26Z</time>
<speed>0.0</speed>
</trkpt>
<trkpt lat="47.458334" lon="8.743109">
<ele>637.2</ele>
<time>2003-09-19T07:32:31Z</time>
<speed>0.0</speed>
</trkpt>
<trkpt lat="47.458334" lon="8.743109">
<ele>637.2</ele>
<time>2003-09-19T07:32:36Z</time>
<speed>0.0</speed>
</trkpt>
<trkpt lat="47.458334" lon="8.743109">
<ele>637.2</ele>
<time>2003-09-19T07:32:41Z</time>
<speed>0.0</speed>
</trkpt>
<trkpt lat="47.458334" lon="8.743109">
<ele>637.2</ele>
<time>2003-09-19T07:32:46Z</time>
<speed>0.0</speed>
</trkpt>
<trkpt lat="47.458334" lon="8.743109">
<ele>637.2</ele>
<time>2003-09-19T07:32:51Z</time>
<speed>0.0</speed>
</trkpt>
<trkpt lat="47.458328" lon="8.743109">
<ele>636.4</ele>
<time>2003-09-19T07:32:56Z</time>
<speed>0.0</speed>
</trkpt>
<trkpt lat="47.458328" lon="8.743109">
<ele>636.4</ele>
<time>2003-09-19T07:33:01Z</time>
<speed>0.0</speed>
</trkpt>
<trkpt lat="47.458328" lon="8.743109">
<ele>636.4</ele>
<time>2003-09-19T07:33:06Z</time>
<speed>0.0</speed>
</trkpt>
<trkpt lat="47.458328" lon="8.743109">
<ele>636.4</ele>
<time>2003-09-19T07:33:11Z</time>
<speed>0.0</speed>
</trkpt>
<trkpt lat="47.458328" lon="8.743109">
<ele>636.4</ele>
<time>2003-09-19T07:33:16Z</time>
<speed>0.0</speed>
</trkpt>
<trkpt lat="47.458328" lon="8.743109">
<ele>636.4</ele>
<time>2003-09-19T07:33:21Z</time>
<speed>0.0</speed>
</trkpt>
<trkpt lat="47.458328" lon="8.743109">
<ele>636.4</ele>
<time>2003-09-19T07:33:26Z</time>
<speed>0.0</speed>
</trkpt>
<trkpt lat="47.458322" lon="8.743107">
<ele>637.1</ele>
<time>2003-09-19T07:33:31Z</time>
<speed>0.0</speed>
</trkpt>
<trkpt lat="47.458323" lon="8.743094">
<ele>637.0</ele>
<time>2003-09-19T07:33:36Z</time>
<speed>0.0</speed>
</trkpt>
<trkpt lat="47.458323" lon="8.743094">
<ele>637.0</ele>
<time>2003-09-19T07:33:41Z</time>
<speed>0.0</speed>
</trkpt>
<trkpt lat="47.458316" lon="8.743094">
<ele>636.2</ele>
<time>2003-09-19T07:33:46Z</time>
<speed>0.0</speed>
</trkpt>
<trkpt lat="47.458310" lon="8.743092">
<ele>636.9</ele>
<time>2003-09-19T07:33:51Z</time>
<speed>0.0</speed>
</trkpt>
<trkpt lat="47.458316" lon="8.743092">
<ele>637.6</ele>
<time>2003-09-19T07:33:56Z</time>
<speed>0.0</speed>
</trkpt>
<trkpt lat="47.458316" lon="8.743092">
<ele>637.6</ele>
<time>2003-09-19T07:34:01Z</time>
<speed>0.0</speed>
</trkpt>
<trkpt lat="47.458316" lon="8.743092">
<ele>637.6</ele>
<time>2003-09-19T07:34:06Z</time>
<speed>0.0</speed>
</trkpt>
<trkpt lat="47.458316" lon="8.743092">
<ele>637.6</ele>
<time>2003-09-19T07:34:11Z</time>
<speed>0.0</speed>
</trkpt>
<trkpt lat="47.458316" lon="8.743092">
<ele>637.6</ele>
<time>2003-09-19T07:34:16Z</time>
<speed>0.0</speed>
</trkpt>
<trkpt lat="47.458316" lon="8.743092">
<ele>637.6</ele>
<time>2003-09-19T07:34:21Z</time>
<speed>0.0</speed>
</trkpt>
<trkpt lat="47.458316" lon="8.743092">
<ele>637.6</ele>
<time>2003-09-19T07:34:26Z</time>
<speed>0.0</speed>
</trkpt>
<trkpt lat="47.458316" lon="8.743092">
<ele>637.6</ele>
<time>2003-09-19T07:34:31Z</time>
<speed>0.0</speed>
</trkpt>
<trkpt lat="47.458316" lon="8.743092">
<ele>637.6</ele>
<time>2003-09-19T07:34:36Z</time>
<speed>0.0</speed>
</trkpt>
<trkpt lat="47.458316" lon="8.743092">
<ele>637.6</ele>
<time>2003-09-19T07:34:41Z</time>
<speed>0.0</speed>
</trkpt>
<trkpt lat="47.458316" lon="8.743092">
<ele>637.6</ele>
<time>2003-09-19T07:34:46Z</time>
<speed>0.0</speed>
</trkpt>
<trkpt lat="47.458316" lon="8.743092">
<ele>637.6</ele>
<time>2003-09-19T07:34:51Z</time>
<speed>0.0</speed>
</trkpt>
<trkpt lat="47.458316" lon="8.743092">
<ele>637.6</ele>
<time>2003-09-19T07:34:56Z</time>
<speed>0.0</speed>
</trkpt>
<trkpt lat="47.458316" lon="8.743092">
<ele>637.6</ele>
<time>2003-09-19T07:35:01Z</time>
<speed>0.0</speed>
</trkpt>
<trkpt lat="47.458316" lon="8.743092">
<ele>637.6</ele>
<time>2003-09-19T07:35:06Z</time>
<speed>0.0</speed>
</trkpt>
<trkpt lat="47.458316" lon="8.743092">
<ele>637.6</ele>
<time>2003-09-19T07:35:11Z</time>
<speed>0.0</speed>
</trkpt>
<trkpt lat="47.458316" lon="8.743092">
<ele>637.6</ele>
<time>2003-09-19T07:35:16Z</time>
<speed>0.0</speed>
</trkpt>
<trkpt lat="47.458310" lon="8.743092">
<ele>636.9</ele>
<time>2003-09-19T07:35:21Z</time>
<speed>0.0</speed>
</trkpt>
<trkpt lat="47.458303" lon="8.743090">
<ele>637.6</ele>
<time>2003-09-19T07:35:26Z</time>
<speed>0.0</speed>
</trkpt>
<trkpt lat="47.458303" lon="8.743090">
<ele>637.6</ele>
<time>2003-09-19T07:35:31Z</time>
<speed>0.0</speed>
</trkpt>
<trkpt lat="47.458303" lon="8.743090">
<ele>637.6</ele>
<time>2003-09-19T07:35:36Z</time>
<speed>0.0</speed>
</trkpt>
<trkpt lat="47.458303" lon="8.743090">
<ele>637.6</ele>
<time>2003-09-19T07:35:41Z</time>
<speed>0.0</speed>
</trkpt>
<trkpt lat="47.458303" lon="8.743090">
<ele>637.6</ele>
<time>2003-09-19T07:35:46Z</time>
<speed>0.0</speed>
</trkpt>
<trkpt lat="47.458303" lon="8.743090">
<ele>637.6</ele>
<time>2003-09-19T07:35:51Z</time>
<speed>0.0</speed>
</trkpt>
<trkpt lat="47.458303" lon="8.743090">
<ele>637.6</ele>
<time>2003-09-19T07:35:56Z</time>
<speed>0.0</speed>
</trkpt>
<trkpt lat="47.458309" lon="8.743090">
<ele>638.3</ele>
<time>2003-09-19T07:36:01Z</time>
<speed>0.0</speed>
</trkpt>
<trkpt lat="47.458308" lon="8.743103">
<ele>638.4</ele>
<time>2003-09-19T07:36:06Z</time>
<speed>0.0</speed>
</trkpt>
<trkpt lat="47.458308" lon="8.743103">
<ele>638.4</ele>
<time>2003-09-19T07:36:11Z</time>
<speed>0.0</speed>
</trkpt>
<trkpt lat="47.458302" lon="8.743101">
<ele>639.1</ele>
<time>2003-09-19T07:36:16Z</time>
<speed>0.0</speed>
</trkpt>
<trkpt lat="47.458301" lon="8.743114">
<ele>639.2</ele>
<time>2003-09-19T07:36:21Z</time>
<speed>0.0</speed>
</trkpt>
<trkpt lat="47.458302" lon="8.743101">
<ele>639.1</ele>
<time>2003-09-19T07:36:26Z</time>
<speed>0.0</speed>
</trkpt>
<trkpt lat="47.458294" lon="8.743112">
<ele>639.9</ele>
<time>2003-09-19T07:36:31Z</time>
<speed>0.0</speed>
</trkpt>
<trkpt lat="47.458294" lon="8.743112">
<ele>639.9</ele>
<time>2003-09-19T07:36:36Z</time>
<speed>0.0</speed>
</trkpt>
<trkpt lat="47.458294" lon="8.743112">
<ele>639.9</ele>
<time>2003-09-19T07:36:41Z</time>
<speed>0.0</speed>
</trkpt>
<trkpt lat="47.458274" lon="8.743122">
<ele>640.6</ele>
<time>2003-09-19T07:36:46Z</time>
<speed>0.0</speed>
</trkpt>
<trkpt lat="47.458281" lon="8.743124">
<ele>639.9</ele>
<time>2003-09-19T07:36:51Z</time>
<speed>0.0</speed>
</trkpt>
<trkpt lat="47.458274" lon="8.743122">
<ele>640.6</ele>
<time>2003-09-19T07:36:56Z</time>
<speed>0.0</speed>
</trkpt>
<trkpt lat="47.458274" lon="8.743122">
<ele>640.6</ele>
<time>2003-09-19T07:37:01Z</time>
<speed>0.0</speed>
</trkpt>
<trkpt lat="47.458274" lon="8.743122">
<ele>640.6</ele>
<time>2003-09-19T07:37:06Z</time>
<speed>0.0</speed>
</trkpt>
<trkpt lat="47.458274" lon="8.743122">
<ele>640.6</ele>
<time>2003-09-19T07:37:11Z</time>
<speed>0.0</speed>
</trkpt>
<trkpt lat="47.458274" lon="8.743122">
<ele>640.6</ele>
<time>2003-09-19T07:37:16Z</time>
<speed>0.0</speed>
</trkpt>
<trkpt lat="47.458275" lon="8.743108">
<ele>640.5</ele>
<time>2003-09-19T07:37:21Z</time>
<speed>0.0</speed>
</trkpt>
<trkpt lat="47.458281" lon="8.743108">
<ele>641.2</ele>
<time>2003-09-19T07:37:26Z</time>
<speed>0.0</speed>
</trkpt>
<trkpt lat="47.458281" lon="8.743106">
<ele>642.6</ele>
<time>2003-09-19T07:37:31Z</time>
<speed>0.0</speed>
</trkpt>
<trkpt lat="47.458281" lon="8.743106">
<ele>642.6</ele>
<time>2003-09-19T07:37:36Z</time>
<speed>0.0</speed>
</trkpt>
<trkpt lat="47.458282" lon="8.743093">
<ele>642.5</ele>
<time>2003-09-19T07:37:41Z</time>
<speed>0.0</speed>
</trkpt>
<trkpt lat="47.458282" lon="8.743093">
<ele>642.5</ele>
<time>2003-09-19T07:37:46Z</time>
<speed>0.0</speed>
</trkpt>
<trkpt lat="47.458288" lon="8.743093">
<ele>643.2</ele>
<time>2003-09-19T07:37:51Z</time>
<speed>0.0</speed>
</trkpt>
<trkpt lat="47.458288" lon="8.743093">
<ele>643.2</ele>
<time>2003-09-19T07:37:56Z</time>
<speed>0.0</speed>
</trkpt>
<trkpt lat="47.458288" lon="8.743093">
<ele>643.2</ele>
<time>2003-09-19T07:38:01Z</time>
<speed>0.0</speed>
</trkpt>
<trkpt lat="47.458288" lon="8.743093">
<ele>643.2</ele>
<time>2003-09-19T07:38:06Z</time>
<speed>0.0</speed>
</trkpt>
<trkpt lat="47.458288" lon="8.743093">
<ele>643.2</ele>
<time>2003-09-19T07:38:11Z</time>
<speed>0.0</speed>
</trkpt>
<trkpt lat="47.458288" lon="8.743093">
<ele>643.2</ele>
<time>2003-09-19T07:38:16Z</time>
<speed>0.0</speed>
</trkpt>
<trkpt lat="47.458288" lon="8.743093">
<ele>643.2</ele>
<time>2003-09-19T07:38:21Z</time>
<speed>0.0</speed>
</trkpt>
<trkpt lat="47.458288" lon="8.743093">
<ele>643.2</ele>
<time>2003-09-19T07:38:26Z</time>
<speed>0.0</speed>
</trkpt>
<trkpt lat="47.458294" lon="8.743095">
<ele>642.6</ele>
<time>2003-09-19T07:38:31Z</time>
<speed>0.0</speed>
</trkpt>
<trkpt lat="47.458301" lon="8.743095">
<ele>643.3</ele>
<time>2003-09-19T07:38:36Z</time>
<speed>0.0</speed>
</trkpt>
<trkpt lat="47.458301" lon="8.743095">
<ele>643.3</ele>
<time>2003-09-19T07:38:41Z</time>
<speed>0.0</speed>
</trkpt>
<trkpt lat="47.458301" lon="8.743095">
<ele>643.3</ele>
<time>2003-09-19T07:38:46Z</time>
<speed>0.0</speed>
</trkpt>
<trkpt lat="47.458301" lon="8.743095">
<ele>643.3</ele>
<time>2003-09-19T07:38:51Z</time>
<speed>0.0</speed>
</trkpt>
<trkpt lat="47.458301" lon="8.743095">
<ele>643.3</ele>
<time>2003-09-19T07:38:56Z</time>
<speed>0.0</speed>
</trkpt>
<trkpt lat="47.458301" lon="8.743095">
<ele>643.3</ele>
<time>2003-09-19T07:39:01Z</time>
<speed>0.0</speed>
</trkpt>
<trkpt lat="47.458301" lon="8.743095">
<ele>643.3</ele>
<time>2003-09-19T07:39:06Z</time>
<speed>0.0</speed>
</trkpt>
<trkpt lat="47.458301" lon="8.743095">
<ele>643.3</ele>
<time>2003-09-19T07:39:11Z</time>
<speed>0.0</speed>
</trkpt>
<trkpt lat="47.458301" lon="8.743095">
<ele>643.3</ele>
<time>2003-09-19T07:39:16Z</time>
<speed>0.0</speed>
</trkpt>
<trkpt lat="47.458301" lon="8.743095">
<ele>643.3</ele>
<time>2003-09-19T07:39:21Z</time>
<speed>0.0</speed>
</trkpt>
<trkpt lat="47.458301" lon="8.743095">
<ele>643.3</ele>
<time>2003-09-19T07:39:26Z</time>
<speed>0.0</speed>
</trkpt>
<trkpt lat="47.458301" lon="8.743095">
<ele>643.3</ele>
<time>2003-09-19T07:39:31Z</time>
<speed>0.0</speed>
</trkpt>
<trkpt lat="47.458301" lon="8.743095">
<ele>643.3</ele>
<time>2003-09-19T07:39:36Z</time>
<speed>0.0</speed>
</trkpt>
<trkpt lat="47.458301" lon="8.743095">
<ele>643.3</ele>
<time>2003-09-19T07:39:41Z</time>
<speed>0.0</speed>
</trkpt>
<trkpt lat="47.458301" lon="8.743095">
<ele>643.3</ele>
<time>2003-09-19T07:39:46Z</time>
<speed>0.0</speed>
</trkpt>
<trkpt lat="47.458301" lon="8.743095">
<ele>643.3</ele>
<time>2003-09-19T07:39:51Z</time>
<speed>0.0</speed>
</trkpt>
<trkpt lat="47.458301" lon="8.743095">
<ele>643.3</ele>
<time>2003-09-19T07:39:56Z</time>
<speed>0.0</speed>
</trkpt>
<trkpt lat="47.458301" lon="8.743095">
<ele>643.3</ele>
<time>2003-09-19T07:40:01Z</time>
<speed>0.0</speed>
</trkpt>
<trkpt lat="47.458301" lon="8.743095">
<ele>643.3</ele>
<time>2003-09-19T07:40:06Z</time>
<speed>0.0</speed>
</trkpt>
<trkpt lat="47.458301" lon="8.743095">
<ele>643.3</ele>
<time>2003-09-19T07:40:11Z</time>
<speed>0.0</speed>
</trkpt>
<trkpt lat="47.458301" lon="8.743095">
<ele>643.3</ele>
<time>2003-09-19T07:40:16Z</time>
<speed>0.0</speed>
</trkpt>
<trkpt lat="47.458301" lon="8.743095">
<ele>643.3</ele>
<time>2003-09-19T07:40:21Z</time>
<speed>0.0</speed>
</trkpt>
<trkpt lat="47.458301" lon="8.743095">
<ele>643.3</ele>
<time>2003-09-19T07:40:26Z</time>
<speed>0.0</speed>
</trkpt>
<trkpt lat="47.458301" lon="8.743095">
<ele>643.3</ele>
<time>2003-09-19T07:40:31Z</time>
<speed>0.0</speed>
</trkpt>
<trkpt lat="47.458301" lon="8.743095">
<ele>643.3</ele>
<time>2003-09-19T07:40:36Z</time>
<speed>0.0</speed>
</trkpt>
<trkpt lat="47.458301" lon="8.743095">
<ele>643.3</ele>
<time>2003-09-19T07:40:41Z</time>
<speed>0.0</speed>
</trkpt>
<trkpt lat="47.458301" lon="8.743095">
<ele>643.3</ele>
<time>2003-09-19T07:40:46Z</time>
<speed>0.0</speed>
</trkpt>
<trkpt lat="47.458301" lon="8.743095">
<ele>643.3</ele>
<time>2003-09-19T07:40:51Z</time>
<speed>0.0</speed>
</trkpt>
<trkpt lat="47.458301" lon="8.743095">
<ele>643.3</ele>
<time>2003-09-19T07:40:56Z</time>
<speed>0.0</speed>
</trkpt>
<trkpt lat="47.458301" lon="8.743095">
<ele>643.3</ele>
<time>2003-09-19T07:41:01Z</time>
<speed>0.0</speed>
</trkpt>
<trkpt lat="47.458301" lon="8.743095">
<ele>643.3</ele>
<time>2003-09-19T07:41:06Z</time>
<speed>0.0</speed>
</trkpt>
<trkpt lat="47.458301" lon="8.743095">
<ele>643.3</ele>
<time>2003-09-19T07:41:11Z</time>
<speed>0.0</speed>
</trkpt>
<trkpt lat="47.458301" lon="8.743095">
<ele>643.3</ele>
<time>2003-09-19T07:41:16Z</time>
<speed>0.0</speed>
</trkpt>
<trkpt lat="47.458301" lon="8.743095">
<ele>643.3</ele>
<time>2003-09-19T07:41:21Z</time>
<speed>0.0</speed>
</trkpt>
<trkpt lat="47.458301" lon="8.743095">
<ele>643.3</ele>
<time>2003-09-19T07:41:26Z</time>
<speed>0.0</speed>
</trkpt>
<trkpt lat="47.458301" lon="8.743095">
<ele>643.3</ele>
<time>2003-09-19T07:41:31Z</time>
<speed>0.0</speed>
</trkpt>
<trkpt lat="47.458301" lon="8.743095">
<ele>643.3</ele>
<time>2003-09-19T07:41:36Z</time>
<speed>0.0</speed>
</trkpt>
<trkpt lat="47.458301" lon="8.743095">
<ele>643.3</ele>
<time>2003-09-19T07:41:41Z</time>
<speed>0.0</speed>
</trkpt>
<trkpt lat="47.458301" lon="8.743095">
<ele>643.3</ele>
<time>2003-09-19T07:41:46Z</time>
<speed>0.0</speed>
</trkpt>
<trkpt lat="47.458301" lon="8.743095">
<ele>643.3</ele>
<time>2003-09-19T07:41:51Z</time>
<speed>0.0</speed>
</trkpt>
<trkpt lat="47.458301" lon="8.743095">
<ele>643.3</ele>
<time>2003-09-19T07:41:56Z</time>
<speed>0.0</speed>
</trkpt>
<trkpt lat="47.458301" lon="8.743095">
<ele>643.3</ele>
<time>2003-09-19T07:42:01Z</time>
<speed>0.0</speed>
</trkpt>
<trkpt lat="47.458301" lon="8.743095">
<ele>643.3</ele>
<time>2003-09-19T07:42:06Z</time>
<speed>0.0</speed>
</trkpt>
<trkpt lat="47.458301" lon="8.743095">
<ele>643.3</ele>
<time>2003-09-19T07:42:11Z</time>
<speed>0.0</speed>
</trkpt>
<trkpt lat="47.458301" lon="8.743095">
<ele>643.3</ele>
<time>2003-09-19T07:42:16Z</time>
<speed>0.0</speed>
</trkpt>
<trkpt lat="47.458301" lon="8.743095">
<ele>643.3</ele>
<time>2003-09-19T07:42:21Z</time>
<speed>0.0</speed>
</trkpt>
<trkpt lat="47.458301" lon="8.743095">
<ele>643.3</ele>
<time>2003-09-19T07:42:26Z</time>
<speed>0.0</speed>
</trkpt>
<trkpt lat="47.458301" lon="8.743095">
<ele>643.3</ele>
<time>2003-09-19T07:42:31Z</time>
<speed>0.0</speed>
</trkpt>
<trkpt lat="47.458301" lon="8.743095">
<ele>643.3</ele>
<time>2003-09-19T07:42:36Z</time>
<speed>0.0</speed>
</trkpt>
<trkpt lat="47.458301" lon="8.743095">
<ele>643.3</ele>
<time>2003-09-19T07:42:41Z</time>
<speed>0.0</speed>
</trkpt>
<trkpt lat="47.458301" lon="8.743095">
<ele>643.3</ele>
<time>2003-09-19T07:42:46Z</time>
<speed>0.0</speed>
</trkpt>
<trkpt lat="47.458301" lon="8.743095">
<ele>643.3</ele>
<time>2003-09-19T07:42:51Z</time>
<speed>0.0</speed>
</trkpt>
<trkpt lat="47.458301" lon="8.743095">
<ele>643.3</ele>
<time>2003-09-19T07:42:56Z</time>
<speed>0.0</speed>
</trkpt>
<trkpt lat="47.458301" lon="8.743095">
<ele>643.3</ele>
<time>2003-09-19T07:43:01Z</time>
<speed>0.0</speed>
</trkpt>
<trkpt lat="47.458301" lon="8.743095">
<ele>643.3</ele>
<time>2003-09-19T07:43:06Z</time>
<speed>0.0</speed>
</trkpt>
<trkpt lat="47.458301" lon="8.743095">
<ele>643.3</ele>
<time>2003-09-19T07:43:11Z</time>
<speed>0.0</speed>
</trkpt>
<trkpt lat="47.458301" lon="8.743095">
<ele>643.3</ele>
<time>2003-09-19T07:43:16Z</time>
<speed>0.0</speed>
</trkpt>
<trkpt lat="47.458301" lon="8.743095">
<ele>643.3</ele>
<time>2003-09-19T07:43:21Z</time>
<speed>0.0</speed>
</trkpt>
<trkpt lat="47.458307" lon="8.743095">
<ele>644.0</ele>
<time>2003-09-19T07:43:26Z</time>
<speed>0.0</speed>
</trkpt>
<trkpt lat="47.458307" lon="8.743095">
<ele>644.0</ele>
<time>2003-09-19T07:43:31Z</time>
<speed>0.0</speed>
</trkpt>
<trkpt lat="47.458306" lon="8.743108">
<ele>644.1</ele>
<time>2003-09-19T07:43:36Z</time>
<speed>0.0</speed>
</trkpt>
<trkpt lat="47.458312" lon="8.743108">
<ele>644.9</ele>
<time>2003-09-19T07:43:41Z</time>
<speed>0.0</speed>
</trkpt>
<trkpt lat="47.458318" lon="8.743110">
<ele>644.2</ele>
<time>2003-09-19T07:43:46Z</time>
<speed>0.0</speed>
</trkpt>
<trkpt lat="47.458318" lon="8.743110">
<ele>644.2</ele>
<time>2003-09-19T07:43:51Z</time>
<speed>0.0</speed>
</trkpt>
<trkpt lat="47.458324" lon="8.743110">
<ele>644.9</ele>
<time>2003-09-19T07:43:56Z</time>
<speed>0.0</speed>
</trkpt>
<trkpt lat="47.458324" lon="8.743110">
<ele>644.9</ele>
<time>2003-09-19T07:44:01Z</time>
<speed>0.0</speed>
</trkpt>
<trkpt lat="47.458324" lon="8.743110">
<ele>644.9</ele>
<time>2003-09-19T07:44:06Z</time>
<speed>0.0</speed>
</trkpt>
<trkpt lat="47.458324" lon="8.743110">
<ele>644.9</ele>
<time>2003-09-19T07:44:11Z</time>
<speed>0.0</speed>
</trkpt>
<trkpt lat="47.458324" lon="8.743110">
<ele>644.9</ele>
<time>2003-09-19T07:44:16Z</time>
<speed>0.0</speed>
</trkpt>
<trkpt lat="47.458324" lon="8.743110">
<ele>644.9</ele>
<time>2003-09-19T07:44:21Z</time>
<speed>0.0</speed>
</trkpt>
<trkpt lat="47.458324" lon="8.743110">
<ele>644.9</ele>
<time>2003-09-19T07:44:26Z</time>
<speed>0.0</speed>
</trkpt>
<trkpt lat="47.458324" lon="8.743110">
<ele>644.9</ele>
<time>2003-09-19T07:44:31Z</time>
<speed>0.0</speed>
</trkpt>
<trkpt lat="47.458324" lon="8.743110">
<ele>644.9</ele>
<time>2003-09-19T07:44:36Z</time>
<speed>0.0</speed>
</trkpt>
<trkpt lat="47.458324" lon="8.743110">
<ele>644.9</ele>
<time>2003-09-19T07:44:41Z</time>
<speed>0.0</speed>
</trkpt>
<trkpt lat="47.458324" lon="8.743110">
<ele>644.9</ele>
<time>2003-09-19T07:44:46Z</time>
<speed>0.0</speed>
</trkpt>
<trkpt lat="47.458324" lon="8.743110">
<ele>644.9</ele>
<time>2003-09-19T07:44:51Z</time>
<speed>0.0</speed>
</trkpt>
<trkpt lat="47.458324" lon="8.743110">
<ele>644.9</ele>
<time>2003-09-19T07:44:56Z</time>
<speed>0.0</speed>
</trkpt>
<trkpt lat="47.458324" lon="8.743110">
<ele>644.9</ele>
<time>2003-09-19T07:45:01Z</time>
<speed>0.0</speed>
</trkpt>
<trkpt lat="47.458324" lon="8.743110">
<ele>644.9</ele>
<time>2003-09-19T07:45:06Z</time>
<speed>0.0</speed>
</trkpt>
<trkpt lat="47.458324" lon="8.743110">
<ele>644.9</ele>
<time>2003-09-19T07:45:11Z</time>
<speed>0.0</speed>
</trkpt>
<trkpt lat="47.458324" lon="8.743110">
<ele>644.9</ele>
<time>2003-09-19T07:45:16Z</time>
<speed>0.0</speed>
</trkpt>
<trkpt lat="47.458324" lon="8.743110">
<ele>644.9</ele>
<time>2003-09-19T07:45:21Z</time>
<speed>0.0</speed>
</trkpt>
<trkpt lat="47.458324" lon="8.743110">
<ele>644.9</ele>
<time>2003-09-19T07:45:26Z</time>
<speed>0.0</speed>
</trkpt>
<trkpt lat="47.458324" lon="8.743110">
<ele>644.9</ele>
<time>2003-09-19T07:45:31Z</time>
<speed>0.0</speed>
</trkpt>
<trkpt lat="47.458324" lon="8.743110">
<ele>644.9</ele>
<time>2003-09-19T07:45:36Z</time>
<speed>0.0</speed>
</trkpt>
<trkpt lat="47.458332" lon="8.743099">
<ele>644.2</ele>
<time>2003-09-19T07:45:41Z</time>
<speed>0.0</speed>
</trkpt>
<trkpt lat="47.458344" lon="8.743101">
<ele>644.2</ele>
<time>2003-09-19T07:45:46Z</time>
<speed>0.0</speed>
</trkpt>
<trkpt lat="47.458345" lon="8.743088">
<ele>644.1</ele>
<time>2003-09-19T07:45:51Z</time>
<speed>0.0</speed>
</trkpt>
<trkpt lat="47.458353" lon="8.743075">
<ele>644.8</ele>
<time>2003-09-19T07:45:56Z</time>
<speed>0.0</speed>
</trkpt>
<trkpt lat="47.458352" lon="8.743088">
<ele>644.9</ele>
<time>2003-09-19T07:46:01Z</time>
<speed>0.3</speed>
</trkpt>
<trkpt lat="47.458352" lon="8.743088">
<ele>644.9</ele>
<time>2003-09-19T07:46:06Z</time>
<speed>0.0</speed>
</trkpt>
<trkpt lat="47.458352" lon="8.743088">
<ele>644.9</ele>
<time>2003-09-19T07:46:11Z</time>
<speed>0.0</speed>
</trkpt>
<trkpt lat="47.458352" lon="8.743088">
<ele>644.9</ele>
<time>2003-09-19T07:46:16Z</time>
<speed>0.0</speed>
</trkpt>
<trkpt lat="47.458344" lon="8.743099">
<ele>645.6</ele>
<time>2003-09-19T07:46:21Z</time>
<speed>0.0</speed>
</trkpt>
<trkpt lat="47.458344" lon="8.743099">
<ele>645.6</ele>
<time>2003-09-19T07:46:26Z</time>
<speed>0.0</speed>
</trkpt>
<trkpt lat="47.458344" lon="8.743099">
<ele>645.6</ele>
<time>2003-09-19T07:46:31Z</time>
<speed>0.0</speed>
</trkpt>
<trkpt lat="47.458345" lon="8.743086">
<ele>645.5</ele>
<time>2003-09-19T07:46:36Z</time>
<speed>0.0</speed>
</trkpt>
<trkpt lat="47.458340" lon="8.743073">
<ele>644.7</ele>
<time>2003-09-19T07:46:41Z</time>
<speed>0.0</speed>
</trkpt>
<trkpt lat="47.458342" lon="8.743047">
<ele>644.5</ele>
<time>2003-09-19T07:46:46Z</time>
<speed>0.0</speed>
</trkpt>
<trkpt lat="47.458342" lon="8.743047">
<ele>644.5</ele>
<time>2003-09-19T07:46:51Z</time>
<speed>0.0</speed>
</trkpt>
<trkpt lat="47.458349" lon="8.743049">
<ele>643.8</ele>
<time>2003-09-19T07:46:56Z</time>
<speed>0.0</speed>
</trkpt>
<trkpt lat="47.458341" lon="8.743060">
<ele>644.6</ele>
<time>2003-09-19T07:47:01Z</time>
<speed>0.0</speed>
</trkpt>
<trkpt lat="47.458341" lon="8.743060">
<ele>644.6</ele>
<time>2003-09-19T07:47:06Z</time>
<speed>0.0</speed>
</trkpt>
<trkpt lat="47.458341" lon="8.743060">
<ele>644.6</ele>
<time>2003-09-19T07:47:11Z</time>
<speed>0.0</speed>
</trkpt>
<trkpt lat="47.458341" lon="8.743060">
<ele>644.6</ele>
<time>2003-09-19T07:47:16Z</time>
<speed>0.0</speed>
</trkpt>
<trkpt lat="47.458341" lon="8.743060">
<ele>644.6</ele>
<time>2003-09-19T07:47:21Z</time>
<speed>0.0</speed>
</trkpt>
<trkpt lat="47.458341" lon="8.743060">
<ele>644.6</ele>
<time>2003-09-19T07:47:26Z</time>
<speed>0.0</speed>
</trkpt>
<trkpt lat="47.458341" lon="8.743060">
<ele>644.6</ele>
<time>2003-09-19T07:47:31Z</time>
<speed>0.0</speed>
</trkpt>
<trkpt lat="47.458341" lon="8.743060">
<ele>644.6</ele>
<time>2003-09-19T07:47:36Z</time>
<speed>0.0</speed>
</trkpt>
<trkpt lat="47.458328" lon="8.743073">
<ele>643.2</ele>
<time>2003-09-19T07:47:41Z</time>
<speed>0.0</speed>
</trkpt>
<trkpt lat="47.458328" lon="8.743073">
<ele>643.2</ele>
<time>2003-09-19T07:47:46Z</time>
<speed>0.0</speed>
</trkpt>
<trkpt lat="47.458328" lon="8.743073">
<ele>643.2</ele>
<time>2003-09-19T07:47:51Z</time>
<speed>0.0</speed>
</trkpt>
<trkpt lat="47.458322" lon="8.743073">
<ele>642.5</ele>
<time>2003-09-19T07:47:56Z</time>
<speed>0.0</speed>
</trkpt>
<trkpt lat="47.458322" lon="8.743073">
<ele>642.5</ele>
<time>2003-09-19T07:48:01Z</time>
<speed>0.0</speed>
</trkpt>
<trkpt lat="47.458316" lon="8.743073">
<ele>641.8</ele>
<time>2003-09-19T07:48:06Z</time>
<speed>0.0</speed>
</trkpt>
<trkpt lat="47.458316" lon="8.743073">
<ele>641.8</ele>
<time>2003-09-19T07:48:11Z</time>
<speed>0.0</speed>
</trkpt>
<trkpt lat="47.458316" lon="8.743073">
<ele>641.8</ele>
<time>2003-09-19T07:48:16Z</time>
<speed>0.0</speed>
</trkpt>
<trkpt lat="47.458316" lon="8.743073">
<ele>641.8</ele>
<time>2003-09-19T07:48:21Z</time>
<speed>0.0</speed>
</trkpt>
<trkpt lat="47.458316" lon="8.743073">
<ele>641.8</ele>
<time>2003-09-19T07:48:26Z</time>
<speed>0.0</speed>
</trkpt>
<trkpt lat="47.458316" lon="8.743073">
<ele>641.8</ele>
<time>2003-09-19T07:48:31Z</time>
<speed>0.0</speed>
</trkpt>
<trkpt lat="47.458316" lon="8.743073">
<ele>641.8</ele>
<time>2003-09-19T07:48:36Z</time>
<speed>0.0</speed>
</trkpt>
<trkpt lat="47.458316" lon="8.743073">
<ele>641.8</ele>
<time>2003-09-19T07:48:41Z</time>
<speed>0.0</speed>
</trkpt>
<trkpt lat="47.458316" lon="8.743073">
<ele>641.8</ele>
<time>2003-09-19T07:48:46Z</time>
<speed>0.0</speed>
</trkpt>
<trkpt lat="47.458316" lon="8.743073">
<ele>641.8</ele>
<time>2003-09-19T07:48:51Z</time>
<speed>0.0</speed>
</trkpt>
<trkpt lat="47.458316" lon="8.743073">
<ele>641.8</ele>
<time>2003-09-19T07:48:56Z</time>
<speed>0.0</speed>
</trkpt>
<trkpt lat="47.458316" lon="8.743073">
<ele>641.8</ele>
<time>2003-09-19T07:49:01Z</time>
<speed>0.0</speed>
</trkpt>
<trkpt lat="47.458316" lon="8.743073">
<ele>641.8</ele>
<time>2003-09-19T07:49:06Z</time>
<speed>0.0</speed>
</trkpt>
<trkpt lat="47.458316" lon="8.743073">
<ele>641.8</ele>
<time>2003-09-19T07:49:11Z</time>
<speed>0.0</speed>
</trkpt>
<trkpt lat="47.458316" lon="8.743073">
<ele>641.8</ele>
<time>2003-09-19T07:49:16Z</time>
<speed>0.0</speed>
</trkpt>
<trkpt lat="47.458316" lon="8.743073">
<ele>641.8</ele>
<time>2003-09-19T07:49:21Z</time>
<speed>0.0</speed>
</trkpt>
<trkpt lat="47.458316" lon="8.743073">
<ele>641.8</ele>
<time>2003-09-19T07:49:26Z</time>
<speed>0.0</speed>
</trkpt>
<trkpt lat="47.458322" lon="8.743073">
<ele>642.5</ele>
<time>2003-09-19T07:49:31Z</time>
<speed>0.0</speed>
</trkpt>
<trkpt lat="47.458322" lon="8.743073">
<ele>642.5</ele>
<time>2003-09-19T07:49:36Z</time>
<speed>0.0</speed>
</trkpt>
<trkpt lat="47.458322" lon="8.743073">
<ele>642.5</ele>
<time>2003-09-19T07:49:41Z</time>
<speed>0.0</speed>
</trkpt>
<trkpt lat="47.458322" lon="8.743073">
<ele>642.5</ele>
<time>2003-09-19T07:49:46Z</time>
<speed>0.0</speed>
</trkpt>
<trkpt lat="47.458322" lon="8.743073">
<ele>642.5</ele>
<time>2003-09-19T07:49:51Z</time>
<speed>0.0</speed>
</trkpt>
<trkpt lat="47.458322" lon="8.743073">
<ele>642.5</ele>
<time>2003-09-19T07:49:56Z</time>
<speed>0.0</speed>
</trkpt>
<trkpt lat="47.458322" lon="8.743073">
<ele>642.5</ele>
<time>2003-09-19T07:50:01Z</time>
<speed>0.0</speed>
</trkpt>
<trkpt lat="47.458322" lon="8.743073">
<ele>642.5</ele>
<time>2003-09-19T07:50:06Z</time>
<speed>0.0</speed>
</trkpt>
<trkpt lat="47.458322" lon="8.743073">
<ele>642.5</ele>
<time>2003-09-19T07:50:11Z</time>
<speed>0.0</speed>
</trkpt>
<trkpt lat="47.458322" lon="8.743073">
<ele>642.5</ele>
<time>2003-09-19T07:50:16Z</time>
<speed>0.0</speed>
</trkpt>
<trkpt lat="47.458322" lon="8.743073">
<ele>642.5</ele>
<time>2003-09-19T07:50:21Z</time>
<speed>0.0</speed>
</trkpt>
<trkpt lat="47.458322" lon="8.743073">
<ele>642.5</ele>
<time>2003-09-19T07:50:26Z</time>
<speed>0.0</speed>
</trkpt>
<trkpt lat="47.458335" lon="8.743062">
<ele>642.5</ele>
<time>2003-09-19T07:50:31Z</time>
<speed>0.0</speed>
</trkpt>
<trkpt lat="47.458335" lon="8.743062">
<ele>642.5</ele>
<time>2003-09-19T07:50:36Z</time>
<speed>0.0</speed>
</trkpt>
<trkpt lat="47.458329" lon="8.743060">
<ele>643.1</ele>
<time>2003-09-19T07:50:41Z</time>
<speed>0.0</speed>
</trkpt>
<trkpt lat="47.458329" lon="8.743060">
<ele>643.1</ele>
<time>2003-09-19T07:50:46Z</time>
<speed>0.0</speed>
</trkpt>
<trkpt lat="47.458329" lon="8.743060">
<ele>643.1</ele>
<time>2003-09-19T07:50:51Z</time>
<speed>0.0</speed>
</trkpt>
<trkpt lat="47.458329" lon="8.743060">
<ele>643.1</ele>
<time>2003-09-19T07:50:56Z</time>
<speed>0.0</speed>
</trkpt>
<trkpt lat="47.458329" lon="8.743060">
<ele>643.1</ele>
<time>2003-09-19T07:51:01Z</time>
<speed>0.0</speed>
</trkpt>
<trkpt lat="47.458329" lon="8.743060">
<ele>643.1</ele>
<time>2003-09-19T07:51:06Z</time>
<speed>0.0</speed>
</trkpt>
<trkpt lat="47.458329" lon="8.743060">
<ele>643.1</ele>
<time>2003-09-19T07:51:11Z</time>
<speed>0.0</speed>
</trkpt>
<trkpt lat="47.458329" lon="8.743060">
<ele>643.1</ele>
<time>2003-09-19T07:51:16Z</time>
<speed>0.0</speed>
</trkpt>
<trkpt lat="47.458329" lon="8.743060">
<ele>643.1</ele>
<time>2003-09-19T07:51:21Z</time>
<speed>0.0</speed>
</trkpt>
<trkpt lat="47.458329" lon="8.743060">
<ele>643.1</ele>
<time>2003-09-19T07:51:26Z</time>
<speed>0.0</speed>
</trkpt>
<trkpt lat="47.458329" lon="8.743060">
<ele>643.1</ele>
<time>2003-09-19T07:51:31Z</time>
<speed>0.0</speed>
</trkpt>
<trkpt lat="47.458336" lon="8.743049">
<ele>642.4</ele>
<time>2003-09-19T07:51:36Z</time>
<speed>0.0</speed>
</trkpt>
<trkpt lat="47.458342" lon="8.743049">
<ele>643.1</ele>
<time>2003-09-19T07:51:41Z</time>
<speed>0.0</speed>
</trkpt>
<trkpt lat="47.458354" lon="8.743064">
<ele>643.3</ele>
<time>2003-09-19T07:51:46Z</time>
<speed>0.0</speed>
</trkpt>
<trkpt lat="47.458354" lon="8.743064">
<ele>643.3</ele>
<time>2003-09-19T07:51:51Z</time>
<speed>0.0</speed>
</trkpt>
<trkpt lat="47.458354" lon="8.743064">
<ele>643.3</ele>
<time>2003-09-19T07:51:56Z</time>
<speed>0.0</speed>
</trkpt>
<trkpt lat="47.458354" lon="8.743064">
<ele>643.3</ele>
<time>2003-09-19T07:52:01Z</time>
<speed>0.0</speed>
</trkpt>
<trkpt lat="47.458354" lon="8.743064">
<ele>643.3</ele>
<time>2003-09-19T07:52:06Z</time>
<speed>0.0</speed>
</trkpt>
<trkpt lat="47.458354" lon="8.743064">
<ele>643.3</ele>
<time>2003-09-19T07:52:11Z</time>
<speed>0.0</speed>
</trkpt>
<trkpt lat="47.458354" lon="8.743064">
<ele>643.3</ele>
<time>2003-09-19T07:52:16Z</time>
<speed>0.0</speed>
</trkpt>
<trkpt lat="47.458354" lon="8.743064">
<ele>643.3</ele>
<time>2003-09-19T07:52:21Z</time>
<speed>0.0</speed>
</trkpt>
<trkpt lat="47.458354" lon="8.743064">
<ele>643.3</ele>
<time>2003-09-19T07:52:26Z</time>
<speed>0.0</speed>
</trkpt>
<trkpt lat="47.458354" lon="8.743064">
<ele>643.3</ele>
<time>2003-09-19T07:52:31Z</time>
<speed>0.0</speed>
</trkpt>
<trkpt lat="47.458354" lon="8.743064">
<ele>643.3</ele>
<time>2003-09-19T07:52:36Z</time>
<speed>0.0</speed>
</trkpt>
<trkpt lat="47.458354" lon="8.743064">
<ele>643.3</ele>
<time>2003-09-19T07:52:41Z</time>
<speed>0.0</speed>
</trkpt>
<trkpt lat="47.458354" lon="8.743064">
<ele>643.3</ele>
<time>2003-09-19T07:52:46Z</time>
<speed>0.0</speed>
</trkpt>
<trkpt lat="47.458354" lon="8.743064">
<ele>643.3</ele>
<time>2003-09-19T07:52:51Z</time>
<speed>0.0</speed>
</trkpt>
<trkpt lat="47.458354" lon="8.743064">
<ele>643.3</ele>
<time>2003-09-19T07:52:56Z</time>
<speed>0.0</speed>
</trkpt>
<trkpt lat="47.458354" lon="8.743064">
<ele>643.3</ele>
<time>2003-09-19T07:53:01Z</time>
<speed>0.0</speed>
</trkpt>
<trkpt lat="47.458354" lon="8.743064">
<ele>643.3</ele>
<time>2003-09-19T07:53:06Z</time>
<speed>0.0</speed>
</trkpt>
<trkpt lat="47.458354" lon="8.743064">
<ele>643.3</ele>
<time>2003-09-19T07:53:11Z</time>
<speed>0.0</speed>
</trkpt>
<trkpt lat="47.458354" lon="8.743064">
<ele>643.3</ele>
<time>2003-09-19T07:53:16Z</time>
<speed>0.0</speed>
</trkpt>
<trkpt lat="47.458354" lon="8.743064">
<ele>643.3</ele>
<time>2003-09-19T07:53:21Z</time>
<speed>0.0</speed>
</trkpt>
<trkpt lat="47.458354" lon="8.743064">
<ele>643.3</ele>
<time>2003-09-19T07:53:26Z</time>
<speed>0.0</speed>
</trkpt>
<trkpt lat="47.458354" lon="8.743064">
<ele>643.3</ele>
<time>2003-09-19T07:53:31Z</time>
<speed>0.0</speed>
</trkpt>
<trkpt lat="47.458353" lon="8.743077">
<ele>643.4</ele>
<time>2003-09-19T07:53:36Z</time>
<speed>0.0</speed>
</trkpt>
<trkpt lat="47.458353" lon="8.743077">
<ele>643.4</ele>
<time>2003-09-19T07:53:41Z</time>
<speed>0.0</speed>
</trkpt>
<trkpt lat="47.458347" lon="8.743077">
<ele>642.6</ele>
<time>2003-09-19T07:53:46Z</time>
<speed>0.0</speed>
</trkpt>
<trkpt lat="47.458347" lon="8.743077">
<ele>642.6</ele>
<time>2003-09-19T07:53:51Z</time>
<speed>0.0</speed>
</trkpt>
<trkpt lat="47.458347" lon="8.743077">
<ele>642.6</ele>
<time>2003-09-19T07:53:56Z</time>
<speed>0.0</speed>
</trkpt>
<trkpt lat="47.458347" lon="8.743077">
<ele>642.6</ele>
<time>2003-09-19T07:54:01Z</time>
<speed>0.0</speed>
</trkpt>
<trkpt lat="47.458347" lon="8.743077">
<ele>642.6</ele>
<time>2003-09-19T07:54:06Z</time>
<speed>0.0</speed>
</trkpt>
<trkpt lat="47.458347" lon="8.743077">
<ele>642.6</ele>
<time>2003-09-19T07:54:11Z</time>
<speed>0.0</speed>
</trkpt>
<trkpt lat="47.458347" lon="8.743077">
<ele>642.6</ele>
<time>2003-09-19T07:54:16Z</time>
<speed>0.0</speed>
</trkpt>
<trkpt lat="47.458347" lon="8.743077">
<ele>642.6</ele>
<time>2003-09-19T07:54:21Z</time>
<speed>0.0</speed>
</trkpt>
<trkpt lat="47.458347" lon="8.743077">
<ele>642.6</ele>
<time>2003-09-19T07:54:26Z</time>
<speed>0.0</speed>
</trkpt>
<trkpt lat="47.458347" lon="8.743077">
<ele>642.6</ele>
<time>2003-09-19T07:54:31Z</time>
<speed>0.0</speed>
</trkpt>
<trkpt lat="47.458347" lon="8.743077">
<ele>642.6</ele>
<time>2003-09-19T07:54:36Z</time>
<speed>0.0</speed>
</trkpt>
<trkpt lat="47.458347" lon="8.743077">
<ele>642.6</ele>
<time>2003-09-19T07:54:41Z</time>
<speed>0.0</speed>
</trkpt>
<trkpt lat="47.458347" lon="8.743077">
<ele>642.6</ele>
<time>2003-09-19T07:54:46Z</time>
<speed>0.0</speed>
</trkpt>
<trkpt lat="47.458347" lon="8.743077">
<ele>642.6</ele>
<time>2003-09-19T07:54:51Z</time>
<speed>0.0</speed>
</trkpt>
<trkpt lat="47.458347" lon="8.743077">
<ele>642.6</ele>
<time>2003-09-19T07:54:56Z</time>
<speed>0.0</speed>
</trkpt>
<trkpt lat="47.458347" lon="8.743077">
<ele>642.6</ele>
<time>2003-09-19T07:55:01Z</time>
<speed>0.0</speed>
</trkpt>
<trkpt lat="47.458347" lon="8.743077">
<ele>642.6</ele>
<time>2003-09-19T07:55:06Z</time>
<speed>0.0</speed>
</trkpt>
<trkpt lat="47.458347" lon="8.743077">
<ele>642.6</ele>
<time>2003-09-19T07:55:11Z</time>
<speed>0.0</speed>
</trkpt>
<trkpt lat="47.458347" lon="8.743077">
<ele>642.6</ele>
<time>2003-09-19T07:55:16Z</time>
<speed>0.0</speed>
</trkpt>
<trkpt lat="47.458347" lon="8.743077">
<ele>642.6</ele>
<time>2003-09-19T07:55:21Z</time>
<speed>0.0</speed>
</trkpt>
<trkpt lat="47.458347" lon="8.743077">
<ele>642.6</ele>
<time>2003-09-19T07:55:26Z</time>
<speed>0.0</speed>
</trkpt>
<trkpt lat="47.458347" lon="8.743077">
<ele>642.6</ele>
<time>2003-09-19T07:55:31Z</time>
<speed>0.0</speed>
</trkpt>
<trkpt lat="47.458347" lon="8.743077">
<ele>642.6</ele>
<time>2003-09-19T07:55:36Z</time>
<speed>0.0</speed>
</trkpt>
<trkpt lat="47.458347" lon="8.743077">
<ele>642.6</ele>
<time>2003-09-19T07:55:41Z</time>
<speed>0.0</speed>
</trkpt>
<trkpt lat="47.458347" lon="8.743077">
<ele>642.6</ele>
<time>2003-09-19T07:55:46Z</time>
<speed>0.0</speed>
</trkpt>
<trkpt lat="47.458347" lon="8.743077">
<ele>642.6</ele>
<time>2003-09-19T07:55:51Z</time>
<speed>0.0</speed>
</trkpt>
<trkpt lat="47.458347" lon="8.743077">
<ele>642.6</ele>
<time>2003-09-19T07:55:56Z</time>
<speed>0.0</speed>
</trkpt>
<trkpt lat="47.458347" lon="8.743077">
<ele>642.6</ele>
<time>2003-09-19T07:56:01Z</time>
<speed>0.0</speed>
</trkpt>
<trkpt lat="47.458347" lon="8.743077">
<ele>642.6</ele>
<time>2003-09-19T07:56:06Z</time>
<speed>0.0</speed>
</trkpt>
<trkpt lat="47.458347" lon="8.743077">
<ele>642.6</ele>
<time>2003-09-19T07:56:11Z</time>
<speed>0.0</speed>
</trkpt>
<trkpt lat="47.458347" lon="8.743077">
<ele>642.6</ele>
<time>2003-09-19T07:56:16Z</time>
<speed>0.0</speed>
</trkpt>
<trkpt lat="47.458347" lon="8.743077">
<ele>642.6</ele>
<time>2003-09-19T07:56:21Z</time>
<speed>0.0</speed>
</trkpt>
<trkpt lat="47.458347" lon="8.743077">
<ele>642.6</ele>
<time>2003-09-19T07:56:26Z</time>
<speed>0.0</speed>
</trkpt>
<trkpt lat="47.458346" lon="8.743090">
<ele>642.7</ele>
<time>2003-09-19T07:56:31Z</time>
<speed>0.0</speed>
</trkpt>
<trkpt lat="47.458346" lon="8.743090">
<ele>642.7</ele>
<time>2003-09-19T07:56:36Z</time>
<speed>0.0</speed>
</trkpt>
<trkpt lat="47.458346" lon="8.743090">
<ele>642.7</ele>
<time>2003-09-19T07:56:41Z</time>
<speed>0.0</speed>
</trkpt>
<trkpt lat="47.458346" lon="8.743090">
<ele>642.7</ele>
<time>2003-09-19T07:56:46Z</time>
<speed>0.0</speed>
</trkpt>
<trkpt lat="47.458346" lon="8.743090">
<ele>642.7</ele>
<time>2003-09-19T07:56:51Z</time>
<speed>0.0</speed>
</trkpt>
<trkpt lat="47.458346" lon="8.743090">
<ele>642.7</ele>
<time>2003-09-19T07:56:56Z</time>
<speed>0.0</speed>
</trkpt>
<trkpt lat="47.458346" lon="8.743090">
<ele>642.7</ele>
<time>2003-09-19T07:57:01Z</time>
<speed>0.0</speed>
</trkpt>
<trkpt lat="47.458346" lon="8.743090">
<ele>642.7</ele>
<time>2003-09-19T07:57:06Z</time>
<speed>0.0</speed>
</trkpt>
<trkpt lat="47.458346" lon="8.743090">
<ele>642.7</ele>
<time>2003-09-19T07:57:11Z</time>
<speed>0.0</speed>
</trkpt>
<trkpt lat="47.458346" lon="8.743090">
<ele>642.7</ele>
<time>2003-09-19T07:57:16Z</time>
<speed>0.0</speed>
</trkpt>
<trkpt lat="47.458346" lon="8.743090">
<ele>642.7</ele>
<time>2003-09-19T07:57:21Z</time>
<speed>0.0</speed>
</trkpt>
<trkpt lat="47.458346" lon="8.743090">
<ele>642.7</ele>
<time>2003-09-19T07:57:26Z</time>
<speed>0.0</speed>
</trkpt>
<trkpt lat="47.458346" lon="8.743090">
<ele>642.7</ele>
<time>2003-09-19T07:57:31Z</time>
<speed>0.0</speed>
</trkpt>
<trkpt lat="47.458351" lon="8.743103">
<ele>643.6</ele>
<time>2003-09-19T07:57:36Z</time>
<speed>0.0</speed>
</trkpt>
<trkpt lat="47.458345" lon="8.743103">
<ele>642.8</ele>
<time>2003-09-19T07:57:41Z</time>
<speed>0.0</speed>
</trkpt>
<trkpt lat="47.458359" lon="8.743092">
<ele>642.8</ele>
<time>2003-09-19T07:57:46Z</time>
<speed>0.0</speed>
</trkpt>
<trkpt lat="47.458359" lon="8.743092">
<ele>642.8</ele>
<time>2003-09-19T07:57:51Z</time>
<speed>0.0</speed>
</trkpt>
<trkpt lat="47.458360" lon="8.743079">
<ele>642.7</ele>
<time>2003-09-19T07:57:56Z</time>
<speed>0.0</speed>
</trkpt>
<trkpt lat="47.458360" lon="8.743079">
<ele>642.7</ele>
<time>2003-09-19T07:58:01Z</time>
<speed>0.0</speed>
</trkpt>
<trkpt lat="47.458360" lon="8.743079">
<ele>642.7</ele>
<time>2003-09-19T07:58:06Z</time>
<speed>0.0</speed>
</trkpt>
<trkpt lat="47.458360" lon="8.743079">
<ele>642.7</ele>
<time>2003-09-19T07:58:11Z</time>
<speed>0.0</speed>
</trkpt>
<trkpt lat="47.458360" lon="8.743079">
<ele>642.7</ele>
<time>2003-09-19T07:58:16Z</time>
<speed>0.0</speed>
</trkpt>
<trkpt lat="47.458367" lon="8.743068">
<ele>641.9</ele>
<time>2003-09-19T07:58:21Z</time>
<speed>0.3</speed>
</trkpt>
<trkpt lat="47.458373" lon="8.743068">
<ele>642.7</ele>
<time>2003-09-19T07:58:26Z</time>
<speed>0.0</speed>
</trkpt>
<trkpt lat="47.458373" lon="8.743068">
<ele>642.7</ele>
<time>2003-09-19T07:58:31Z</time>
<speed>0.0</speed>
</trkpt>
<trkpt lat="47.458369" lon="8.743136">
<ele>641.8</ele>
<time>2003-09-19T07:58:36Z</time>
<speed>0.6</speed>
</trkpt>
<trkpt lat="47.458383" lon="8.743190">
<ele>643.0</ele>
<time>2003-09-19T07:58:41Z</time>
<speed>0.8</speed>
</trkpt>
<trkpt lat="47.458372" lon="8.743256">
<ele>642.8</ele>
<time>2003-09-19T07:58:46Z</time>
<speed>1.1</speed>
</trkpt>
<trkpt lat="47.458373" lon="8.743336">
<ele>642.7</ele>
<time>2003-09-19T07:58:51Z</time>
<speed>0.8</speed>
</trkpt>
<trkpt lat="47.458387" lon="8.743406">
<ele>642.6</ele>
<time>2003-09-19T07:58:56Z</time>
<speed>0.8</speed>
</trkpt>
<trkpt lat="47.458420" lon="8.743477">
<ele>643.4</ele>
<time>2003-09-19T07:59:01Z</time>
<speed>0.8</speed>
</trkpt>
<trkpt lat="47.458455" lon="8.743525">
<ele>642.5</ele>
<time>2003-09-19T07:59:06Z</time>
<speed>0.8</speed>
</trkpt>
<trkpt lat="47.458473" lon="8.743540">
<ele>643.4</ele>
<time>2003-09-19T07:59:11Z</time>
<speed>0.8</speed>
</trkpt>
<trkpt lat="47.458508" lon="8.743585">
<ele>643.9</ele>
<time>2003-09-19T07:59:16Z</time>
<speed>0.6</speed>
</trkpt>
<trkpt lat="47.458476" lon="8.743675">
<ele>643.1</ele>
<time>2003-09-19T07:59:21Z</time>
<speed>0.8</speed>
</trkpt>
<trkpt lat="47.458427" lon="8.743735">
<ele>642.6</ele>
<time>2003-09-19T07:59:26Z</time>
<speed>0.8</speed>
</trkpt>
<trkpt lat="47.458405" lon="8.743772">
<ele>642.1</ele>
<time>2003-09-19T07:59:31Z</time>
<speed>0.6</speed>
</trkpt>
<trkpt lat="47.458379" lon="8.743862">
<ele>642.0</ele>
<time>2003-09-19T07:59:36Z</time>
<speed>0.6</speed>
</trkpt>
<trkpt lat="47.458358" lon="8.743899">
<ele>641.6</ele>
<time>2003-09-19T07:59:41Z</time>
<speed>0.3</speed>
</trkpt>
<trkpt lat="47.458374" lon="8.743942">
<ele>641.3</ele>
<time>2003-09-19T07:59:46Z</time>
<speed>0.0</speed>
</trkpt>
<trkpt lat="47.458374" lon="8.743942">
<ele>641.3</ele>
<time>2003-09-19T07:59:51Z</time>
<speed>0.0</speed>
</trkpt>
<trkpt lat="47.458374" lon="8.743942">
<ele>641.3</ele>
<time>2003-09-19T07:59:56Z</time>
<speed>0.0</speed>
</trkpt>
<trkpt lat="47.458374" lon="8.743942">
<ele>641.3</ele>
<time>2003-09-19T08:00:01Z</time>
<speed>0.0</speed>
</trkpt>
<trkpt lat="47.458374" lon="8.743942">
<ele>641.3</ele>
<time>2003-09-19T08:00:06Z</time>
<speed>0.0</speed>
</trkpt>
<trkpt lat="47.458374" lon="8.743942">
<ele>641.3</ele>
<time>2003-09-19T08:00:11Z</time>
<speed>0.0</speed>
</trkpt>
<trkpt lat="47.458374" lon="8.743942">
<ele>641.3</ele>
<time>2003-09-19T08:00:16Z</time>
<speed>0.0</speed>
</trkpt>
<trkpt lat="47.458374" lon="8.743942">
<ele>641.3</ele>
<time>2003-09-19T08:00:21Z</time>
<speed>0.0</speed>
</trkpt>
<trkpt lat="47.458367" lon="8.743940">
<ele>641.9</ele>
<time>2003-09-19T08:00:26Z</time>
<speed>0.0</speed>
</trkpt>
<trkpt lat="47.458367" lon="8.743940">
<ele>641.9</ele>
<time>2003-09-19T08:00:31Z</time>
<speed>0.0</speed>
</trkpt>
<trkpt lat="47.458367" lon="8.743940">
<ele>641.9</ele>
<time>2003-09-19T08:00:36Z</time>
<speed>0.0</speed>
</trkpt>
<trkpt lat="47.458354" lon="8.743951">
<ele>642.0</ele>
<time>2003-09-19T08:00:41Z</time>
<speed>0.3</speed>
</trkpt>
<trkpt lat="47.458326" lon="8.743973">
<ele>642.0</ele>
<time>2003-09-19T08:00:46Z</time>
<speed>0.3</speed>
</trkpt>
<trkpt lat="47.458291" lon="8.744007">
<ele>642.9</ele>
<time>2003-09-19T08:00:51Z</time>
<speed>0.6</speed>
</trkpt>
<trkpt lat="47.458269" lon="8.744057">
<ele>642.5</ele>
<time>2003-09-19T08:00:56Z</time>
<speed>1.1</speed>
</trkpt>
<trkpt lat="47.458246" lon="8.744110">
<ele>640.7</ele>
<time>2003-09-19T08:01:01Z</time>
<speed>0.8</speed>
</trkpt>
<trkpt lat="47.458205" lon="8.744158">
<ele>639.5</ele>
<time>2003-09-19T08:01:06Z</time>
<speed>0.8</speed>
</trkpt>
<trkpt lat="47.458171" lon="8.744193">
<ele>638.9</ele>
<time>2003-09-19T08:01:11Z</time>
<speed>0.8</speed>
</trkpt>
<trkpt lat="47.458137" lon="8.744215">
<ele>638.2</ele>
<time>2003-09-19T08:01:16Z</time>
<speed>0.6</speed>
</trkpt>
<trkpt lat="47.458102" lon="8.744264">
<ele>637.8</ele>
<time>2003-09-19T08:01:21Z</time>
<speed>0.8</speed>
</trkpt>
<trkpt lat="47.458068" lon="8.744299">
<ele>637.2</ele>
<time>2003-09-19T08:01:26Z</time>
<speed>0.8</speed>
</trkpt>
<trkpt lat="47.458027" lon="8.744334">
<ele>635.9</ele>
<time>2003-09-19T08:01:31Z</time>
<speed>0.8</speed>
</trkpt>
<trkpt lat="47.457988" lon="8.744357">
<ele>634.5</ele>
<time>2003-09-19T08:01:36Z</time>
<speed>0.8</speed>
</trkpt>
<trkpt lat="47.457949" lon="8.744364">
<ele>634.4</ele>
<time>2003-09-19T08:01:41Z</time>
<speed>0.8</speed>
</trkpt>
<trkpt lat="47.457893" lon="8.744340">
<ele>634.7</ele>
<time>2003-09-19T08:01:46Z</time>
<speed>1.1</speed>
</trkpt>
<trkpt lat="47.457843" lon="8.744319">
<ele>634.3</ele>
<time>2003-09-19T08:01:51Z</time>
<speed>0.8</speed>
</trkpt>
<trkpt lat="47.457800" lon="8.744298">
<ele>634.7</ele>
<time>2003-09-19T08:01:56Z</time>
<speed>0.8</speed>
</trkpt>
<trkpt lat="47.457739" lon="8.744262">
<ele>634.1</ele>
<time>2003-09-19T08:02:01Z</time>
<speed>0.8</speed>
</trkpt>
<trkpt lat="47.457691" lon="8.744214">
<ele>633.6</ele>
<time>2003-09-19T08:02:06Z</time>
<speed>0.8</speed>
</trkpt>
<trkpt lat="47.457642" lon="8.744178">
<ele>634.5</ele>
<time>2003-09-19T08:02:11Z</time>
<speed>0.8</speed>
</trkpt>
<trkpt lat="47.457606" lon="8.744146">
<ele>634.1</ele>
<time>2003-09-19T08:02:16Z</time>
<speed>0.8</speed>
</trkpt>
<trkpt lat="47.457599" lon="8.744157">
<ele>634.8</ele>
<time>2003-09-19T08:02:21Z</time>
<speed>0.0</speed>
</trkpt>
<trkpt lat="47.457564" lon="8.744112">
<ele>634.3</ele>
<time>2003-09-19T08:02:26Z</time>
<speed>1.1</speed>
</trkpt>
<trkpt lat="47.457508" lon="8.744088">
<ele>634.6</ele>
<time>2003-09-19T08:02:31Z</time>
<speed>1.1</speed>
</trkpt>
<trkpt lat="47.457459" lon="8.744150">
<ele>632.8</ele>
<time>2003-09-19T08:02:36Z</time>
<speed>1.1</speed>
</trkpt>
<trkpt lat="47.457429" lon="8.744229">
<ele>630.5</ele>
<time>2003-09-19T08:02:41Z</time>
<speed>1.1</speed>
</trkpt>
<trkpt lat="47.457373" lon="8.744286">
<ele>630.7</ele>
<time>2003-09-19T08:02:46Z</time>
<speed>1.1</speed>
</trkpt>
<trkpt lat="47.457324" lon="8.744344">
<ele>631.7</ele>
<time>2003-09-19T08:02:51Z</time>
<speed>1.1</speed>
</trkpt>
<trkpt lat="47.457276" lon="8.744390">
<ele>631.1</ele>
<time>2003-09-19T08:02:56Z</time>
<speed>1.1</speed>
</trkpt>
<trkpt lat="47.457222" lon="8.744421">
<ele>631.2</ele>
<time>2003-09-19T08:03:01Z</time>
<speed>1.1</speed>
</trkpt>
<trkpt lat="47.457181" lon="8.744454">
<ele>631.3</ele>
<time>2003-09-19T08:03:06Z</time>
<speed>1.1</speed>
</trkpt>
<trkpt lat="47.457116" lon="8.744471">
<ele>631.1</ele>
<time>2003-09-19T08:03:11Z</time>
<speed>1.1</speed>
</trkpt>
<trkpt lat="47.457059" lon="8.744476">
<ele>630.2</ele>
<time>2003-09-19T08:03:16Z</time>
<speed>1.1</speed>
</trkpt>
<trkpt lat="47.457007" lon="8.744481">
<ele>630.1</ele>
<time>2003-09-19T08:03:21Z</time>
<speed>0.8</speed>
</trkpt>
<trkpt lat="47.456957" lon="8.744457">
<ele>631.1</ele>
<time>2003-09-19T08:03:26Z</time>
<speed>1.1</speed>
</trkpt>
<trkpt lat="47.456894" lon="8.744447">
<ele>630.7</ele>
<time>2003-09-19T08:03:31Z</time>
<speed>1.1</speed>
</trkpt>
<trkpt lat="47.456837" lon="8.744437">
<ele>631.1</ele>
<time>2003-09-19T08:03:36Z</time>
<speed>1.1</speed>
</trkpt>
<trkpt lat="47.456774" lon="8.744427">
<ele>630.8</ele>
<time>2003-09-19T08:03:41Z</time>
<speed>1.1</speed>
</trkpt>
<trkpt lat="47.456704" lon="8.744415">
<ele>631.1</ele>
<time>2003-09-19T08:03:46Z</time>
<speed>1.1</speed>
</trkpt>
<trkpt lat="47.456647" lon="8.744405">
<ele>631.5</ele>
<time>2003-09-19T08:03:51Z</time>
<speed>1.1</speed>
</trkpt>
<trkpt lat="47.456584" lon="8.744395">
<ele>631.2</ele>
<time>2003-09-19T08:03:56Z</time>
<speed>1.4</speed>
</trkpt>
<trkpt lat="47.456514" lon="8.744383">
<ele>631.5</ele>
<time>2003-09-19T08:04:01Z</time>
<speed>1.4</speed>
</trkpt>
<trkpt lat="47.456451" lon="8.744373">
<ele>631.2</ele>
<time>2003-09-19T08:04:06Z</time>
<speed>1.1</speed>
</trkpt>
<trkpt lat="47.456395" lon="8.744350">
<ele>631.4</ele>
<time>2003-09-19T08:04:11Z</time>
<speed>0.6</speed>
</trkpt>
<trkpt lat="47.456402" lon="8.744336">
<ele>632.1</ele>
<time>2003-09-19T08:04:16Z</time>
<speed>0.3</speed>
</trkpt>
<trkpt lat="47.456341" lon="8.744381">
<ele>631.5</ele>
<time>2003-09-19T08:04:21Z</time>
<speed>1.1</speed>
</trkpt>
<trkpt lat="47.456309" lon="8.744486">
<ele>629.4</ele>
<time>2003-09-19T08:04:26Z</time>
<speed>1.1</speed>
</trkpt>
<trkpt lat="47.456265" lon="8.744560">
<ele>628.4</ele>
<time>2003-09-19T08:04:31Z</time>
<speed>1.4</speed>
</trkpt>
<trkpt lat="47.456222" lon="8.744635">
<ele>627.4</ele>
<time>2003-09-19T08:04:36Z</time>
<speed>1.1</speed>
</trkpt>
<trkpt lat="47.456193" lon="8.744683">
<ele>627.6</ele>
<time>2003-09-19T08:04:41Z</time>
<speed>0.3</speed>
</trkpt>
<trkpt lat="47.456179" lon="8.744710">
<ele>626.4</ele>
<time>2003-09-19T08:04:46Z</time>
<speed>0.0</speed>
</trkpt>
<trkpt lat="47.456163" lon="8.744747">
<ele>626.6</ele>
<time>2003-09-19T08:04:51Z</time>
<speed>0.8</speed>
</trkpt>
<trkpt lat="47.456163" lon="8.744764">
<ele>623.9</ele>
<time>2003-09-19T08:04:56Z</time>
<speed>0.3</speed>
</trkpt>
<trkpt lat="47.456162" lon="8.744779">
<ele>622.6</ele>
<time>2003-09-19T08:05:01Z</time>
<speed>0.0</speed>
</trkpt>
<trkpt lat="47.456154" lon="8.744805">
<ele>622.1</ele>
<time>2003-09-19T08:05:06Z</time>
<speed>0.3</speed>
</trkpt>
<trkpt lat="47.456147" lon="8.744818">
<ele>621.4</ele>
<time>2003-09-19T08:05:11Z</time>
<speed>0.3</speed>
</trkpt>
<trkpt lat="47.456132" lon="8.744843">
<ele>621.6</ele>
<time>2003-09-19T08:05:16Z</time>
<speed>0.3</speed>
</trkpt>
<trkpt lat="47.456111" lon="8.744880">
<ele>621.1</ele>
<time>2003-09-19T08:05:21Z</time>
<speed>0.6</speed>
</trkpt>
<trkpt lat="47.456102" lon="8.744919">
<ele>620.7</ele>
<time>2003-09-19T08:05:26Z</time>
<speed>0.3</speed>
</trkpt>
<trkpt lat="47.456106" lon="8.744947">
<ele>620.2</ele>
<time>2003-09-19T08:05:31Z</time>
<speed>0.3</speed>
</trkpt>
<trkpt lat="47.456085" lon="8.744970">
<ele>621.0</ele>
<time>2003-09-19T08:05:36Z</time>
<speed>0.6</speed>
</trkpt>
<trkpt lat="47.456026" lon="8.744986">
<ele>621.6</ele>
<time>2003-09-19T08:05:41Z</time>
<speed>1.1</speed>
</trkpt>
<trkpt lat="47.455970" lon="8.744963">
<ele>621.9</ele>
<time>2003-09-19T08:05:46Z</time>
<speed>1.1</speed>
</trkpt>
<trkpt lat="47.455921" lon="8.744926">
<ele>622.8</ele>
<time>2003-09-19T08:05:51Z</time>
<speed>0.8</speed>
</trkpt>
<trkpt lat="47.455881" lon="8.744948">
<ele>621.4</ele>
<time>2003-09-19T08:05:56Z</time>
<speed>1.1</speed>
</trkpt>
<trkpt lat="47.455841" lon="8.744888">
<ele>621.5</ele>
<time>2003-09-19T08:06:01Z</time>
<speed>0.8</speed>
</trkpt>
<trkpt lat="47.455788" lon="8.744825">
<ele>621.4</ele>
<time>2003-09-19T08:06:06Z</time>
<speed>1.1</speed>
</trkpt>
<trkpt lat="47.455740" lon="8.744776">
<ele>622.3</ele>
<time>2003-09-19T08:06:11Z</time>
<speed>1.1</speed>
</trkpt>
<trkpt lat="47.455707" lon="8.744704">
<ele>621.5</ele>
<time>2003-09-19T08:06:16Z</time>
<speed>0.8</speed>
</trkpt>
<trkpt lat="47.455679" lon="8.744646">
<ele>621.7</ele>
<time>2003-09-19T08:06:21Z</time>
<speed>0.6</speed>
</trkpt>
<trkpt lat="47.455646" lon="8.744670">
<ele>619.6</ele>
<time>2003-09-19T08:06:26Z</time>
<speed>0.8</speed>
</trkpt>
<trkpt lat="47.455597" lon="8.744730">
<ele>619.2</ele>
<time>2003-09-19T08:06:31Z</time>
<speed>1.1</speed>
</trkpt>
<trkpt lat="47.455543" lon="8.744774">
<ele>619.3</ele>
<time>2003-09-19T08:06:36Z</time>
<speed>1.1</speed>
</trkpt>
<trkpt lat="47.455496" lon="8.744807">
<ele>618.7</ele>
<time>2003-09-19T08:06:41Z</time>
<speed>1.4</speed>
</trkpt>
<trkpt lat="47.455441" lon="8.744852">
<ele>618.8</ele>
<time>2003-09-19T08:06:46Z</time>
<speed>1.1</speed>
</trkpt>
<trkpt lat="47.455393" lon="8.744817">
<ele>618.3</ele>
<time>2003-09-19T08:06:51Z</time>
<speed>0.8</speed>
</trkpt>
<trkpt lat="47.455348" lon="8.744729">
<ele>618.8</ele>
<time>2003-09-19T08:06:56Z</time>
<speed>1.4</speed>
</trkpt>
<trkpt lat="47.455289" lon="8.744651">
<ele>619.4</ele>
<time>2003-09-19T08:07:01Z</time>
<speed>1.4</speed>
</trkpt>
<trkpt lat="47.455263" lon="8.744579">
<ele>619.4</ele>
<time>2003-09-19T08:07:06Z</time>
<speed>0.8</speed>
</trkpt>
<trkpt lat="47.455228" lon="8.744519">
<ele>620.2</ele>
<time>2003-09-19T08:07:11Z</time>
<speed>1.1</speed>
</trkpt>
<trkpt lat="47.455188" lon="8.744443">
<ele>621.6</ele>
<time>2003-09-19T08:07:16Z</time>
<speed>0.8</speed>
</trkpt>
<trkpt lat="47.455153" lon="8.744396">
<ele>622.4</ele>
<time>2003-09-19T08:07:21Z</time>
<speed>0.8</speed>
</trkpt>
<trkpt lat="47.455100" lon="8.744429">
<ele>621.1</ele>
<time>2003-09-19T08:07:26Z</time>
<speed>1.4</speed>
</trkpt>
<trkpt lat="47.455058" lon="8.744491">
<ele>620.0</ele>
<time>2003-09-19T08:07:31Z</time>
<speed>0.8</speed>
</trkpt>
<trkpt lat="47.455021" lon="8.744552">
<ele>619.6</ele>
<time>2003-09-19T08:07:36Z</time>
<speed>0.8</speed>
</trkpt>
<trkpt lat="47.454973" lon="8.744599">
<ele>619.1</ele>
<time>2003-09-19T08:07:41Z</time>
<speed>1.1</speed>
</trkpt>
<trkpt lat="47.454925" lon="8.744643">
<ele>620.0</ele>
<time>2003-09-19T08:07:46Z</time>
<speed>1.1</speed>
</trkpt>
<trkpt lat="47.454889" lon="8.744691">
<ele>619.5</ele>
<time>2003-09-19T08:07:51Z</time>
<speed>0.8</speed>
</trkpt>
<trkpt lat="47.454848" lon="8.744725">
<ele>619.6</ele>
<time>2003-09-19T08:07:56Z</time>
<speed>0.8</speed>
</trkpt>
<trkpt lat="47.454805" lon="8.744780">
<ele>622.7</ele>
<time>2003-09-19T08:08:01Z</time>
<speed>0.8</speed>
</trkpt>
<trkpt lat="47.454749" lon="8.744820">
<ele>625.7</ele>
<time>2003-09-19T08:08:06Z</time>
<speed>0.8</speed>
</trkpt>
<trkpt lat="47.454707" lon="8.744865">
<ele>627.3</ele>
<time>2003-09-19T08:08:11Z</time>
<speed>0.8</speed>
</trkpt>
<trkpt lat="47.454666" lon="8.744898">
<ele>627.4</ele>
<time>2003-09-19T08:08:16Z</time>
<speed>1.1</speed>
</trkpt>
<trkpt lat="47.454610" lon="8.744956">
<ele>627.6</ele>
<time>2003-09-19T08:08:21Z</time>
<speed>1.1</speed>
</trkpt>
<trkpt lat="47.454562" lon="8.745000">
<ele>628.5</ele>
<time>2003-09-19T08:08:26Z</time>
<speed>1.1</speed>
</trkpt>
<trkpt lat="47.454509" lon="8.745018">
<ele>628.4</ele>
<time>2003-09-19T08:08:31Z</time>
<speed>1.4</speed>
</trkpt>
<trkpt lat="47.454449" lon="8.745047">
<ele>629.1</ele>
<time>2003-09-19T08:08:36Z</time>
<speed>1.1</speed>
</trkpt>
<trkpt lat="47.454397" lon="8.745065">
<ele>629.1</ele>
<time>2003-09-19T08:08:41Z</time>
<speed>1.1</speed>
</trkpt>
<trkpt lat="47.454342" lon="8.745110">
<ele>629.2</ele>
<time>2003-09-19T08:08:46Z</time>
<speed>1.1</speed>
</trkpt>
<trkpt lat="47.454289" lon="8.745128">
<ele>629.1</ele>
<time>2003-09-19T08:08:51Z</time>
<speed>1.1</speed>
</trkpt>
<trkpt lat="47.454236" lon="8.745159">
<ele>629.2</ele>
<time>2003-09-19T08:08:56Z</time>
<speed>1.1</speed>
</trkpt>
<trkpt lat="47.454189" lon="8.745177">
<ele>629.8</ele>
<time>2003-09-19T08:09:01Z</time>
<speed>1.1</speed>
</trkpt>
<trkpt lat="47.454136" lon="8.745209">
<ele>629.9</ele>
<time>2003-09-19T08:09:06Z</time>
<speed>1.1</speed>
</trkpt>
<trkpt lat="47.454088" lon="8.745240">
<ele>630.6</ele>
<time>2003-09-19T08:09:11Z</time>
<speed>1.1</speed>
</trkpt>
<trkpt lat="47.454041" lon="8.745273">
<ele>630.0</ele>
<time>2003-09-19T08:09:16Z</time>
<speed>0.8</speed>
</trkpt>
<trkpt lat="47.454002" lon="8.745293">
<ele>630.0</ele>
<time>2003-09-19T08:09:21Z</time>
<speed>0.8</speed>
</trkpt>
<trkpt lat="47.453954" lon="8.745325">
<ele>630.8</ele>
<time>2003-09-19T08:09:26Z</time>
<speed>1.1</speed>
</trkpt>
<trkpt lat="47.453901" lon="8.745356">
<ele>630.8</ele>
<time>2003-09-19T08:09:31Z</time>
<speed>1.1</speed>
</trkpt>
<trkpt lat="47.453861" lon="8.745376">
<ele>630.8</ele>
<time>2003-09-19T08:09:36Z</time>
<speed>0.8</speed>
</trkpt>
<trkpt lat="47.453819" lon="8.745422">
<ele>631.0</ele>
<time>2003-09-19T08:09:41Z</time>
<speed>1.1</speed>
</trkpt>
<trkpt lat="47.453788" lon="8.745484">
<ele>631.4</ele>
<time>2003-09-19T08:09:46Z</time>
<speed>1.1</speed>
</trkpt>
<trkpt lat="47.453759" lon="8.745547">
<ele>630.4</ele>
<time>2003-09-19T08:09:51Z</time>
<speed>0.8</speed>
</trkpt>
<trkpt lat="47.453727" lon="8.745622">
<ele>630.9</ele>
<time>2003-09-19T08:09:56Z</time>
<speed>1.1</speed>
</trkpt>
<trkpt lat="47.453710" lon="8.745685">
<ele>631.3</ele>
<time>2003-09-19T08:10:01Z</time>
<speed>1.1</speed>
</trkpt>
<trkpt lat="47.453678" lon="8.745760">
<ele>631.8</ele>
<time>2003-09-19T08:10:06Z</time>
<speed>0.8</speed>
</trkpt>
<trkpt lat="47.453648" lon="8.745820">
<ele>633.6</ele>
<time>2003-09-19T08:10:11Z</time>
<speed>1.1</speed>
</trkpt>
<trkpt lat="47.453622" lon="8.745894">
<ele>634.8</ele>
<time>2003-09-19T08:10:16Z</time>
<speed>1.1</speed>
</trkpt>
<trkpt lat="47.453599" lon="8.745958">
<ele>634.5</ele>
<time>2003-09-19T08:10:21Z</time>
<speed>1.1</speed>
</trkpt>
<trkpt lat="47.453573" lon="8.746032">
<ele>635.7</ele>
<time>2003-09-19T08:10:26Z</time>
<speed>0.8</speed>
</trkpt>
<trkpt lat="47.453556" lon="8.746096">
<ele>636.1</ele>
<time>2003-09-19T08:10:31Z</time>
<speed>0.8</speed>
</trkpt>
<trkpt lat="47.453525" lon="8.746157">
<ele>636.5</ele>
<time>2003-09-19T08:10:36Z</time>
<speed>1.1</speed>
</trkpt>
<trkpt lat="47.453502" lon="8.746221">
<ele>636.2</ele>
<time>2003-09-19T08:10:41Z</time>
<speed>0.8</speed>
</trkpt>
<trkpt lat="47.453484" lon="8.746282">
<ele>638.1</ele>
<time>2003-09-19T08:10:46Z</time>
<speed>1.1</speed>
</trkpt>
<trkpt lat="47.453460" lon="8.746346">
<ele>637.8</ele>
<time>2003-09-19T08:10:51Z</time>
<speed>0.8</speed>
</trkpt>
<trkpt lat="47.453437" lon="8.746394">
<ele>638.8</ele>
<time>2003-09-19T08:10:56Z</time>
<speed>0.8</speed>
</trkpt>
<trkpt lat="47.453412" lon="8.746456">
<ele>639.9</ele>
<time>2003-09-19T08:11:01Z</time>
<speed>1.1</speed>
</trkpt>
<trkpt lat="47.453394" lon="8.746532">
<ele>640.5</ele>
<time>2003-09-19T08:11:06Z</time>
<speed>1.1</speed>
</trkpt>
<trkpt lat="47.453363" lon="8.746594">
<ele>640.8</ele>
<time>2003-09-19T08:11:11Z</time>
<speed>1.1</speed>
</trkpt>
<trkpt lat="47.453339" lon="8.746670">
<ele>640.7</ele>
<time>2003-09-19T08:11:16Z</time>
<speed>1.1</speed>
</trkpt>
<trkpt lat="47.453314" lon="8.746732">
<ele>641.8</ele>
<time>2003-09-19T08:11:21Z</time>
<speed>1.1</speed>
</trkpt>
<trkpt lat="47.453290" lon="8.746793">
<ele>642.9</ele>
<time>2003-09-19T08:11:26Z</time>
<speed>0.8</speed>
</trkpt>
<trkpt lat="47.453266" lon="8.746857">
<ele>642.6</ele>
<time>2003-09-19T08:11:31Z</time>
<speed>1.1</speed>
</trkpt>
<trkpt lat="47.453242" lon="8.746918">
<ele>643.7</ele>
<time>2003-09-19T08:11:36Z</time>
<speed>0.8</speed>
</trkpt>
<trkpt lat="47.453218" lon="8.746982">
<ele>643.4</ele>
<time>2003-09-19T08:11:41Z</time>
<speed>0.8</speed>
</trkpt>
<trkpt lat="47.453201" lon="8.747045">
<ele>643.9</ele>
<time>2003-09-19T08:11:46Z</time>
<speed>0.8</speed>
</trkpt>
<trkpt lat="47.453170" lon="8.747107">
<ele>644.2</ele>
<time>2003-09-19T08:11:51Z</time>
<speed>1.1</speed>
</trkpt>
<trkpt lat="47.453153" lon="8.747170">
<ele>644.7</ele>
<time>2003-09-19T08:11:56Z</time>
<speed>0.8</speed>
</trkpt>
<trkpt lat="47.453122" lon="8.747230">
<ele>646.5</ele>
<time>2003-09-19T08:12:01Z</time>
<speed>0.8</speed>
</trkpt>
<trkpt lat="47.453098" lon="8.747293">
<ele>646.2</ele>
<time>2003-09-19T08:12:06Z</time>
<speed>0.8</speed>
</trkpt>
<trkpt lat="47.453068" lon="8.747355">
<ele>646.6</ele>
<time>2003-09-19T08:12:11Z</time>
<speed>1.1</speed>
</trkpt>
<trkpt lat="47.453038" lon="8.747416">
<ele>646.9</ele>
<time>2003-09-19T08:12:16Z</time>
<speed>1.1</speed>
</trkpt>
<trkpt lat="47.453013" lon="8.747478">
<ele>648.0</ele>
<time>2003-09-19T08:12:21Z</time>
<speed>0.8</speed>
</trkpt>
<trkpt lat="47.452983" lon="8.747539">
<ele>648.4</ele>
<time>2003-09-19T08:12:26Z</time>
<speed>0.8</speed>
</trkpt>
<trkpt lat="47.452954" lon="8.747588">
<ele>648.7</ele>
<time>2003-09-19T08:12:31Z</time>
<speed>1.1</speed>
</trkpt>
<trkpt lat="47.452923" lon="8.747647">
<ele>650.5</ele>
<time>2003-09-19T08:12:36Z</time>
<speed>0.8</speed>
</trkpt>
<trkpt lat="47.452888" lon="8.747696">
<ele>650.0</ele>
<time>2003-09-19T08:12:41Z</time>
<speed>0.8</speed>
</trkpt>
<trkpt lat="47.452851" lon="8.747755">
<ele>651.1</ele>
<time>2003-09-19T08:12:46Z</time>
<speed>0.8</speed>
</trkpt>
<trkpt lat="47.452815" lon="8.747801">
<ele>652.0</ele>
<time>2003-09-19T08:12:51Z</time>
<speed>1.1</speed>
</trkpt>
<trkpt lat="47.452773" lon="8.747848">
<ele>652.2</ele>
<time>2003-09-19T08:12:56Z</time>
<speed>1.1</speed>
</trkpt>
<trkpt lat="47.452732" lon="8.747881">
<ele>652.3</ele>
<time>2003-09-19T08:13:01Z</time>
<speed>1.1</speed>
</trkpt>
<trkpt lat="47.452669" lon="8.747869">
<ele>653.4</ele>
<time>2003-09-19T08:13:06Z</time>
<speed>1.1</speed>
</trkpt>
<trkpt lat="47.452625" lon="8.747848">
<ele>653.7</ele>
<time>2003-09-19T08:13:11Z</time>
<speed>1.1</speed>
</trkpt>
<trkpt lat="47.452575" lon="8.747825">
<ele>654.8</ele>
<time>2003-09-19T08:13:16Z</time>
<speed>1.1</speed>
</trkpt>
<trkpt lat="47.452519" lon="8.747801">
<ele>655.1</ele>
<time>2003-09-19T08:13:21Z</time>
<speed>1.1</speed>
</trkpt>
<trkpt lat="47.452476" lon="8.747780">
<ele>655.4</ele>
<time>2003-09-19T08:13:26Z</time>
<speed>0.8</speed>
</trkpt>
<trkpt lat="47.452425" lon="8.747772">
<ele>655.1</ele>
<time>2003-09-19T08:13:31Z</time>
<speed>0.8</speed>
</trkpt>
<trkpt lat="47.452394" lon="8.747753">
<ele>655.6</ele>
<time>2003-09-19T08:13:36Z</time>
<speed>0.0</speed>
</trkpt>
<trkpt lat="47.452394" lon="8.747753">
<ele>655.6</ele>
<time>2003-09-19T08:13:41Z</time>
<speed>0.0</speed>
</trkpt>
<trkpt lat="47.452394" lon="8.747753">
<ele>655.6</ele>
<time>2003-09-19T08:13:46Z</time>
<speed>0.0</speed>
</trkpt>
<trkpt lat="47.452394" lon="8.747753">
<ele>655.6</ele>
<time>2003-09-19T08:13:51Z</time>
<speed>0.0</speed>
</trkpt>
<trkpt lat="47.452394" lon="8.747753">
<ele>655.6</ele>
<time>2003-09-19T08:13:56Z</time>
<speed>0.0</speed>
</trkpt>
<trkpt lat="47.452394" lon="8.747753">
<ele>655.6</ele>
<time>2003-09-19T08:14:01Z</time>
<speed>0.0</speed>
</trkpt>
<trkpt lat="47.452394" lon="8.747753">
<ele>655.6</ele>
<time>2003-09-19T08:14:06Z</time>
<speed>0.0</speed>
</trkpt>
<trkpt lat="47.452394" lon="8.747753">
<ele>655.6</ele>
<time>2003-09-19T08:14:11Z</time>
<speed>0.0</speed>
</trkpt>
<trkpt lat="47.452394" lon="8.747753">
<ele>655.6</ele>
<time>2003-09-19T08:14:16Z</time>
<speed>0.0</speed>
</trkpt>
<trkpt lat="47.452394" lon="8.747753">
<ele>655.6</ele>
<time>2003-09-19T08:14:21Z</time>
<speed>0.0</speed>
</trkpt>
<trkpt lat="47.452394" lon="8.747753">
<ele>655.6</ele>
<time>2003-09-19T08:14:26Z</time>
<speed>0.0</speed>
</trkpt>
<trkpt lat="47.452394" lon="8.747753">
<ele>655.6</ele>
<time>2003-09-19T08:14:31Z</time>
<speed>0.0</speed>
</trkpt>
<trkpt lat="47.452394" lon="8.747753">
<ele>655.6</ele>
<time>2003-09-19T08:14:36Z</time>
<speed>0.0</speed>
</trkpt>
<trkpt lat="47.452394" lon="8.747753">
<ele>655.6</ele>
<time>2003-09-19T08:14:41Z</time>
<speed>0.0</speed>
</trkpt>
<trkpt lat="47.452394" lon="8.747753">
<ele>655.6</ele>
<time>2003-09-19T08:14:46Z</time>
<speed>0.0</speed>
</trkpt>
<trkpt lat="47.452394" lon="8.747753">
<ele>655.6</ele>
<time>2003-09-19T08:14:51Z</time>
<speed>0.0</speed>
</trkpt>
<trkpt lat="47.452394" lon="8.747753">
<ele>655.6</ele>
<time>2003-09-19T08:14:56Z</time>
<speed>0.0</speed>
</trkpt>
<trkpt lat="47.452394" lon="8.747753">
<ele>655.6</ele>
<time>2003-09-19T08:15:01Z</time>
<speed>0.0</speed>
</trkpt>
<trkpt lat="47.452394" lon="8.747753">
<ele>655.6</ele>
<time>2003-09-19T08:15:06Z</time>
<speed>0.3</speed>
</trkpt>
<trkpt lat="47.452343" lon="8.747758">
<ele>655.4</ele>
<time>2003-09-19T08:15:11Z</time>
<speed>1.4</speed>
</trkpt>
<trkpt lat="47.452273" lon="8.747746">
<ele>655.7</ele>
<time>2003-09-19T08:15:16Z</time>
<speed>1.1</speed>
</trkpt>
<trkpt lat="47.452211" lon="8.747723">
<ele>655.3</ele>
<time>2003-09-19T08:15:21Z</time>
<speed>1.4</speed>
</trkpt>
<trkpt lat="47.452148" lon="8.747698">
<ele>656.2</ele>
<time>2003-09-19T08:15:26Z</time>
<speed>1.4</speed>
</trkpt>
<trkpt lat="47.452093" lon="8.747661">
<ele>656.4</ele>
<time>2003-09-19T08:15:31Z</time>
<speed>1.4</speed>
</trkpt>
<trkpt lat="47.452031" lon="8.747636">
<ele>657.4</ele>
<time>2003-09-19T08:15:36Z</time>
<speed>1.4</speed>
</trkpt>
<trkpt lat="47.451968" lon="8.747611">
<ele>658.4</ele>
<time>2003-09-19T08:15:41Z</time>
<speed>1.1</speed>
</trkpt>
<trkpt lat="47.451906" lon="8.747588">
<ele>657.9</ele>
<time>2003-09-19T08:15:46Z</time>
<speed>1.4</speed>
</trkpt>
<trkpt lat="47.451849" lon="8.747578">
<ele>658.3</ele>
<time>2003-09-19T08:15:51Z</time>
<speed>1.4</speed>
</trkpt>
<trkpt lat="47.451780" lon="8.747552">
<ele>658.5</ele>
<time>2003-09-19T08:15:56Z</time>
<speed>1.4</speed>
</trkpt>
<trkpt lat="47.451713" lon="8.747514">
<ele>658.7</ele>
<time>2003-09-19T08:16:01Z</time>
<speed>1.4</speed>
</trkpt>
<trkpt lat="47.451656" lon="8.747491">
<ele>658.9</ele>
<time>2003-09-19T08:16:06Z</time>
<speed>1.4</speed>
</trkpt>
<trkpt lat="47.451588" lon="8.747466">
<ele>659.2</ele>
<time>2003-09-19T08:16:11Z</time>
<speed>1.1</speed>
</trkpt>
<trkpt lat="47.451525" lon="8.747440">
<ele>660.1</ele>
<time>2003-09-19T08:16:16Z</time>
<speed>1.4</speed>
</trkpt>
<trkpt lat="47.451468" lon="8.747430">
<ele>660.5</ele>
<time>2003-09-19T08:16:21Z</time>
<speed>1.1</speed>
</trkpt>
<trkpt lat="47.451399" lon="8.747405">
<ele>660.7</ele>
<time>2003-09-19T08:16:26Z</time>
<speed>1.4</speed>
</trkpt>
<trkpt lat="47.451343" lon="8.747382">
<ele>661.0</ele>
<time>2003-09-19T08:16:31Z</time>
<speed>1.4</speed>
</trkpt>
<trkpt lat="47.451275" lon="8.747357">
<ele>661.3</ele>
<time>2003-09-19T08:16:36Z</time>
<speed>1.4</speed>
</trkpt>
<trkpt lat="47.451219" lon="8.747334">
<ele>661.6</ele>
<time>2003-09-19T08:16:41Z</time>
<speed>1.4</speed>
</trkpt>
<trkpt lat="47.451155" lon="8.747322">
<ele>662.6</ele>
<time>2003-09-19T08:16:46Z</time>
<speed>1.4</speed>
</trkpt>
<trkpt lat="47.451093" lon="8.747298">
<ele>662.2</ele>
<time>2003-09-19T08:16:51Z</time>
<speed>1.4</speed>
</trkpt>
<trkpt lat="47.451024" lon="8.747273">
<ele>662.4</ele>
<time>2003-09-19T08:16:56Z</time>
<speed>1.4</speed>
</trkpt>
<trkpt lat="47.450968" lon="8.747250">
<ele>662.7</ele>
<time>2003-09-19T08:17:01Z</time>
<speed>1.4</speed>
</trkpt>
<trkpt lat="47.450893" lon="8.747225">
<ele>662.2</ele>
<time>2003-09-19T08:17:06Z</time>
<speed>1.4</speed>
</trkpt>
<trkpt lat="47.450824" lon="8.747213">
<ele>662.5</ele>
<time>2003-09-19T08:17:11Z</time>
<speed>1.4</speed>
</trkpt>
<trkpt lat="47.450768" lon="8.747189">
<ele>662.8</ele>
<time>2003-09-19T08:17:16Z</time>
<speed>1.4</speed>
</trkpt>
<trkpt lat="47.450693" lon="8.747164">
<ele>662.3</ele>
<time>2003-09-19T08:17:21Z</time>
<speed>1.4</speed>
</trkpt>
<trkpt lat="47.450624" lon="8.747139">
<ele>662.5</ele>
<time>2003-09-19T08:17:26Z</time>
<speed>1.4</speed>
</trkpt>
<trkpt lat="47.450567" lon="8.747129">
<ele>662.9</ele>
<time>2003-09-19T08:17:31Z</time>
<speed>1.4</speed>
</trkpt>
<trkpt lat="47.450504" lon="8.747104">
<ele>663.9</ele>
<time>2003-09-19T08:17:36Z</time>
<speed>1.4</speed>
</trkpt>
<trkpt lat="47.450442" lon="8.747081">
<ele>663.4</ele>
<time>2003-09-19T08:17:41Z</time>
<speed>1.4</speed>
</trkpt>
<trkpt lat="47.450393" lon="8.747059">
<ele>663.0</ele>
<time>2003-09-19T08:17:46Z</time>
<speed>1.1</speed>
</trkpt>
<trkpt lat="47.450323" lon="8.747047">
<ele>663.4</ele>
<time>2003-09-19T08:17:51Z</time>
<speed>1.4</speed>
</trkpt>
<trkpt lat="47.450253" lon="8.747035">
<ele>663.7</ele>
<time>2003-09-19T08:17:56Z</time>
<speed>1.4</speed>
</trkpt>
<trkpt lat="47.450190" lon="8.747025">
<ele>663.4</ele>
<time>2003-09-19T08:18:01Z</time>
<speed>1.4</speed>
</trkpt>
<trkpt lat="47.450114" lon="8.747013">
<ele>662.9</ele>
<time>2003-09-19T08:18:06Z</time>
<speed>1.4</speed>
</trkpt>
<trkpt lat="47.450039" lon="8.747001">
<ele>662.5</ele>
<time>2003-09-19T08:18:11Z</time>
<speed>1.4</speed>
</trkpt>
<trkpt lat="47.449976" lon="8.746991">
<ele>662.2</ele>
<time>2003-09-19T08:18:16Z</time>
<speed>1.4</speed>
</trkpt>
<trkpt lat="47.449906" lon="8.746979">
<ele>662.5</ele>
<time>2003-09-19T08:18:21Z</time>
<speed>1.1</speed>
</trkpt>
<trkpt lat="47.449843" lon="8.746969">
<ele>662.2</ele>
<time>2003-09-19T08:18:26Z</time>
<speed>1.4</speed>
</trkpt>
<trkpt lat="47.449771" lon="8.746983">
<ele>662.7</ele>
<time>2003-09-19T08:18:31Z</time>
<speed>1.4</speed>
</trkpt>
<trkpt lat="47.449707" lon="8.746986">
<ele>662.5</ele>
<time>2003-09-19T08:18:36Z</time>
<speed>1.4</speed>
</trkpt>
<trkpt lat="47.449647" lon="8.747017">
<ele>661.8</ele>
<time>2003-09-19T08:18:41Z</time>
<speed>1.4</speed>
</trkpt>
<trkpt lat="47.449574" lon="8.747044">
<ele>662.4</ele>
<time>2003-09-19T08:18:46Z</time>
<speed>1.4</speed>
</trkpt>
<trkpt lat="47.449503" lon="8.747060">
<ele>661.5</ele>
<time>2003-09-19T08:18:51Z</time>
<speed>1.4</speed>
</trkpt>
<trkpt lat="47.449442" lon="8.747103">
<ele>662.3</ele>
<time>2003-09-19T08:18:56Z</time>
<speed>1.4</speed>
</trkpt>
<trkpt lat="47.449376" lon="8.747132">
<ele>662.3</ele>
<time>2003-09-19T08:19:01Z</time>
<speed>1.4</speed>
</trkpt>
<trkpt lat="47.449327" lon="8.747176">
<ele>663.2</ele>
<time>2003-09-19T08:19:06Z</time>
<speed>1.1</speed>
</trkpt>
<trkpt lat="47.449273" lon="8.747221">
<ele>663.3</ele>
<time>2003-09-19T08:19:11Z</time>
<speed>1.1</speed>
</trkpt>
<trkpt lat="47.449206" lon="8.747263">
<ele>663.4</ele>
<time>2003-09-19T08:19:16Z</time>
<speed>1.1</speed>
</trkpt>
<trkpt lat="47.449140" lon="8.747292">
<ele>663.4</ele>
<time>2003-09-19T08:19:21Z</time>
<speed>1.4</speed>
</trkpt>
<trkpt lat="47.449078" lon="8.747335">
<ele>664.2</ele>
<time>2003-09-19T08:19:26Z</time>
<speed>1.4</speed>
</trkpt>
<trkpt lat="47.449024" lon="8.747379">
<ele>664.3</ele>
<time>2003-09-19T08:19:31Z</time>
<speed>1.4</speed>
</trkpt>
<trkpt lat="47.448964" lon="8.747408">
<ele>665.0</ele>
<time>2003-09-19T08:19:36Z</time>
<speed>1.4</speed>
</trkpt>
<trkpt lat="47.448909" lon="8.747453">
<ele>665.1</ele>
<time>2003-09-19T08:19:41Z</time>
<speed>1.4</speed>
</trkpt>
<trkpt lat="47.448855" lon="8.747497">
<ele>665.3</ele>
<time>2003-09-19T08:19:46Z</time>
<speed>1.1</speed>
</trkpt>
<trkpt lat="47.448796" lon="8.747513">
<ele>665.9</ele>
<time>2003-09-19T08:19:51Z</time>
<speed>1.1</speed>
</trkpt>
<trkpt lat="47.448740" lon="8.747570">
<ele>666.1</ele>
<time>2003-09-19T08:19:56Z</time>
<speed>1.1</speed>
</trkpt>
<trkpt lat="47.448687" lon="8.747604">
<ele>664.8</ele>
<time>2003-09-19T08:20:01Z</time>
<speed>1.4</speed>
</trkpt>
<trkpt lat="47.448620" lon="8.747646">
<ele>664.8</ele>
<time>2003-09-19T08:20:06Z</time>
<speed>1.7</speed>
</trkpt>
<trkpt lat="47.448554" lon="8.747675">
<ele>664.8</ele>
<time>2003-09-19T08:20:11Z</time>
<speed>1.4</speed>
</trkpt>
<trkpt lat="47.448499" lon="8.747720">
<ele>664.9</ele>
<time>2003-09-19T08:20:16Z</time>
<speed>1.1</speed>
</trkpt>
<trkpt lat="47.448433" lon="8.747749">
<ele>664.9</ele>
<time>2003-09-19T08:20:21Z</time>
<speed>1.4</speed>
</trkpt>
<trkpt lat="47.448366" lon="8.747791">
<ele>665.0</ele>
<time>2003-09-19T08:20:26Z</time>
<speed>1.1</speed>
</trkpt>
<trkpt lat="47.448313" lon="8.747809">
<ele>664.9</ele>
<time>2003-09-19T08:20:31Z</time>
<speed>1.1</speed>
</trkpt>
<trkpt lat="47.448255" lon="8.747812">
<ele>665.4</ele>
<time>2003-09-19T08:20:36Z</time>
<speed>1.1</speed>
</trkpt>
<trkpt lat="47.448205" lon="8.747804">
<ele>665.1</ele>
<time>2003-09-19T08:20:41Z</time>
<speed>1.1</speed>
</trkpt>
<trkpt lat="47.448147" lon="8.747807">
<ele>665.6</ele>
<time>2003-09-19T08:20:46Z</time>
<speed>0.6</speed>
</trkpt>
<trkpt lat="47.448076" lon="8.747810">
<ele>664.6</ele>
<time>2003-09-19T08:20:51Z</time>
<speed>1.1</speed>
</trkpt>
<trkpt lat="47.448001" lon="8.747798">
<ele>664.2</ele>
<time>2003-09-19T08:20:56Z</time>
<speed>1.4</speed>
</trkpt>
<trkpt lat="47.447923" lon="8.747797">
<ele>665.3</ele>
<time>2003-09-19T08:21:01Z</time>
<speed>1.4</speed>
</trkpt>
<trkpt lat="47.447845" lon="8.747811">
<ele>665.1</ele>
<time>2003-09-19T08:21:06Z</time>
<speed>1.1</speed>
</trkpt>
<trkpt lat="47.447787" lon="8.747814">
<ele>665.6</ele>
<time>2003-09-19T08:21:11Z</time>
<speed>0.8</speed>
</trkpt>
<trkpt lat="47.447736" lon="8.747804">
<ele>666.8</ele>
<time>2003-09-19T08:21:16Z</time>
<speed>0.8</speed>
</trkpt>
<trkpt lat="47.447684" lon="8.747822">
<ele>666.7</ele>
<time>2003-09-19T08:21:21Z</time>
<speed>0.8</speed>
</trkpt>
<trkpt lat="47.447612" lon="8.747837">
<ele>667.2</ele>
<time>2003-09-19T08:21:26Z</time>
<speed>1.1</speed>
</trkpt>
<trkpt lat="47.447536" lon="8.747822">
<ele>668.2</ele>
<time>2003-09-19T08:21:31Z</time>
<speed>0.8</speed>
</trkpt>
<trkpt lat="47.447464" lon="8.747837">
<ele>668.8</ele>
<time>2003-09-19T08:21:36Z</time>
<speed>1.1</speed>
</trkpt>
<trkpt lat="47.447399" lon="8.747853">
<ele>668.6</ele>
<time>2003-09-19T08:21:41Z</time>
<speed>1.1</speed>
</trkpt>
<trkpt lat="47.447321" lon="8.747865">
<ele>669.8</ele>
<time>2003-09-19T08:21:46Z</time>
<speed>1.4</speed>
</trkpt>
<trkpt lat="47.447242" lon="8.747890">
<ele>671.1</ele>
<time>2003-09-19T08:21:51Z</time>
<speed>1.1</speed>
</trkpt>
<trkpt lat="47.447182" lon="8.747921">
<ele>670.4</ele>
<time>2003-09-19T08:21:56Z</time>
<speed>1.1</speed>
</trkpt>
<trkpt lat="47.447111" lon="8.747937">
<ele>669.6</ele>
<time>2003-09-19T08:22:01Z</time>
<speed>1.1</speed>
</trkpt>
<trkpt lat="47.447045" lon="8.747953">
<ele>669.4</ele>
<time>2003-09-19T08:22:06Z</time>
<speed>0.8</speed>
</trkpt>
<trkpt lat="47.446979" lon="8.747983">
<ele>669.4</ele>
<time>2003-09-19T08:22:11Z</time>
<speed>0.8</speed>
</trkpt>
<trkpt lat="47.446907" lon="8.748012">
<ele>668.6</ele>
<time>2003-09-19T08:22:16Z</time>
<speed>1.1</speed>
</trkpt>
<trkpt lat="47.446842" lon="8.748028">
<ele>668.5</ele>
<time>2003-09-19T08:22:21Z</time>
<speed>1.1</speed>
</trkpt>
<trkpt lat="47.446777" lon="8.748044">
<ele>668.3</ele>
<time>2003-09-19T08:22:26Z</time>
<speed>1.1</speed>
</trkpt>
<trkpt lat="47.446704" lon="8.748073">
<ele>667.6</ele>
<time>2003-09-19T08:22:31Z</time>
<speed>1.1</speed>
</trkpt>
<trkpt lat="47.446632" lon="8.748101">
<ele>668.2</ele>
<time>2003-09-19T08:22:36Z</time>
<speed>1.4</speed>
</trkpt>
<trkpt lat="47.446566" lon="8.748130">
<ele>668.2</ele>
<time>2003-09-19T08:22:41Z</time>
<speed>0.8</speed>
</trkpt>
<trkpt lat="47.446506" lon="8.748146">
<ele>668.8</ele>
<time>2003-09-19T08:22:46Z</time>
<speed>1.1</speed>
</trkpt>
<trkpt lat="47.446434" lon="8.748175">
<ele>668.0</ele>
<time>2003-09-19T08:22:51Z</time>
<speed>1.1</speed>
</trkpt>
<trkpt lat="47.446386" lon="8.748222">
<ele>667.5</ele>
<time>2003-09-19T08:22:56Z</time>
<speed>0.8</speed>
</trkpt>
<trkpt lat="47.446347" lon="8.748227">
<ele>668.8</ele>
<time>2003-09-19T08:23:01Z</time>
<speed>0.6</speed>
</trkpt>
<trkpt lat="47.446305" lon="8.748179">
<ele>668.9</ele>
<time>2003-09-19T08:23:06Z</time>
<speed>0.6</speed>
</trkpt>
<trkpt lat="47.446269" lon="8.748145">
<ele>669.9</ele>
<time>2003-09-19T08:23:11Z</time>
<speed>0.6</speed>
</trkpt>
<trkpt lat="47.446233" lon="8.748111">
<ele>670.9</ele>
<time>2003-09-19T08:23:16Z</time>
<speed>0.6</speed>
</trkpt>
<trkpt lat="47.446190" lon="8.748076">
<ele>671.2</ele>
<time>2003-09-19T08:23:21Z</time>
<speed>0.3</speed>
</trkpt>
<trkpt lat="47.446122" lon="8.748036">
<ele>672.7</ele>
<time>2003-09-19T08:23:26Z</time>
<speed>0.6</speed>
</trkpt>
<trkpt lat="47.446052" lon="8.748024">
<ele>673.0</ele>
<time>2003-09-19T08:23:31Z</time>
<speed>0.8</speed>
</trkpt>
<trkpt lat="47.445995" lon="8.748029">
<ele>672.1</ele>
<time>2003-09-19T08:23:36Z</time>
<speed>0.8</speed>
</trkpt>
<trkpt lat="47.445935" lon="8.748058">
<ele>672.8</ele>
<time>2003-09-19T08:23:41Z</time>
<speed>1.1</speed>
</trkpt>
<trkpt lat="47.445875" lon="8.748087">
<ele>673.5</ele>
<time>2003-09-19T08:23:46Z</time>
<speed>0.6</speed>
</trkpt>
<trkpt lat="47.445828" lon="8.748104">
<ele>675.6</ele>
<time>2003-09-19T08:23:51Z</time>
<speed>0.6</speed>
</trkpt>
<trkpt lat="47.445770" lon="8.748107">
<ele>676.1</ele>
<time>2003-09-19T08:23:56Z</time>
<speed>0.8</speed>
</trkpt>
<trkpt lat="47.445724" lon="8.748110">
<ele>678.1</ele>
<time>2003-09-19T08:24:01Z</time>
<speed>0.6</speed>
</trkpt>
<trkpt lat="47.445659" lon="8.748111">
<ele>679.2</ele>
<time>2003-09-19T08:24:06Z</time>
<speed>0.6</speed>
</trkpt>
<trkpt lat="47.445602" lon="8.748194">
<ele>679.7</ele>
<time>2003-09-19T08:24:11Z</time>
<speed>1.1</speed>
</trkpt>
<trkpt lat="47.445563" lon="8.748282">
<ele>679.5</ele>
<time>2003-09-19T08:24:16Z</time>
<speed>1.1</speed>
</trkpt>
<trkpt lat="47.445544" lon="8.748372">
<ele>680.2</ele>
<time>2003-09-19T08:24:21Z</time>
<speed>1.1</speed>
</trkpt>
<trkpt lat="47.445506" lon="8.748446">
<ele>679.9</ele>
<time>2003-09-19T08:24:26Z</time>
<speed>1.4</speed>
</trkpt>
<trkpt lat="47.445463" lon="8.748521">
<ele>678.9</ele>
<time>2003-09-19T08:24:31Z</time>
<speed>0.8</speed>
</trkpt>
<trkpt lat="47.445425" lon="8.748595">
<ele>678.7</ele>
<time>2003-09-19T08:24:36Z</time>
<speed>1.1</speed>
</trkpt>
<trkpt lat="47.445381" lon="8.748668">
<ele>679.1</ele>
<time>2003-09-19T08:24:41Z</time>
<speed>0.8</speed>
</trkpt>
<trkpt lat="47.445317" lon="8.748750">
<ele>680.2</ele>
<time>2003-09-19T08:24:46Z</time>
<speed>1.1</speed>
</trkpt>
<trkpt lat="47.445279" lon="8.748837">
<ele>680.1</ele>
<time>2003-09-19T08:24:51Z</time>
<speed>1.4</speed>
</trkpt>
<trkpt lat="47.445220" lon="8.748949">
<ele>679.3</ele>
<time>2003-09-19T08:24:56Z</time>
<speed>1.4</speed>
</trkpt>
<trkpt lat="47.445218" lon="8.749056">
<ele>679.5</ele>
<time>2003-09-19T08:25:01Z</time>
<speed>0.8</speed>
</trkpt>
<trkpt lat="47.445193" lon="8.749148">
<ele>678.0</ele>
<time>2003-09-19T08:25:06Z</time>
<speed>1.1</speed>
</trkpt>
<trkpt lat="47.445165" lon="8.749262">
<ele>679.5</ele>
<time>2003-09-19T08:25:11Z</time>
<speed>0.8</speed>
</trkpt>
<trkpt lat="47.445146" lon="8.749340">
<ele>678.6</ele>
<time>2003-09-19T08:25:16Z</time>
<speed>1.4</speed>
</trkpt>
<trkpt lat="47.445127" lon="8.749430">
<ele>679.3</ele>
<time>2003-09-19T08:25:21Z</time>
<speed>1.1</speed>
</trkpt>
<trkpt lat="47.445103" lon="8.749493">
<ele>679.0</ele>
<time>2003-09-19T08:25:26Z</time>
<speed>0.3</speed>
</trkpt>
<trkpt lat="47.445069" lon="8.749529">
<ele>678.4</ele>
<time>2003-09-19T08:25:31Z</time>
<speed>0.6</speed>
</trkpt>
<trkpt lat="47.445020" lon="8.749588">
<ele>678.0</ele>
<time>2003-09-19T08:25:36Z</time>
<speed>1.1</speed>
</trkpt>
<trkpt lat="47.444971" lon="8.749650">
<ele>676.2</ele>
<time>2003-09-19T08:25:41Z</time>
<speed>1.1</speed>
</trkpt>
<trkpt lat="47.444897" lon="8.749705">
<ele>675.6</ele>
<time>2003-09-19T08:25:47Z</time>
<speed>0.8</speed>
</trkpt>
<trkpt lat="47.444848" lon="8.749749">
<ele>676.5</ele>
<time>2003-09-19T08:25:52Z</time>
<speed>0.8</speed>
</trkpt>
<trkpt lat="47.444808" lon="8.749770">
<ele>676.5</ele>
<time>2003-09-19T08:25:57Z</time>
<speed>0.8</speed>
</trkpt>
<trkpt lat="47.444742" lon="8.749799">
<ele>676.5</ele>
<time>2003-09-19T08:26:02Z</time>
<speed>0.8</speed>
</trkpt>
<trkpt lat="47.444683" lon="8.749815">
<ele>677.1</ele>
<time>2003-09-19T08:26:07Z</time>
<speed>1.1</speed>
</trkpt>
<trkpt lat="47.444626" lon="8.749805">
<ele>677.5</ele>
<time>2003-09-19T08:26:12Z</time>
<speed>0.6</speed>
</trkpt>
<trkpt lat="47.444588" lon="8.749814">
<ele>676.0</ele>
<time>2003-09-19T08:26:17Z</time>
<speed>0.6</speed>
</trkpt>
<trkpt lat="47.444538" lon="8.749791">
<ele>677.0</ele>
<time>2003-09-19T08:26:22Z</time>
<speed>0.8</speed>
</trkpt>
<trkpt lat="47.444475" lon="8.749766">
<ele>677.9</ele>
<time>2003-09-19T08:26:27Z</time>
<speed>0.6</speed>
</trkpt>
<trkpt lat="47.444425" lon="8.749742">
<ele>679.0</ele>
<time>2003-09-19T08:26:32Z</time>
<speed>0.3</speed>
</trkpt>
<trkpt lat="47.444375" lon="8.749719">
<ele>680.0</ele>
<time>2003-09-19T08:26:37Z</time>
<speed>0.8</speed>
</trkpt>
<trkpt lat="47.444299" lon="8.749707">
<ele>679.6</ele>
<time>2003-09-19T08:26:42Z</time>
<speed>0.8</speed>
</trkpt>
<trkpt lat="47.444247" lon="8.749710">
<ele>680.8</ele>
<time>2003-09-19T08:26:47Z</time>
<speed>0.6</speed>
</trkpt>
<trkpt lat="47.444210" lon="8.749691">
<ele>680.5</ele>
<time>2003-09-19T08:26:52Z</time>
<speed>0.6</speed>
</trkpt>
<trkpt lat="47.444155" lon="8.749655">
<ele>680.7</ele>
<time>2003-09-19T08:26:57Z</time>
<speed>0.8</speed>
</trkpt>
<trkpt lat="47.444094" lon="8.749616">
<ele>681.6</ele>
<time>2003-09-19T08:27:02Z</time>
<speed>0.6</speed>
</trkpt>
<trkpt lat="47.444012" lon="8.749587">
<ele>683.1</ele>
<time>2003-09-19T08:27:07Z</time>
<speed>0.6</speed>
</trkpt>
<trkpt lat="47.443964" lon="8.749538">
<ele>684.0</ele>
<time>2003-09-19T08:27:12Z</time>
<speed>0.8</speed>
</trkpt>
<trkpt lat="47.443943" lon="8.749481">
<ele>683.4</ele>
<time>2003-09-19T08:27:17Z</time>
<speed>0.6</speed>
</trkpt>
<trkpt lat="47.443921" lon="8.749423">
<ele>684.3</ele>
<time>2003-09-19T08:27:22Z</time>
<speed>0.6</speed>
</trkpt>
<trkpt lat="47.443921" lon="8.749342">
<ele>684.3</ele>
<time>2003-09-19T08:27:27Z</time>
<speed>0.8</speed>
</trkpt>
<trkpt lat="47.443900" lon="8.749256">
<ele>686.4</ele>
<time>2003-09-19T08:27:32Z</time>
<speed>0.6</speed>
</trkpt>
<trkpt lat="47.443899" lon="8.749188">
<ele>686.5</ele>
<time>2003-09-19T08:27:37Z</time>
<speed>0.8</speed>
</trkpt>
<trkpt lat="47.443880" lon="8.749105">
<ele>685.8</ele>
<time>2003-09-19T08:27:42Z</time>
<speed>0.8</speed>
</trkpt>
<trkpt lat="47.443865" lon="8.749034">
<ele>687.3</ele>
<time>2003-09-19T08:27:47Z</time>
<speed>0.8</speed>
</trkpt>
<trkpt lat="47.443878" lon="8.748942">
<ele>687.3</ele>
<time>2003-09-19T08:27:52Z</time>
<speed>1.1</speed>
</trkpt>
<trkpt lat="47.443853" lon="8.748857">
<ele>687.2</ele>
<time>2003-09-19T08:27:57Z</time>
<speed>0.6</speed>
</trkpt>
<trkpt lat="47.443820" lon="8.748786">
<ele>686.5</ele>
<time>2003-09-19T08:28:02Z</time>
<speed>1.1</speed>
</trkpt>
<trkpt lat="47.443779" lon="8.748725">
<ele>686.5</ele>
<time>2003-09-19T08:28:07Z</time>
<speed>0.8</speed>
</trkpt>
<trkpt lat="47.443766" lon="8.748641">
<ele>687.9</ele>
<time>2003-09-19T08:28:12Z</time>
<speed>0.8</speed>
</trkpt>
<trkpt lat="47.443745" lon="8.748571">
<ele>687.3</ele>
<time>2003-09-19T08:28:17Z</time>
<speed>0.8</speed>
</trkpt>
<trkpt lat="47.443718" lon="8.748513">
<ele>687.4</ele>
<time>2003-09-19T08:28:22Z</time>
<speed>0.8</speed>
</trkpt>
<trkpt lat="47.443718" lon="8.748419">
<ele>687.3</ele>
<time>2003-09-19T08:28:27Z</time>
<speed>0.8</speed>
</trkpt>
<trkpt lat="47.443739" lon="8.748316">
<ele>686.6</ele>
<time>2003-09-19T08:28:32Z</time>
<speed>0.8</speed>
</trkpt>
<trkpt lat="47.443763" lon="8.748255">
<ele>685.5</ele>
<time>2003-09-19T08:28:37Z</time>
<speed>0.6</speed>
</trkpt>
<trkpt lat="47.443768" lon="8.748187">
<ele>686.4</ele>
<time>2003-09-19T08:28:42Z</time>
<speed>0.8</speed>
</trkpt>
<trkpt lat="47.443755" lon="8.748105">
<ele>686.3</ele>
<time>2003-09-19T08:28:47Z</time>
<speed>0.8</speed>
</trkpt>
<trkpt lat="47.443741" lon="8.748022">
<ele>686.3</ele>
<time>2003-09-19T08:28:52Z</time>
<speed>0.8</speed>
</trkpt>
<trkpt lat="47.443709" lon="8.747950">
<ele>685.6</ele>
<time>2003-09-19T08:28:57Z</time>
<speed>0.6</speed>
</trkpt>
<trkpt lat="47.443685" lon="8.747839">
<ele>685.3</ele>
<time>2003-09-19T08:29:02Z</time>
<speed>1.1</speed>
</trkpt>
<trkpt lat="47.443679" lon="8.747746">
<ele>684.5</ele>
<time>2003-09-19T08:29:07Z</time>
<speed>0.8</speed>
</trkpt>
<trkpt lat="47.443689" lon="8.747710">
<ele>682.1</ele>
<time>2003-09-19T08:29:12Z</time>
<speed>0.0</speed>
</trkpt>
<trkpt lat="47.443646" lon="8.747689">
<ele>682.5</ele>
<time>2003-09-19T08:29:17Z</time>
<speed>0.3</speed>
</trkpt>
<trkpt lat="47.443603" lon="8.747655">
<ele>682.8</ele>
<time>2003-09-19T08:29:22Z</time>
<speed>0.6</speed>
</trkpt>
<trkpt lat="47.443507" lon="8.747588">
<ele>680.4</ele>
<time>2003-09-19T08:29:27Z</time>
<speed>0.8</speed>
</trkpt>
<trkpt lat="47.443448" lon="8.747526">
<ele>679.7</ele>
<time>2003-09-19T08:29:32Z</time>
<speed>0.6</speed>
</trkpt>
<trkpt lat="47.443393" lon="8.747492">
<ele>678.4</ele>
<time>2003-09-19T08:29:37Z</time>
<speed>0.6</speed>
</trkpt>
<trkpt lat="47.443359" lon="8.747433">
<ele>677.8</ele>
<time>2003-09-19T08:29:42Z</time>
<speed>0.6</speed>
</trkpt>
<trkpt lat="47.443324" lon="8.747386">
<ele>678.7</ele>
<time>2003-09-19T08:29:47Z</time>
<speed>0.8</speed>
</trkpt>
<trkpt lat="47.443261" lon="8.747361">
<ele>679.7</ele>
<time>2003-09-19T08:29:52Z</time>
<speed>0.6</speed>
</trkpt>
<trkpt lat="47.443213" lon="8.747326">
<ele>679.2</ele>
<time>2003-09-19T08:29:57Z</time>
<speed>0.8</speed>
</trkpt>
<trkpt lat="47.443175" lon="8.747320">
<ele>679.0</ele>
<time>2003-09-19T08:30:02Z</time>
<speed>0.0</speed>
</trkpt>
<trkpt lat="47.443157" lon="8.747303">
<ele>679.5</ele>
<time>2003-09-19T08:30:07Z</time>
<speed>0.0</speed>
</trkpt>
<trkpt lat="47.443140" lon="8.747273">
<ele>679.9</ele>
<time>2003-09-19T08:30:12Z</time>
<speed>0.3</speed>
</trkpt>
<trkpt lat="47.443129" lon="8.747245">
<ele>679.6</ele>
<time>2003-09-19T08:30:17Z</time>
<speed>0.0</speed>
</trkpt>
<trkpt lat="47.443125" lon="8.747203">
<ele>680.0</ele>
<time>2003-09-19T08:30:22Z</time>
<speed>0.3</speed>
</trkpt>
<trkpt lat="47.443111" lon="8.747134">
<ele>680.1</ele>
<time>2003-09-19T08:30:27Z</time>
<speed>1.1</speed>
</trkpt>
<trkpt lat="47.443084" lon="8.747060">
<ele>681.5</ele>
<time>2003-09-19T08:30:32Z</time>
<speed>0.8</speed>
</trkpt>
<trkpt lat="47.443083" lon="8.746993">
<ele>681.6</ele>
<time>2003-09-19T08:30:37Z</time>
<speed>0.6</speed>
</trkpt>
<trkpt lat="47.443036" lon="8.746930">
<ele>682.4</ele>
<time>2003-09-19T08:30:42Z</time>
<speed>1.1</speed>
</trkpt>
<trkpt lat="47.442975" lon="8.746881">
<ele>681.7</ele>
<time>2003-09-19T08:30:47Z</time>
<speed>0.6</speed>
</trkpt>
<trkpt lat="47.442922" lon="8.746834">
<ele>680.4</ele>
<time>2003-09-19T08:30:52Z</time>
<speed>0.8</speed>
</trkpt>
<trkpt lat="47.442876" lon="8.746760">
<ele>679.6</ele>
<time>2003-09-19T08:30:57Z</time>
<speed>0.6</speed>
</trkpt>
<trkpt lat="47.442821" lon="8.746724">
<ele>679.8</ele>
<time>2003-09-19T08:31:02Z</time>
<speed>0.6</speed>
</trkpt>
<trkpt lat="47.442801" lon="8.746654">
<ele>679.1</ele>
<time>2003-09-19T08:31:07Z</time>
<speed>0.8</speed>
</trkpt>
<trkpt lat="47.442781" lon="8.746569">
<ele>679.8</ele>
<time>2003-09-19T08:31:12Z</time>
<speed>0.8</speed>
</trkpt>
<trkpt lat="47.442736" lon="8.746496">
<ele>679.0</ele>
<time>2003-09-19T08:31:17Z</time>
<speed>1.1</speed>
</trkpt>
<trkpt lat="47.442729" lon="8.746413">
<ele>679.7</ele>
<time>2003-09-19T08:31:22Z</time>
<speed>0.6</speed>
</trkpt>
<trkpt lat="47.442726" lon="8.746359">
<ele>680.0</ele>
<time>2003-09-19T08:31:27Z</time>
<speed>0.8</speed>
</trkpt>
<trkpt lat="47.442732" lon="8.746280">
<ele>679.4</ele>
<time>2003-09-19T08:31:32Z</time>
<speed>0.8</speed>
</trkpt>
<trkpt lat="47.442732" lon="8.746200">
<ele>679.4</ele>
<time>2003-09-19T08:31:37Z</time>
<speed>0.8</speed>
</trkpt>
<trkpt lat="47.442712" lon="8.746130">
<ele>678.8</ele>
<time>2003-09-19T08:31:42Z</time>
<speed>0.8</speed>
</trkpt>
<trkpt lat="47.442665" lon="8.746070">
<ele>678.1</ele>
<time>2003-09-19T08:31:47Z</time>
<speed>0.6</speed>
</trkpt>
<trkpt lat="47.442617" lon="8.746020">
<ele>678.9</ele>
<time>2003-09-19T08:31:52Z</time>
<speed>0.8</speed>
</trkpt>
<trkpt lat="47.442561" lon="8.745997">
<ele>679.2</ele>
<time>2003-09-19T08:31:57Z</time>
<speed>0.6</speed>
</trkpt>
<trkpt lat="47.442485" lon="8.745983">
<ele>680.2</ele>
<time>2003-09-19T08:32:02Z</time>
<speed>0.8</speed>
</trkpt>
<trkpt lat="47.442411" lon="8.745960">
<ele>678.3</ele>
<time>2003-09-19T08:32:07Z</time>
<speed>0.8</speed>
</trkpt>
<trkpt lat="47.442363" lon="8.745910">
<ele>679.1</ele>
<time>2003-09-19T08:32:12Z</time>
<speed>0.6</speed>
</trkpt>
<trkpt lat="47.442354" lon="8.745854">
<ele>680.0</ele>
<time>2003-09-19T08:32:17Z</time>
<speed>0.6</speed>
</trkpt>
<trkpt lat="47.442324" lon="8.745806">
<ele>681.7</ele>
<time>2003-09-19T08:32:22Z</time>
<speed>0.3</speed>
</trkpt>
<trkpt lat="47.442283" lon="8.745759">
<ele>681.8</ele>
<time>2003-09-19T08:32:27Z</time>
<speed>0.8</speed>
</trkpt>
<trkpt lat="47.442235" lon="8.745710">
<ele>682.6</ele>
<time>2003-09-19T08:32:32Z</time>
<speed>0.3</speed>
</trkpt>
<trkpt lat="47.442153" lon="8.745696">
<ele>682.9</ele>
<time>2003-09-19T08:32:37Z</time>
<speed>0.6</speed>
</trkpt>
<trkpt lat="47.442105" lon="8.745648">
<ele>682.3</ele>
<time>2003-09-19T08:32:42Z</time>
<speed>0.6</speed>
</trkpt>
<trkpt lat="47.442098" lon="8.745566">
<ele>683.0</ele>
<time>2003-09-19T08:32:47Z</time>
<speed>0.8</speed>
</trkpt>
<trkpt lat="47.442074" lon="8.745453">
<ele>684.2</ele>
<time>2003-09-19T08:32:52Z</time>
<speed>0.8</speed>
</trkpt>
<trkpt lat="47.442068" lon="8.745357">
<ele>684.8</ele>
<time>2003-09-19T08:32:57Z</time>
<speed>0.8</speed>
</trkpt>
<trkpt lat="47.442055" lon="8.745274">
<ele>684.8</ele>
<time>2003-09-19T08:33:02Z</time>
<speed>0.8</speed>
</trkpt>
<trkpt lat="47.442008" lon="8.745214">
<ele>684.1</ele>
<time>2003-09-19T08:33:07Z</time>
<speed>0.8</speed>
</trkpt>
<trkpt lat="47.441989" lon="8.745129">
<ele>684.7</ele>
<time>2003-09-19T08:33:12Z</time>
<speed>1.1</speed>
</trkpt>
<trkpt lat="47.441965" lon="8.745018">
<ele>684.4</ele>
<time>2003-09-19T08:33:17Z</time>
<speed>0.8</speed>
</trkpt>
<trkpt lat="47.441944" lon="8.744962">
<ele>683.9</ele>
<time>2003-09-19T08:33:22Z</time>
<speed>0.8</speed>
</trkpt>
<trkpt lat="47.441938" lon="8.744868">
<ele>683.1</ele>
<time>2003-09-19T08:33:27Z</time>
<speed>0.3</speed>
</trkpt>
<trkpt lat="47.441918" lon="8.744799">
<ele>682.4</ele>
<time>2003-09-19T08:33:32Z</time>
<speed>0.8</speed>
</trkpt>
<trkpt lat="47.441857" lon="8.744747">
<ele>683.2</ele>
<time>2003-09-19T08:33:37Z</time>
<speed>0.8</speed>
</trkpt>
<trkpt lat="47.441850" lon="8.744680">
<ele>682.6</ele>
<time>2003-09-19T08:33:42Z</time>
<speed>0.8</speed>
</trkpt>
<trkpt lat="47.441838" lon="8.744586">
<ele>681.1</ele>
<time>2003-09-19T08:33:47Z</time>
<speed>1.1</speed>
</trkpt>
<trkpt lat="47.441818" lon="8.744501">
<ele>681.7</ele>
<time>2003-09-19T08:33:52Z</time>
<speed>1.1</speed>
</trkpt>
<trkpt lat="47.441784" lon="8.744443">
<ele>681.1</ele>
<time>2003-09-19T08:33:57Z</time>
<speed>0.6</speed>
</trkpt>
<trkpt lat="47.441771" lon="8.744360">
<ele>681.1</ele>
<time>2003-09-19T08:34:02Z</time>
<speed>1.1</speed>
</trkpt>
<trkpt lat="47.441792" lon="8.744257">
<ele>680.4</ele>
<time>2003-09-19T08:34:07Z</time>
<speed>1.1</speed>
</trkpt>
<trkpt lat="47.441775" lon="8.744227">
<ele>680.8</ele>
<time>2003-09-19T08:34:12Z</time>
<speed>0.6</speed>
</trkpt>
<trkpt lat="47.441754" lon="8.744156">
<ele>681.5</ele>
<time>2003-09-19T08:34:17Z</time>
<speed>0.6</speed>
</trkpt>
<trkpt lat="47.441741" lon="8.744073">
<ele>681.5</ele>
<time>2003-09-19T08:34:22Z</time>
<speed>0.6</speed>
</trkpt>
<trkpt lat="47.441719" lon="8.744014">
<ele>682.3</ele>
<time>2003-09-19T08:34:27Z</time>
<speed>0.8</speed>
</trkpt>
<trkpt lat="47.441715" lon="8.743908">
<ele>681.5</ele>
<time>2003-09-19T08:34:32Z</time>
<speed>0.8</speed>
</trkpt>
<trkpt lat="47.441723" lon="8.743788">
<ele>681.9</ele>
<time>2003-09-19T08:34:37Z</time>
<speed>1.1</speed>
</trkpt>
<trkpt lat="47.441705" lon="8.743692">
<ele>681.1</ele>
<time>2003-09-19T08:34:42Z</time>
<speed>0.8</speed>
</trkpt>
<trkpt lat="47.441686" lon="8.743609">
<ele>680.3</ele>
<time>2003-09-19T08:34:47Z</time>
<speed>0.8</speed>
</trkpt>
<trkpt lat="47.441672" lon="8.743540">
<ele>680.4</ele>
<time>2003-09-19T08:34:52Z</time>
<speed>0.8</speed>
</trkpt>
<trkpt lat="47.441653" lon="8.743442">
<ele>681.0</ele>
<time>2003-09-19T08:34:57Z</time>
<speed>0.6</speed>
</trkpt>
<trkpt lat="47.441658" lon="8.743374">
<ele>681.9</ele>
<time>2003-09-19T08:35:02Z</time>
<speed>0.8</speed>
</trkpt>
<trkpt lat="47.441664" lon="8.743281">
<ele>682.5</ele>
<time>2003-09-19T08:35:07Z</time>
<speed>1.1</speed>
</trkpt>
<trkpt lat="47.441665" lon="8.743189">
<ele>681.1</ele>
<time>2003-09-19T08:35:12Z</time>
<speed>1.1</speed>
</trkpt>
<trkpt lat="47.441660" lon="8.743080">
<ele>681.6</ele>
<time>2003-09-19T08:35:17Z</time>
<speed>0.6</speed>
</trkpt>
<trkpt lat="47.441655" lon="8.742986">
<ele>680.8</ele>
<time>2003-09-19T08:35:22Z</time>
<speed>1.1</speed>
</trkpt>
<trkpt lat="47.441650" lon="8.742880">
<ele>679.9</ele>
<time>2003-09-19T08:35:27Z</time>
<speed>1.1</speed>
</trkpt>
<trkpt lat="47.441628" lon="8.742836">
<ele>679.5</ele>
<time>2003-09-19T08:35:32Z</time>
<speed>0.6</speed>
</trkpt>
<trkpt lat="47.441592" lon="8.742789">
<ele>680.4</ele>
<time>2003-09-19T08:35:37Z</time>
<speed>0.8</speed>
</trkpt>
<trkpt lat="47.441586" lon="8.742708">
<ele>679.7</ele>
<time>2003-09-19T08:35:42Z</time>
<speed>0.3</speed>
</trkpt>
<trkpt lat="47.441567" lon="8.742626">
<ele>678.9</ele>
<time>2003-09-19T08:35:47Z</time>
<speed>0.8</speed>
</trkpt>
<trkpt lat="47.441568" lon="8.742519">
<ele>678.8</ele>
<time>2003-09-19T08:35:52Z</time>
<speed>1.1</speed>
</trkpt>
<trkpt lat="47.441575" lon="8.742427">
<ele>678.1</ele>
<time>2003-09-19T08:35:57Z</time>
<speed>0.8</speed>
</trkpt>
<trkpt lat="47.441556" lon="8.742344">
<ele>677.3</ele>
<time>2003-09-19T08:36:02Z</time>
<speed>0.6</speed>
</trkpt>
<trkpt lat="47.441563" lon="8.742253">
<ele>676.6</ele>
<time>2003-09-19T08:36:07Z</time>
<speed>1.1</speed>
</trkpt>
<trkpt lat="47.441574" lon="8.742187">
<ele>676.8</ele>
<time>2003-09-19T08:36:12Z</time>
<speed>0.8</speed>
</trkpt>
<trkpt lat="47.441592" lon="8.742124">
<ele>676.4</ele>
<time>2003-09-19T08:36:17Z</time>
<speed>0.8</speed>
</trkpt>
<trkpt lat="47.441604" lon="8.742045">
<ele>676.5</ele>
<time>2003-09-19T08:36:22Z</time>
<speed>0.8</speed>
</trkpt>
<trkpt lat="47.441591" lon="8.741962">
<ele>676.5</ele>
<time>2003-09-19T08:36:27Z</time>
<speed>0.8</speed>
</trkpt>
<trkpt lat="47.441586" lon="8.741856">
<ele>675.6</ele>
<time>2003-09-19T08:36:32Z</time>
<speed>1.1</speed>
</trkpt>
<trkpt lat="47.441548" lon="8.741771">
<ele>674.0</ele>
<time>2003-09-19T08:36:37Z</time>
<speed>1.1</speed>
</trkpt>
<trkpt lat="47.441515" lon="8.741697">
<ele>674.7</ele>
<time>2003-09-19T08:36:42Z</time>
<speed>0.8</speed>
</trkpt>
<trkpt lat="47.441473" lon="8.741650">
<ele>674.9</ele>
<time>2003-09-19T08:36:47Z</time>
<speed>1.1</speed>
</trkpt>
<trkpt lat="47.441433" lon="8.741588">
<ele>676.3</ele>
<time>2003-09-19T08:36:52Z</time>
<speed>0.8</speed>
</trkpt>
<trkpt lat="47.441399" lon="8.741529">
<ele>675.7</ele>
<time>2003-09-19T08:36:57Z</time>
<speed>0.8</speed>
</trkpt>
<trkpt lat="47.441372" lon="8.741458">
<ele>675.7</ele>
<time>2003-09-19T08:37:02Z</time>
<speed>0.8</speed>
</trkpt>
<trkpt lat="47.441345" lon="8.741386">
<ele>675.7</ele>
<time>2003-09-19T08:37:07Z</time>
<speed>0.8</speed>
</trkpt>
<trkpt lat="47.441304" lon="8.741339">
<ele>675.9</ele>
<time>2003-09-19T08:37:12Z</time>
<speed>0.8</speed>
</trkpt>
<trkpt lat="47.441251" lon="8.741276">
<ele>675.9</ele>
<time>2003-09-19T08:37:17Z</time>
<speed>0.8</speed>
</trkpt>
<trkpt lat="47.441217" lon="8.741218">
<ele>675.3</ele>
<time>2003-09-19T08:37:22Z</time>
<speed>1.1</speed>
</trkpt>
<trkpt lat="47.441195" lon="8.741159">
<ele>676.1</ele>
<time>2003-09-19T08:37:27Z</time>
<speed>0.8</speed>
</trkpt>
<trkpt lat="47.441154" lon="8.741097">
<ele>677.6</ele>
<time>2003-09-19T08:37:32Z</time>
<speed>1.1</speed>
</trkpt>
<trkpt lat="47.441115" lon="8.741023">
<ele>677.5</ele>
<time>2003-09-19T08:37:37Z</time>
<speed>0.8</speed>
</trkpt>
<trkpt lat="47.441087" lon="8.740965">
<ele>677.7</ele>
<time>2003-09-19T08:37:42Z</time>
<speed>0.8</speed>
</trkpt>
<trkpt lat="47.441054" lon="8.740891">
<ele>678.3</ele>
<time>2003-09-19T08:37:47Z</time>
<speed>1.1</speed>
</trkpt>
<trkpt lat="47.441028" lon="8.740807">
<ele>678.3</ele>
<time>2003-09-19T08:37:52Z</time>
<speed>0.8</speed>
</trkpt>
<trkpt lat="47.441015" lon="8.740724">
<ele>678.2</ele>
<time>2003-09-19T08:37:57Z</time>
<speed>1.1</speed>
</trkpt>
<trkpt lat="47.440995" lon="8.740639">
<ele>678.9</ele>
<time>2003-09-19T08:38:02Z</time>
<speed>1.1</speed>
</trkpt>
<trkpt lat="47.440995" lon="8.740559">
<ele>678.9</ele>
<time>2003-09-19T08:38:07Z</time>
<speed>1.1</speed>
</trkpt>
<trkpt lat="47.441007" lon="8.740480">
<ele>679.1</ele>
<time>2003-09-19T08:38:12Z</time>
<speed>0.8</speed>
</trkpt>
<trkpt lat="47.441040" lon="8.740379">
<ele>678.4</ele>
<time>2003-09-19T08:38:17Z</time>
<speed>1.1</speed>
</trkpt>
<trkpt lat="47.441059" lon="8.740287">
<ele>679.1</ele>
<time>2003-09-19T08:38:22Z</time>
<speed>0.8</speed>
</trkpt>
<trkpt lat="47.441072" lon="8.740196">
<ele>679.1</ele>
<time>2003-09-19T08:38:27Z</time>
<speed>0.8</speed>
</trkpt>
<trkpt lat="47.441072" lon="8.740115">
<ele>679.2</ele>
<time>2003-09-19T08:38:32Z</time>
<speed>0.8</speed>
</trkpt>
<trkpt lat="47.441071" lon="8.740034">
<ele>679.3</ele>
<time>2003-09-19T08:38:37Z</time>
<speed>0.8</speed>
</trkpt>
<trkpt lat="47.441090" lon="8.739956">
<ele>680.1</ele>
<time>2003-09-19T08:38:42Z</time>
<speed>0.8</speed>
</trkpt>
<trkpt lat="47.441103" lon="8.739864">
<ele>680.1</ele>
<time>2003-09-19T08:38:47Z</time>
<speed>1.1</speed>
</trkpt>
<trkpt lat="47.441117" lon="8.739759">
<ele>680.0</ele>
<time>2003-09-19T08:38:52Z</time>
<speed>1.1</speed>
</trkpt>
<trkpt lat="47.441117" lon="8.739666">
<ele>680.0</ele>
<time>2003-09-19T08:38:57Z</time>
<speed>1.1</speed>
</trkpt>
<trkpt lat="47.441123" lon="8.739585">
<ele>680.8</ele>
<time>2003-09-19T08:39:02Z</time>
<speed>1.1</speed>
</trkpt>
<trkpt lat="47.441130" lon="8.739493">
<ele>680.1</ele>
<time>2003-09-19T08:39:07Z</time>
<speed>1.1</speed>
</trkpt>
<trkpt lat="47.441138" lon="8.739388">
<ele>679.2</ele>
<time>2003-09-19T08:39:12Z</time>
<speed>1.1</speed>
</trkpt>
<trkpt lat="47.441145" lon="8.739297">
<ele>678.5</ele>
<time>2003-09-19T08:39:17Z</time>
<speed>1.1</speed>
</trkpt>
<trkpt lat="47.441139" lon="8.739216">
<ele>677.8</ele>
<time>2003-09-19T08:39:22Z</time>
<speed>0.8</speed>
</trkpt>
<trkpt lat="47.441124" lon="8.739147">
<ele>677.9</ele>
<time>2003-09-19T08:39:27Z</time>
<speed>0.8</speed>
</trkpt>
<trkpt lat="47.441063" lon="8.739108">
<ele>678.8</ele>
<time>2003-09-19T08:39:32Z</time>
<speed>1.1</speed>
</trkpt>
<trkpt lat="47.441016" lon="8.739046">
<ele>679.5</ele>
<time>2003-09-19T08:39:37Z</time>
<speed>1.1</speed>
</trkpt>
<trkpt lat="47.440974" lon="8.738998">
<ele>679.7</ele>
<time>2003-09-19T08:39:42Z</time>
<speed>0.8</speed>
</trkpt>
<trkpt lat="47.440934" lon="8.738938">
<ele>679.7</ele>
<time>2003-09-19T08:39:47Z</time>
<speed>1.1</speed>
</trkpt>
<trkpt lat="47.440872" lon="8.738900">
<ele>680.6</ele>
<time>2003-09-19T08:39:52Z</time>
<speed>1.1</speed>
</trkpt>
<trkpt lat="47.440818" lon="8.738850">
<ele>680.7</ele>
<time>2003-09-19T08:39:57Z</time>
<speed>1.1</speed>
</trkpt>
<trkpt lat="47.440790" lon="8.738805">
<ele>680.9</ele>
<time>2003-09-19T08:40:02Z</time>
<speed>0.8</speed>
</trkpt>
<trkpt lat="47.440748" lon="8.738758">
<ele>681.0</ele>
<time>2003-09-19T08:40:07Z</time>
<speed>0.8</speed>
</trkpt>
<trkpt lat="47.440719" lon="8.738712">
<ele>681.3</ele>
<time>2003-09-19T08:40:12Z</time>
<speed>0.8</speed>
</trkpt>
<trkpt lat="47.440678" lon="8.738665">
<ele>681.4</ele>
<time>2003-09-19T08:40:17Z</time>
<speed>0.8</speed>
</trkpt>
<trkpt lat="47.440635" lon="8.738631">
<ele>681.7</ele>
<time>2003-09-19T08:40:22Z</time>
<speed>0.8</speed>
</trkpt>
<trkpt lat="47.440601" lon="8.738570">
<ele>682.5</ele>
<time>2003-09-19T08:40:27Z</time>
<speed>0.8</speed>
</trkpt>
<trkpt lat="47.440572" lon="8.738525">
<ele>682.7</ele>
<time>2003-09-19T08:40:32Z</time>
<speed>0.8</speed>
</trkpt>
<trkpt lat="47.440517" lon="8.738489">
<ele>682.9</ele>
<time>2003-09-19T08:40:37Z</time>
<speed>1.1</speed>
</trkpt>
<trkpt lat="47.440475" lon="8.738439">
<ele>684.4</ele>
<time>2003-09-19T08:40:42Z</time>
<speed>0.8</speed>
</trkpt>
<trkpt lat="47.440429" lon="8.738379">
<ele>683.8</ele>
<time>2003-09-19T08:40:47Z</time>
<speed>1.1</speed>
</trkpt>
<trkpt lat="47.440388" lon="8.738331">
<ele>683.9</ele>
<time>2003-09-19T08:40:52Z</time>
<speed>1.1</speed>
</trkpt>
<trkpt lat="47.440333" lon="8.738282">
<ele>684.0</ele>
<time>2003-09-19T08:40:57Z</time>
<speed>1.1</speed>
</trkpt>
<trkpt lat="47.440284" lon="8.738246">
<ele>684.9</ele>
<time>2003-09-19T08:41:02Z</time>
<speed>1.1</speed>
</trkpt>
<trkpt lat="47.440230" lon="8.738196">
<ele>685.0</ele>
<time>2003-09-19T08:41:07Z</time>
<speed>1.1</speed>
</trkpt>
<trkpt lat="47.440168" lon="8.738171">
<ele>686.0</ele>
<time>2003-09-19T08:41:12Z</time>
<speed>1.1</speed>
</trkpt>
<trkpt lat="47.440139" lon="8.738126">
<ele>686.2</ele>
<time>2003-09-19T08:41:17Z</time>
<speed>0.6</speed>
</trkpt>
<trkpt lat="47.440109" lon="8.738094">
<ele>686.5</ele>
<time>2003-09-19T08:41:22Z</time>
<speed>0.8</speed>
</trkpt>
<trkpt lat="47.440072" lon="8.738074">
<ele>686.2</ele>
<time>2003-09-19T08:41:27Z</time>
<speed>0.0</speed>
</trkpt>
<trkpt lat="47.440078" lon="8.738074">
<ele>687.0</ele>
<time>2003-09-19T08:41:32Z</time>
<speed>0.0</speed>
</trkpt>
<trkpt lat="47.440066" lon="8.738072">
<ele>686.9</ele>
<time>2003-09-19T08:41:37Z</time>
<speed>0.0</speed>
</trkpt>
<trkpt lat="47.440054" lon="8.738057">
<ele>686.7</ele>
<time>2003-09-19T08:41:42Z</time>
<speed>0.8</speed>
</trkpt>
<trkpt lat="47.440014" lon="8.737997">
<ele>686.8</ele>
<time>2003-09-19T08:41:47Z</time>
<speed>1.1</speed>
</trkpt>
<trkpt lat="47.439959" lon="8.737961">
<ele>687.0</ele>
<time>2003-09-19T08:41:52Z</time>
<speed>1.4</speed>
</trkpt>
<trkpt lat="47.439878" lon="8.737920">
<ele>687.0</ele>
<time>2003-09-19T08:41:57Z</time>
<speed>1.7</speed>
</trkpt>
<trkpt lat="47.439830" lon="8.737871">
<ele>687.8</ele>
<time>2003-09-19T08:42:02Z</time>
<speed>1.1</speed>
</trkpt>
<trkpt lat="47.439782" lon="8.737837">
<ele>687.4</ele>
<time>2003-09-19T08:42:07Z</time>
<speed>1.1</speed>
</trkpt>
<trkpt lat="47.439729" lon="8.737774">
<ele>687.3</ele>
<time>2003-09-19T08:42:12Z</time>
<speed>1.4</speed>
</trkpt>
<trkpt lat="47.439674" lon="8.737738">
<ele>687.5</ele>
<time>2003-09-19T08:42:17Z</time>
<speed>1.1</speed>
</trkpt>
<trkpt lat="47.439619" lon="8.737702">
<ele>687.7</ele>
<time>2003-09-19T08:42:22Z</time>
<speed>1.1</speed>
</trkpt>
<trkpt lat="47.439571" lon="8.737654">
<ele>687.2</ele>
<time>2003-09-19T08:42:27Z</time>
<speed>1.4</speed>
</trkpt>
<trkpt lat="47.439517" lon="8.737605">
<ele>687.2</ele>
<time>2003-09-19T08:42:32Z</time>
<speed>1.1</speed>
</trkpt>
<trkpt lat="47.439481" lon="8.737573">
<ele>686.8</ele>
<time>2003-09-19T08:42:37Z</time>
<speed>1.1</speed>
</trkpt>
<trkpt lat="47.439428" lon="8.737510">
<ele>686.8</ele>
<time>2003-09-19T08:42:42Z</time>
<speed>1.4</speed>
</trkpt>
<trkpt lat="47.439381" lon="8.737463">
<ele>686.2</ele>
<time>2003-09-19T08:42:47Z</time>
<speed>0.8</speed>
</trkpt>
<trkpt lat="47.439326" lon="8.737426">
<ele>686.4</ele>
<time>2003-09-19T08:42:52Z</time>
<speed>1.1</speed>
</trkpt>
<trkpt lat="47.439284" lon="8.737379">
<ele>686.6</ele>
<time>2003-09-19T08:42:57Z</time>
<speed>1.1</speed>
</trkpt>
<trkpt lat="47.439243" lon="8.737332">
<ele>686.7</ele>
<time>2003-09-19T08:43:02Z</time>
<speed>0.8</speed>
</trkpt>
<trkpt lat="47.439200" lon="8.737313">
<ele>685.7</ele>
<time>2003-09-19T08:43:07Z</time>
<speed>0.8</speed>
</trkpt>
<trkpt lat="47.439146" lon="8.737263">
<ele>685.8</ele>
<time>2003-09-19T08:43:12Z</time>
<speed>0.8</speed>
</trkpt>
<trkpt lat="47.439086" lon="8.737214">
<ele>685.1</ele>
<time>2003-09-19T08:43:17Z</time>
<speed>1.1</speed>
</trkpt>
<trkpt lat="47.439031" lon="8.737178">
<ele>685.3</ele>
<time>2003-09-19T08:43:22Z</time>
<speed>1.1</speed>
</trkpt>
<trkpt lat="47.438989" lon="8.737130">
<ele>685.5</ele>
<time>2003-09-19T08:43:27Z</time>
<speed>0.8</speed>
</trkpt>
<trkpt lat="47.438956" lon="8.737059">
<ele>684.8</ele>
<time>2003-09-19T08:43:32Z</time>
<speed>0.8</speed>
</trkpt>
<trkpt lat="47.438915" lon="8.737011">
<ele>684.9</ele>
<time>2003-09-19T08:43:37Z</time>
<speed>1.1</speed>
</trkpt>
<trkpt lat="47.438875" lon="8.736951">
<ele>685.0</ele>
<time>2003-09-19T08:43:42Z</time>
<speed>1.1</speed>
</trkpt>
<trkpt lat="47.438834" lon="8.736905">
<ele>683.7</ele>
<time>2003-09-19T08:43:47Z</time>
<speed>0.8</speed>
</trkpt>
<trkpt lat="47.438799" lon="8.736845">
<ele>684.5</ele>
<time>2003-09-19T08:43:52Z</time>
<speed>0.8</speed>
</trkpt>
<trkpt lat="47.438772" lon="8.736787">
<ele>684.6</ele>
<time>2003-09-19T08:43:57Z</time>
<speed>1.1</speed>
</trkpt>
<trkpt lat="47.438770" lon="8.736719">
<ele>684.8</ele>
<time>2003-09-19T08:44:02Z</time>
<speed>0.8</speed>
</trkpt>
<trkpt lat="47.438769" lon="8.736638">
<ele>684.8</ele>
<time>2003-09-19T08:44:07Z</time>
<speed>1.1</speed>
</trkpt>
<trkpt lat="47.438781" lon="8.736573">
<ele>685.1</ele>
<time>2003-09-19T08:44:12Z</time>
<speed>0.8</speed>
</trkpt>
<trkpt lat="47.438767" lon="8.736490">
<ele>685.0</ele>
<time>2003-09-19T08:44:17Z</time>
<speed>0.8</speed>
</trkpt>
<trkpt lat="47.438754" lon="8.736408">
<ele>685.0</ele>
<time>2003-09-19T08:44:22Z</time>
<speed>1.1</speed>
</trkpt>
<trkpt lat="47.438699" lon="8.736371">
<ele>685.2</ele>
<time>2003-09-19T08:44:27Z</time>
<speed>0.8</speed>
</trkpt>
<trkpt lat="47.438649" lon="8.736365">
<ele>683.5</ele>
<time>2003-09-19T08:44:32Z</time>
<speed>0.6</speed>
</trkpt>
<trkpt lat="47.438592" lon="8.736355">
<ele>683.9</ele>
<time>2003-09-19T08:44:37Z</time>
<speed>1.1</speed>
</trkpt>
<trkpt lat="47.438535" lon="8.736345">
<ele>684.3</ele>
<time>2003-09-19T08:44:42Z</time>
<speed>1.4</speed>
</trkpt>
<trkpt lat="47.438468" lon="8.736294">
<ele>684.4</ele>
<time>2003-09-19T08:44:47Z</time>
<speed>1.1</speed>
</trkpt>
<trkpt lat="47.438393" lon="8.736267">
<ele>685.3</ele>
<time>2003-09-19T08:44:52Z</time>
<speed>1.1</speed>
</trkpt>
<trkpt lat="47.438347" lon="8.736174">
<ele>688.6</ele>
<time>2003-09-19T08:44:57Z</time>
<speed>1.1</speed>
</trkpt>
<trkpt lat="47.438279" lon="8.736134">
<ele>690.1</ele>
<time>2003-09-19T08:45:02Z</time>
<speed>1.4</speed>
</trkpt>
<trkpt lat="47.438224" lon="8.736097">
<ele>690.3</ele>
<time>2003-09-19T08:45:07Z</time>
<speed>1.1</speed>
</trkpt>
<trkpt lat="47.438166" lon="8.736102">
<ele>689.4</ele>
<time>2003-09-19T08:45:12Z</time>
<speed>0.6</speed>
</trkpt>
<trkpt lat="47.438159" lon="8.736116">
<ele>688.8</ele>
<time>2003-09-19T08:45:17Z</time>
<speed>0.0</speed>
</trkpt>
<trkpt lat="47.438146" lon="8.736127">
<ele>688.8</ele>
<time>2003-09-19T08:45:22Z</time>
<speed>0.0</speed>
</trkpt>
<trkpt lat="47.438103" lon="8.736092">
<ele>689.1</ele>
<time>2003-09-19T08:45:27Z</time>
<speed>0.8</speed>
</trkpt>
<trkpt lat="47.438041" lon="8.736069">
<ele>688.6</ele>
<time>2003-09-19T08:45:32Z</time>
<speed>1.4</speed>
</trkpt>
<trkpt lat="47.437979" lon="8.736046">
<ele>688.2</ele>
<time>2003-09-19T08:45:37Z</time>
<speed>1.4</speed>
</trkpt>
<trkpt lat="47.437931" lon="8.735997">
<ele>689.0</ele>
<time>2003-09-19T08:45:42Z</time>
<speed>1.1</speed>
</trkpt>
<trkpt lat="47.437863" lon="8.735958">
<ele>689.1</ele>
<time>2003-09-19T08:45:47Z</time>
<speed>1.1</speed>
</trkpt>
<trkpt lat="47.437811" lon="8.735898">
<ele>687.7</ele>
<time>2003-09-19T08:45:52Z</time>
<speed>1.1</speed>
</trkpt>
<trkpt lat="47.437756" lon="8.735862">
<ele>687.9</ele>
<time>2003-09-19T08:45:57Z</time>
<speed>1.4</speed>
</trkpt>
<trkpt lat="47.437693" lon="8.735836">
<ele>688.9</ele>
<time>2003-09-19T08:46:02Z</time>
<speed>1.1</speed>
</trkpt>
<trkpt lat="47.437644" lon="8.735815">
<ele>688.5</ele>
<time>2003-09-19T08:46:07Z</time>
<speed>0.8</speed>
</trkpt>
<trkpt lat="47.437586" lon="8.735820">
<ele>687.6</ele>
<time>2003-09-19T08:46:12Z</time>
<speed>1.4</speed>
</trkpt>
<trkpt lat="47.437533" lon="8.735838">
<ele>687.5</ele>
<time>2003-09-19T08:46:17Z</time>
<speed>1.1</speed>
</trkpt>
<trkpt lat="47.437473" lon="8.735868">
<ele>688.2</ele>
<time>2003-09-19T08:46:22Z</time>
<speed>1.1</speed>
</trkpt>
<trkpt lat="47.437413" lon="8.735897">
<ele>688.9</ele>
<time>2003-09-19T08:46:27Z</time>
<speed>1.1</speed>
</trkpt>
<trkpt lat="47.437352" lon="8.735954">
<ele>688.4</ele>
<time>2003-09-19T08:46:32Z</time>
<speed>1.1</speed>
</trkpt>
<trkpt lat="47.437297" lon="8.735999">
<ele>688.6</ele>
<time>2003-09-19T08:46:37Z</time>
<speed>1.4</speed>
</trkpt>
<trkpt lat="47.437243" lon="8.736043">
<ele>688.7</ele>
<time>2003-09-19T08:46:42Z</time>
<speed>1.1</speed>
</trkpt>
<trkpt lat="47.437201" lon="8.736089">
<ele>688.9</ele>
<time>2003-09-19T08:46:47Z</time>
<speed>0.6</speed>
</trkpt>
<trkpt lat="47.437152" lon="8.736134">
<ele>689.8</ele>
<time>2003-09-19T08:46:52Z</time>
<speed>1.1</speed>
</trkpt>
<trkpt lat="47.437098" lon="8.736178">
<ele>689.9</ele>
<time>2003-09-19T08:46:57Z</time>
<speed>1.1</speed>
</trkpt>
<trkpt lat="47.437044" lon="8.736209">
<ele>690.0</ele>
<time>2003-09-19T08:47:02Z</time>
<speed>1.1</speed>
</trkpt>
<trkpt lat="47.437004" lon="8.736245">
<ele>688.7</ele>
<time>2003-09-19T08:47:07Z</time>
<speed>1.4</speed>
</trkpt>
<trkpt lat="47.436950" lon="8.736276">
<ele>688.7</ele>
<time>2003-09-19T08:47:12Z</time>
<speed>1.1</speed>
</trkpt>
<trkpt lat="47.436863" lon="8.736327">
<ele>689.5</ele>
<time>2003-09-19T08:47:17Z</time>
<speed>1.7</speed>
</trkpt>
<trkpt lat="47.436795" lon="8.736368">
<ele>690.9</ele>
<time>2003-09-19T08:47:22Z</time>
<speed>1.4</speed>
</trkpt>
<trkpt lat="47.436753" lon="8.736429">
<ele>689.8</ele>
<time>2003-09-19T08:47:27Z</time>
<speed>1.1</speed>
</trkpt>
<trkpt lat="47.436723" lon="8.736493">
<ele>688.8</ele>
<time>2003-09-19T08:47:32Z</time>
<speed>1.1</speed>
</trkpt>
<trkpt lat="47.436686" lon="8.736554">
<ele>688.5</ele>
<time>2003-09-19T08:47:37Z</time>
<speed>1.1</speed>
</trkpt>
<trkpt lat="47.436644" lon="8.736616">
<ele>687.4</ele>
<time>2003-09-19T08:47:42Z</time>
<speed>1.4</speed>
</trkpt>
<trkpt lat="47.436608" lon="8.736677">
<ele>687.0</ele>
<time>2003-09-19T08:47:47Z</time>
<speed>1.1</speed>
</trkpt>
<trkpt lat="47.436559" lon="8.736737">
<ele>686.6</ele>
<time>2003-09-19T08:47:52Z</time>
<speed>1.1</speed>
</trkpt>
<trkpt lat="47.436523" lon="8.736785">
<ele>686.1</ele>
<time>2003-09-19T08:47:57Z</time>
<speed>0.8</speed>
</trkpt>
<trkpt lat="47.436480" lon="8.736844">
<ele>686.4</ele>
<time>2003-09-19T08:48:02Z</time>
<speed>1.4</speed>
</trkpt>
<trkpt lat="47.436438" lon="8.736891">
<ele>686.6</ele>
<time>2003-09-19T08:48:07Z</time>
<speed>1.1</speed>
</trkpt>
<trkpt lat="47.436417" lon="8.736928">
<ele>686.1</ele>
<time>2003-09-19T08:48:12Z</time>
<speed>0.0</speed>
</trkpt>
<trkpt lat="47.436417" lon="8.736928">
<ele>686.1</ele>
<time>2003-09-19T08:48:17Z</time>
<speed>0.0</speed>
</trkpt>
<trkpt lat="47.436402" lon="8.736952">
<ele>686.3</ele>
<time>2003-09-19T08:48:22Z</time>
<speed>0.8</speed>
</trkpt>
<trkpt lat="47.436367" lon="8.737003">
<ele>684.4</ele>
<time>2003-09-19T08:48:27Z</time>
<speed>1.1</speed>
</trkpt>
<trkpt lat="47.436337" lon="8.737066">
<ele>683.4</ele>
<time>2003-09-19T08:48:32Z</time>
<speed>1.1</speed>
</trkpt>
<trkpt lat="47.436294" lon="8.737141">
<ele>682.4</ele>
<time>2003-09-19T08:48:37Z</time>
<speed>1.4</speed>
</trkpt>
<trkpt lat="47.436251" lon="8.737202">
<ele>681.3</ele>
<time>2003-09-19T08:48:42Z</time>
<speed>1.4</speed>
</trkpt>
<trkpt lat="47.436208" lon="8.737277">
<ele>680.3</ele>
<time>2003-09-19T08:48:47Z</time>
<speed>1.1</speed>
</trkpt>
<trkpt lat="47.436172" lon="8.737338">
<ele>679.9</ele>
<time>2003-09-19T08:48:52Z</time>
<speed>1.1</speed>
</trkpt>
<trkpt lat="47.436141" lon="8.737400">
<ele>680.3</ele>
<time>2003-09-19T08:48:57Z</time>
<speed>1.4</speed>
</trkpt>
<trkpt lat="47.436105" lon="8.737461">
<ele>680.0</ele>
<time>2003-09-19T08:49:02Z</time>
<speed>1.1</speed>
</trkpt>
<trkpt lat="47.436068" lon="8.737521">
<ele>681.0</ele>
<time>2003-09-19T08:49:07Z</time>
<speed>1.1</speed>
</trkpt>
<trkpt lat="47.436025" lon="8.737580">
<ele>681.3</ele>
<time>2003-09-19T08:49:12Z</time>
<speed>1.1</speed>
</trkpt>
<trkpt lat="47.435981" lon="8.737653">
<ele>681.7</ele>
<time>2003-09-19T08:49:17Z</time>
<speed>1.4</speed>
</trkpt>
<trkpt lat="47.435931" lon="8.737723">
<ele>682.8</ele>
<time>2003-09-19T08:49:22Z</time>
<speed>1.4</speed>
</trkpt>
<trkpt lat="47.435888" lon="8.737783">
<ele>683.1</ele>
<time>2003-09-19T08:49:27Z</time>
<speed>1.1</speed>
</trkpt>
<trkpt lat="47.435850" lon="8.737855">
<ele>684.3</ele>
<time>2003-09-19T08:49:32Z</time>
<speed>1.1</speed>
</trkpt>
<trkpt lat="47.435807" lon="8.737915">
<ele>684.6</ele>
<time>2003-09-19T08:49:37Z</time>
<speed>1.1</speed>
</trkpt>
<trkpt lat="47.435757" lon="8.737985">
<ele>685.7</ele>
<time>2003-09-19T08:49:42Z</time>
<speed>1.1</speed>
</trkpt>
<trkpt lat="47.435713" lon="8.738058">
<ele>686.1</ele>
<time>2003-09-19T08:49:47Z</time>
<speed>1.4</speed>
</trkpt>
<trkpt lat="47.435662" lon="8.738128">
<ele>687.2</ele>
<time>2003-09-19T08:49:52Z</time>
<speed>1.1</speed>
</trkpt>
<trkpt lat="47.435625" lon="8.738188">
<ele>688.2</ele>
<time>2003-09-19T08:49:57Z</time>
<speed>1.1</speed>
</trkpt>
<trkpt lat="47.435582" lon="8.738247">
<ele>688.5</ele>
<time>2003-09-19T08:50:02Z</time>
<speed>1.1</speed>
</trkpt>
<trkpt lat="47.435532" lon="8.738318">
<ele>689.6</ele>
<time>2003-09-19T08:50:07Z</time>
<speed>1.4</speed>
</trkpt>
<trkpt lat="47.435488" lon="8.738391">
<ele>690.0</ele>
<time>2003-09-19T08:50:12Z</time>
<speed>1.1</speed>
</trkpt>
<trkpt lat="47.435444" lon="8.738463">
<ele>690.4</ele>
<time>2003-09-19T08:50:17Z</time>
<speed>1.1</speed>
</trkpt>
<trkpt lat="47.435395" lon="8.738521">
<ele>691.4</ele>
<time>2003-09-19T08:50:22Z</time>
<speed>1.4</speed>
</trkpt>
<trkpt lat="47.435343" lon="8.738604">
<ele>692.6</ele>
<time>2003-09-19T08:50:27Z</time>
<speed>1.1</speed>
</trkpt>
<trkpt lat="47.435307" lon="8.738666">
<ele>692.2</ele>
<time>2003-09-19T08:50:32Z</time>
<speed>1.1</speed>
</trkpt>
<trkpt lat="47.435263" lon="8.738738">
<ele>692.6</ele>
<time>2003-09-19T08:50:37Z</time>
<speed>1.4</speed>
</trkpt>
<trkpt lat="47.435219" lon="8.738811">
<ele>693.0</ele>
<time>2003-09-19T08:50:42Z</time>
<speed>1.1</speed>
</trkpt>
<trkpt lat="47.435169" lon="8.738883">
<ele>692.7</ele>
<time>2003-09-19T08:50:47Z</time>
<speed>1.1</speed>
</trkpt>
<trkpt lat="47.435118" lon="8.738954">
<ele>693.8</ele>
<time>2003-09-19T08:50:52Z</time>
<speed>1.1</speed>
</trkpt>
<trkpt lat="47.435068" lon="8.739024">
<ele>694.9</ele>
<time>2003-09-19T08:50:57Z</time>
<speed>1.1</speed>
</trkpt>
<trkpt lat="47.435024" lon="8.739097">
<ele>695.3</ele>
<time>2003-09-19T08:51:02Z</time>
<speed>1.4</speed>
</trkpt>
<trkpt lat="47.434974" lon="8.739154">
<ele>696.3</ele>
<time>2003-09-19T08:51:07Z</time>
<speed>1.4</speed>
</trkpt>
<trkpt lat="47.434924" lon="8.739227">
<ele>696.0</ele>
<time>2003-09-19T08:51:12Z</time>
<speed>1.1</speed>
</trkpt>
<trkpt lat="47.434890" lon="8.739277">
<ele>694.1</ele>
<time>2003-09-19T08:51:17Z</time>
<speed>1.1</speed>
</trkpt>
<trkpt lat="47.434848" lon="8.739341">
<ele>691.6</ele>
<time>2003-09-19T08:51:22Z</time>
<speed>1.1</speed>
</trkpt>
<trkpt lat="47.434813" lon="8.739391">
<ele>689.7</ele>
<time>2003-09-19T08:51:27Z</time>
<speed>1.1</speed>
</trkpt>
<trkpt lat="47.434784" lon="8.739442">
<ele>688.6</ele>
<time>2003-09-19T08:51:32Z</time>
<speed>1.1</speed>
</trkpt>
<trkpt lat="47.434754" lon="8.739505">
<ele>687.6</ele>
<time>2003-09-19T08:51:37Z</time>
<speed>0.8</speed>
</trkpt>
<trkpt lat="47.434745" lon="8.739544">
<ele>687.1</ele>
<time>2003-09-19T08:51:42Z</time>
<speed>0.6</speed>
</trkpt>
<trkpt lat="47.434745" lon="8.739546">
<ele>685.7</ele>
<time>2003-09-19T08:51:47Z</time>
<speed>0.0</speed>
</trkpt>
<trkpt lat="47.434744" lon="8.739560">
<ele>685.8</ele>
<time>2003-09-19T08:51:52Z</time>
<speed>0.3</speed>
</trkpt>
<trkpt lat="47.434744" lon="8.739560">
<ele>685.8</ele>
<time>2003-09-19T08:51:57Z</time>
<speed>0.0</speed>
</trkpt>
<trkpt lat="47.434744" lon="8.739560">
<ele>685.8</ele>
<time>2003-09-19T08:52:02Z</time>
<speed>0.0</speed>
</trkpt>
<trkpt lat="47.434751" lon="8.739562">
<ele>685.2</ele>
<time>2003-09-19T08:52:07Z</time>
<speed>0.0</speed>
</trkpt>
<trkpt lat="47.434751" lon="8.739562">
<ele>685.2</ele>
<time>2003-09-19T08:52:12Z</time>
<speed>0.0</speed>
</trkpt>
<trkpt lat="47.434745" lon="8.739562">
<ele>684.4</ele>
<time>2003-09-19T08:52:17Z</time>
<speed>0.0</speed>
</trkpt>
<trkpt lat="47.434745" lon="8.739562">
<ele>684.4</ele>
<time>2003-09-19T08:52:22Z</time>
<speed>0.0</speed>
</trkpt>
<trkpt lat="47.434745" lon="8.739562">
<ele>684.4</ele>
<time>2003-09-19T08:52:27Z</time>
<speed>0.0</speed>
</trkpt>
<trkpt lat="47.434745" lon="8.739562">
<ele>684.4</ele>
<time>2003-09-19T08:52:32Z</time>
<speed>0.0</speed>
</trkpt>
<trkpt lat="47.434752" lon="8.739551">
<ele>683.7</ele>
<time>2003-09-19T08:52:37Z</time>
<speed>0.0</speed>
</trkpt>
<trkpt lat="47.434760" lon="8.739539">
<ele>682.9</ele>
<time>2003-09-19T08:52:42Z</time>
<speed>0.0</speed>
</trkpt>
<trkpt lat="47.434761" lon="8.739526">
<ele>682.8</ele>
<time>2003-09-19T08:52:47Z</time>
<speed>0.0</speed>
</trkpt>
<trkpt lat="47.434761" lon="8.739526">
<ele>682.8</ele>
<time>2003-09-19T08:52:52Z</time>
<speed>0.0</speed>
</trkpt>
<trkpt lat="47.434761" lon="8.739526">
<ele>682.8</ele>
<time>2003-09-19T08:52:57Z</time>
<speed>0.0</speed>
</trkpt>
<trkpt lat="47.434762" lon="8.739513">
<ele>682.7</ele>
<time>2003-09-19T08:53:02Z</time>
<speed>0.0</speed>
</trkpt>
<trkpt lat="47.434800" lon="8.739521">
<ele>681.5</ele>
<time>2003-09-19T08:53:07Z</time>
<speed>0.0</speed>
</trkpt>
<trkpt lat="47.434800" lon="8.739521">
<ele>681.5</ele>
<time>2003-09-19T08:53:12Z</time>
<speed>0.0</speed>
</trkpt>
<trkpt lat="47.434807" lon="8.739523">
<ele>680.8</ele>
<time>2003-09-19T08:53:17Z</time>
<speed>0.0</speed>
</trkpt>
<trkpt lat="47.434814" lon="8.739512">
<ele>680.0</ele>
<time>2003-09-19T08:53:22Z</time>
<speed>0.0</speed>
</trkpt>
<trkpt lat="47.434814" lon="8.739512">
<ele>680.0</ele>
<time>2003-09-19T08:53:27Z</time>
<speed>0.0</speed>
</trkpt>
<trkpt lat="47.434814" lon="8.739512">
<ele>680.0</ele>
<time>2003-09-19T08:53:32Z</time>
<speed>0.0</speed>
</trkpt>
<trkpt lat="47.434814" lon="8.739512">
<ele>680.0</ele>
<time>2003-09-19T08:53:37Z</time>
<speed>0.0</speed>
</trkpt>
<trkpt lat="47.434821" lon="8.739514">
<ele>679.4</ele>
<time>2003-09-19T08:53:42Z</time>
<speed>0.0</speed>
</trkpt>
<trkpt lat="47.434821" lon="8.739514">
<ele>679.4</ele>
<time>2003-09-19T08:53:47Z</time>
<speed>0.0</speed>
</trkpt>
<trkpt lat="47.434827" lon="8.739514">
<ele>680.1</ele>
<time>2003-09-19T08:53:52Z</time>
<speed>0.0</speed>
</trkpt>
<trkpt lat="47.434827" lon="8.739514">
<ele>680.1</ele>
<time>2003-09-19T08:53:57Z</time>
<speed>0.0</speed>
</trkpt>
<trkpt lat="47.434827" lon="8.739514">
<ele>680.1</ele>
<time>2003-09-19T08:54:02Z</time>
<speed>0.0</speed>
</trkpt>
<trkpt lat="47.434827" lon="8.739514">
<ele>680.1</ele>
<time>2003-09-19T08:54:07Z</time>
<speed>0.0</speed>
</trkpt>
<trkpt lat="47.434828" lon="8.739501">
<ele>680.0</ele>
<time>2003-09-19T08:54:12Z</time>
<speed>0.3</speed>
</trkpt>
<trkpt lat="47.434821" lon="8.739514">
<ele>679.4</ele>
<time>2003-09-19T08:54:17Z</time>
<speed>0.0</speed>
</trkpt>
<trkpt lat="47.434821" lon="8.739514">
<ele>679.4</ele>
<time>2003-09-19T08:54:22Z</time>
<speed>0.0</speed>
</trkpt>
<trkpt lat="47.434821" lon="8.739514">
<ele>679.4</ele>
<time>2003-09-19T08:54:27Z</time>
<speed>0.0</speed>
</trkpt>
<trkpt lat="47.434814" lon="8.739512">
<ele>680.0</ele>
<time>2003-09-19T08:54:32Z</time>
<speed>0.0</speed>
</trkpt>
<trkpt lat="47.434814" lon="8.739512">
<ele>680.0</ele>
<time>2003-09-19T08:54:37Z</time>
<speed>0.0</speed>
</trkpt>
<trkpt lat="47.434814" lon="8.739512">
<ele>680.0</ele>
<time>2003-09-19T08:54:42Z</time>
<speed>0.0</speed>
</trkpt>
<trkpt lat="47.434814" lon="8.739512">
<ele>680.0</ele>
<time>2003-09-19T08:54:47Z</time>
<speed>0.0</speed>
</trkpt>
<trkpt lat="47.434814" lon="8.739512">
<ele>680.0</ele>
<time>2003-09-19T08:54:52Z</time>
<speed>0.0</speed>
</trkpt>
<trkpt lat="47.434809" lon="8.739499">
<ele>679.2</ele>
<time>2003-09-19T08:54:57Z</time>
<speed>0.0</speed>
</trkpt>
<trkpt lat="47.434809" lon="8.739499">
<ele>679.2</ele>
<time>2003-09-19T08:55:02Z</time>
<speed>0.0</speed>
</trkpt>
<trkpt lat="47.434809" lon="8.739499">
<ele>679.2</ele>
<time>2003-09-19T08:55:07Z</time>
<speed>0.0</speed>
</trkpt>
<trkpt lat="47.434809" lon="8.739499">
<ele>679.2</ele>
<time>2003-09-19T08:55:12Z</time>
<speed>0.0</speed>
</trkpt>
<trkpt lat="47.434809" lon="8.739499">
<ele>679.2</ele>
<time>2003-09-19T08:55:17Z</time>
<speed>0.0</speed>
</trkpt>
<trkpt lat="47.434809" lon="8.739499">
<ele>679.2</ele>
<time>2003-09-19T08:55:22Z</time>
<speed>0.0</speed>
</trkpt>
<trkpt lat="47.434801" lon="8.739523">
<ele>680.1</ele>
<time>2003-09-19T08:55:27Z</time>
<speed>0.0</speed>
</trkpt>
<trkpt lat="47.434807" lon="8.739525">
<ele>679.4</ele>
<time>2003-09-19T08:55:32Z</time>
<speed>0.0</speed>
</trkpt>
<trkpt lat="47.434807" lon="8.739525">
<ele>679.4</ele>
<time>2003-09-19T08:55:37Z</time>
<speed>0.0</speed>
</trkpt>
<trkpt lat="47.434807" lon="8.739525">
<ele>679.4</ele>
<time>2003-09-19T08:55:42Z</time>
<speed>0.0</speed>
</trkpt>
<trkpt lat="47.434807" lon="8.739525">
<ele>679.4</ele>
<time>2003-09-19T08:55:47Z</time>
<speed>0.0</speed>
</trkpt>
<trkpt lat="47.434807" lon="8.739525">
<ele>679.4</ele>
<time>2003-09-19T08:55:52Z</time>
<speed>0.0</speed>
</trkpt>
<trkpt lat="47.434807" lon="8.739525">
<ele>679.4</ele>
<time>2003-09-19T08:55:57Z</time>
<speed>0.0</speed>
</trkpt>
<trkpt lat="47.434807" lon="8.739525">
<ele>679.4</ele>
<time>2003-09-19T08:56:02Z</time>
<speed>0.0</speed>
</trkpt>
<trkpt lat="47.434820" lon="8.739527">
<ele>679.5</ele>
<time>2003-09-19T08:56:07Z</time>
<speed>0.0</speed>
</trkpt>
<trkpt lat="47.434820" lon="8.739527">
<ele>679.5</ele>
<time>2003-09-19T08:56:12Z</time>
<speed>0.0</speed>
</trkpt>
<trkpt lat="47.434820" lon="8.739527">
<ele>679.5</ele>
<time>2003-09-19T08:56:17Z</time>
<speed>0.0</speed>
</trkpt>
<trkpt lat="47.434820" lon="8.739527">
<ele>679.5</ele>
<time>2003-09-19T08:56:22Z</time>
<speed>0.0</speed>
</trkpt>
<trkpt lat="47.434820" lon="8.739527">
<ele>679.5</ele>
<time>2003-09-19T08:56:27Z</time>
<speed>0.0</speed>
</trkpt>
<trkpt lat="47.434833" lon="8.739529">
<ele>679.5</ele>
<time>2003-09-19T08:56:32Z</time>
<speed>0.0</speed>
</trkpt>
<trkpt lat="47.434826" lon="8.739529">
<ele>678.8</ele>
<time>2003-09-19T08:56:37Z</time>
<speed>0.0</speed>
</trkpt>
<trkpt lat="47.434833" lon="8.739531">
<ele>678.1</ele>
<time>2003-09-19T08:56:42Z</time>
<speed>0.0</speed>
</trkpt>
<trkpt lat="47.434800" lon="8.739538">
<ele>678.8</ele>
<time>2003-09-19T08:56:47Z</time>
<speed>0.8</speed>
</trkpt>
<trkpt lat="47.434741" lon="8.739570">
<ele>678.1</ele>
<time>2003-09-19T08:56:52Z</time>
<speed>1.1</speed>
</trkpt>
<trkpt lat="47.434666" lon="8.739625">
<ele>677.5</ele>
<time>2003-09-19T08:56:57Z</time>
<speed>1.4</speed>
</trkpt>
<trkpt lat="47.434600" lon="8.739669">
<ele>676.2</ele>
<time>2003-09-19T08:57:02Z</time>
<speed>1.1</speed>
</trkpt>
<trkpt lat="47.434546" lon="8.739716">
<ele>674.9</ele>
<time>2003-09-19T08:57:07Z</time>
<speed>1.1</speed>
</trkpt>
<trkpt lat="47.434485" lon="8.739760">
<ele>674.3</ele>
<time>2003-09-19T08:57:12Z</time>
<speed>1.1</speed>
</trkpt>
<trkpt lat="47.434444" lon="8.739793">
<ele>674.4</ele>
<time>2003-09-19T08:57:17Z</time>
<speed>1.1</speed>
</trkpt>
<trkpt lat="47.434409" lon="8.739842">
<ele>674.0</ele>
<time>2003-09-19T08:57:22Z</time>
<speed>1.1</speed>
</trkpt>
<trkpt lat="47.434377" lon="8.739916">
<ele>674.4</ele>
<time>2003-09-19T08:57:27Z</time>
<speed>1.1</speed>
</trkpt>
<trkpt lat="47.434348" lon="8.739965">
<ele>674.7</ele>
<time>2003-09-19T08:57:32Z</time>
<speed>1.1</speed>
</trkpt>
<trkpt lat="47.434330" lon="8.740043">
<ele>673.9</ele>
<time>2003-09-19T08:57:37Z</time>
<speed>0.8</speed>
</trkpt>
<trkpt lat="47.434325" lon="8.740109">
<ele>674.4</ele>
<time>2003-09-19T08:57:42Z</time>
<speed>0.6</speed>
</trkpt>
<trkpt lat="47.434320" lon="8.740174">
<ele>674.9</ele>
<time>2003-09-19T08:57:47Z</time>
<speed>1.1</speed>
</trkpt>
<trkpt lat="47.434281" lon="8.740260">
<ele>676.1</ele>
<time>2003-09-19T08:57:52Z</time>
<speed>1.1</speed>
</trkpt>
<trkpt lat="47.434256" lon="8.740337">
<ele>676.0</ele>
<time>2003-09-19T08:57:57Z</time>
<speed>0.8</speed>
</trkpt>
<trkpt lat="47.434245" lon="8.740400">
<ele>677.1</ele>
<time>2003-09-19T08:58:02Z</time>
<speed>0.8</speed>
</trkpt>
<trkpt lat="47.434220" lon="8.740477">
<ele>676.9</ele>
<time>2003-09-19T08:58:07Z</time>
<speed>0.8</speed>
</trkpt>
<trkpt lat="47.434161" lon="8.740573">
<ele>677.5</ele>
<time>2003-09-19T08:58:12Z</time>
<speed>0.8</speed>
</trkpt>
<trkpt lat="47.434137" lon="8.740635">
<ele>678.6</ele>
<time>2003-09-19T08:58:17Z</time>
<speed>0.8</speed>
</trkpt>
<trkpt lat="47.434112" lon="8.740711">
<ele>678.4</ele>
<time>2003-09-19T08:58:22Z</time>
<speed>0.8</speed>
</trkpt>
<trkpt lat="47.434068" lon="8.740801">
<ele>676.1</ele>
<time>2003-09-19T08:58:27Z</time>
<speed>0.8</speed>
</trkpt>
<trkpt lat="47.434023" lon="8.740904">
<ele>673.9</ele>
<time>2003-09-19T08:58:32Z</time>
<speed>0.8</speed>
</trkpt>
<trkpt lat="47.434004" lon="8.740994">
<ele>674.6</ele>
<time>2003-09-19T08:58:37Z</time>
<speed>0.8</speed>
</trkpt>
<trkpt lat="47.433997" lon="8.741085">
<ele>675.3</ele>
<time>2003-09-19T08:58:42Z</time>
<speed>1.1</speed>
</trkpt>
<trkpt lat="47.434009" lon="8.741181">
<ele>675.4</ele>
<time>2003-09-19T08:58:47Z</time>
<speed>0.8</speed>
</trkpt>
<trkpt lat="47.434035" lon="8.741268">
<ele>674.1</ele>
<time>2003-09-19T08:58:52Z</time>
<speed>0.8</speed>
</trkpt>
<trkpt lat="47.434061" lon="8.741352">
<ele>674.2</ele>
<time>2003-09-19T08:58:57Z</time>
<speed>1.1</speed>
</trkpt>
<trkpt lat="47.434086" lon="8.741452">
<ele>673.0</ele>
<time>2003-09-19T08:59:02Z</time>
<speed>0.8</speed>
</trkpt>
<trkpt lat="47.434106" lon="8.741522">
<ele>673.6</ele>
<time>2003-09-19T08:59:07Z</time>
<speed>1.1</speed>
</trkpt>
<trkpt lat="47.434118" lon="8.741633">
<ele>672.4</ele>
<time>2003-09-19T08:59:12Z</time>
<speed>1.1</speed>
</trkpt>
<trkpt lat="47.434137" lon="8.741717">
<ele>671.8</ele>
<time>2003-09-19T08:59:17Z</time>
<speed>1.1</speed>
</trkpt>
<trkpt lat="47.434151" lon="8.741800">
<ele>671.8</ele>
<time>2003-09-19T08:59:22Z</time>
<speed>1.1</speed>
</trkpt>
<trkpt lat="47.434169" lon="8.741896">
<ele>672.7</ele>
<time>2003-09-19T08:59:27Z</time>
<speed>1.1</speed>
</trkpt>
<trkpt lat="47.434195" lon="8.741980">
<ele>672.7</ele>
<time>2003-09-19T08:59:32Z</time>
<speed>1.1</speed>
</trkpt>
<trkpt lat="47.434208" lon="8.742063">
<ele>672.8</ele>
<time>2003-09-19T08:59:37Z</time>
<speed>1.4</speed>
</trkpt>
<trkpt lat="47.434227" lon="8.742145">
<ele>673.5</ele>
<time>2003-09-19T08:59:42Z</time>
<speed>1.4</speed>
</trkpt>
<trkpt lat="47.434239" lon="8.742241">
<ele>673.6</ele>
<time>2003-09-19T08:59:47Z</time>
<speed>1.1</speed>
</trkpt>
<trkpt lat="47.434266" lon="8.742313">
<ele>673.6</ele>
<time>2003-09-19T08:59:52Z</time>
<speed>1.1</speed>
</trkpt>
<trkpt lat="47.434272" lon="8.742393">
<ele>674.3</ele>
<time>2003-09-19T08:59:57Z</time>
<speed>1.1</speed>
</trkpt>
<trkpt lat="47.434292" lon="8.742476">
<ele>675.0</ele>
<time>2003-09-19T09:00:02Z</time>
<speed>1.1</speed>
</trkpt>
<trkpt lat="47.434306" lon="8.742546">
<ele>675.0</ele>
<time>2003-09-19T09:00:07Z</time>
<speed>0.8</speed>
</trkpt>
<trkpt lat="47.434326" lon="8.742615">
<ele>675.6</ele>
<time>2003-09-19T09:00:12Z</time>
<speed>0.8</speed>
</trkpt>
<trkpt lat="47.434347" lon="8.742687">
<ele>674.9</ele>
<time>2003-09-19T09:00:17Z</time>
<speed>0.8</speed>
</trkpt>
<trkpt lat="47.434375" lon="8.742730">
<ele>676.0</ele>
<time>2003-09-19T09:00:22Z</time>
<speed>0.8</speed>
</trkpt>
<trkpt lat="47.434407" lon="8.742817">
<ele>675.5</ele>
<time>2003-09-19T09:00:27Z</time>
<speed>0.8</speed>
</trkpt>
<trkpt lat="47.434443" lon="8.742864">
<ele>674.6</ele>
<time>2003-09-19T09:00:32Z</time>
<speed>0.6</speed>
</trkpt>
<trkpt lat="47.434496" lon="8.742926">
<ele>674.6</ele>
<time>2003-09-19T09:00:37Z</time>
<speed>0.8</speed>
</trkpt>
<trkpt lat="47.434524" lon="8.742972">
<ele>674.4</ele>
<time>2003-09-19T09:00:42Z</time>
<speed>0.8</speed>
</trkpt>
<trkpt lat="47.434563" lon="8.743060">
<ele>673.1</ele>
<time>2003-09-19T09:00:47Z</time>
<speed>1.1</speed>
</trkpt>
<trkpt lat="47.434621" lon="8.743151">
<ele>672.6</ele>
<time>2003-09-19T09:00:52Z</time>
<speed>0.8</speed>
</trkpt>
<trkpt lat="47.434655" lon="8.743212">
<ele>671.9</ele>
<time>2003-09-19T09:00:57Z</time>
<speed>0.8</speed>
</trkpt>
<trkpt lat="47.434689" lon="8.743285">
<ele>671.2</ele>
<time>2003-09-19T09:01:02Z</time>
<speed>1.1</speed>
</trkpt>
<trkpt lat="47.434695" lon="8.743381">
<ele>670.6</ele>
<time>2003-09-19T09:01:07Z</time>
<speed>0.8</speed>
</trkpt>
<trkpt lat="47.434707" lon="8.743477">
<ele>670.7</ele>
<time>2003-09-19T09:01:12Z</time>
<speed>1.1</speed>
</trkpt>
<trkpt lat="47.434720" lon="8.743559">
<ele>670.7</ele>
<time>2003-09-19T09:01:17Z</time>
<speed>0.8</speed>
</trkpt>
<trkpt lat="47.434734" lon="8.743629">
<ele>670.6</ele>
<time>2003-09-19T09:01:22Z</time>
<speed>0.8</speed>
</trkpt>
<trkpt lat="47.434748" lon="8.743713">
<ele>669.2</ele>
<time>2003-09-19T09:01:27Z</time>
<speed>0.8</speed>
</trkpt>
<trkpt lat="47.434761" lon="8.743796">
<ele>669.2</ele>
<time>2003-09-19T09:01:32Z</time>
<speed>0.8</speed>
</trkpt>
<trkpt lat="47.434755" lon="8.743875">
<ele>669.8</ele>
<time>2003-09-19T09:01:37Z</time>
<speed>0.8</speed>
</trkpt>
<trkpt lat="47.434724" lon="8.743951">
<ele>668.9</ele>
<time>2003-09-19T09:01:42Z</time>
<speed>0.6</speed>
</trkpt>
<trkpt lat="47.434667" lon="8.744022">
<ele>669.3</ele>
<time>2003-09-19T09:01:47Z</time>
<speed>0.8</speed>
</trkpt>
<trkpt lat="47.434614" lon="8.744053">
<ele>669.3</ele>
<time>2003-09-19T09:01:52Z</time>
<speed>0.8</speed>
</trkpt>
<trkpt lat="47.434559" lon="8.744097">
<ele>669.4</ele>
<time>2003-09-19T09:01:57Z</time>
<speed>0.8</speed>
</trkpt>
<trkpt lat="47.434498" lon="8.744155">
<ele>669.0</ele>
<time>2003-09-19T09:02:02Z</time>
<speed>1.1</speed>
</trkpt>
<trkpt lat="47.434442" lon="8.744212">
<ele>669.2</ele>
<time>2003-09-19T09:02:07Z</time>
<speed>1.1</speed>
</trkpt>
<trkpt lat="47.434386" lon="8.744270">
<ele>669.4</ele>
<time>2003-09-19T09:02:12Z</time>
<speed>1.1</speed>
</trkpt>
<trkpt lat="47.434318" lon="8.744325">
<ele>669.6</ele>
<time>2003-09-19T09:02:17Z</time>
<speed>1.1</speed>
</trkpt>
<trkpt lat="47.434272" lon="8.744345">
<ele>668.9</ele>
<time>2003-09-19T09:02:22Z</time>
<speed>0.8</speed>
</trkpt>
<trkpt lat="47.434225" lon="8.744379">
<ele>668.2</ele>
<time>2003-09-19T09:02:27Z</time>
<speed>1.1</speed>
</trkpt>
<trkpt lat="47.434166" lon="8.744410">
<ele>667.5</ele>
<time>2003-09-19T09:02:32Z</time>
<speed>1.4</speed>
</trkpt>
<trkpt lat="47.434111" lon="8.744454">
<ele>667.7</ele>
<time>2003-09-19T09:02:37Z</time>
<speed>1.1</speed>
</trkpt>
<trkpt lat="47.434077" lon="8.744489">
<ele>667.1</ele>
<time>2003-09-19T09:02:42Z</time>
<speed>0.6</speed>
</trkpt>
<trkpt lat="47.434037" lon="8.744510">
<ele>667.1</ele>
<time>2003-09-19T09:02:47Z</time>
<speed>0.8</speed>
</trkpt>
<trkpt lat="47.434010" lon="8.744532">
<ele>667.2</ele>
<time>2003-09-19T09:02:52Z</time>
<speed>0.6</speed>
</trkpt>
<trkpt lat="47.433963" lon="8.744550">
<ele>667.9</ele>
<time>2003-09-19T09:02:57Z</time>
<speed>0.6</speed>
</trkpt>
<trkpt lat="47.433917" lon="8.744570">
<ele>667.1</ele>
<time>2003-09-19T09:03:02Z</time>
<speed>0.6</speed>
</trkpt>
<trkpt lat="47.433856" lon="8.744614">
<ele>666.5</ele>
<time>2003-09-19T09:03:07Z</time>
<speed>0.8</speed>
</trkpt>
<trkpt lat="47.433816" lon="8.744650">
<ele>665.2</ele>
<time>2003-09-19T09:03:12Z</time>
<speed>0.6</speed>
</trkpt>
<trkpt lat="47.433761" lon="8.744694">
<ele>665.4</ele>
<time>2003-09-19T09:03:17Z</time>
<speed>0.6</speed>
</trkpt>
<trkpt lat="47.433720" lon="8.744740">
<ele>665.6</ele>
<time>2003-09-19T09:03:22Z</time>
<speed>0.6</speed>
</trkpt>
<trkpt lat="47.433708" lon="8.744806">
<ele>665.4</ele>
<time>2003-09-19T09:03:27Z</time>
<speed>1.1</speed>
</trkpt>
<trkpt lat="47.433703" lon="8.744889">
<ele>663.2</ele>
<time>2003-09-19T09:03:32Z</time>
<speed>1.1</speed>
</trkpt>
<trkpt lat="47.433684" lon="8.744980">
<ele>662.4</ele>
<time>2003-09-19T09:03:37Z</time>
<speed>1.4</speed>
</trkpt>
<trkpt lat="47.433652" lon="8.745070">
<ele>661.6</ele>
<time>2003-09-19T09:03:42Z</time>
<speed>1.1</speed>
</trkpt>
<trkpt lat="47.433606" lon="8.745169">
<ele>662.2</ele>
<time>2003-09-19T09:03:47Z</time>
<speed>0.8</speed>
</trkpt>
<trkpt lat="47.433612" lon="8.745184">
<ele>661.6</ele>
<time>2003-09-19T09:03:52Z</time>
<speed>0.0</speed>
</trkpt>
<trkpt lat="47.433612" lon="8.745184">
<ele>661.6</ele>
<time>2003-09-19T09:03:57Z</time>
<speed>0.0</speed>
</trkpt>
<trkpt lat="47.433597" lon="8.745208">
<ele>661.8</ele>
<time>2003-09-19T09:04:02Z</time>
<speed>0.0</speed>
</trkpt>
<trkpt lat="47.433597" lon="8.745208">
<ele>661.8</ele>
<time>2003-09-19T09:04:07Z</time>
<speed>0.0</speed>
</trkpt>
<trkpt lat="47.433597" lon="8.745208">
<ele>661.8</ele>
<time>2003-09-19T09:04:12Z</time>
<speed>0.0</speed>
</trkpt>
<trkpt lat="47.433597" lon="8.745208">
<ele>661.8</ele>
<time>2003-09-19T09:04:17Z</time>
<speed>0.0</speed>
</trkpt>
<trkpt lat="47.433597" lon="8.745208">
<ele>661.8</ele>
<time>2003-09-19T09:04:22Z</time>
<speed>0.0</speed>
</trkpt>
<trkpt lat="47.433590" lon="8.745219">
<ele>662.6</ele>
<time>2003-09-19T09:04:27Z</time>
<speed>0.0</speed>
</trkpt>
<trkpt lat="47.433590" lon="8.745219">
<ele>662.6</ele>
<time>2003-09-19T09:04:32Z</time>
<speed>0.0</speed>
</trkpt>
<trkpt lat="47.433595" lon="8.745232">
<ele>663.4</ele>
<time>2003-09-19T09:04:37Z</time>
<speed>0.0</speed>
</trkpt>
<trkpt lat="47.433596" lon="8.745219">
<ele>663.3</ele>
<time>2003-09-19T09:04:42Z</time>
<speed>0.0</speed>
</trkpt>
<trkpt lat="47.433577" lon="8.745215">
<ele>663.9</ele>
<time>2003-09-19T09:04:47Z</time>
<speed>0.0</speed>
</trkpt>
<trkpt lat="47.433565" lon="8.745200">
<ele>663.7</ele>
<time>2003-09-19T09:04:52Z</time>
<speed>0.0</speed>
</trkpt>
<trkpt lat="47.433546" lon="8.745196">
<ele>664.3</ele>
<time>2003-09-19T09:04:57Z</time>
<speed>0.0</speed>
</trkpt>
<trkpt lat="47.433528" lon="8.745179">
<ele>664.8</ele>
<time>2003-09-19T09:05:02Z</time>
<speed>0.6</speed>
</trkpt>
<trkpt lat="47.433522" lon="8.745164">
<ele>665.4</ele>
<time>2003-09-19T09:05:07Z</time>
<speed>0.0</speed>
</trkpt>
<trkpt lat="47.433522" lon="8.745164">
<ele>665.4</ele>
<time>2003-09-19T09:05:12Z</time>
<speed>0.0</speed>
</trkpt>
<trkpt lat="47.433522" lon="8.745164">
<ele>665.4</ele>
<time>2003-09-19T09:05:17Z</time>
<speed>0.0</speed>
</trkpt>
<trkpt lat="47.433522" lon="8.745164">
<ele>665.4</ele>
<time>2003-09-19T09:05:22Z</time>
<speed>0.0</speed>
</trkpt>
<trkpt lat="47.433510" lon="8.745149">
<ele>665.2</ele>
<time>2003-09-19T09:05:27Z</time>
<speed>0.0</speed>
</trkpt>
<trkpt lat="47.433516" lon="8.745149">
<ele>665.9</ele>
<time>2003-09-19T09:05:32Z</time>
<speed>0.0</speed>
</trkpt>
<trkpt lat="47.433505" lon="8.745133">
<ele>665.8</ele>
<time>2003-09-19T09:05:37Z</time>
<speed>0.0</speed>
</trkpt>
<trkpt lat="47.433514" lon="8.745175">
<ele>666.2</ele>
<time>2003-09-19T09:05:42Z</time>
<speed>0.3</speed>
</trkpt>
<trkpt lat="47.433508" lon="8.745173">
<ele>666.8</ele>
<time>2003-09-19T09:05:47Z</time>
<speed>0.0</speed>
</trkpt>
<trkpt lat="47.433508" lon="8.745173">
<ele>666.8</ele>
<time>2003-09-19T09:05:52Z</time>
<speed>0.0</speed>
</trkpt>
<trkpt lat="47.433508" lon="8.745173">
<ele>666.8</ele>
<time>2003-09-19T09:05:57Z</time>
<speed>0.0</speed>
</trkpt>
<trkpt lat="47.433508" lon="8.745173">
<ele>666.8</ele>
<time>2003-09-19T09:06:02Z</time>
<speed>0.0</speed>
</trkpt>
<trkpt lat="47.433508" lon="8.745173">
<ele>666.8</ele>
<time>2003-09-19T09:06:07Z</time>
<speed>0.0</speed>
</trkpt>
<trkpt lat="47.433508" lon="8.745173">
<ele>666.8</ele>
<time>2003-09-19T09:06:12Z</time>
<speed>0.0</speed>
</trkpt>
<trkpt lat="47.433508" lon="8.745173">
<ele>666.8</ele>
<time>2003-09-19T09:06:17Z</time>
<speed>0.0</speed>
</trkpt>
<trkpt lat="47.433508" lon="8.745173">
<ele>666.8</ele>
<time>2003-09-19T09:06:22Z</time>
<speed>0.0</speed>
</trkpt>
<trkpt lat="47.433494" lon="8.745184">
<ele>666.9</ele>
<time>2003-09-19T09:06:27Z</time>
<speed>0.0</speed>
</trkpt>
<trkpt lat="47.433494" lon="8.745184">
<ele>666.9</ele>
<time>2003-09-19T09:06:32Z</time>
<speed>0.0</speed>
</trkpt>
<trkpt lat="47.433494" lon="8.745184">
<ele>666.9</ele>
<time>2003-09-19T09:06:37Z</time>
<speed>0.0</speed>
</trkpt>
<trkpt lat="47.433493" lon="8.745197">
<ele>667.0</ele>
<time>2003-09-19T09:06:42Z</time>
<speed>0.3</speed>
</trkpt>
<trkpt lat="47.433477" lon="8.745232">
<ele>668.6</ele>
<time>2003-09-19T09:06:47Z</time>
<speed>0.0</speed>
</trkpt>
<trkpt lat="47.433477" lon="8.745232">
<ele>668.6</ele>
<time>2003-09-19T09:06:52Z</time>
<speed>0.0</speed>
</trkpt>
<trkpt lat="47.433477" lon="8.745232">
<ele>668.6</ele>
<time>2003-09-19T09:06:57Z</time>
<speed>0.0</speed>
</trkpt>
<trkpt lat="47.433477" lon="8.745232">
<ele>668.6</ele>
<time>2003-09-19T09:07:02Z</time>
<speed>0.0</speed>
</trkpt>
<trkpt lat="47.433477" lon="8.745232">
<ele>668.6</ele>
<time>2003-09-19T09:07:07Z</time>
<speed>0.0</speed>
</trkpt>
<trkpt lat="47.433477" lon="8.745232">
<ele>668.6</ele>
<time>2003-09-19T09:07:12Z</time>
<speed>0.0</speed>
</trkpt>
<trkpt lat="47.433477" lon="8.745232">
<ele>668.6</ele>
<time>2003-09-19T09:07:17Z</time>
<speed>0.0</speed>
</trkpt>
<trkpt lat="47.433477" lon="8.745232">
<ele>668.6</ele>
<time>2003-09-19T09:07:22Z</time>
<speed>0.0</speed>
</trkpt>
<trkpt lat="47.433477" lon="8.745232">
<ele>668.6</ele>
<time>2003-09-19T09:07:27Z</time>
<speed>0.0</speed>
</trkpt>
<trkpt lat="47.433477" lon="8.745232">
<ele>668.6</ele>
<time>2003-09-19T09:07:32Z</time>
<speed>0.0</speed>
</trkpt>
<trkpt lat="47.433477" lon="8.745232">
<ele>668.6</ele>
<time>2003-09-19T09:07:37Z</time>
<speed>0.0</speed>
</trkpt>
<trkpt lat="47.433476" lon="8.745245">
<ele>668.7</ele>
<time>2003-09-19T09:07:42Z</time>
<speed>0.0</speed>
</trkpt>
<trkpt lat="47.433476" lon="8.745245">
<ele>668.7</ele>
<time>2003-09-19T09:07:47Z</time>
<speed>0.0</speed>
</trkpt>
<trkpt lat="47.433476" lon="8.745245">
<ele>668.7</ele>
<time>2003-09-19T09:07:52Z</time>
<speed>0.0</speed>
</trkpt>
<trkpt lat="47.433476" lon="8.745245">
<ele>668.7</ele>
<time>2003-09-19T09:07:57Z</time>
<speed>0.0</speed>
</trkpt>
<trkpt lat="47.433476" lon="8.745245">
<ele>668.7</ele>
<time>2003-09-19T09:08:02Z</time>
<speed>0.0</speed>
</trkpt>
<trkpt lat="47.433476" lon="8.745245">
<ele>668.7</ele>
<time>2003-09-19T09:08:07Z</time>
<speed>0.0</speed>
</trkpt>
<trkpt lat="47.433476" lon="8.745245">
<ele>668.7</ele>
<time>2003-09-19T09:08:12Z</time>
<speed>0.0</speed>
</trkpt>
<trkpt lat="47.433476" lon="8.745245">
<ele>668.7</ele>
<time>2003-09-19T09:08:17Z</time>
<speed>0.0</speed>
</trkpt>
<trkpt lat="47.433463" lon="8.745256">
<ele>668.7</ele>
<time>2003-09-19T09:08:22Z</time>
<speed>0.3</speed>
</trkpt>
<trkpt lat="47.433444" lon="8.745335">
<ele>667.9</ele>
<time>2003-09-19T09:08:27Z</time>
<speed>1.1</speed>
</trkpt>
<trkpt lat="47.433425" lon="8.745425">
<ele>668.5</ele>
<time>2003-09-19T09:08:32Z</time>
<speed>1.1</speed>
</trkpt>
<trkpt lat="47.433405" lon="8.745516">
<ele>667.8</ele>
<time>2003-09-19T09:08:37Z</time>
<speed>1.1</speed>
</trkpt>
<trkpt lat="47.433393" lon="8.745610">
<ele>666.4</ele>
<time>2003-09-19T09:08:42Z</time>
<speed>0.6</speed>
</trkpt>
<trkpt lat="47.433397" lon="8.745734">
<ele>664.5</ele>
<time>2003-09-19T09:08:47Z</time>
<speed>0.6</speed>
</trkpt>
<trkpt lat="47.433385" lon="8.745828">
<ele>663.1</ele>
<time>2003-09-19T09:08:52Z</time>
<speed>0.8</speed>
</trkpt>
<trkpt lat="47.433365" lon="8.745917">
<ele>663.8</ele>
<time>2003-09-19T09:08:57Z</time>
<speed>0.6</speed>
</trkpt>
<trkpt lat="47.433338" lon="8.746020">
<ele>663.8</ele>
<time>2003-09-19T09:09:02Z</time>
<speed>0.8</speed>
</trkpt>
<trkpt lat="47.433356" lon="8.746131">
<ele>663.4</ele>
<time>2003-09-19T09:09:07Z</time>
<speed>1.1</speed>
</trkpt>
<trkpt lat="47.433375" lon="8.746231">
<ele>661.4</ele>
<time>2003-09-19T09:09:12Z</time>
<speed>0.8</speed>
</trkpt>
<trkpt lat="47.433395" lon="8.746315">
<ele>660.7</ele>
<time>2003-09-19T09:09:17Z</time>
<speed>0.8</speed>
</trkpt>
<trkpt lat="47.433405" lon="8.746439">
<ele>659.7</ele>
<time>2003-09-19T09:09:22Z</time>
<speed>1.1</speed>
</trkpt>
<trkpt lat="47.433390" lon="8.746559">
<ele>658.4</ele>
<time>2003-09-19T09:09:27Z</time>
<speed>1.1</speed>
</trkpt>
<trkpt lat="47.433389" lon="8.746668">
<ele>657.2</ele>
<time>2003-09-19T09:09:32Z</time>
<speed>1.1</speed>
</trkpt>
<trkpt lat="47.433388" lon="8.746777">
<ele>655.9</ele>
<time>2003-09-19T09:09:37Z</time>
<speed>0.8</speed>
</trkpt>
<trkpt lat="47.433361" lon="8.746893">
<ele>656.1</ele>
<time>2003-09-19T09:09:42Z</time>
<speed>0.8</speed>
</trkpt>
<trkpt lat="47.433289" lon="8.747003">
<ele>655.2</ele>
<time>2003-09-19T09:09:47Z</time>
<speed>0.8</speed>
</trkpt>
<trkpt lat="47.433269" lon="8.747092">
<ele>655.9</ele>
<time>2003-09-19T09:09:52Z</time>
<speed>0.8</speed>
</trkpt>
<trkpt lat="47.433260" lon="8.747210">
<ele>656.8</ele>
<time>2003-09-19T09:09:57Z</time>
<speed>1.4</speed>
</trkpt>
<trkpt lat="47.433227" lon="8.747311">
<ele>657.5</ele>
<time>2003-09-19T09:10:02Z</time>
<speed>1.4</speed>
</trkpt>
<trkpt lat="47.433207" lon="8.747401">
<ele>658.2</ele>
<time>2003-09-19T09:10:07Z</time>
<speed>0.8</speed>
</trkpt>
<trkpt lat="47.433172" lon="8.747513">
<ele>660.4</ele>
<time>2003-09-19T09:10:12Z</time>
<speed>0.6</speed>
</trkpt>
<trkpt lat="47.433140" lon="8.747598">
<ele>662.4</ele>
<time>2003-09-19T09:10:17Z</time>
<speed>0.8</speed>
</trkpt>
<trkpt lat="47.433125" lon="8.747686">
<ele>665.1</ele>
<time>2003-09-19T09:10:22Z</time>
<speed>1.1</speed>
</trkpt>
<trkpt lat="47.433123" lon="8.747806">
<ele>665.4</ele>
<time>2003-09-19T09:10:27Z</time>
<speed>1.1</speed>
</trkpt>
<trkpt lat="47.433082" lon="8.747935">
<ele>664.2</ele>
<time>2003-09-19T09:10:32Z</time>
<speed>1.1</speed>
</trkpt>
<trkpt lat="47.433053" lon="8.748062">
<ele>665.8</ele>
<time>2003-09-19T09:10:37Z</time>
<speed>1.1</speed>
</trkpt>
<trkpt lat="47.433038" lon="8.748180">
<ele>666.0</ele>
<time>2003-09-19T09:10:42Z</time>
<speed>1.4</speed>
</trkpt>
<trkpt lat="47.433009" lon="8.748311">
<ele>664.8</ele>
<time>2003-09-19T09:10:47Z</time>
<speed>1.1</speed>
</trkpt>
<trkpt lat="47.432995" lon="8.748431">
<ele>663.6</ele>
<time>2003-09-19T09:10:52Z</time>
<speed>1.1</speed>
</trkpt>
<trkpt lat="47.432956" lon="8.748533">
<ele>662.1</ele>
<time>2003-09-19T09:10:57Z</time>
<speed>1.1</speed>
</trkpt>
<trkpt lat="47.432955" lon="8.748642">
<ele>660.9</ele>
<time>2003-09-19T09:11:02Z</time>
<speed>1.1</speed>
</trkpt>
<trkpt lat="47.432935" lon="8.748732">
<ele>661.5</ele>
<time>2003-09-19T09:11:07Z</time>
<speed>0.8</speed>
</trkpt>
<trkpt lat="47.432915" lon="8.748822">
<ele>662.2</ele>
<time>2003-09-19T09:11:12Z</time>
<speed>0.8</speed>
</trkpt>
<trkpt lat="47.432882" lon="8.748924">
<ele>661.5</ele>
<time>2003-09-19T09:11:17Z</time>
<speed>1.4</speed>
</trkpt>
<trkpt lat="47.432875" lon="8.749031">
<ele>660.9</ele>
<time>2003-09-19T09:11:22Z</time>
<speed>0.8</speed>
</trkpt>
<trkpt lat="47.432834" lon="8.749160">
<ele>659.6</ele>
<time>2003-09-19T09:11:27Z</time>
<speed>0.8</speed>
</trkpt>
<trkpt lat="47.432792" lon="8.749302">
<ele>658.5</ele>
<time>2003-09-19T09:11:32Z</time>
<speed>0.8</speed>
</trkpt>
<trkpt lat="47.432707" lon="8.749410">
<ele>657.6</ele>
<time>2003-09-19T09:11:37Z</time>
<speed>1.4</speed>
</trkpt>
<trkpt lat="47.432639" lon="8.749466">
<ele>657.8</ele>
<time>2003-09-19T09:11:42Z</time>
<speed>1.4</speed>
</trkpt>
<trkpt lat="47.432580" lon="8.749482">
<ele>658.4</ele>
<time>2003-09-19T09:11:47Z</time>
<speed>0.8</speed>
</trkpt>
<trkpt lat="47.432518" lon="8.749458">
<ele>657.9</ele>
<time>2003-09-19T09:11:52Z</time>
<speed>1.1</speed>
</trkpt>
<trkpt lat="47.432437" lon="8.749431">
<ele>658.1</ele>
<time>2003-09-19T09:11:57Z</time>
<speed>1.7</speed>
</trkpt>
<trkpt lat="47.432362" lon="8.749406">
<ele>657.6</ele>
<time>2003-09-19T09:12:02Z</time>
<speed>1.1</speed>
</trkpt>
<trkpt lat="47.432294" lon="8.749368">
<ele>657.7</ele>
<time>2003-09-19T09:12:07Z</time>
<speed>1.4</speed>
</trkpt>
<trkpt lat="47.432221" lon="8.749329">
<ele>657.1</ele>
<time>2003-09-19T09:12:12Z</time>
<speed>1.4</speed>
</trkpt>
<trkpt lat="47.432140" lon="8.749289">
<ele>657.1</ele>
<time>2003-09-19T09:12:17Z</time>
<speed>1.4</speed>
</trkpt>
<trkpt lat="47.432079" lon="8.749253">
<ele>656.6</ele>
<time>2003-09-19T09:12:22Z</time>
<speed>1.1</speed>
</trkpt>
<trkpt lat="47.431999" lon="8.749213">
<ele>656.7</ele>
<time>2003-09-19T09:12:27Z</time>
<speed>1.4</speed>
</trkpt>
<trkpt lat="47.431900" lon="8.749155">
<ele>657.2</ele>
<time>2003-09-19T09:12:32Z</time>
<speed>1.7</speed>
</trkpt>
<trkpt lat="47.431847" lon="8.749093">
<ele>657.2</ele>
<time>2003-09-19T09:12:37Z</time>
<speed>1.7</speed>
</trkpt>
<trkpt lat="47.431783" lon="8.749017">
<ele>655.6</ele>
<time>2003-09-19T09:12:42Z</time>
<speed>1.7</speed>
</trkpt>
<trkpt lat="47.431735" lon="8.748983">
<ele>655.1</ele>
<time>2003-09-19T09:12:47Z</time>
<speed>1.1</speed>
</trkpt>
<trkpt lat="47.431686" lon="8.748949">
<ele>654.7</ele>
<time>2003-09-19T09:12:52Z</time>
<speed>0.8</speed>
</trkpt>
<trkpt lat="47.431630" lon="8.748925">
<ele>654.9</ele>
<time>2003-09-19T09:12:57Z</time>
<speed>1.4</speed>
</trkpt>
<trkpt lat="47.431555" lon="8.748898">
<ele>655.8</ele>
<time>2003-09-19T09:13:02Z</time>
<speed>1.1</speed>
</trkpt>
<trkpt lat="47.431505" lon="8.748877">
<ele>655.5</ele>
<time>2003-09-19T09:13:07Z</time>
<speed>1.1</speed>
</trkpt>
<trkpt lat="47.431456" lon="8.748856">
<ele>655.1</ele>
<time>2003-09-19T09:13:12Z</time>
<speed>0.6</speed>
</trkpt>
<trkpt lat="47.431394" lon="8.748833">
<ele>654.6</ele>
<time>2003-09-19T09:13:17Z</time>
<speed>0.8</speed>
</trkpt>
<trkpt lat="47.431326" lon="8.748796">
<ele>653.4</ele>
<time>2003-09-19T09:13:22Z</time>
<speed>1.1</speed>
</trkpt>
<trkpt lat="47.431263" lon="8.748784">
<ele>654.4</ele>
<time>2003-09-19T09:13:27Z</time>
<speed>1.1</speed>
</trkpt>
<trkpt lat="47.431164" lon="8.748742">
<ele>653.7</ele>
<time>2003-09-19T09:13:32Z</time>
<speed>1.7</speed>
</trkpt>
<trkpt lat="47.431084" lon="8.748704">
<ele>652.3</ele>
<time>2003-09-19T09:13:37Z</time>
<speed>1.4</speed>
</trkpt>
<trkpt lat="47.431016" lon="8.748680">
<ele>651.2</ele>
<time>2003-09-19T09:13:42Z</time>
<speed>1.4</speed>
</trkpt>
<trkpt lat="47.430946" lon="8.748670">
<ele>650.1</ele>
<time>2003-09-19T09:13:47Z</time>
<speed>1.1</speed>
</trkpt>
<trkpt lat="47.430877" lon="8.748660">
<ele>649.0</ele>
<time>2003-09-19T09:13:52Z</time>
<speed>1.4</speed>
</trkpt>
<trkpt lat="47.430791" lon="8.748620">
<ele>648.3</ele>
<time>2003-09-19T09:13:57Z</time>
<speed>1.7</speed>
</trkpt>
<trkpt lat="47.430724" lon="8.748584">
<ele>647.0</ele>
<time>2003-09-19T09:14:02Z</time>
<speed>1.4</speed>
</trkpt>
<trkpt lat="47.430654" lon="8.748574">
<ele>646.0</ele>
<time>2003-09-19T09:14:07Z</time>
<speed>1.4</speed>
</trkpt>
<trkpt lat="47.430599" lon="8.748552">
<ele>644.9</ele>
<time>2003-09-19T09:14:12Z</time>
<speed>1.1</speed>
</trkpt>
<trkpt lat="47.430530" lon="8.748527">
<ele>645.1</ele>
<time>2003-09-19T09:14:17Z</time>
<speed>1.4</speed>
</trkpt>
<trkpt lat="47.430468" lon="8.748504">
<ele>644.6</ele>
<time>2003-09-19T09:14:22Z</time>
<speed>1.4</speed>
</trkpt>
<trkpt lat="47.430405" lon="8.748494">
<ele>644.3</ele>
<time>2003-09-19T09:14:27Z</time>
<speed>1.1</speed>
</trkpt>
<trkpt lat="47.430349" lon="8.748471">
<ele>644.6</ele>
<time>2003-09-19T09:14:32Z</time>
<speed>1.1</speed>
</trkpt>
<trkpt lat="47.430274" lon="8.748446">
<ele>644.1</ele>
<time>2003-09-19T09:14:37Z</time>
<speed>1.1</speed>
</trkpt>
<trkpt lat="47.430212" lon="8.748407">
<ele>644.9</ele>
<time>2003-09-19T09:14:42Z</time>
<speed>0.8</speed>
</trkpt>
<trkpt lat="47.430164" lon="8.748373">
<ele>644.5</ele>
<time>2003-09-19T09:14:47Z</time>
<speed>0.8</speed>
</trkpt>
<trkpt lat="47.430090" lon="8.748335">
<ele>643.9</ele>
<time>2003-09-19T09:14:52Z</time>
<speed>1.4</speed>
</trkpt>
<trkpt lat="47.430023" lon="8.748283">
<ele>643.9</ele>
<time>2003-09-19T09:14:57Z</time>
<speed>1.4</speed>
</trkpt>
<trkpt lat="47.429968" lon="8.748247">
<ele>644.1</ele>
<time>2003-09-19T09:15:02Z</time>
<speed>1.1</speed>
</trkpt>
<trkpt lat="47.429894" lon="8.748222">
<ele>643.6</ele>
<time>2003-09-19T09:15:07Z</time>
<speed>1.4</speed>
</trkpt>
<trkpt lat="47.429833" lon="8.748173">
<ele>642.9</ele>
<time>2003-09-19T09:15:12Z</time>
<speed>1.1</speed>
</trkpt>
<trkpt lat="47.429784" lon="8.748136">
<ele>643.8</ele>
<time>2003-09-19T09:15:17Z</time>
<speed>1.1</speed>
</trkpt>
<trkpt lat="47.429724" lon="8.748087">
<ele>643.2</ele>
<time>2003-09-19T09:15:22Z</time>
<speed>1.1</speed>
</trkpt>
<trkpt lat="47.429658" lon="8.748035">
<ele>643.2</ele>
<time>2003-09-19T09:15:27Z</time>
<speed>1.1</speed>
</trkpt>
<trkpt lat="47.429596" lon="8.747999">
<ele>642.7</ele>
<time>2003-09-19T09:15:32Z</time>
<speed>1.1</speed>
</trkpt>
<trkpt lat="47.429549" lon="8.747952">
<ele>642.1</ele>
<time>2003-09-19T09:15:37Z</time>
<speed>0.8</speed>
</trkpt>
<trkpt lat="47.429519" lon="8.747920">
<ele>642.4</ele>
<time>2003-09-19T09:15:42Z</time>
<speed>0.3</speed>
</trkpt>
<trkpt lat="47.429501" lon="8.747902">
<ele>642.9</ele>
<time>2003-09-19T09:15:47Z</time>
<speed>0.6</speed>
</trkpt>
<trkpt lat="47.429446" lon="8.747866">
<ele>643.1</ele>
<time>2003-09-19T09:15:52Z</time>
<speed>0.8</speed>
</trkpt>
<trkpt lat="47.429397" lon="8.747830">
<ele>644.0</ele>
<time>2003-09-19T09:15:57Z</time>
<speed>1.4</speed>
</trkpt>
<trkpt lat="47.429327" lon="8.747818">
<ele>644.4</ele>
<time>2003-09-19T09:16:02Z</time>
<speed>1.4</speed>
</trkpt>
<trkpt lat="47.429260" lon="8.747780">
<ele>644.5</ele>
<time>2003-09-19T09:16:07Z</time>
<speed>1.1</speed>
</trkpt>
<trkpt lat="47.429205" lon="8.747743">
<ele>644.7</ele>
<time>2003-09-19T09:16:12Z</time>
<speed>1.1</speed>
</trkpt>
<trkpt lat="47.429176" lon="8.747698">
<ele>644.9</ele>
<time>2003-09-19T09:16:17Z</time>
<speed>1.1</speed>
</trkpt>
<trkpt lat="47.429115" lon="8.747662">
<ele>644.4</ele>
<time>2003-09-19T09:16:22Z</time>
<speed>1.4</speed>
</trkpt>
<trkpt lat="47.429062" lon="8.747599">
<ele>644.3</ele>
<time>2003-09-19T09:16:27Z</time>
<speed>1.1</speed>
</trkpt>
<trkpt lat="47.429018" lon="8.747578">
<ele>644.7</ele>
<time>2003-09-19T09:16:32Z</time>
<speed>0.8</speed>
</trkpt>
<trkpt lat="47.428976" lon="8.747544">
<ele>645.0</ele>
<time>2003-09-19T09:16:37Z</time>
<speed>0.8</speed>
</trkpt>
<trkpt lat="47.428922" lon="8.747494">
<ele>645.1</ele>
<time>2003-09-19T09:16:42Z</time>
<speed>0.8</speed>
</trkpt>
<trkpt lat="47.428874" lon="8.747445">
<ele>645.9</ele>
<time>2003-09-19T09:16:47Z</time>
<speed>0.8</speed>
</trkpt>
<trkpt lat="47.428832" lon="8.747398">
<ele>646.0</ele>
<time>2003-09-19T09:16:52Z</time>
<speed>1.1</speed>
</trkpt>
<trkpt lat="47.428784" lon="8.747363">
<ele>645.6</ele>
<time>2003-09-19T09:16:57Z</time>
<speed>0.8</speed>
</trkpt>
<trkpt lat="47.428730" lon="8.747314">
<ele>645.6</ele>
<time>2003-09-19T09:17:02Z</time>
<speed>1.1</speed>
</trkpt>
<trkpt lat="47.428676" lon="8.747265">
<ele>645.7</ele>
<time>2003-09-19T09:17:07Z</time>
<speed>1.1</speed>
</trkpt>
<trkpt lat="47.428639" lon="8.747230">
<ele>646.7</ele>
<time>2003-09-19T09:17:12Z</time>
<speed>0.6</speed>
</trkpt>
<trkpt lat="47.428599" lon="8.747172">
<ele>645.4</ele>
<time>2003-09-19T09:17:17Z</time>
<speed>0.8</speed>
</trkpt>
<trkpt lat="47.428557" lon="8.747138">
<ele>645.6</ele>
<time>2003-09-19T09:17:22Z</time>
<speed>0.8</speed>
</trkpt>
<trkpt lat="47.428485" lon="8.747071">
<ele>646.2</ele>
<time>2003-09-19T09:17:27Z</time>
<speed>1.4</speed>
</trkpt>
<trkpt lat="47.428430" lon="8.747035">
<ele>646.4</ele>
<time>2003-09-19T09:17:32Z</time>
<speed>1.1</speed>
</trkpt>
<trkpt lat="47.428361" lon="8.747012">
<ele>645.2</ele>
<time>2003-09-19T09:17:37Z</time>
<speed>1.4</speed>
</trkpt>
<trkpt lat="47.428299" lon="8.746989">
<ele>644.8</ele>
<time>2003-09-19T09:17:42Z</time>
<speed>1.1</speed>
</trkpt>
<trkpt lat="47.428238" lon="8.746952">
<ele>644.3</ele>
<time>2003-09-19T09:17:47Z</time>
<speed>1.4</speed>
</trkpt>
<trkpt lat="47.428164" lon="8.746914">
<ele>643.6</ele>
<time>2003-09-19T09:17:52Z</time>
<speed>1.7</speed>
</trkpt>
<trkpt lat="47.428097" lon="8.746876">
<ele>643.8</ele>
<time>2003-09-19T09:17:57Z</time>
<speed>1.4</speed>
</trkpt>
<trkpt lat="47.428046" lon="8.746868">
<ele>643.5</ele>
<time>2003-09-19T09:18:02Z</time>
<speed>1.1</speed>
</trkpt>
<trkpt lat="47.428003" lon="8.746848">
<ele>642.4</ele>
<time>2003-09-19T09:18:07Z</time>
<speed>1.1</speed>
</trkpt>
<trkpt lat="47.427961" lon="8.746816">
<ele>641.3</ele>
<time>2003-09-19T09:18:12Z</time>
<speed>1.1</speed>
</trkpt>
<trkpt lat="47.427926" lon="8.746771">
<ele>640.8</ele>
<time>2003-09-19T09:18:17Z</time>
<speed>0.8</speed>
</trkpt>
<trkpt lat="47.427897" lon="8.746741">
<ele>639.7</ele>
<time>2003-09-19T09:18:22Z</time>
<speed>1.1</speed>
</trkpt>
<trkpt lat="47.427844" lon="8.746678">
<ele>639.7</ele>
<time>2003-09-19T09:18:27Z</time>
<speed>1.1</speed>
</trkpt>
<trkpt lat="47.427802" lon="8.746644">
<ele>640.0</ele>
<time>2003-09-19T09:18:32Z</time>
<speed>1.1</speed>
</trkpt>
<trkpt lat="47.427762" lon="8.746585">
<ele>638.6</ele>
<time>2003-09-19T09:18:37Z</time>
<speed>1.1</speed>
</trkpt>
<trkpt lat="47.427714" lon="8.746538">
<ele>638.0</ele>
<time>2003-09-19T09:18:42Z</time>
<speed>0.8</speed>
</trkpt>
<trkpt lat="47.427673" lon="8.746491">
<ele>638.2</ele>
<time>2003-09-19T09:18:47Z</time>
<speed>0.8</speed>
</trkpt>
<trkpt lat="47.427657" lon="8.746449">
<ele>637.1</ele>
<time>2003-09-19T09:18:52Z</time>
<speed>0.8</speed>
</trkpt>
<trkpt lat="47.427623" lon="8.746391">
<ele>636.5</ele>
<time>2003-09-19T09:18:57Z</time>
<speed>1.1</speed>
</trkpt>
<trkpt lat="47.427570" lon="8.746329">
<ele>636.4</ele>
<time>2003-09-19T09:19:02Z</time>
<speed>1.4</speed>
</trkpt>
<trkpt lat="47.427512" lon="8.746253">
<ele>635.6</ele>
<time>2003-09-19T09:19:07Z</time>
<speed>1.4</speed>
</trkpt>
<trkpt lat="47.427471" lon="8.746206">
<ele>635.7</ele>
<time>2003-09-19T09:19:12Z</time>
<speed>0.8</speed>
</trkpt>
<trkpt lat="47.427429" lon="8.746173">
<ele>634.6</ele>
<time>2003-09-19T09:19:17Z</time>
<speed>1.1</speed>
</trkpt>
<trkpt lat="47.427382" lon="8.746113">
<ele>633.9</ele>
<time>2003-09-19T09:19:22Z</time>
<speed>1.1</speed>
</trkpt>
<trkpt lat="47.427334" lon="8.746079">
<ele>633.4</ele>
<time>2003-09-19T09:19:27Z</time>
<speed>1.1</speed>
</trkpt>
<trkpt lat="47.427304" lon="8.746064">
<ele>631.1</ele>
<time>2003-09-19T09:19:32Z</time>
<speed>0.8</speed>
</trkpt>
<trkpt lat="47.427256" lon="8.746016">
<ele>630.5</ele>
<time>2003-09-19T09:19:37Z</time>
<speed>1.4</speed>
</trkpt>
<trkpt lat="47.427227" lon="8.745986">
<ele>629.4</ele>
<time>2003-09-19T09:19:42Z</time>
<speed>0.8</speed>
</trkpt>
<trkpt lat="47.427168" lon="8.745923">
<ele>628.7</ele>
<time>2003-09-19T09:19:47Z</time>
<speed>1.1</speed>
</trkpt>
<trkpt lat="47.427119" lon="8.745889">
<ele>628.2</ele>
<time>2003-09-19T09:19:52Z</time>
<speed>1.1</speed>
</trkpt>
<trkpt lat="47.427078" lon="8.745842">
<ele>628.3</ele>
<time>2003-09-19T09:19:57Z</time>
<speed>1.1</speed>
</trkpt>
<trkpt lat="47.427024" lon="8.745792">
<ele>628.4</ele>
<time>2003-09-19T09:20:02Z</time>
<speed>1.4</speed>
</trkpt>
<trkpt lat="47.426964" lon="8.745743">
<ele>627.8</ele>
<time>2003-09-19T09:20:07Z</time>
<speed>1.7</speed>
</trkpt>
<trkpt lat="47.426910" lon="8.745696">
<ele>626.5</ele>
<time>2003-09-19T09:20:12Z</time>
<speed>1.1</speed>
</trkpt>
<trkpt lat="47.426868" lon="8.745661">
<ele>626.7</ele>
<time>2003-09-19T09:20:17Z</time>
<speed>1.4</speed>
</trkpt>
<trkpt lat="47.426826" lon="8.745629">
<ele>625.6</ele>
<time>2003-09-19T09:20:22Z</time>
<speed>0.8</speed>
</trkpt>
<trkpt lat="47.426790" lon="8.745597">
<ele>625.2</ele>
<time>2003-09-19T09:20:27Z</time>
<speed>1.1</speed>
</trkpt>
<trkpt lat="47.426736" lon="8.745548">
<ele>625.3</ele>
<time>2003-09-19T09:20:32Z</time>
<speed>1.4</speed>
</trkpt>
<trkpt lat="47.426676" lon="8.745498">
<ele>624.6</ele>
<time>2003-09-19T09:20:37Z</time>
<speed>1.1</speed>
</trkpt>
<trkpt lat="47.426628" lon="8.745451">
<ele>624.0</ele>
<time>2003-09-19T09:20:42Z</time>
<speed>1.1</speed>
</trkpt>
<trkpt lat="47.426580" lon="8.745417">
<ele>623.6</ele>
<time>2003-09-19T09:20:47Z</time>
<speed>1.4</speed>
</trkpt>
<trkpt lat="47.426538" lon="8.745369">
<ele>623.7</ele>
<time>2003-09-19T09:20:52Z</time>
<speed>1.1</speed>
</trkpt>
<trkpt lat="47.426504" lon="8.745311">
<ele>623.1</ele>
<time>2003-09-19T09:20:57Z</time>
<speed>1.1</speed>
</trkpt>
<trkpt lat="47.426477" lon="8.745252">
<ele>623.2</ele>
<time>2003-09-19T09:21:02Z</time>
<speed>1.1</speed>
</trkpt>
<trkpt lat="47.426451" lon="8.745168">
<ele>623.1</ele>
<time>2003-09-19T09:21:07Z</time>
<speed>1.1</speed>
</trkpt>
<trkpt lat="47.426438" lon="8.745087">
<ele>621.7</ele>
<time>2003-09-19T09:21:12Z</time>
<speed>0.8</speed>
</trkpt>
<trkpt lat="47.426432" lon="8.745007">
<ele>621.0</ele>
<time>2003-09-19T09:21:17Z</time>
<speed>1.1</speed>
</trkpt>
<trkpt lat="47.426438" lon="8.744928">
<ele>620.4</ele>
<time>2003-09-19T09:21:22Z</time>
<speed>1.1</speed>
</trkpt>
<trkpt lat="47.426438" lon="8.744849">
<ele>619.1</ele>
<time>2003-09-19T09:21:27Z</time>
<speed>1.1</speed>
</trkpt>
<trkpt lat="47.426438" lon="8.744771">
<ele>617.7</ele>
<time>2003-09-19T09:21:32Z</time>
<speed>0.8</speed>
</trkpt>
<trkpt lat="47.426439" lon="8.744664">
<ele>617.5</ele>
<time>2003-09-19T09:21:37Z</time>
<speed>1.1</speed>
</trkpt>
<trkpt lat="47.426433" lon="8.744583">
<ele>616.9</ele>
<time>2003-09-19T09:21:42Z</time>
<speed>1.1</speed>
</trkpt>
<trkpt lat="47.426427" lon="8.744490">
<ele>616.1</ele>
<time>2003-09-19T09:21:47Z</time>
<speed>1.1</speed>
</trkpt>
<trkpt lat="47.426421" lon="8.744394">
<ele>616.7</ele>
<time>2003-09-19T09:21:52Z</time>
<speed>1.4</speed>
</trkpt>
<trkpt lat="47.426415" lon="8.744300">
<ele>615.9</ele>
<time>2003-09-19T09:21:57Z</time>
<speed>1.4</speed>
</trkpt>
<trkpt lat="47.426421" lon="8.744222">
<ele>615.3</ele>
<time>2003-09-19T09:22:02Z</time>
<speed>0.8</speed>
</trkpt>
<trkpt lat="47.426415" lon="8.744143">
<ele>613.2</ele>
<time>2003-09-19T09:22:07Z</time>
<speed>1.4</speed>
</trkpt>
<trkpt lat="47.426403" lon="8.744062">
<ele>611.8</ele>
<time>2003-09-19T09:22:12Z</time>
<speed>1.1</speed>
</trkpt>
<trkpt lat="47.426378" lon="8.743967">
<ele>610.2</ele>
<time>2003-09-19T09:22:17Z</time>
<speed>1.1</speed>
</trkpt>
<trkpt lat="47.426346" lon="8.743882">
<ele>609.4</ele>
<time>2003-09-19T09:22:22Z</time>
<speed>1.1</speed>
</trkpt>
<trkpt lat="47.426314" lon="8.743813">
<ele>607.2</ele>
<time>2003-09-19T09:22:27Z</time>
<speed>1.4</speed>
</trkpt>
<trkpt lat="47.426275" lon="8.743739">
<ele>607.2</ele>
<time>2003-09-19T09:22:32Z</time>
<speed>1.4</speed>
</trkpt>
<trkpt lat="47.426235" lon="8.743681">
<ele>605.8</ele>
<time>2003-09-19T09:22:37Z</time>
<speed>1.1</speed>
</trkpt>
<trkpt lat="47.426182" lon="8.743618">
<ele>605.8</ele>
<time>2003-09-19T09:22:42Z</time>
<speed>1.4</speed>
</trkpt>
<trkpt lat="47.426148" lon="8.743560">
<ele>605.2</ele>
<time>2003-09-19T09:22:47Z</time>
<speed>1.1</speed>
</trkpt>
<trkpt lat="47.426107" lon="8.743499">
<ele>605.3</ele>
<time>2003-09-19T09:22:52Z</time>
<speed>1.1</speed>
</trkpt>
<trkpt lat="47.426049" lon="8.743424">
<ele>604.4</ele>
<time>2003-09-19T09:22:57Z</time>
<speed>1.7</speed>
</trkpt>
<trkpt lat="47.426008" lon="8.743376">
<ele>604.6</ele>
<time>2003-09-19T09:23:02Z</time>
<speed>1.4</speed>
</trkpt>
<trkpt lat="47.425967" lon="8.743316">
<ele>604.6</ele>
<time>2003-09-19T09:23:07Z</time>
<speed>1.4</speed>
</trkpt>
<trkpt lat="47.425928" lon="8.743242">
<ele>604.6</ele>
<time>2003-09-19T09:23:12Z</time>
<speed>1.1</speed>
</trkpt>
<trkpt lat="47.425895" lon="8.743171">
<ele>603.9</ele>
<time>2003-09-19T09:23:17Z</time>
<speed>1.1</speed>
</trkpt>
<trkpt lat="47.425848" lon="8.743123">
<ele>603.3</ele>
<time>2003-09-19T09:23:22Z</time>
<speed>1.4</speed>
</trkpt>
<trkpt lat="47.425801" lon="8.743063">
<ele>602.6</ele>
<time>2003-09-19T09:23:27Z</time>
<speed>1.1</speed>
</trkpt>
<trkpt lat="47.425755" lon="8.743003">
<ele>601.9</ele>
<time>2003-09-19T09:23:32Z</time>
<speed>1.1</speed>
</trkpt>
<trkpt lat="47.425713" lon="8.742955">
<ele>602.1</ele>
<time>2003-09-19T09:23:37Z</time>
<speed>1.1</speed>
</trkpt>
<trkpt lat="47.425666" lon="8.742893">
<ele>602.8</ele>
<time>2003-09-19T09:23:42Z</time>
<speed>1.1</speed>
</trkpt>
<trkpt lat="47.425630" lon="8.742860">
<ele>602.4</ele>
<time>2003-09-19T09:23:47Z</time>
<speed>0.3</speed>
</trkpt>
<trkpt lat="47.425631" lon="8.742847">
<ele>602.3</ele>
<time>2003-09-19T09:23:52Z</time>
<speed>0.0</speed>
</trkpt>
<trkpt lat="47.425620" lon="8.742832">
<ele>602.1</ele>
<time>2003-09-19T09:23:57Z</time>
<speed>0.8</speed>
</trkpt>
<trkpt lat="47.425577" lon="8.742798">
<ele>602.4</ele>
<time>2003-09-19T09:24:02Z</time>
<speed>0.8</speed>
</trkpt>
<trkpt lat="47.425578" lon="8.742785">
<ele>602.3</ele>
<time>2003-09-19T09:24:07Z</time>
<speed>0.0</speed>
</trkpt>
<trkpt lat="47.425566" lon="8.742783">
<ele>602.2</ele>
<time>2003-09-19T09:24:12Z</time>
<speed>0.3</speed>
</trkpt>
<trkpt lat="47.425522" lon="8.742762">
<ele>602.6</ele>
<time>2003-09-19T09:24:17Z</time>
<speed>1.1</speed>
</trkpt>
<trkpt lat="47.425453" lon="8.742750">
<ele>602.9</ele>
<time>2003-09-19T09:24:22Z</time>
<speed>1.1</speed>
</trkpt>
<trkpt lat="47.425383" lon="8.742738">
<ele>603.2</ele>
<time>2003-09-19T09:24:27Z</time>
<speed>1.4</speed>
</trkpt>
<trkpt lat="47.425321" lon="8.742795">
<ele>602.7</ele>
<time>2003-09-19T09:24:32Z</time>
<speed>0.8</speed>
</trkpt>
<trkpt lat="47.425273" lon="8.742841">
<ele>602.2</ele>
<time>2003-09-19T09:24:37Z</time>
<speed>1.1</speed>
</trkpt>
<trkpt lat="47.425219" lon="8.742886">
<ele>602.3</ele>
<time>2003-09-19T09:24:42Z</time>
<speed>0.8</speed>
</trkpt>
<trkpt lat="47.425168" lon="8.742878">
<ele>602.1</ele>
<time>2003-09-19T09:24:47Z</time>
<speed>0.8</speed>
</trkpt>
<trkpt lat="47.425141" lon="8.742806">
<ele>602.1</ele>
<time>2003-09-19T09:24:52Z</time>
<speed>1.1</speed>
</trkpt>
<trkpt lat="47.425108" lon="8.742733">
<ele>602.8</ele>
<time>2003-09-19T09:24:57Z</time>
<speed>0.8</speed>
</trkpt>
<trkpt lat="47.425064" lon="8.742724">
<ele>603.2</ele>
<time>2003-09-19T09:25:02Z</time>
<speed>0.8</speed>
</trkpt>
<trkpt lat="47.425013" lon="8.742716">
<ele>603.0</ele>
<time>2003-09-19T09:25:07Z</time>
<speed>0.8</speed>
</trkpt>
<trkpt lat="47.424951" lon="8.742693">
<ele>602.5</ele>
<time>2003-09-19T09:25:12Z</time>
<speed>1.1</speed>
</trkpt>
<trkpt lat="47.424904" lon="8.742631">
<ele>603.3</ele>
<time>2003-09-19T09:25:17Z</time>
<speed>0.6</speed>
</trkpt>
<trkpt lat="47.424899" lon="8.742620">
<ele>601.0</ele>
<time>2003-09-19T09:25:22Z</time>
<speed>0.0</speed>
</trkpt>
<trkpt lat="47.424906" lon="8.742622">
<ele>600.3</ele>
<time>2003-09-19T09:25:27Z</time>
<speed>0.0</speed>
</trkpt>
<trkpt lat="47.424906" lon="8.742622">
<ele>600.3</ele>
<time>2003-09-19T09:25:32Z</time>
<speed>0.0</speed>
</trkpt>
<trkpt lat="47.424907" lon="8.742609">
<ele>600.2</ele>
<time>2003-09-19T09:25:37Z</time>
<speed>0.3</speed>
</trkpt>
<trkpt lat="47.424908" lon="8.742595">
<ele>600.1</ele>
<time>2003-09-19T09:25:42Z</time>
<speed>0.3</speed>
</trkpt>
<trkpt lat="47.424904" lon="8.742554">
<ele>600.5</ele>
<time>2003-09-19T09:25:47Z</time>
<speed>0.6</speed>
</trkpt>
<trkpt lat="47.424870" lon="8.742509">
<ele>600.0</ele>
<time>2003-09-19T09:25:52Z</time>
<speed>0.6</speed>
</trkpt>
<trkpt lat="47.424842" lon="8.742452">
<ele>598.7</ele>
<time>2003-09-19T09:25:57Z</time>
<speed>0.8</speed>
</trkpt>
<trkpt lat="47.424833" lon="8.742396">
<ele>599.6</ele>
<time>2003-09-19T09:26:02Z</time>
<speed>0.8</speed>
</trkpt>
<trkpt lat="47.424808" lon="8.742313">
<ele>598.1</ele>
<time>2003-09-19T09:26:07Z</time>
<speed>0.8</speed>
</trkpt>
<trkpt lat="47.424788" lon="8.742244">
<ele>597.5</ele>
<time>2003-09-19T09:26:12Z</time>
<speed>0.8</speed>
</trkpt>
<trkpt lat="47.424775" lon="8.742163">
<ele>596.1</ele>
<time>2003-09-19T09:26:17Z</time>
<speed>1.1</speed>
</trkpt>
<trkpt lat="47.424743" lon="8.742079">
<ele>595.3</ele>
<time>2003-09-19T09:26:22Z</time>
<speed>1.1</speed>
</trkpt>
<trkpt lat="47.424723" lon="8.742009">
<ele>594.6</ele>
<time>2003-09-19T09:26:27Z</time>
<speed>0.8</speed>
</trkpt>
<trkpt lat="47.424711" lon="8.741994">
<ele>594.4</ele>
<time>2003-09-19T09:26:32Z</time>
<speed>0.0</speed>
</trkpt>
<trkpt lat="47.424711" lon="8.741994">
<ele>594.4</ele>
<time>2003-09-19T09:26:37Z</time>
<speed>0.0</speed>
</trkpt>
<trkpt lat="47.424707" lon="8.741966">
<ele>594.9</ele>
<time>2003-09-19T09:26:42Z</time>
<speed>0.3</speed>
</trkpt>
<trkpt lat="47.424698" lon="8.741911">
<ele>594.4</ele>
<time>2003-09-19T09:26:47Z</time>
<speed>0.6</speed>
</trkpt>
<trkpt lat="47.424696" lon="8.741857">
<ele>594.7</ele>
<time>2003-09-19T09:26:52Z</time>
<speed>0.8</speed>
</trkpt>
<trkpt lat="47.424663" lon="8.741787">
<ele>592.6</ele>
<time>2003-09-19T09:26:57Z</time>
<speed>0.8</speed>
</trkpt>
<trkpt lat="47.424610" lon="8.741725">
<ele>592.5</ele>
<time>2003-09-19T09:27:02Z</time>
<speed>1.1</speed>
</trkpt>
<trkpt lat="47.424564" lon="8.741649">
<ele>593.2</ele>
<time>2003-09-19T09:27:07Z</time>
<speed>1.1</speed>
</trkpt>
<trkpt lat="47.424511" lon="8.741587">
<ele>593.1</ele>
<time>2003-09-19T09:27:12Z</time>
<speed>1.4</speed>
</trkpt>
<trkpt lat="47.424457" lon="8.741538">
<ele>593.2</ele>
<time>2003-09-19T09:27:17Z</time>
<speed>1.4</speed>
</trkpt>
<trkpt lat="47.424397" lon="8.741488">
<ele>592.6</ele>
<time>2003-09-19T09:27:22Z</time>
<speed>1.1</speed>
</trkpt>
<trkpt lat="47.424349" lon="8.741441">
<ele>592.0</ele>
<time>2003-09-19T09:27:27Z</time>
<speed>1.1</speed>
</trkpt>
<trkpt lat="47.424301" lon="8.741407">
<ele>591.5</ele>
<time>2003-09-19T09:27:32Z</time>
<speed>1.4</speed>
</trkpt>
<trkpt lat="47.424248" lon="8.741346">
<ele>590.1</ele>
<time>2003-09-19T09:27:37Z</time>
<speed>1.4</speed>
</trkpt>
<trkpt lat="47.424202" lon="8.741286">
<ele>589.4</ele>
<time>2003-09-19T09:27:42Z</time>
<speed>1.1</speed>
</trkpt>
<trkpt lat="47.424149" lon="8.741223">
<ele>589.4</ele>
<time>2003-09-19T09:27:47Z</time>
<speed>1.1</speed>
</trkpt>
<trkpt lat="47.424128" lon="8.741167">
<ele>588.9</ele>
<time>2003-09-19T09:27:52Z</time>
<speed>1.1</speed>
</trkpt>
<trkpt lat="47.424081" lon="8.741106">
<ele>588.2</ele>
<time>2003-09-19T09:27:57Z</time>
<speed>1.4</speed>
</trkpt>
<trkpt lat="47.424062" lon="8.741024">
<ele>587.4</ele>
<time>2003-09-19T09:28:02Z</time>
<speed>0.8</speed>
</trkpt>
<trkpt lat="47.424047" lon="8.740967">
<ele>587.6</ele>
<time>2003-09-19T09:28:07Z</time>
<speed>0.8</speed>
</trkpt>
<trkpt lat="47.424028" lon="8.740885">
<ele>586.9</ele>
<time>2003-09-19T09:28:12Z</time>
<speed>0.8</speed>
</trkpt>
<trkpt lat="47.424014" lon="8.740802">
<ele>586.9</ele>
<time>2003-09-19T09:28:17Z</time>
<speed>1.1</speed>
</trkpt>
<trkpt lat="47.424014" lon="8.740722">
<ele>586.9</ele>
<time>2003-09-19T09:28:22Z</time>
<speed>1.1</speed>
</trkpt>
<trkpt lat="47.424012" lon="8.740654">
<ele>587.1</ele>
<time>2003-09-19T09:28:27Z</time>
<speed>1.1</speed>
</trkpt>
<trkpt lat="47.424032" lon="8.740562">
<ele>587.8</ele>
<time>2003-09-19T09:28:32Z</time>
<speed>0.8</speed>
</trkpt>
<trkpt lat="47.424030" lon="8.740495">
<ele>588.0</ele>
<time>2003-09-19T09:28:37Z</time>
<speed>0.8</speed>
</trkpt>
<trkpt lat="47.424036" lon="8.740416">
<ele>587.4</ele>
<time>2003-09-19T09:28:42Z</time>
<speed>0.8</speed>
</trkpt>
<trkpt lat="47.424065" lon="8.740368">
<ele>587.1</ele>
<time>2003-09-19T09:28:47Z</time>
<speed>0.8</speed>
</trkpt>
<trkpt lat="47.424095" lon="8.740319">
<ele>586.8</ele>
<time>2003-09-19T09:28:52Z</time>
<speed>0.8</speed>
</trkpt>
<trkpt lat="47.424129" lon="8.740284">
<ele>587.4</ele>
<time>2003-09-19T09:28:57Z</time>
<speed>1.1</speed>
</trkpt>
<trkpt lat="47.424184" lon="8.740240">
<ele>587.2</ele>
<time>2003-09-19T09:29:02Z</time>
<speed>1.4</speed>
</trkpt>
<trkpt lat="47.424238" lon="8.740196">
<ele>587.1</ele>
<time>2003-09-19T09:29:07Z</time>
<speed>1.1</speed>
</trkpt>
<trkpt lat="47.424293" lon="8.740151">
<ele>586.9</ele>
<time>2003-09-19T09:29:12Z</time>
<speed>1.1</speed>
</trkpt>
<trkpt lat="47.424341" lon="8.740105">
<ele>587.5</ele>
<time>2003-09-19T09:29:17Z</time>
<speed>1.1</speed>
</trkpt>
<trkpt lat="47.424383" lon="8.740059">
<ele>587.3</ele>
<time>2003-09-19T09:29:22Z</time>
<speed>1.1</speed>
</trkpt>
<trkpt lat="47.424420" lon="8.739984">
<ele>587.5</ele>
<time>2003-09-19T09:29:27Z</time>
<speed>1.1</speed>
</trkpt>
<trkpt lat="47.424432" lon="8.739905">
<ele>587.6</ele>
<time>2003-09-19T09:29:32Z</time>
<speed>0.8</speed>
</trkpt>
<trkpt lat="47.424432" lon="8.739825">
<ele>587.7</ele>
<time>2003-09-19T09:29:37Z</time>
<speed>1.1</speed>
</trkpt>
<trkpt lat="47.424412" lon="8.739742">
<ele>586.9</ele>
<time>2003-09-19T09:29:42Z</time>
<speed>0.8</speed>
</trkpt>
<trkpt lat="47.424379" lon="8.739669">
<ele>587.6</ele>
<time>2003-09-19T09:29:47Z</time>
<speed>0.8</speed>
</trkpt>
<trkpt lat="47.424351" lon="8.739610">
<ele>587.8</ele>
<time>2003-09-19T09:29:52Z</time>
<speed>1.1</speed>
</trkpt>
<trkpt lat="47.424332" lon="8.739526">
<ele>588.4</ele>
<time>2003-09-19T09:29:57Z</time>
<speed>0.8</speed>
</trkpt>
<trkpt lat="47.424318" lon="8.739443">
<ele>588.4</ele>
<time>2003-09-19T09:30:02Z</time>
<speed>1.1</speed>
</trkpt>
<trkpt lat="47.424286" lon="8.739356">
<ele>589.0</ele>
<time>2003-09-19T09:30:07Z</time>
<speed>1.4</speed>
</trkpt>
<trkpt lat="47.424260" lon="8.739270">
<ele>590.3</ele>
<time>2003-09-19T09:30:12Z</time>
<speed>1.1</speed>
</trkpt>
<trkpt lat="47.424240" lon="8.739185">
<ele>590.9</ele>
<time>2003-09-19T09:30:17Z</time>
<speed>1.1</speed>
</trkpt>
<trkpt lat="47.424214" lon="8.739100">
<ele>590.9</ele>
<time>2003-09-19T09:30:22Z</time>
<speed>1.1</speed>
</trkpt>
<trkpt lat="47.424194" lon="8.739029">
<ele>591.6</ele>
<time>2003-09-19T09:30:27Z</time>
<speed>1.1</speed>
</trkpt>
<trkpt lat="47.424175" lon="8.738946">
<ele>590.9</ele>
<time>2003-09-19T09:30:32Z</time>
<speed>1.1</speed>
</trkpt>
<trkpt lat="47.424161" lon="8.738864">
<ele>590.9</ele>
<time>2003-09-19T09:30:37Z</time>
<speed>1.1</speed>
</trkpt>
<trkpt lat="47.424154" lon="8.738781">
<ele>591.6</ele>
<time>2003-09-19T09:30:42Z</time>
<speed>1.1</speed>
</trkpt>
<trkpt lat="47.424141" lon="8.738698">
<ele>591.6</ele>
<time>2003-09-19T09:30:47Z</time>
<speed>1.1</speed>
</trkpt>
<trkpt lat="47.424121" lon="8.738629">
<ele>590.9</ele>
<time>2003-09-19T09:30:52Z</time>
<speed>0.8</speed>
</trkpt>
<trkpt lat="47.424107" lon="8.738559">
<ele>591.0</ele>
<time>2003-09-19T09:30:57Z</time>
<speed>1.1</speed>
</trkpt>
<trkpt lat="47.424100" lon="8.738477">
<ele>591.7</ele>
<time>2003-09-19T09:31:02Z</time>
<speed>0.8</speed>
</trkpt>
<trkpt lat="47.424081" lon="8.738379">
<ele>592.3</ele>
<time>2003-09-19T09:31:07Z</time>
<speed>1.1</speed>
</trkpt>
<trkpt lat="47.424068" lon="8.738296">
<ele>592.3</ele>
<time>2003-09-19T09:31:12Z</time>
<speed>1.1</speed>
</trkpt>
<trkpt lat="47.424060" lon="8.738229">
<ele>591.7</ele>
<time>2003-09-19T09:31:17Z</time>
<speed>0.8</speed>
</trkpt>
<trkpt lat="47.424041" lon="8.738144">
<ele>592.3</ele>
<time>2003-09-19T09:31:22Z</time>
<speed>0.8</speed>
</trkpt>
<trkpt lat="47.424027" lon="8.738075">
<ele>592.4</ele>
<time>2003-09-19T09:31:27Z</time>
<speed>1.1</speed>
</trkpt>
<trkpt lat="47.424007" lon="8.737990">
<ele>593.1</ele>
<time>2003-09-19T09:31:32Z</time>
<speed>1.4</speed>
</trkpt>
<trkpt lat="47.423982" lon="8.737892">
<ele>592.9</ele>
<time>2003-09-19T09:31:37Z</time>
<speed>0.8</speed>
</trkpt>
<trkpt lat="47.423976" lon="8.737799">
<ele>592.1</ele>
<time>2003-09-19T09:31:42Z</time>
<speed>1.4</speed>
</trkpt>
<trkpt lat="47.423977" lon="8.737705">
<ele>592.0</ele>
<time>2003-09-19T09:31:47Z</time>
<speed>1.1</speed>
</trkpt>
<trkpt lat="47.423957" lon="8.737620">
<ele>592.7</ele>
<time>2003-09-19T09:31:52Z</time>
<speed>1.1</speed>
</trkpt>
<trkpt lat="47.423933" lon="8.737523">
<ele>592.5</ele>
<time>2003-09-19T09:31:57Z</time>
<speed>0.8</speed>
</trkpt>
<trkpt lat="47.423913" lon="8.737440">
<ele>591.8</ele>
<time>2003-09-19T09:32:02Z</time>
<speed>1.1</speed>
</trkpt>
<trkpt lat="47.423900" lon="8.737357">
<ele>591.7</ele>
<time>2003-09-19T09:32:07Z</time>
<speed>1.1</speed>
</trkpt>
<trkpt lat="47.423874" lon="8.737273">
<ele>591.7</ele>
<time>2003-09-19T09:32:12Z</time>
<speed>1.4</speed>
</trkpt>
<trkpt lat="47.423829" lon="8.737184">
<ele>592.2</ele>
<time>2003-09-19T09:32:17Z</time>
<speed>1.1</speed>
</trkpt>
<trkpt lat="47.423775" lon="8.737135">
<ele>592.3</ele>
<time>2003-09-19T09:32:22Z</time>
<speed>1.1</speed>
</trkpt>
<trkpt lat="47.423741" lon="8.737089">
<ele>591.8</ele>
<time>2003-09-19T09:32:27Z</time>
<speed>1.1</speed>
</trkpt>
<trkpt lat="47.423693" lon="8.737042">
<ele>591.2</ele>
<time>2003-09-19T09:32:32Z</time>
<speed>1.1</speed>
</trkpt>
<trkpt lat="47.423659" lon="8.736984">
<ele>590.6</ele>
<time>2003-09-19T09:32:37Z</time>
<speed>0.8</speed>
</trkpt>
<trkpt lat="47.423618" lon="8.736936">
<ele>590.7</ele>
<time>2003-09-19T09:32:42Z</time>
<speed>1.1</speed>
</trkpt>
<trkpt lat="47.423564" lon="8.736889">
<ele>589.4</ele>
<time>2003-09-19T09:32:47Z</time>
<speed>1.4</speed>
</trkpt>
<trkpt lat="47.423517" lon="8.736826">
<ele>590.1</ele>
<time>2003-09-19T09:32:52Z</time>
<speed>1.1</speed>
</trkpt>
<trkpt lat="47.423464" lon="8.736779">
<ele>588.8</ele>
<time>2003-09-19T09:32:57Z</time>
<speed>1.1</speed>
</trkpt>
<trkpt lat="47.423429" lon="8.736734">
<ele>588.3</ele>
<time>2003-09-19T09:33:02Z</time>
<speed>1.1</speed>
</trkpt>
<trkpt lat="47.423388" lon="8.736673">
<ele>588.4</ele>
<time>2003-09-19T09:33:07Z</time>
<speed>0.8</speed>
</trkpt>
<trkpt lat="47.423352" lon="8.736641">
<ele>587.9</ele>
<time>2003-09-19T09:33:12Z</time>
<speed>0.8</speed>
</trkpt>
<trkpt lat="47.423323" lon="8.736609">
<ele>588.3</ele>
<time>2003-09-19T09:33:17Z</time>
<speed>0.8</speed>
</trkpt>
<trkpt lat="47.423311" lon="8.736594">
<ele>588.1</ele>
<time>2003-09-19T09:33:22Z</time>
<speed>0.0</speed>
</trkpt>
<trkpt lat="47.423306" lon="8.736581">
<ele>587.3</ele>
<time>2003-09-19T09:33:27Z</time>
<speed>0.0</speed>
</trkpt>
<trkpt lat="47.423306" lon="8.736581">
<ele>587.3</ele>
<time>2003-09-19T09:33:32Z</time>
<speed>0.0</speed>
</trkpt>
<trkpt lat="47.423299" lon="8.736579">
<ele>587.9</ele>
<time>2003-09-19T09:33:37Z</time>
<speed>0.3</speed>
</trkpt>
<trkpt lat="47.423266" lon="8.736520">
<ele>587.3</ele>
<time>2003-09-19T09:33:42Z</time>
<speed>0.8</speed>
</trkpt>
<trkpt lat="47.423242" lon="8.736488">
<ele>588.4</ele>
<time>2003-09-19T09:33:47Z</time>
<speed>0.8</speed>
</trkpt>
<trkpt lat="47.423195" lon="8.736428">
<ele>587.7</ele>
<time>2003-09-19T09:33:52Z</time>
<speed>1.4</speed>
</trkpt>
<trkpt lat="47.423155" lon="8.736369">
<ele>586.3</ele>
<time>2003-09-19T09:33:57Z</time>
<speed>1.1</speed>
</trkpt>
<trkpt lat="47.423101" lon="8.736320">
<ele>586.4</ele>
<time>2003-09-19T09:34:02Z</time>
<speed>1.1</speed>
</trkpt>
<trkpt lat="47.423048" lon="8.736272">
<ele>585.1</ele>
<time>2003-09-19T09:34:07Z</time>
<speed>1.4</speed>
</trkpt>
<trkpt lat="47.422994" lon="8.736223">
<ele>585.2</ele>
<time>2003-09-19T09:34:12Z</time>
<speed>1.1</speed>
</trkpt>
<trkpt lat="47.422942" lon="8.736147">
<ele>585.1</ele>
<time>2003-09-19T09:34:17Z</time>
<speed>1.4</speed>
</trkpt>
<trkpt lat="47.422889" lon="8.736085">
<ele>585.1</ele>
<time>2003-09-19T09:34:22Z</time>
<speed>1.1</speed>
</trkpt>
<trkpt lat="47.422849" lon="8.736027">
<ele>583.7</ele>
<time>2003-09-19T09:34:27Z</time>
<speed>1.1</speed>
</trkpt>
<trkpt lat="47.422795" lon="8.735977">
<ele>583.8</ele>
<time>2003-09-19T09:34:32Z</time>
<speed>1.1</speed>
</trkpt>
<trkpt lat="47.422734" lon="8.735928">
<ele>583.2</ele>
<time>2003-09-19T09:34:37Z</time>
<speed>1.1</speed>
</trkpt>
<trkpt lat="47.422686" lon="8.735878">
<ele>584.0</ele>
<time>2003-09-19T09:34:42Z</time>
<speed>1.1</speed>
</trkpt>
<trkpt lat="47.422652" lon="8.735833">
<ele>583.5</ele>
<time>2003-09-19T09:34:47Z</time>
<speed>0.0</speed>
</trkpt>
<trkpt lat="47.422597" lon="8.735797">
<ele>583.7</ele>
<time>2003-09-19T09:34:52Z</time>
<speed>1.1</speed>
</trkpt>
<trkpt lat="47.422536" lon="8.735748">
<ele>583.0</ele>
<time>2003-09-19T09:34:57Z</time>
<speed>1.1</speed>
</trkpt>
<trkpt lat="47.422471" lon="8.735683">
<ele>583.0</ele>
<time>2003-09-19T09:35:02Z</time>
<speed>1.4</speed>
</trkpt>
<trkpt lat="47.422396" lon="8.735643">
<ele>583.8</ele>
<time>2003-09-19T09:35:07Z</time>
<speed>1.4</speed>
</trkpt>
<trkpt lat="47.422316" lon="8.735603">
<ele>583.8</ele>
<time>2003-09-19T09:35:12Z</time>
<speed>1.4</speed>
</trkpt>
<trkpt lat="47.422259" lon="8.735608">
<ele>582.9</ele>
<time>2003-09-19T09:35:17Z</time>
<speed>1.4</speed>
</trkpt>
<trkpt lat="47.422198" lon="8.735652">
<ele>582.3</ele>
<time>2003-09-19T09:35:22Z</time>
<speed>1.4</speed>
</trkpt>
<trkpt lat="47.422144" lon="8.735698">
<ele>581.0</ele>
<time>2003-09-19T09:35:27Z</time>
<speed>1.4</speed>
</trkpt>
<trkpt lat="47.422077" lon="8.735743">
<ele>579.7</ele>
<time>2003-09-19T09:35:32Z</time>
<speed>1.4</speed>
</trkpt>
<trkpt lat="47.422011" lon="8.735772">
<ele>579.7</ele>
<time>2003-09-19T09:35:37Z</time>
<speed>1.4</speed>
</trkpt>
<trkpt lat="47.421939" lon="8.735801">
<ele>578.9</ele>
<time>2003-09-19T09:35:42Z</time>
<speed>1.4</speed>
</trkpt>
<trkpt lat="47.421880" lon="8.735819">
<ele>578.1</ele>
<time>2003-09-19T09:35:47Z</time>
<speed>1.1</speed>
</trkpt>
<trkpt lat="47.421837" lon="8.735798">
<ele>578.5</ele>
<time>2003-09-19T09:35:52Z</time>
<speed>1.1</speed>
</trkpt>
<trkpt lat="47.421792" lon="8.735711">
<ele>577.6</ele>
<time>2003-09-19T09:35:57Z</time>
<speed>1.4</speed>
</trkpt>
<trkpt lat="47.421759" lon="8.735640">
<ele>576.9</ele>
<time>2003-09-19T09:36:02Z</time>
<speed>1.1</speed>
</trkpt>
<trkpt lat="47.421714" lon="8.735566">
<ele>576.1</ele>
<time>2003-09-19T09:36:07Z</time>
<speed>1.1</speed>
</trkpt>
<trkpt lat="47.421663" lon="8.735478">
<ele>575.9</ele>
<time>2003-09-19T09:36:12Z</time>
<speed>1.1</speed>
</trkpt>
<trkpt lat="47.421630" lon="8.735406">
<ele>575.2</ele>
<time>2003-09-19T09:36:17Z</time>
<speed>1.1</speed>
</trkpt>
<trkpt lat="47.421578" lon="8.735331">
<ele>575.0</ele>
<time>2003-09-19T09:36:22Z</time>
<speed>1.4</speed>
</trkpt>
<trkpt lat="47.421545" lon="8.735259">
<ele>574.3</ele>
<time>2003-09-19T09:36:27Z</time>
<speed>1.4</speed>
</trkpt>
<trkpt lat="47.421513" lon="8.735172">
<ele>574.9</ele>
<time>2003-09-19T09:36:32Z</time>
<speed>1.1</speed>
</trkpt>
<trkpt lat="47.421500" lon="8.735090">
<ele>574.9</ele>
<time>2003-09-19T09:36:37Z</time>
<speed>0.8</speed>
</trkpt>
<trkpt lat="47.421499" lon="8.735007">
<ele>576.4</ele>
<time>2003-09-19T09:36:42Z</time>
<speed>1.1</speed>
</trkpt>
<trkpt lat="47.421513" lon="8.734902">
<ele>576.3</ele>
<time>2003-09-19T09:36:47Z</time>
<speed>1.1</speed>
</trkpt>
<trkpt lat="47.421544" lon="8.734826">
<ele>577.2</ele>
<time>2003-09-19T09:36:52Z</time>
<speed>1.1</speed>
</trkpt>
<trkpt lat="47.421581" lon="8.734753">
<ele>576.0</ele>
<time>2003-09-19T09:36:57Z</time>
<speed>1.1</speed>
</trkpt>
<trkpt lat="47.421632" lon="8.734668">
<ele>576.3</ele>
<time>2003-09-19T09:37:02Z</time>
<speed>1.1</speed>
</trkpt>
<trkpt lat="47.421682" lon="8.734595">
<ele>576.6</ele>
<time>2003-09-19T09:37:07Z</time>
<speed>1.4</speed>
</trkpt>
<trkpt lat="47.421732" lon="8.734523">
<ele>576.9</ele>
<time>2003-09-19T09:37:12Z</time>
<speed>0.8</speed>
</trkpt>
<trkpt lat="47.421777" lon="8.734437">
<ele>576.4</ele>
<time>2003-09-19T09:37:17Z</time>
<speed>1.1</speed>
</trkpt>
<trkpt lat="47.421815" lon="8.734362">
<ele>576.6</ele>
<time>2003-09-19T09:37:22Z</time>
<speed>1.1</speed>
</trkpt>
<trkpt lat="47.421865" lon="8.734290">
<ele>577.0</ele>
<time>2003-09-19T09:37:27Z</time>
<speed>1.1</speed>
</trkpt>
<trkpt lat="47.421902" lon="8.734215">
<ele>577.2</ele>
<time>2003-09-19T09:37:32Z</time>
<speed>1.1</speed>
</trkpt>
<trkpt lat="47.421929" lon="8.734112">
<ele>577.2</ele>
<time>2003-09-19T09:37:37Z</time>
<speed>1.1</speed>
</trkpt>
<trkpt lat="47.421941" lon="8.734034">
<ele>577.3</ele>
<time>2003-09-19T09:37:42Z</time>
<speed>0.6</speed>
</trkpt>
<trkpt lat="47.421933" lon="8.733964">
<ele>578.1</ele>
<time>2003-09-19T09:37:47Z</time>
<speed>0.6</speed>
</trkpt>
<trkpt lat="47.421913" lon="8.733880">
<ele>578.8</ele>
<time>2003-09-19T09:37:52Z</time>
<speed>0.8</speed>
</trkpt>
<trkpt lat="47.421900" lon="8.733797">
<ele>578.8</ele>
<time>2003-09-19T09:37:57Z</time>
<speed>0.8</speed>
</trkpt>
<trkpt lat="47.421880" lon="8.733712">
<ele>579.4</ele>
<time>2003-09-19T09:38:02Z</time>
<speed>0.8</speed>
</trkpt>
<trkpt lat="47.421862" lon="8.733617">
<ele>578.6</ele>
<time>2003-09-19T09:38:07Z</time>
<speed>0.8</speed>
</trkpt>
<trkpt lat="47.421836" lon="8.733530">
<ele>579.9</ele>
<time>2003-09-19T09:38:12Z</time>
<speed>0.8</speed>
</trkpt>
<trkpt lat="47.421824" lon="8.733434">
<ele>579.8</ele>
<time>2003-09-19T09:38:17Z</time>
<speed>0.8</speed>
</trkpt>
<trkpt lat="47.421817" lon="8.733352">
<ele>580.5</ele>
<time>2003-09-19T09:38:22Z</time>
<speed>0.8</speed>
</trkpt>
<trkpt lat="47.421850" lon="8.733249">
<ele>581.2</ele>
<time>2003-09-19T09:38:27Z</time>
<speed>0.8</speed>
</trkpt>
<trkpt lat="47.421862" lon="8.733170">
<ele>581.3</ele>
<time>2003-09-19T09:38:32Z</time>
<speed>0.6</speed>
</trkpt>
<trkpt lat="47.421847" lon="8.733099">
<ele>582.8</ele>
<time>2003-09-19T09:38:37Z</time>
<speed>0.3</speed>
</trkpt>
<trkpt lat="47.421826" lon="8.733043">
<ele>582.3</ele>
<time>2003-09-19T09:38:42Z</time>
<speed>0.3</speed>
</trkpt>
<trkpt lat="47.421793" lon="8.732969">
<ele>583.0</ele>
<time>2003-09-19T09:38:47Z</time>
<speed>0.8</speed>
</trkpt>
<trkpt lat="47.421759" lon="8.732895">
<ele>583.7</ele>
<time>2003-09-19T09:38:52Z</time>
<speed>0.3</speed>
</trkpt>
<trkpt lat="47.421718" lon="8.732848">
<ele>583.8</ele>
<time>2003-09-19T09:38:57Z</time>
<speed>0.6</speed>
</trkpt>
<trkpt lat="47.421665" lon="8.732786">
<ele>583.8</ele>
<time>2003-09-19T09:39:02Z</time>
<speed>0.6</speed>
</trkpt>
<trkpt lat="47.421587" lon="8.732721">
<ele>582.3</ele>
<time>2003-09-19T09:39:07Z</time>
<speed>0.6</speed>
</trkpt>
<trkpt lat="47.421552" lon="8.732676">
<ele>581.8</ele>
<time>2003-09-19T09:39:12Z</time>
<speed>0.3</speed>
</trkpt>
<trkpt lat="47.421531" lon="8.732619">
<ele>581.2</ele>
<time>2003-09-19T09:39:17Z</time>
<speed>0.3</speed>
</trkpt>
<trkpt lat="47.421496" lon="8.732559">
<ele>582.0</ele>
<time>2003-09-19T09:39:22Z</time>
<speed>0.3</speed>
</trkpt>
<trkpt lat="47.421431" lon="8.732497">
<ele>580.5</ele>
<time>2003-09-19T09:39:27Z</time>
<speed>0.8</speed>
</trkpt>
<trkpt lat="47.421351" lon="8.732441">
<ele>581.9</ele>
<time>2003-09-19T09:39:32Z</time>
<speed>1.1</speed>
</trkpt>
<trkpt lat="47.421267" lon="8.732375">
<ele>581.0</ele>
<time>2003-09-19T09:39:37Z</time>
<speed>1.1</speed>
</trkpt>
<trkpt lat="47.421219" lon="8.732325">
<ele>581.8</ele>
<time>2003-09-19T09:39:42Z</time>
<speed>0.3</speed>
</trkpt>
<trkpt lat="47.421173" lon="8.732250">
<ele>582.4</ele>
<time>2003-09-19T09:39:47Z</time>
<speed>0.6</speed>
</trkpt>
<trkpt lat="47.421125" lon="8.732200">
<ele>583.3</ele>
<time>2003-09-19T09:39:52Z</time>
<speed>0.6</speed>
</trkpt>
<trkpt lat="47.421070" lon="8.732164">
<ele>583.5</ele>
<time>2003-09-19T09:39:57Z</time>
<speed>0.6</speed>
</trkpt>
<trkpt lat="47.421036" lon="8.732104">
<ele>584.2</ele>
<time>2003-09-19T09:40:02Z</time>
<speed>0.6</speed>
</trkpt>
<trkpt lat="47.421009" lon="8.732032">
<ele>584.3</ele>
<time>2003-09-19T09:40:07Z</time>
<speed>0.8</speed>
</trkpt>
<trkpt lat="47.420956" lon="8.731970">
<ele>584.3</ele>
<time>2003-09-19T09:40:12Z</time>
<speed>0.6</speed>
</trkpt>
<trkpt lat="47.420898" lon="8.731894">
<ele>583.4</ele>
<time>2003-09-19T09:40:17Z</time>
<speed>0.6</speed>
</trkpt>
<trkpt lat="47.420857" lon="8.731849">
<ele>582.2</ele>
<time>2003-09-19T09:40:22Z</time>
<speed>0.3</speed>
</trkpt>
<trkpt lat="47.420803" lon="8.731800">
<ele>582.2</ele>
<time>2003-09-19T09:40:27Z</time>
<speed>0.8</speed>
</trkpt>
<trkpt lat="47.420771" lon="8.731715">
<ele>581.4</ele>
<time>2003-09-19T09:40:32Z</time>
<speed>0.8</speed>
</trkpt>
<trkpt lat="47.420719" lon="8.731639">
<ele>581.3</ele>
<time>2003-09-19T09:40:37Z</time>
<speed>0.8</speed>
</trkpt>
<trkpt lat="47.420654" lon="8.731562">
<ele>581.1</ele>
<time>2003-09-19T09:40:42Z</time>
<speed>0.8</speed>
</trkpt>
<trkpt lat="47.420651" lon="8.731521">
<ele>581.5</ele>
<time>2003-09-19T09:40:47Z</time>
<speed>0.3</speed>
</trkpt>
<trkpt lat="47.420608" lon="8.731484">
<ele>583.2</ele>
<time>2003-09-19T09:40:52Z</time>
<speed>0.3</speed>
</trkpt>
<trkpt lat="47.420567" lon="8.731422">
<ele>584.6</ele>
<time>2003-09-19T09:40:57Z</time>
<speed>0.6</speed>
</trkpt>
<trkpt lat="47.420520" lon="8.731359">
<ele>585.3</ele>
<time>2003-09-19T09:41:02Z</time>
<speed>0.8</speed>
</trkpt>
<trkpt lat="47.420486" lon="8.731284">
<ele>587.4</ele>
<time>2003-09-19T09:41:07Z</time>
<speed>0.6</speed>
</trkpt>
<trkpt lat="47.420472" lon="8.731214">
<ele>587.5</ele>
<time>2003-09-19T09:41:12Z</time>
<speed>0.3</speed>
</trkpt>
<trkpt lat="47.420439" lon="8.731143">
<ele>586.8</ele>
<time>2003-09-19T09:41:17Z</time>
<speed>0.6</speed>
</trkpt>
<trkpt lat="47.420389" lon="8.731041">
<ele>586.5</ele>
<time>2003-09-19T09:41:22Z</time>
<speed>0.6</speed>
</trkpt>
<trkpt lat="47.420382" lon="8.730958">
<ele>587.2</ele>
<time>2003-09-19T09:41:27Z</time>
<speed>0.3</speed>
</trkpt>
<trkpt lat="47.420374" lon="8.730889">
<ele>588.0</ele>
<time>2003-09-19T09:41:32Z</time>
<speed>0.6</speed>
</trkpt>
<trkpt lat="47.420389" lon="8.730865">
<ele>587.9</ele>
<time>2003-09-19T09:41:37Z</time>
<speed>0.6</speed>
</trkpt>
<trkpt lat="47.420441" lon="8.730785">
<ele>583.9</ele>
<time>2003-09-19T09:41:42Z</time>
<speed>0.8</speed>
</trkpt>
<trkpt lat="47.420484" lon="8.730743">
<ele>580.9</ele>
<time>2003-09-19T09:41:47Z</time>
<speed>0.8</speed>
</trkpt>
<trkpt lat="47.420521" lon="8.730685">
<ele>578.4</ele>
<time>2003-09-19T09:41:52Z</time>
<speed>0.8</speed>
</trkpt>
<trkpt lat="47.420514" lon="8.730618">
<ele>577.8</ele>
<time>2003-09-19T09:41:57Z</time>
<speed>0.6</speed>
</trkpt>
<trkpt lat="47.420531" lon="8.730554">
<ele>577.4</ele>
<time>2003-09-19T09:42:02Z</time>
<speed>0.6</speed>
</trkpt>
<trkpt lat="47.420532" lon="8.730463">
<ele>575.9</ele>
<time>2003-09-19T09:42:07Z</time>
<speed>0.3</speed>
</trkpt>
<trkpt lat="47.420539" lon="8.730371">
<ele>575.2</ele>
<time>2003-09-19T09:42:12Z</time>
<speed>0.6</speed>
</trkpt>
<trkpt lat="47.420510" lon="8.730262">
<ele>572.8</ele>
<time>2003-09-19T09:42:17Z</time>
<speed>0.6</speed>
</trkpt>
<trkpt lat="47.420478" lon="8.730178">
<ele>572.0</ele>
<time>2003-09-19T09:42:22Z</time>
<speed>0.6</speed>
</trkpt>
<trkpt lat="47.420478" lon="8.730099">
<ele>570.6</ele>
<time>2003-09-19T09:42:27Z</time>
<speed>0.6</speed>
</trkpt>
<trkpt lat="47.420435" lon="8.729984">
<ele>570.9</ele>
<time>2003-09-19T09:42:32Z</time>
<speed>0.8</speed>
</trkpt>
<trkpt lat="47.420411" lon="8.729888">
<ele>569.3</ele>
<time>2003-09-19T09:42:37Z</time>
<speed>0.8</speed>
</trkpt>
<trkpt lat="47.420423" lon="8.729810">
<ele>569.5</ele>
<time>2003-09-19T09:42:42Z</time>
<speed>0.6</speed>
</trkpt>
<trkpt lat="47.420403" lon="8.729740">
<ele>568.8</ele>
<time>2003-09-19T09:42:47Z</time>
<speed>0.8</speed>
</trkpt>
<trkpt lat="47.420377" lon="8.729656">
<ele>568.7</ele>
<time>2003-09-19T09:42:52Z</time>
<speed>0.6</speed>
</trkpt>
<trkpt lat="47.420362" lon="8.729599">
<ele>568.9</ele>
<time>2003-09-19T09:42:57Z</time>
<speed>0.3</speed>
</trkpt>
<trkpt lat="47.420360" lon="8.729532">
<ele>569.1</ele>
<time>2003-09-19T09:43:02Z</time>
<speed>0.6</speed>
</trkpt>
<trkpt lat="47.420333" lon="8.729460">
<ele>569.1</ele>
<time>2003-09-19T09:43:07Z</time>
<speed>0.6</speed>
</trkpt>
<trkpt lat="47.420292" lon="8.729398">
<ele>570.6</ele>
<time>2003-09-19T09:43:12Z</time>
<speed>0.8</speed>
</trkpt>
<trkpt lat="47.420273" lon="8.729313">
<ele>571.2</ele>
<time>2003-09-19T09:43:17Z</time>
<speed>0.6</speed>
</trkpt>
<trkpt lat="47.420247" lon="8.729229">
<ele>571.1</ele>
<time>2003-09-19T09:43:22Z</time>
<speed>0.8</speed>
</trkpt>
<trkpt lat="47.420233" lon="8.729159">
<ele>571.2</ele>
<time>2003-09-19T09:43:27Z</time>
<speed>0.6</speed>
</trkpt>
<trkpt lat="47.420213" lon="8.729090">
<ele>570.6</ele>
<time>2003-09-19T09:43:32Z</time>
<speed>0.8</speed>
</trkpt>
<trkpt lat="47.420187" lon="8.729007">
<ele>569.1</ele>
<time>2003-09-19T09:43:37Z</time>
<speed>0.8</speed>
</trkpt>
<trkpt lat="47.420169" lon="8.728911">
<ele>568.2</ele>
<time>2003-09-19T09:43:42Z</time>
<speed>1.1</speed>
</trkpt>
<trkpt lat="47.420130" lon="8.728840">
<ele>566.8</ele>
<time>2003-09-19T09:43:47Z</time>
<speed>0.8</speed>
</trkpt>
<trkpt lat="47.420090" lon="8.728779">
<ele>566.8</ele>
<time>2003-09-19T09:43:52Z</time>
<speed>0.8</speed>
</trkpt>
<trkpt lat="47.420029" lon="8.728743">
<ele>566.3</ele>
<time>2003-09-19T09:43:57Z</time>
<speed>0.8</speed>
</trkpt>
<trkpt lat="47.419989" lon="8.728667">
<ele>567.7</ele>
<time>2003-09-19T09:44:02Z</time>
<speed>0.6</speed>
</trkpt>
<trkpt lat="47.419941" lon="8.728618">
<ele>568.5</ele>
<time>2003-09-19T09:44:07Z</time>
<speed>0.6</speed>
</trkpt>
<trkpt lat="47.419892" lon="8.728582">
<ele>569.4</ele>
<time>2003-09-19T09:44:12Z</time>
<speed>0.6</speed>
</trkpt>
<trkpt lat="47.419845" lon="8.728519">
<ele>570.1</ele>
<time>2003-09-19T09:44:17Z</time>
<speed>0.6</speed>
</trkpt>
<trkpt lat="47.419810" lon="8.728474">
<ele>569.6</ele>
<time>2003-09-19T09:44:22Z</time>
<speed>0.3</speed>
</trkpt>
<trkpt lat="47.419756" lon="8.728427">
<ele>568.3</ele>
<time>2003-09-19T09:44:27Z</time>
<speed>0.3</speed>
</trkpt>
<trkpt lat="47.419733" lon="8.728397">
<ele>568.0</ele>
<time>2003-09-19T09:44:32Z</time>
<speed>0.0</speed>
</trkpt>
<trkpt lat="47.419714" lon="8.728395">
<ele>567.2</ele>
<time>2003-09-19T09:44:37Z</time>
<speed>0.0</speed>
</trkpt>
<trkpt lat="47.419703" lon="8.728364">
<ele>568.3</ele>
<time>2003-09-19T09:44:42Z</time>
<speed>0.0</speed>
</trkpt>
<trkpt lat="47.419691" lon="8.728347">
<ele>569.5</ele>
<time>2003-09-19T09:44:47Z</time>
<speed>0.0</speed>
</trkpt>
<trkpt lat="47.419685" lon="8.728345">
<ele>570.2</ele>
<time>2003-09-19T09:44:52Z</time>
<speed>0.0</speed>
</trkpt>
<trkpt lat="47.419671" lon="8.728356">
<ele>570.2</ele>
<time>2003-09-19T09:44:57Z</time>
<speed>0.0</speed>
</trkpt>
<trkpt lat="47.419685" lon="8.728345">
<ele>570.2</ele>
<time>2003-09-19T09:45:02Z</time>
<speed>0.0</speed>
</trkpt>
<trkpt lat="47.419684" lon="8.728358">
<ele>570.3</ele>
<time>2003-09-19T09:45:07Z</time>
<speed>0.0</speed>
</trkpt>
<trkpt lat="47.419697" lon="8.728347">
<ele>570.3</ele>
<time>2003-09-19T09:45:12Z</time>
<speed>0.0</speed>
</trkpt>
<trkpt lat="47.419703" lon="8.728347">
<ele>571.0</ele>
<time>2003-09-19T09:45:17Z</time>
<speed>0.0</speed>
</trkpt>
<trkpt lat="47.419698" lon="8.728349">
<ele>568.9</ele>
<time>2003-09-19T09:45:22Z</time>
<speed>0.0</speed>
</trkpt>
<trkpt lat="47.419699" lon="8.728336">
<ele>568.8</ele>
<time>2003-09-19T09:45:27Z</time>
<speed>0.0</speed>
</trkpt>
<trkpt lat="47.419700" lon="8.728323">
<ele>568.7</ele>
<time>2003-09-19T09:45:32Z</time>
<speed>0.0</speed>
</trkpt>
<trkpt lat="47.419701" lon="8.728310">
<ele>568.6</ele>
<time>2003-09-19T09:45:37Z</time>
<speed>0.0</speed>
</trkpt>
<trkpt lat="47.419701" lon="8.728312">
<ele>567.1</ele>
<time>2003-09-19T09:45:42Z</time>
<speed>0.0</speed>
</trkpt>
<trkpt lat="47.419700" lon="8.728325">
<ele>567.3</ele>
<time>2003-09-19T09:45:47Z</time>
<speed>0.0</speed>
</trkpt>
<trkpt lat="47.419700" lon="8.728325">
<ele>567.3</ele>
<time>2003-09-19T09:45:52Z</time>
<speed>0.0</speed>
</trkpt>
<trkpt lat="47.419701" lon="8.728312">
<ele>567.1</ele>
<time>2003-09-19T09:45:57Z</time>
<speed>0.0</speed>
</trkpt>
<trkpt lat="47.419709" lon="8.728301">
<ele>566.4</ele>
<time>2003-09-19T09:46:02Z</time>
<speed>0.0</speed>
</trkpt>
<trkpt lat="47.419709" lon="8.728301">
<ele>566.4</ele>
<time>2003-09-19T09:46:07Z</time>
<speed>0.0</speed>
</trkpt>
<trkpt lat="47.419709" lon="8.728301">
<ele>566.4</ele>
<time>2003-09-19T09:46:12Z</time>
<speed>0.0</speed>
</trkpt>
<trkpt lat="47.419709" lon="8.728286">
<ele>567.7</ele>
<time>2003-09-19T09:46:17Z</time>
<speed>0.0</speed>
</trkpt>
<trkpt lat="47.419709" lon="8.728286">
<ele>567.7</ele>
<time>2003-09-19T09:46:22Z</time>
<speed>0.0</speed>
</trkpt>
<trkpt lat="47.419709" lon="8.728286">
<ele>567.7</ele>
<time>2003-09-19T09:46:27Z</time>
<speed>0.0</speed>
</trkpt>
<trkpt lat="47.419709" lon="8.728286">
<ele>567.7</ele>
<time>2003-09-19T09:46:32Z</time>
<speed>0.0</speed>
</trkpt>
<trkpt lat="47.419709" lon="8.728286">
<ele>567.7</ele>
<time>2003-09-19T09:46:37Z</time>
<speed>0.0</speed>
</trkpt>
<trkpt lat="47.419714" lon="8.728314">
<ele>567.2</ele>
<time>2003-09-19T09:46:42Z</time>
<speed>0.0</speed>
</trkpt>
<trkpt lat="47.419714" lon="8.728314">
<ele>567.2</ele>
<time>2003-09-19T09:46:47Z</time>
<speed>0.0</speed>
</trkpt>
<trkpt lat="47.419713" lon="8.728327">
<ele>567.3</ele>
<time>2003-09-19T09:46:52Z</time>
<speed>0.0</speed>
</trkpt>
<trkpt lat="47.419713" lon="8.728327">
<ele>567.3</ele>
<time>2003-09-19T09:46:57Z</time>
<speed>0.0</speed>
</trkpt>
<trkpt lat="47.419713" lon="8.728327">
<ele>567.3</ele>
<time>2003-09-19T09:47:02Z</time>
<speed>0.0</speed>
</trkpt>
<trkpt lat="47.419706" lon="8.728325">
<ele>568.0</ele>
<time>2003-09-19T09:47:07Z</time>
<speed>0.0</speed>
</trkpt>
<trkpt lat="47.419706" lon="8.728325">
<ele>568.0</ele>
<time>2003-09-19T09:47:12Z</time>
<speed>0.0</speed>
</trkpt>
<trkpt lat="47.419706" lon="8.728325">
<ele>568.0</ele>
<time>2003-09-19T09:47:17Z</time>
<speed>0.0</speed>
</trkpt>
<trkpt lat="47.419706" lon="8.728325">
<ele>568.0</ele>
<time>2003-09-19T09:47:22Z</time>
<speed>0.0</speed>
</trkpt>
<trkpt lat="47.419707" lon="8.728312">
<ele>567.9</ele>
<time>2003-09-19T09:47:27Z</time>
<speed>0.0</speed>
</trkpt>
<trkpt lat="47.419706" lon="8.728325">
<ele>568.0</ele>
<time>2003-09-19T09:47:32Z</time>
<speed>0.0</speed>
</trkpt>
<trkpt lat="47.419706" lon="8.728325">
<ele>568.0</ele>
<time>2003-09-19T09:47:37Z</time>
<speed>0.0</speed>
</trkpt>
<trkpt lat="47.419706" lon="8.728325">
<ele>568.0</ele>
<time>2003-09-19T09:47:42Z</time>
<speed>0.0</speed>
</trkpt>
<trkpt lat="47.419705" lon="8.728338">
<ele>568.1</ele>
<time>2003-09-19T09:47:47Z</time>
<speed>0.0</speed>
</trkpt>
<trkpt lat="47.419712" lon="8.728340">
<ele>567.4</ele>
<time>2003-09-19T09:47:52Z</time>
<speed>0.0</speed>
</trkpt>
<trkpt lat="47.419705" lon="8.728338">
<ele>568.1</ele>
<time>2003-09-19T09:47:57Z</time>
<speed>0.0</speed>
</trkpt>
<trkpt lat="47.419705" lon="8.728338">
<ele>568.1</ele>
<time>2003-09-19T09:48:02Z</time>
<speed>0.0</speed>
</trkpt>
<trkpt lat="47.419713" lon="8.728312">
<ele>568.6</ele>
<time>2003-09-19T09:48:07Z</time>
<speed>0.0</speed>
</trkpt>
<trkpt lat="47.419713" lon="8.728312">
<ele>568.6</ele>
<time>2003-09-19T09:48:12Z</time>
<speed>0.0</speed>
</trkpt>
<trkpt lat="47.419695" lon="8.728295">
<ele>569.1</ele>
<time>2003-09-19T09:48:17Z</time>
<speed>0.0</speed>
</trkpt>
<trkpt lat="47.419684" lon="8.728265">
<ele>570.3</ele>
<time>2003-09-19T09:48:22Z</time>
<speed>0.0</speed>
</trkpt>
<trkpt lat="47.419684" lon="8.728265">
<ele>570.3</ele>
<time>2003-09-19T09:48:27Z</time>
<speed>0.0</speed>
</trkpt>
<trkpt lat="47.419684" lon="8.728265">
<ele>570.3</ele>
<time>2003-09-19T09:48:32Z</time>
<speed>0.0</speed>
</trkpt>
<trkpt lat="47.419684" lon="8.728265">
<ele>570.3</ele>
<time>2003-09-19T09:48:37Z</time>
<speed>0.0</speed>
</trkpt>
<trkpt lat="47.419684" lon="8.728265">
<ele>570.3</ele>
<time>2003-09-19T09:48:42Z</time>
<speed>0.0</speed>
</trkpt>
<trkpt lat="47.419685" lon="8.728252">
<ele>570.1</ele>
<time>2003-09-19T09:48:47Z</time>
<speed>0.0</speed>
</trkpt>
<trkpt lat="47.419684" lon="8.728265">
<ele>570.3</ele>
<time>2003-09-19T09:48:52Z</time>
<speed>0.0</speed>
</trkpt>
<trkpt lat="47.419684" lon="8.728265">
<ele>570.3</ele>
<time>2003-09-19T09:48:57Z</time>
<speed>0.0</speed>
</trkpt>
<trkpt lat="47.419665" lon="8.728261">
<ele>570.9</ele>
<time>2003-09-19T09:49:02Z</time>
<speed>0.3</speed>
</trkpt>
<trkpt lat="47.419627" lon="8.728257">
<ele>569.2</ele>
<time>2003-09-19T09:49:07Z</time>
<speed>0.3</speed>
</trkpt>
<trkpt lat="47.419620" lon="8.728270">
<ele>568.6</ele>
<time>2003-09-19T09:49:12Z</time>
<speed>0.0</speed>
</trkpt>
<trkpt lat="47.419612" lon="8.728296">
<ele>568.1</ele>
<time>2003-09-19T09:49:17Z</time>
<speed>0.3</speed>
</trkpt>
<trkpt lat="47.419597" lon="8.728335">
<ele>566.9</ele>
<time>2003-09-19T09:49:22Z</time>
<speed>0.3</speed>
</trkpt>
<trkpt lat="47.419590" lon="8.728348">
<ele>566.3</ele>
<time>2003-09-19T09:49:27Z</time>
<speed>0.3</speed>
</trkpt>
<trkpt lat="47.419546" lon="8.728342">
<ele>565.3</ele>
<time>2003-09-19T09:49:32Z</time>
<speed>0.6</speed>
</trkpt>
<trkpt lat="47.419489" lon="8.728334">
<ele>564.3</ele>
<time>2003-09-19T09:49:37Z</time>
<speed>0.6</speed>
</trkpt>
<trkpt lat="47.419474" lon="8.728373">
<ele>563.2</ele>
<time>2003-09-19T09:49:42Z</time>
<speed>0.3</speed>
</trkpt>
<trkpt lat="47.419441" lon="8.728396">
<ele>562.5</ele>
<time>2003-09-19T09:49:47Z</time>
<speed>0.3</speed>
</trkpt>
<trkpt lat="47.419433" lon="8.728422">
<ele>562.0</ele>
<time>2003-09-19T09:49:52Z</time>
<speed>0.0</speed>
</trkpt>
<trkpt lat="47.419433" lon="8.728422">
<ele>562.0</ele>
<time>2003-09-19T09:49:57Z</time>
<speed>0.0</speed>
</trkpt>
<trkpt lat="47.419420" lon="8.728420">
<ele>561.9</ele>
<time>2003-09-19T09:50:02Z</time>
<speed>0.0</speed>
</trkpt>
<trkpt lat="47.419425" lon="8.728433">
<ele>562.7</ele>
<time>2003-09-19T09:50:07Z</time>
<speed>0.0</speed>
</trkpt>
<trkpt lat="47.419425" lon="8.728433">
<ele>562.7</ele>
<time>2003-09-19T09:50:12Z</time>
<speed>0.0</speed>
</trkpt>
<trkpt lat="47.419405" lon="8.728444">
<ele>562.0</ele>
<time>2003-09-19T09:50:17Z</time>
<speed>0.0</speed>
</trkpt>
<trkpt lat="47.419392" lon="8.728455">
<ele>562.1</ele>
<time>2003-09-19T09:50:22Z</time>
<speed>0.0</speed>
</trkpt>
<trkpt lat="47.419402" lon="8.728498">
<ele>561.1</ele>
<time>2003-09-19T09:50:27Z</time>
<speed>0.3</speed>
</trkpt>
<trkpt lat="47.419408" lon="8.728500">
<ele>560.4</ele>
<time>2003-09-19T09:50:32Z</time>
<speed>0.0</speed>
</trkpt>
<trkpt lat="47.419407" lon="8.728514">
<ele>560.5</ele>
<time>2003-09-19T09:50:37Z</time>
<speed>0.0</speed>
</trkpt>
<trkpt lat="47.419407" lon="8.728514">
<ele>560.5</ele>
<time>2003-09-19T09:50:42Z</time>
<speed>0.0</speed>
</trkpt>
<trkpt lat="47.419424" lon="8.728542">
<ele>561.5</ele>
<time>2003-09-19T09:50:47Z</time>
<speed>0.3</speed>
</trkpt>
<trkpt lat="47.419422" lon="8.728568">
<ele>561.7</ele>
<time>2003-09-19T09:50:52Z</time>
<speed>0.0</speed>
</trkpt>
<trkpt lat="47.419445" lon="8.728613">
<ele>560.7</ele>
<time>2003-09-19T09:50:57Z</time>
<speed>0.3</speed>
</trkpt>
<trkpt lat="47.419449" lon="8.728641">
<ele>560.3</ele>
<time>2003-09-19T09:51:02Z</time>
<speed>0.0</speed>
</trkpt>
<trkpt lat="47.419449" lon="8.728641">
<ele>560.3</ele>
<time>2003-09-19T09:51:07Z</time>
<speed>0.0</speed>
</trkpt>
<trkpt lat="47.419443" lon="8.728639">
<ele>560.9</ele>
<time>2003-09-19T09:51:12Z</time>
<speed>0.0</speed>
</trkpt>
<trkpt lat="47.419442" lon="8.728653">
<ele>561.0</ele>
<time>2003-09-19T09:51:17Z</time>
<speed>0.0</speed>
</trkpt>
<trkpt lat="47.419423" lon="8.728649">
<ele>561.6</ele>
<time>2003-09-19T09:51:22Z</time>
<speed>0.3</speed>
</trkpt>
<trkpt lat="47.419410" lon="8.728647">
<ele>561.6</ele>
<time>2003-09-19T09:51:27Z</time>
<speed>0.0</speed>
</trkpt>
<trkpt lat="47.419409" lon="8.728660">
<ele>561.7</ele>
<time>2003-09-19T09:51:32Z</time>
<speed>0.3</speed>
</trkpt>
<trkpt lat="47.419406" lon="8.728697">
<ele>563.4</ele>
<time>2003-09-19T09:51:37Z</time>
<speed>0.3</speed>
</trkpt>
<trkpt lat="47.419396" lon="8.728734">
<ele>564.4</ele>
<time>2003-09-19T09:51:42Z</time>
<speed>0.3</speed>
</trkpt>
<trkpt lat="47.419393" lon="8.728771">
<ele>566.1</ele>
<time>2003-09-19T09:51:47Z</time>
<speed>0.0</speed>
</trkpt>
<trkpt lat="47.419377" lon="8.728794">
<ele>567.6</ele>
<time>2003-09-19T09:51:52Z</time>
<speed>0.0</speed>
</trkpt>
<trkpt lat="47.419370" lon="8.728805">
<ele>568.4</ele>
<time>2003-09-19T09:51:57Z</time>
<speed>0.0</speed>
</trkpt>
<trkpt lat="47.419370" lon="8.728805">
<ele>568.4</ele>
<time>2003-09-19T09:52:02Z</time>
<speed>0.0</speed>
</trkpt>
<trkpt lat="47.419370" lon="8.728805">
<ele>568.4</ele>
<time>2003-09-19T09:52:07Z</time>
<speed>0.0</speed>
</trkpt>
<trkpt lat="47.419370" lon="8.728805">
<ele>568.4</ele>
<time>2003-09-19T09:52:12Z</time>
<speed>0.0</speed>
</trkpt>
<trkpt lat="47.419370" lon="8.728805">
<ele>568.4</ele>
<time>2003-09-19T09:52:17Z</time>
<speed>0.0</speed>
</trkpt>
<trkpt lat="47.419375" lon="8.728818">
<ele>569.2</ele>
<time>2003-09-19T09:52:22Z</time>
<speed>0.3</speed>
</trkpt>
<trkpt lat="47.419378" lon="8.728857">
<ele>570.3</ele>
<time>2003-09-19T09:52:27Z</time>
<speed>0.6</speed>
</trkpt>
<trkpt lat="47.419388" lon="8.728898">
<ele>570.7</ele>
<time>2003-09-19T09:52:32Z</time>
<speed>0.3</speed>
</trkpt>
<trkpt lat="47.419376" lon="8.728881">
<ele>571.9</ele>
<time>2003-09-19T09:52:37Z</time>
<speed>0.3</speed>
</trkpt>
<trkpt lat="47.419360" lon="8.728840">
<ele>570.8</ele>
<time>2003-09-19T09:52:42Z</time>
<speed>0.6</speed>
</trkpt>
<trkpt lat="47.419348" lon="8.728825">
<ele>570.6</ele>
<time>2003-09-19T09:52:47Z</time>
<speed>0.0</speed>
</trkpt>
<trkpt lat="47.419341" lon="8.728838">
<ele>570.0</ele>
<time>2003-09-19T09:52:52Z</time>
<speed>0.3</speed>
</trkpt>
<trkpt lat="47.419341" lon="8.728838">
<ele>570.0</ele>
<time>2003-09-19T09:52:57Z</time>
<speed>0.0</speed>
</trkpt>
<trkpt lat="47.419341" lon="8.728838">
<ele>570.0</ele>
<time>2003-09-19T09:53:02Z</time>
<speed>0.0</speed>
</trkpt>
<trkpt lat="47.419318" lon="8.728825">
<ele>566.9</ele>
<time>2003-09-19T09:53:07Z</time>
<speed>0.0</speed>
</trkpt>
<trkpt lat="47.419318" lon="8.728825">
<ele>566.9</ele>
<time>2003-09-19T09:53:12Z</time>
<speed>0.0</speed>
</trkpt>
<trkpt lat="47.419305" lon="8.728823">
<ele>566.9</ele>
<time>2003-09-19T09:53:17Z</time>
<speed>0.0</speed>
</trkpt>
<trkpt lat="47.419300" lon="8.728808">
<ele>567.4</ele>
<time>2003-09-19T09:53:22Z</time>
<speed>0.0</speed>
</trkpt>
<trkpt lat="47.419292" lon="8.728757">
<ele>564.1</ele>
<time>2003-09-19T09:53:27Z</time>
<speed>0.3</speed>
</trkpt>
<trkpt lat="47.419264" lon="8.728716">
<ele>561.6</ele>
<time>2003-09-19T09:53:32Z</time>
<speed>0.6</speed>
</trkpt>
<trkpt lat="47.419252" lon="8.728701">
<ele>561.4</ele>
<time>2003-09-19T09:53:37Z</time>
<speed>0.0</speed>
</trkpt>
<trkpt lat="47.419252" lon="8.728701">
<ele>561.4</ele>
<time>2003-09-19T09:53:42Z</time>
<speed>0.3</speed>
</trkpt>
<trkpt lat="47.419235" lon="8.728686">
<ele>560.5</ele>
<time>2003-09-19T09:53:47Z</time>
<speed>0.3</speed>
</trkpt>
<trkpt lat="47.419196" lon="8.728678">
<ele>561.7</ele>
<time>2003-09-19T09:53:52Z</time>
<speed>0.8</speed>
</trkpt>
<trkpt lat="47.419178" lon="8.728661">
<ele>562.2</ele>
<time>2003-09-19T09:53:57Z</time>
<speed>0.0</speed>
</trkpt>
<trkpt lat="47.419159" lon="8.728657">
<ele>562.8</ele>
<time>2003-09-19T09:54:02Z</time>
<speed>0.6</speed>
</trkpt>
<trkpt lat="47.419111" lon="8.728607">
<ele>563.6</ele>
<time>2003-09-19T09:54:07Z</time>
<speed>0.8</speed>
</trkpt>
<trkpt lat="47.419069" lon="8.728573">
<ele>563.9</ele>
<time>2003-09-19T09:54:12Z</time>
<speed>0.8</speed>
</trkpt>
<trkpt lat="47.419023" lon="8.728498">
<ele>564.5</ele>
<time>2003-09-19T09:54:17Z</time>
<speed>0.8</speed>
</trkpt>
<trkpt lat="47.418964" lon="8.728420">
<ele>565.0</ele>
<time>2003-09-19T09:54:22Z</time>
<speed>1.1</speed>
</trkpt>
<trkpt lat="47.418897" lon="8.728369">
<ele>565.1</ele>
<time>2003-09-19T09:54:27Z</time>
<speed>0.8</speed>
</trkpt>
<trkpt lat="47.418859" lon="8.728361">
<ele>566.3</ele>
<time>2003-09-19T09:54:32Z</time>
<speed>0.6</speed>
</trkpt>
<trkpt lat="47.418815" lon="8.728353">
<ele>566.7</ele>
<time>2003-09-19T09:54:37Z</time>
<speed>0.8</speed>
</trkpt>
<trkpt lat="47.418778" lon="8.728318">
<ele>567.7</ele>
<time>2003-09-19T09:54:42Z</time>
<speed>0.3</speed>
</trkpt>
<trkpt lat="47.418703" lon="8.728291">
<ele>568.6</ele>
<time>2003-09-19T09:54:47Z</time>
<speed>1.4</speed>
</trkpt>
<trkpt lat="47.418625" lon="8.728320">
<ele>567.1</ele>
<time>2003-09-19T09:54:52Z</time>
<speed>0.8</speed>
</trkpt>
<trkpt lat="47.418551" lon="8.728282">
<ele>566.5</ele>
<time>2003-09-19T09:54:57Z</time>
<speed>0.8</speed>
</trkpt>
<trkpt lat="47.418502" lon="8.728246">
<ele>567.4</ele>
<time>2003-09-19T09:55:02Z</time>
<speed>0.8</speed>
</trkpt>
<trkpt lat="47.418439" lon="8.728236">
<ele>567.1</ele>
<time>2003-09-19T09:55:07Z</time>
<speed>1.1</speed>
</trkpt>
<trkpt lat="47.418340" lon="8.728211">
<ele>563.7</ele>
<time>2003-09-19T09:55:12Z</time>
<speed>1.1</speed>
</trkpt>
<trkpt lat="47.418290" lon="8.728190">
<ele>563.3</ele>
<time>2003-09-19T09:55:17Z</time>
<speed>0.8</speed>
</trkpt>
<trkpt lat="47.418221" lon="8.728179">
<ele>562.2</ele>
<time>2003-09-19T09:55:22Z</time>
<speed>0.8</speed>
</trkpt>
<trkpt lat="47.418165" lon="8.728156">
<ele>562.5</ele>
<time>2003-09-19T09:55:27Z</time>
<speed>0.8</speed>
</trkpt>
<trkpt lat="47.418110" lon="8.728122">
<ele>561.3</ele>
<time>2003-09-19T09:55:32Z</time>
<speed>0.8</speed>
</trkpt>
<trkpt lat="47.418029" lon="8.728097">
<ele>560.1</ele>
<time>2003-09-19T09:55:37Z</time>
<speed>1.1</speed>
</trkpt>
<trkpt lat="47.417957" lon="8.728046">
<ele>559.3</ele>
<time>2003-09-19T09:55:42Z</time>
<speed>0.8</speed>
</trkpt>
<trkpt lat="47.417902" lon="8.728009">
<ele>559.5</ele>
<time>2003-09-19T09:55:47Z</time>
<speed>0.8</speed>
</trkpt>
<trkpt lat="47.417851" lon="8.728001">
<ele>559.3</ele>
<time>2003-09-19T09:55:52Z</time>
<speed>0.6</speed>
</trkpt>
<trkpt lat="47.417801" lon="8.727978">
<ele>560.3</ele>
<time>2003-09-19T09:55:57Z</time>
<speed>1.1</speed>
</trkpt>
<trkpt lat="47.417744" lon="8.727968">
<ele>560.7</ele>
<time>2003-09-19T09:56:02Z</time>
<speed>1.1</speed>
</trkpt>
<trkpt lat="47.417686" lon="8.727971">
<ele>561.2</ele>
<time>2003-09-19T09:56:07Z</time>
<speed>1.1</speed>
</trkpt>
<trkpt lat="47.417642" lon="8.727965">
<ele>560.3</ele>
<time>2003-09-19T09:56:12Z</time>
<speed>0.8</speed>
</trkpt>
<trkpt lat="47.417584" lon="8.727968">
<ele>560.8</ele>
<time>2003-09-19T09:56:17Z</time>
<speed>0.8</speed>
</trkpt>
<trkpt lat="47.417515" lon="8.727958">
<ele>559.7</ele>
<time>2003-09-19T09:56:22Z</time>
<speed>0.8</speed>
</trkpt>
<trkpt lat="47.417446" lon="8.727950">
<ele>557.2</ele>
<time>2003-09-19T09:56:27Z</time>
<speed>1.1</speed>
</trkpt>
<trkpt lat="47.417370" lon="8.727955">
<ele>554.1</ele>
<time>2003-09-19T09:56:32Z</time>
<speed>1.1</speed>
</trkpt>
<trkpt lat="47.417313" lon="8.727947">
<ele>553.1</ele>
<time>2003-09-19T09:56:37Z</time>
<speed>0.8</speed>
</trkpt>
<trkpt lat="47.417258" lon="8.727909">
<ele>554.7</ele>
<time>2003-09-19T09:56:42Z</time>
<speed>0.8</speed>
</trkpt>
<trkpt lat="47.417202" lon="8.727983">
<ele>552.2</ele>
<time>2003-09-19T09:56:47Z</time>
<speed>1.4</speed>
</trkpt>
<trkpt lat="47.417164" lon="8.728088">
<ele>549.4</ele>
<time>2003-09-19T09:56:52Z</time>
<speed>0.8</speed>
</trkpt>
<trkpt lat="47.417107" lon="8.728174">
<ele>548.4</ele>
<time>2003-09-19T09:56:57Z</time>
<speed>0.8</speed>
</trkpt>
<trkpt lat="47.417072" lon="8.728224">
<ele>546.5</ele>
<time>2003-09-19T09:57:02Z</time>
<speed>0.8</speed>
</trkpt>
<trkpt lat="47.417042" lon="8.728288">
<ele>545.5</ele>
<time>2003-09-19T09:57:07Z</time>
<speed>0.6</speed>
</trkpt>
<trkpt lat="47.417032" lon="8.728342">
<ele>543.8</ele>
<time>2003-09-19T09:57:12Z</time>
<speed>0.3</speed>
</trkpt>
<trkpt lat="47.417039" lon="8.728425">
<ele>543.1</ele>
<time>2003-09-19T09:57:17Z</time>
<speed>1.1</speed>
</trkpt>
<trkpt lat="47.417046" lon="8.728505">
<ele>543.7</ele>
<time>2003-09-19T09:57:22Z</time>
<speed>0.6</speed>
</trkpt>
<trkpt lat="47.417042" lon="8.728560">
<ele>542.7</ele>
<time>2003-09-19T09:57:27Z</time>
<speed>0.8</speed>
</trkpt>
<trkpt lat="47.417011" lon="8.728651">
<ele>540.5</ele>
<time>2003-09-19T09:57:32Z</time>
<speed>0.6</speed>
</trkpt>
<trkpt lat="47.417006" lon="8.728719">
<ele>539.6</ele>
<time>2003-09-19T09:57:37Z</time>
<speed>0.6</speed>
</trkpt>
<trkpt lat="47.416997" lon="8.728773">
<ele>537.9</ele>
<time>2003-09-19T09:57:42Z</time>
<speed>0.8</speed>
</trkpt>
<trkpt lat="47.416986" lon="8.728841">
<ele>536.3</ele>
<time>2003-09-19T09:57:47Z</time>
<speed>0.6</speed>
</trkpt>
<trkpt lat="47.416968" lon="8.728841">
<ele>534.1</ele>
<time>2003-09-19T09:57:52Z</time>
<speed>0.6</speed>
</trkpt>
<trkpt lat="47.416930" lon="8.728820">
<ele>535.2</ele>
<time>2003-09-19T09:57:57Z</time>
<speed>0.8</speed>
</trkpt>
<trkpt lat="47.416911" lon="8.728816">
<ele>535.8</ele>
<time>2003-09-19T09:58:02Z</time>
<speed>0.0</speed>
</trkpt>
<trkpt lat="47.416886" lon="8.728809">
<ele>537.0</ele>
<time>2003-09-19T09:58:07Z</time>
<speed>0.3</speed>
</trkpt>
<trkpt lat="47.416868" lon="8.728794">
<ele>536.1</ele>
<time>2003-09-19T09:58:12Z</time>
<speed>0.0</speed>
</trkpt>
<trkpt lat="47.416844" lon="8.728777">
<ele>535.9</ele>
<time>2003-09-19T09:58:17Z</time>
<speed>0.3</speed>
</trkpt>
<trkpt lat="47.416831" lon="8.728775">
<ele>535.8</ele>
<time>2003-09-19T09:58:22Z</time>
<speed>0.3</speed>
</trkpt>
<trkpt lat="47.416814" lon="8.728745">
<ele>536.2</ele>
<time>2003-09-19T09:58:27Z</time>
<speed>0.3</speed>
</trkpt>
<trkpt lat="47.416777" lon="8.728711">
<ele>537.2</ele>
<time>2003-09-19T09:58:32Z</time>
<speed>0.6</speed>
</trkpt>
<trkpt lat="47.416757" lon="8.728720">
<ele>537.9</ele>
<time>2003-09-19T09:58:37Z</time>
<speed>0.6</speed>
</trkpt>
<trkpt lat="47.416713" lon="8.728712">
<ele>538.4</ele>
<time>2003-09-19T09:58:42Z</time>
<speed>0.6</speed>
</trkpt>
<trkpt lat="47.416678" lon="8.728747">
<ele>537.8</ele>
<time>2003-09-19T09:58:47Z</time>
<speed>0.8</speed>
</trkpt>
<trkpt lat="47.416644" lon="8.728797">
<ele>536.0</ele>
<time>2003-09-19T09:58:52Z</time>
<speed>0.6</speed>
</trkpt>
<trkpt lat="47.416603" lon="8.728831">
<ele>536.1</ele>
<time>2003-09-19T09:58:57Z</time>
<speed>0.6</speed>
</trkpt>
<trkpt lat="47.416568" lon="8.728866">
<ele>535.5</ele>
<time>2003-09-19T09:59:02Z</time>
<speed>0.3</speed>
</trkpt>
<trkpt lat="47.416548" lon="8.728875">
<ele>536.2</ele>
<time>2003-09-19T09:59:07Z</time>
<speed>0.8</speed>
</trkpt>
<trkpt lat="47.416515" lon="8.728880">
<ele>538.2</ele>
<time>2003-09-19T09:59:12Z</time>
<speed>0.6</speed>
</trkpt>
<trkpt lat="47.416457" lon="8.728883">
<ele>538.7</ele>
<time>2003-09-19T09:59:17Z</time>
<speed>0.8</speed>
</trkpt>
<trkpt lat="47.416405" lon="8.728888">
<ele>538.6</ele>
<time>2003-09-19T09:59:22Z</time>
<speed>0.8</speed>
</trkpt>
<trkpt lat="47.416371" lon="8.728908">
<ele>539.3</ele>
<time>2003-09-19T09:59:27Z</time>
<speed>0.3</speed>
</trkpt>
<trkpt lat="47.416339" lon="8.728915">
<ele>540.0</ele>
<time>2003-09-19T09:59:32Z</time>
<speed>0.6</speed>
</trkpt>
<trkpt lat="47.416318" lon="8.728925">
<ele>540.7</ele>
<time>2003-09-19T09:59:37Z</time>
<speed>0.3</speed>
</trkpt>
<trkpt lat="47.416299" lon="8.728921">
<ele>541.3</ele>
<time>2003-09-19T09:59:42Z</time>
<speed>0.3</speed>
</trkpt>
<trkpt lat="47.416272" lon="8.728943">
<ele>541.3</ele>
<time>2003-09-19T09:59:47Z</time>
<speed>0.6</speed>
</trkpt>
<trkpt lat="47.416231" lon="8.728976">
<ele>541.4</ele>
<time>2003-09-19T09:59:52Z</time>
<speed>0.3</speed>
</trkpt>
<trkpt lat="47.416198" lon="8.728983">
<ele>542.1</ele>
<time>2003-09-19T09:59:57Z</time>
<speed>0.6</speed>
</trkpt>
<trkpt lat="47.416160" lon="8.728977">
<ele>541.9</ele>
<time>2003-09-19T10:00:02Z</time>
<speed>0.6</speed>
</trkpt>
<trkpt lat="47.416121" lon="8.728984">
<ele>541.8</ele>
<time>2003-09-19T10:00:07Z</time>
<speed>0.6</speed>
</trkpt>
<trkpt lat="47.416075" lon="8.729000">
<ele>543.8</ele>
<time>2003-09-19T10:00:12Z</time>
<speed>0.3</speed>
</trkpt>
<trkpt lat="47.416075" lon="8.729000">
<ele>543.8</ele>
<time>2003-09-19T10:00:17Z</time>
<speed>0.0</speed>
</trkpt>
<trkpt lat="47.416026" lon="8.728964">
<ele>544.8</ele>
<time>2003-09-19T10:00:22Z</time>
<speed>0.8</speed>
</trkpt>
<trkpt lat="47.415976" lon="8.728926">
<ele>547.1</ele>
<time>2003-09-19T10:00:27Z</time>
<speed>0.8</speed>
</trkpt>
<trkpt lat="47.415946" lon="8.728891">
<ele>548.8</ele>
<time>2003-09-19T10:00:32Z</time>
<speed>0.6</speed>
</trkpt>
<trkpt lat="47.415916" lon="8.728859">
<ele>549.2</ele>
<time>2003-09-19T10:00:37Z</time>
<speed>0.6</speed>
</trkpt>
<trkpt lat="47.415868" lon="8.728810">
<ele>550.0</ele>
<time>2003-09-19T10:00:42Z</time>
<speed>0.6</speed>
</trkpt>
<trkpt lat="47.415826" lon="8.728761">
<ele>551.6</ele>
<time>2003-09-19T10:00:47Z</time>
<speed>0.8</speed>
</trkpt>
<trkpt lat="47.415777" lon="8.728724">
<ele>552.5</ele>
<time>2003-09-19T10:00:52Z</time>
<speed>0.6</speed>
</trkpt>
<trkpt lat="47.415729" lon="8.728675">
<ele>553.3</ele>
<time>2003-09-19T10:00:57Z</time>
<speed>1.1</speed>
</trkpt>
<trkpt lat="47.415693" lon="8.728641">
<ele>554.3</ele>
<time>2003-09-19T10:01:02Z</time>
<speed>0.8</speed>
</trkpt>
<trkpt lat="47.415653" lon="8.728580">
<ele>554.4</ele>
<time>2003-09-19T10:01:07Z</time>
<speed>0.6</speed>
</trkpt>
<trkpt lat="47.415616" lon="8.728546">
<ele>555.4</ele>
<time>2003-09-19T10:01:12Z</time>
<speed>0.8</speed>
</trkpt>
<trkpt lat="47.415606" lon="8.728503">
<ele>556.4</ele>
<time>2003-09-19T10:01:17Z</time>
<speed>0.6</speed>
</trkpt>
<trkpt lat="47.415554" lon="8.728425">
<ele>557.7</ele>
<time>2003-09-19T10:01:22Z</time>
<speed>1.1</speed>
</trkpt>
<trkpt lat="47.415533" lon="8.728356">
<ele>557.0</ele>
<time>2003-09-19T10:01:27Z</time>
<speed>1.1</speed>
</trkpt>
<trkpt lat="47.415512" lon="8.728297">
<ele>557.9</ele>
<time>2003-09-19T10:01:32Z</time>
<speed>0.6</speed>
</trkpt>
<trkpt lat="47.415483" lon="8.728252">
<ele>558.1</ele>
<time>2003-09-19T10:01:37Z</time>
<speed>0.8</speed>
</trkpt>
<trkpt lat="47.415462" lon="8.728180">
<ele>558.9</ele>
<time>2003-09-19T10:01:42Z</time>
<speed>1.1</speed>
</trkpt>
<trkpt lat="47.415434" lon="8.728122">
<ele>559.0</ele>
<time>2003-09-19T10:01:47Z</time>
<speed>1.1</speed>
</trkpt>
<trkpt lat="47.415397" lon="8.728022">
<ele>558.8</ele>
<time>2003-09-19T10:01:52Z</time>
<speed>1.4</speed>
</trkpt>
<trkpt lat="47.415346" lon="8.727934">
<ele>558.5</ele>
<time>2003-09-19T10:01:57Z</time>
<speed>1.4</speed>
</trkpt>
<trkpt lat="47.415300" lon="8.727860">
<ele>557.8</ele>
<time>2003-09-19T10:02:02Z</time>
<speed>1.4</speed>
</trkpt>
<trkpt lat="47.415286" lon="8.727806">
<ele>556.5</ele>
<time>2003-09-19T10:02:07Z</time>
<speed>0.8</speed>
</trkpt>
<trkpt lat="47.415251" lon="8.727745">
<ele>557.3</ele>
<time>2003-09-19T10:02:12Z</time>
<speed>0.8</speed>
</trkpt>
<trkpt lat="47.415230" lon="8.727689">
<ele>556.8</ele>
<time>2003-09-19T10:02:17Z</time>
<speed>0.6</speed>
</trkpt>
<trkpt lat="47.415215" lon="8.727632">
<ele>557.0</ele>
<time>2003-09-19T10:02:22Z</time>
<speed>0.6</speed>
</trkpt>
<trkpt lat="47.415201" lon="8.727563">
<ele>557.1</ele>
<time>2003-09-19T10:02:27Z</time>
<speed>0.8</speed>
</trkpt>
<trkpt lat="47.415173" lon="8.727505">
<ele>557.2</ele>
<time>2003-09-19T10:02:32Z</time>
<speed>0.6</speed>
</trkpt>
<trkpt lat="47.415159" lon="8.727435">
<ele>557.3</ele>
<time>2003-09-19T10:02:37Z</time>
<speed>0.6</speed>
</trkpt>
<trkpt lat="47.415140" lon="8.727352">
<ele>556.5</ele>
<time>2003-09-19T10:02:42Z</time>
<speed>0.8</speed>
</trkpt>
<trkpt lat="47.415120" lon="8.727268">
<ele>557.2</ele>
<time>2003-09-19T10:02:47Z</time>
<speed>0.8</speed>
</trkpt>
<trkpt lat="47.415121" lon="8.727174">
<ele>557.1</ele>
<time>2003-09-19T10:02:52Z</time>
<speed>0.6</speed>
</trkpt>
<trkpt lat="47.415139" lon="8.727098">
<ele>556.6</ele>
<time>2003-09-19T10:02:57Z</time>
<speed>0.3</speed>
</trkpt>
<trkpt lat="47.415131" lon="8.727028">
<ele>557.4</ele>
<time>2003-09-19T10:03:02Z</time>
<speed>0.8</speed>
</trkpt>
<trkpt lat="47.415125" lon="8.726932">
<ele>558.0</ele>
<time>2003-09-19T10:03:07Z</time>
<speed>0.8</speed>
</trkpt>
<trkpt lat="47.415132" lon="8.726839">
<ele>558.7</ele>
<time>2003-09-19T10:03:12Z</time>
<speed>0.6</speed>
</trkpt>
<trkpt lat="47.415149" lon="8.726773">
<ele>559.7</ele>
<time>2003-09-19T10:03:17Z</time>
<speed>0.3</speed>
</trkpt>
<trkpt lat="47.415148" lon="8.726693">
<ele>559.7</ele>
<time>2003-09-19T10:03:22Z</time>
<speed>0.6</speed>
</trkpt>
<trkpt lat="47.415146" lon="8.726560">
<ele>558.6</ele>
<time>2003-09-19T10:03:27Z</time>
<speed>0.8</speed>
</trkpt>
<trkpt lat="47.415142" lon="8.726440">
<ele>557.6</ele>
<time>2003-09-19T10:03:32Z</time>
<speed>0.8</speed>
</trkpt>
<trkpt lat="47.415113" lon="8.726314">
<ele>557.9</ele>
<time>2003-09-19T10:03:37Z</time>
<speed>1.1</speed>
</trkpt>
<trkpt lat="47.415062" lon="8.726225">
<ele>557.7</ele>
<time>2003-09-19T10:03:42Z</time>
<speed>0.8</speed>
</trkpt>
<trkpt lat="47.415009" lon="8.726148">
<ele>559.0</ele>
<time>2003-09-19T10:03:47Z</time>
<speed>0.8</speed>
</trkpt>
<trkpt lat="47.414963" lon="8.726070">
<ele>561.0</ele>
<time>2003-09-19T10:03:52Z</time>
<speed>0.6</speed>
</trkpt>
<trkpt lat="47.414900" lon="8.725964">
<ele>562.0</ele>
<time>2003-09-19T10:03:57Z</time>
<speed>1.1</speed>
</trkpt>
<trkpt lat="47.414848" lon="8.725891">
<ele>560.5</ele>
<time>2003-09-19T10:04:02Z</time>
<speed>0.8</speed>
</trkpt>
<trkpt lat="47.414795" lon="8.725828">
<ele>560.5</ele>
<time>2003-09-19T10:04:07Z</time>
<speed>0.6</speed>
</trkpt>
<trkpt lat="47.414755" lon="8.725768">
<ele>560.6</ele>
<time>2003-09-19T10:04:12Z</time>
<speed>0.3</speed>
</trkpt>
<trkpt lat="47.414683" lon="8.725688">
<ele>561.1</ele>
<time>2003-09-19T10:04:17Z</time>
<speed>0.8</speed>
</trkpt>
<trkpt lat="47.414636" lon="8.725626">
<ele>561.8</ele>
<time>2003-09-19T10:04:22Z</time>
<speed>0.8</speed>
</trkpt>
<trkpt lat="47.414603" lon="8.725552">
<ele>562.5</ele>
<time>2003-09-19T10:04:27Z</time>
<speed>0.3</speed>
</trkpt>
<trkpt lat="47.414580" lon="8.725507">
<ele>563.4</ele>
<time>2003-09-19T10:04:32Z</time>
<speed>0.6</speed>
</trkpt>
<trkpt lat="47.414587" lon="8.725431">
<ele>561.4</ele>
<time>2003-09-19T10:04:37Z</time>
<speed>1.1</speed>
</trkpt>
<trkpt lat="47.414588" lon="8.725339">
<ele>560.0</ele>
<time>2003-09-19T10:04:42Z</time>
<speed>0.8</speed>
</trkpt>
<trkpt lat="47.414586" lon="8.725271">
<ele>560.1</ele>
<time>2003-09-19T10:04:47Z</time>
<speed>0.6</speed>
</trkpt>
<trkpt lat="47.414574" lon="8.725191">
<ele>558.7</ele>
<time>2003-09-19T10:04:52Z</time>
<speed>0.8</speed>
</trkpt>
<trkpt lat="47.414543" lon="8.725093">
<ele>557.8</ele>
<time>2003-09-19T10:04:57Z</time>
<speed>0.6</speed>
</trkpt>
<trkpt lat="47.414505" lon="8.725009">
<ele>556.2</ele>
<time>2003-09-19T10:05:02Z</time>
<speed>0.8</speed>
</trkpt>
<trkpt lat="47.414472" lon="8.724937">
<ele>555.5</ele>
<time>2003-09-19T10:05:07Z</time>
<speed>0.6</speed>
</trkpt>
<trkpt lat="47.414420" lon="8.724861">
<ele>555.4</ele>
<time>2003-09-19T10:05:12Z</time>
<speed>0.6</speed>
</trkpt>
<trkpt lat="47.414339" lon="8.724758">
<ele>552.8</ele>
<time>2003-09-19T10:05:17Z</time>
<speed>0.8</speed>
</trkpt>
<trkpt lat="47.414317" lon="8.724714">
<ele>552.3</ele>
<time>2003-09-19T10:05:22Z</time>
<speed>1.1</speed>
</trkpt>
<trkpt lat="47.414259" lon="8.724639">
<ele>551.5</ele>
<time>2003-09-19T10:05:27Z</time>
<speed>0.8</speed>
</trkpt>
<trkpt lat="47.414179" lon="8.724586">
<ele>551.5</ele>
<time>2003-09-19T10:05:32Z</time>
<speed>0.8</speed>
</trkpt>
<trkpt lat="47.414108" lon="8.724521">
<ele>550.6</ele>
<time>2003-09-19T10:05:37Z</time>
<speed>0.8</speed>
</trkpt>
<trkpt lat="47.414023" lon="8.724455">
<ele>549.8</ele>
<time>2003-09-19T10:05:42Z</time>
<speed>1.4</speed>
</trkpt>
<trkpt lat="47.413956" lon="8.724403">
<ele>549.8</ele>
<time>2003-09-19T10:05:47Z</time>
<speed>1.1</speed>
</trkpt>
<trkpt lat="47.413896" lon="8.724354">
<ele>549.1</ele>
<time>2003-09-19T10:05:52Z</time>
<speed>1.1</speed>
</trkpt>
<trkpt lat="47.413847" lon="8.724318">
<ele>550.1</ele>
<time>2003-09-19T10:05:57Z</time>
<speed>0.8</speed>
</trkpt>
<trkpt lat="47.413790" lon="8.724308">
<ele>550.5</ele>
<time>2003-09-19T10:06:02Z</time>
<speed>0.8</speed>
</trkpt>
<trkpt lat="47.413728" lon="8.724282">
<ele>551.4</ele>
<time>2003-09-19T10:06:07Z</time>
<speed>0.8</speed>
</trkpt>
<trkpt lat="47.413659" lon="8.724257">
<ele>551.7</ele>
<time>2003-09-19T10:06:12Z</time>
<speed>1.1</speed>
</trkpt>
<trkpt lat="47.413583" lon="8.724245">
<ele>551.3</ele>
<time>2003-09-19T10:06:17Z</time>
<speed>1.1</speed>
</trkpt>
<trkpt lat="47.413518" lon="8.724279">
<ele>548.4</ele>
<time>2003-09-19T10:06:22Z</time>
<speed>1.1</speed>
</trkpt>
<trkpt lat="47.413466" lon="8.724299">
<ele>546.9</ele>
<time>2003-09-19T10:06:27Z</time>
<speed>0.6</speed>
</trkpt>
<trkpt lat="47.413401" lon="8.724317">
<ele>545.4</ele>
<time>2003-09-19T10:06:32Z</time>
<speed>1.1</speed>
</trkpt>
<trkpt lat="47.413335" lon="8.724346">
<ele>545.4</ele>
<time>2003-09-19T10:06:37Z</time>
<speed>1.1</speed>
</trkpt>
<trkpt lat="47.413263" lon="8.724375">
<ele>544.6</ele>
<time>2003-09-19T10:06:42Z</time>
<speed>0.8</speed>
</trkpt>
<trkpt lat="47.413184" lon="8.724405">
<ele>543.1</ele>
<time>2003-09-19T10:06:47Z</time>
<speed>1.4</speed>
</trkpt>
<trkpt lat="47.413112" lon="8.724449">
<ele>541.0</ele>
<time>2003-09-19T10:06:52Z</time>
<speed>1.1</speed>
</trkpt>
<trkpt lat="47.413046" lon="8.724465">
<ele>540.9</ele>
<time>2003-09-19T10:06:57Z</time>
<speed>1.1</speed>
</trkpt>
<trkpt lat="47.412982" lon="8.724483">
<ele>539.4</ele>
<time>2003-09-19T10:07:02Z</time>
<speed>1.1</speed>
</trkpt>
<trkpt lat="47.412926" lon="8.724556">
<ele>538.3</ele>
<time>2003-09-19T10:07:07Z</time>
<speed>1.1</speed>
</trkpt>
<trkpt lat="47.412861" lon="8.724574">
<ele>536.8</ele>
<time>2003-09-19T10:07:12Z</time>
<speed>1.1</speed>
</trkpt>
<trkpt lat="47.412802" lon="8.724592">
<ele>536.0</ele>
<time>2003-09-19T10:07:17Z</time>
<speed>1.1</speed>
</trkpt>
<trkpt lat="47.412724" lon="8.724606">
<ele>535.8</ele>
<time>2003-09-19T10:07:22Z</time>
<speed>1.1</speed>
</trkpt>
<trkpt lat="47.412654" lon="8.724607">
<ele>536.2</ele>
<time>2003-09-19T10:07:27Z</time>
<speed>1.1</speed>
</trkpt>
<trkpt lat="47.412596" lon="8.724610">
<ele>536.7</ele>
<time>2003-09-19T10:07:32Z</time>
<speed>0.8</speed>
</trkpt>
<trkpt lat="47.412536" lon="8.724640">
<ele>537.4</ele>
<time>2003-09-19T10:07:37Z</time>
<speed>1.1</speed>
</trkpt>
<trkpt lat="47.412483" lon="8.724658">
<ele>537.4</ele>
<time>2003-09-19T10:07:42Z</time>
<speed>0.8</speed>
</trkpt>
<trkpt lat="47.412445" lon="8.724652">
<ele>537.2</ele>
<time>2003-09-19T10:07:47Z</time>
<speed>0.6</speed>
</trkpt>
<trkpt lat="47.412381" lon="8.724657">
<ele>535.5</ele>
<time>2003-09-19T10:07:52Z</time>
<speed>0.8</speed>
</trkpt>
<trkpt lat="47.412315" lon="8.724669">
<ele>538.2</ele>
<time>2003-09-19T10:07:57Z</time>
<speed>0.8</speed>
</trkpt>
<trkpt lat="47.412248" lon="8.724711">
<ele>538.3</ele>
<time>2003-09-19T10:08:02Z</time>
<speed>0.8</speed>
</trkpt>
<trkpt lat="47.412211" lon="8.724786">
<ele>538.0</ele>
<time>2003-09-19T10:08:07Z</time>
<speed>0.8</speed>
</trkpt>
<trkpt lat="47.412156" lon="8.724830">
<ele>538.2</ele>
<time>2003-09-19T10:08:12Z</time>
<speed>0.8</speed>
</trkpt>
<trkpt lat="47.412085" lon="8.724844">
<ele>538.7</ele>
<time>2003-09-19T10:08:17Z</time>
<speed>1.1</speed>
</trkpt>
<trkpt lat="47.412013" lon="8.724860">
<ele>537.8</ele>
<time>2003-09-19T10:08:22Z</time>
<speed>1.1</speed>
</trkpt>
<trkpt lat="47.411937" lon="8.724861">
<ele>537.5</ele>
<time>2003-09-19T10:08:27Z</time>
<speed>1.4</speed>
</trkpt>
<trkpt lat="47.411854" lon="8.724862">
<ele>536.5</ele>
<time>2003-09-19T10:08:32Z</time>
<speed>1.4</speed>
</trkpt>
<trkpt lat="47.411776" lon="8.724861">
<ele>537.6</ele>
<time>2003-09-19T10:08:37Z</time>
<speed>0.8</speed>
</trkpt>
<trkpt lat="47.411706" lon="8.724865">
<ele>536.6</ele>
<time>2003-09-19T10:08:42Z</time>
<speed>1.4</speed>
</trkpt>
<trkpt lat="47.411634" lon="8.724894">
<ele>535.9</ele>
<time>2003-09-19T10:08:47Z</time>
<speed>1.4</speed>
</trkpt>
<trkpt lat="47.411590" lon="8.724983">
<ele>533.6</ele>
<time>2003-09-19T10:08:52Z</time>
<speed>1.4</speed>
</trkpt>
<trkpt lat="47.411542" lon="8.725032">
<ele>531.6</ele>
<time>2003-09-19T10:08:57Z</time>
<speed>1.1</speed>
</trkpt>
<trkpt lat="47.411488" lon="8.725078">
<ele>530.4</ele>
<time>2003-09-19T10:09:02Z</time>
<speed>1.1</speed>
</trkpt>
<trkpt lat="47.411422" lon="8.725105">
<ele>531.7</ele>
<time>2003-09-19T10:09:07Z</time>
<speed>1.1</speed>
</trkpt>
<trkpt lat="47.411358" lon="8.725108">
<ele>531.5</ele>
<time>2003-09-19T10:09:12Z</time>
<speed>1.4</speed>
</trkpt>
<trkpt lat="47.411286" lon="8.725125">
<ele>530.6</ele>
<time>2003-09-19T10:09:17Z</time>
<speed>1.7</speed>
</trkpt>
<trkpt lat="47.411214" lon="8.725154">
<ele>529.9</ele>
<time>2003-09-19T10:09:22Z</time>
<speed>1.1</speed>
</trkpt>
<trkpt lat="47.411176" lon="8.725243">
<ele>528.3</ele>
<time>2003-09-19T10:09:27Z</time>
<speed>1.1</speed>
</trkpt>
<trkpt lat="47.411122" lon="8.725290">
<ele>527.1</ele>
<time>2003-09-19T10:09:32Z</time>
<speed>0.8</speed>
</trkpt>
<trkpt lat="47.411080" lon="8.725351">
<ele>526.0</ele>
<time>2003-09-19T10:09:37Z</time>
<speed>1.1</speed>
</trkpt>
<trkpt lat="47.411026" lon="8.725382">
<ele>526.0</ele>
<time>2003-09-19T10:09:42Z</time>
<speed>1.1</speed>
</trkpt>
<trkpt lat="47.410955" lon="8.725399">
<ele>525.1</ele>
<time>2003-09-19T10:09:47Z</time>
<speed>0.8</speed>
</trkpt>
<trkpt lat="47.410902" lon="8.725417">
<ele>525.1</ele>
<time>2003-09-19T10:09:52Z</time>
<speed>0.8</speed>
</trkpt>
<trkpt lat="47.410866" lon="8.725478">
<ele>524.7</ele>
<time>2003-09-19T10:09:57Z</time>
<speed>0.8</speed>
</trkpt>
<trkpt lat="47.410807" lon="8.725496">
<ele>523.9</ele>
<time>2003-09-19T10:10:02Z</time>
<speed>1.1</speed>
</trkpt>
<trkpt lat="47.410743" lon="8.725499">
<ele>523.7</ele>
<time>2003-09-19T10:10:07Z</time>
<speed>0.8</speed>
</trkpt>
<trkpt lat="47.410690" lon="8.725531">
<ele>523.7</ele>
<time>2003-09-19T10:10:12Z</time>
<speed>1.1</speed>
</trkpt>
<trkpt lat="47.410642" lon="8.725579">
<ele>521.8</ele>
<time>2003-09-19T10:10:17Z</time>
<speed>1.1</speed>
</trkpt>
<trkpt lat="47.410588" lon="8.725627">
<ele>519.1</ele>
<time>2003-09-19T10:10:22Z</time>
<speed>1.1</speed>
</trkpt>
<trkpt lat="47.410528" lon="8.725672">
<ele>518.5</ele>
<time>2003-09-19T10:10:27Z</time>
<speed>1.1</speed>
</trkpt>
<trkpt lat="47.410480" lon="8.725718">
<ele>518.0</ele>
<time>2003-09-19T10:10:32Z</time>
<speed>1.1</speed>
</trkpt>
<trkpt lat="47.410426" lon="8.725764">
<ele>516.7</ele>
<time>2003-09-19T10:10:37Z</time>
<speed>1.1</speed>
</trkpt>
<trkpt lat="47.410372" lon="8.725811">
<ele>515.5</ele>
<time>2003-09-19T10:10:42Z</time>
<speed>1.1</speed>
</trkpt>
<trkpt lat="47.410313" lon="8.725829">
<ele>514.7</ele>
<time>2003-09-19T10:10:47Z</time>
<speed>1.1</speed>
</trkpt>
<trkpt lat="47.410259" lon="8.725860">
<ele>514.7</ele>
<time>2003-09-19T10:10:52Z</time>
<speed>1.1</speed>
</trkpt>
<trkpt lat="47.410201" lon="8.725863">
<ele>515.2</ele>
<time>2003-09-19T10:10:57Z</time>
<speed>1.1</speed>
</trkpt>
<trkpt lat="47.410142" lon="8.725879">
<ele>515.8</ele>
<time>2003-09-19T10:11:02Z</time>
<speed>1.1</speed>
</trkpt>
<trkpt lat="47.410079" lon="8.725869">
<ele>515.5</ele>
<time>2003-09-19T10:11:07Z</time>
<speed>1.1</speed>
</trkpt>
<trkpt lat="47.410027" lon="8.725888">
<ele>515.4</ele>
<time>2003-09-19T10:11:12Z</time>
<speed>1.4</speed>
</trkpt>
<trkpt lat="47.409994" lon="8.725897">
<ele>514.6</ele>
<time>2003-09-19T10:11:17Z</time>
<speed>0.3</speed>
</trkpt>
<trkpt lat="47.409943" lon="8.725902">
<ele>514.5</ele>
<time>2003-09-19T10:11:22Z</time>
<speed>1.1</speed>
</trkpt>
<trkpt lat="47.409874" lon="8.725876">
<ele>514.7</ele>
<time>2003-09-19T10:11:27Z</time>
<speed>1.4</speed>
</trkpt>
<trkpt lat="47.409816" lon="8.725880">
<ele>515.2</ele>
<time>2003-09-19T10:11:32Z</time>
<speed>1.4</speed>
</trkpt>
<trkpt lat="47.409747" lon="8.725869">
<ele>514.1</ele>
<time>2003-09-19T10:11:37Z</time>
<speed>1.4</speed>
</trkpt>
<trkpt lat="47.409665" lon="8.725857">
<ele>513.0</ele>
<time>2003-09-19T10:11:42Z</time>
<speed>1.4</speed>
</trkpt>
<trkpt lat="47.409600" lon="8.725876">
<ele>511.5</ele>
<time>2003-09-19T10:11:47Z</time>
<speed>1.1</speed>
</trkpt>
<trkpt lat="47.409558" lon="8.725937">
<ele>510.4</ele>
<time>2003-09-19T10:11:52Z</time>
<speed>1.1</speed>
</trkpt>
<trkpt lat="47.409508" lon="8.726010">
<ele>510.0</ele>
<time>2003-09-19T10:11:57Z</time>
<speed>1.1</speed>
</trkpt>
<trkpt lat="47.409460" lon="8.726056">
<ele>509.5</ele>
<time>2003-09-19T10:12:02Z</time>
<speed>1.4</speed>
</trkpt>
<trkpt lat="47.409405" lon="8.726100">
<ele>509.7</ele>
<time>2003-09-19T10:12:07Z</time>
<speed>1.4</speed>
</trkpt>
<trkpt lat="47.409362" lon="8.726160">
<ele>510.0</ele>
<time>2003-09-19T10:12:12Z</time>
<speed>1.1</speed>
</trkpt>
<trkpt lat="47.409308" lon="8.726206">
<ele>508.7</ele>
<time>2003-09-19T10:12:17Z</time>
<speed>1.1</speed>
</trkpt>
<trkpt lat="47.409258" lon="8.726279">
<ele>508.4</ele>
<time>2003-09-19T10:12:23Z</time>
<speed>1.4</speed>
</trkpt>
<trkpt lat="47.409216" lon="8.726325">
<ele>508.6</ele>
<time>2003-09-19T10:12:28Z</time>
<speed>0.6</speed>
</trkpt>
<trkpt lat="47.409176" lon="8.726345">
<ele>508.6</ele>
<time>2003-09-19T10:12:33Z</time>
<speed>0.8</speed>
</trkpt>
<trkpt lat="47.409142" lon="8.726380">
<ele>508.0</ele>
<time>2003-09-19T10:12:38Z</time>
<speed>0.8</speed>
</trkpt>
<trkpt lat="47.409089" lon="8.726397">
<ele>509.4</ele>
<time>2003-09-19T10:12:43Z</time>
<speed>1.1</speed>
</trkpt>
<trkpt lat="47.409042" lon="8.726430">
<ele>508.7</ele>
<time>2003-09-19T10:12:48Z</time>
<speed>1.4</speed>
</trkpt>
<trkpt lat="47.409000" lon="8.726476">
<ele>509.0</ele>
<time>2003-09-19T10:12:53Z</time>
<speed>0.8</speed>
</trkpt>
<trkpt lat="47.408948" lon="8.726481">
<ele>508.8</ele>
<time>2003-09-19T10:12:58Z</time>
<speed>1.1</speed>
</trkpt>
<trkpt lat="47.408904" lon="8.726473">
<ele>509.3</ele>
<time>2003-09-19T10:13:03Z</time>
<speed>0.8</speed>
</trkpt>
<trkpt lat="47.408853" lon="8.726463">
<ele>510.4</ele>
<time>2003-09-19T10:13:08Z</time>
<speed>1.1</speed>
</trkpt>
<trkpt lat="47.408804" lon="8.726442">
<ele>510.0</ele>
<time>2003-09-19T10:13:13Z</time>
<speed>0.8</speed>
</trkpt>
<trkpt lat="47.408754" lon="8.726421">
<ele>509.7</ele>
<time>2003-09-19T10:13:18Z</time>
<speed>0.6</speed>
</trkpt>
<trkpt lat="47.408709" lon="8.726428">
<ele>508.8</ele>
<time>2003-09-19T10:13:23Z</time>
<speed>0.6</speed>
</trkpt>
<trkpt lat="47.408697" lon="8.726413">
<ele>508.6</ele>
<time>2003-09-19T10:13:28Z</time>
<speed>0.0</speed>
</trkpt>
<trkpt lat="47.408697" lon="8.726413">
<ele>508.6</ele>
<time>2003-09-19T10:13:33Z</time>
<speed>0.0</speed>
</trkpt>
<trkpt lat="47.408697" lon="8.726413">
<ele>508.6</ele>
<time>2003-09-19T10:13:38Z</time>
<speed>0.0</speed>
</trkpt>
<trkpt lat="47.408697" lon="8.726413">
<ele>508.6</ele>
<time>2003-09-19T10:13:43Z</time>
<speed>0.0</speed>
</trkpt>
<trkpt lat="47.408697" lon="8.726413">
<ele>508.6</ele>
<time>2003-09-19T10:13:48Z</time>
<speed>0.0</speed>
</trkpt>
<trkpt lat="47.408704" lon="8.726415">
<ele>508.0</ele>
<time>2003-09-19T10:13:53Z</time>
<speed>0.0</speed>
</trkpt>
<trkpt lat="47.408704" lon="8.726415">
<ele>508.0</ele>
<time>2003-09-19T10:13:58Z</time>
<speed>0.0</speed>
</trkpt>
<trkpt lat="47.408685" lon="8.726411">
<ele>508.6</ele>
<time>2003-09-19T10:14:03Z</time>
<speed>0.6</speed>
</trkpt>
<trkpt lat="47.408641" lon="8.726405">
<ele>507.6</ele>
<time>2003-09-19T10:14:08Z</time>
<speed>1.1</speed>
</trkpt>
<trkpt lat="47.408578" lon="8.726395">
<ele>507.3</ele>
<time>2003-09-19T10:14:13Z</time>
<speed>0.8</speed>
</trkpt>
<trkpt lat="47.408546" lon="8.726389">
<ele>507.8</ele>
<time>2003-09-19T10:14:18Z</time>
<speed>0.3</speed>
</trkpt>
<trkpt lat="47.408520" lon="8.726398">
<ele>507.8</ele>
<time>2003-09-19T10:14:23Z</time>
<speed>0.3</speed>
</trkpt>
<trkpt lat="47.408519" lon="8.726411">
<ele>507.9</ele>
<time>2003-09-19T10:14:28Z</time>
<speed>0.0</speed>
</trkpt>
<trkpt lat="47.408507" lon="8.726396">
<ele>507.7</ele>
<time>2003-09-19T10:14:33Z</time>
<speed>0.0</speed>
</trkpt>
<trkpt lat="47.408500" lon="8.726394">
<ele>508.4</ele>
<time>2003-09-19T10:14:38Z</time>
<speed>0.0</speed>
</trkpt>
<trkpt lat="47.408493" lon="8.726407">
<ele>507.8</ele>
<time>2003-09-19T10:14:43Z</time>
<speed>0.3</speed>
</trkpt>
<trkpt lat="47.408492" lon="8.726420">
<ele>507.9</ele>
<time>2003-09-19T10:14:48Z</time>
<speed>0.0</speed>
</trkpt>
<trkpt lat="47.408492" lon="8.726420">
<ele>507.9</ele>
<time>2003-09-19T10:14:53Z</time>
<speed>0.0</speed>
</trkpt>
<trkpt lat="47.408492" lon="8.726420">
<ele>507.9</ele>
<time>2003-09-19T10:14:58Z</time>
<speed>0.0</speed>
</trkpt>
<trkpt lat="47.408492" lon="8.726420">
<ele>507.9</ele>
<time>2003-09-19T10:15:03Z</time>
<speed>0.3</speed>
</trkpt>
<trkpt lat="47.408485" lon="8.726431">
<ele>508.6</ele>
<time>2003-09-19T10:15:08Z</time>
<speed>0.0</speed>
</trkpt>
<trkpt lat="47.408478" lon="8.726444">
<ele>508.0</ele>
<time>2003-09-19T10:15:13Z</time>
<speed>0.0</speed>
</trkpt>
<trkpt lat="47.408471" lon="8.726442">
<ele>508.7</ele>
<time>2003-09-19T10:15:18Z</time>
<speed>0.0</speed>
</trkpt>
<trkpt lat="47.408471" lon="8.726442">
<ele>508.7</ele>
<time>2003-09-19T10:15:23Z</time>
<speed>0.0</speed>
</trkpt>
<trkpt lat="47.408465" lon="8.726440">
<ele>509.4</ele>
<time>2003-09-19T10:15:28Z</time>
<speed>0.0</speed>
</trkpt>
<trkpt lat="47.408476" lon="8.726470">
<ele>508.2</ele>
<time>2003-09-19T10:15:33Z</time>
<speed>0.3</speed>
</trkpt>
<trkpt lat="47.408469" lon="8.726483">
<ele>507.6</ele>
<time>2003-09-19T10:15:38Z</time>
<speed>0.0</speed>
</trkpt>
<trkpt lat="47.408470" lon="8.726470">
<ele>507.5</ele>
<time>2003-09-19T10:15:43Z</time>
<speed>0.0</speed>
</trkpt>
<trkpt lat="47.408470" lon="8.726470">
<ele>507.5</ele>
<time>2003-09-19T10:15:48Z</time>
<speed>0.0</speed>
</trkpt>
<trkpt lat="47.408470" lon="8.726470">
<ele>507.5</ele>
<time>2003-09-19T10:15:53Z</time>
<speed>0.0</speed>
</trkpt>
<trkpt lat="47.408464" lon="8.726455">
<ele>508.1</ele>
<time>2003-09-19T10:15:58Z</time>
<speed>0.0</speed>
</trkpt>
<trkpt lat="47.408464" lon="8.726455">
<ele>508.1</ele>
<time>2003-09-19T10:16:03Z</time>
<speed>0.0</speed>
</trkpt>
<trkpt lat="47.408470" lon="8.726455">
<ele>508.8</ele>
<time>2003-09-19T10:16:08Z</time>
<speed>0.0</speed>
</trkpt>
<trkpt lat="47.408483" lon="8.726457">
<ele>508.9</ele>
<time>2003-09-19T10:16:13Z</time>
<speed>0.0</speed>
</trkpt>
<trkpt lat="47.408507" lon="8.726474">
<ele>509.1</ele>
<time>2003-09-19T10:16:18Z</time>
<speed>0.0</speed>
</trkpt>
<trkpt lat="47.408507" lon="8.726474">
<ele>509.1</ele>
<time>2003-09-19T10:16:23Z</time>
<speed>0.0</speed>
</trkpt>
<trkpt lat="47.408508" lon="8.726461">
<ele>509.0</ele>
<time>2003-09-19T10:16:28Z</time>
<speed>0.0</speed>
</trkpt>
<trkpt lat="47.408507" lon="8.726474">
<ele>509.1</ele>
<time>2003-09-19T10:16:33Z</time>
<speed>0.0</speed>
</trkpt>
<trkpt lat="47.408507" lon="8.726474">
<ele>509.1</ele>
<time>2003-09-19T10:16:38Z</time>
<speed>0.0</speed>
</trkpt>
<trkpt lat="47.408508" lon="8.726461">
<ele>509.0</ele>
<time>2003-09-19T10:16:43Z</time>
<speed>0.0</speed>
</trkpt>
<trkpt lat="47.408495" lon="8.726459">
<ele>508.9</ele>
<time>2003-09-19T10:16:48Z</time>
<speed>0.3</speed>
</trkpt>
<trkpt lat="47.408491" lon="8.726431">
<ele>509.4</ele>
<time>2003-09-19T10:16:53Z</time>
<speed>0.6</speed>
</trkpt>
<trkpt lat="47.408484" lon="8.726444">
<ele>508.8</ele>
<time>2003-09-19T10:16:58Z</time>
<speed>0.8</speed>
</trkpt>
<trkpt lat="47.408500" lon="8.726487">
<ele>508.5</ele>
<time>2003-09-19T10:17:03Z</time>
<speed>0.3</speed>
</trkpt>
<trkpt lat="47.408506" lon="8.726487">
<ele>509.2</ele>
<time>2003-09-19T10:17:08Z</time>
<speed>0.3</speed>
</trkpt>
<trkpt lat="47.408518" lon="8.726503">
<ele>509.4</ele>
<time>2003-09-19T10:17:13Z</time>
<speed>0.0</speed>
</trkpt>
<trkpt lat="47.408518" lon="8.726503">
<ele>509.4</ele>
<time>2003-09-19T10:17:18Z</time>
<speed>0.0</speed>
</trkpt>
<trkpt lat="47.408518" lon="8.726503">
<ele>509.4</ele>
<time>2003-09-19T10:17:23Z</time>
<speed>0.0</speed>
</trkpt>
<trkpt lat="47.408518" lon="8.726503">
<ele>509.4</ele>
<time>2003-09-19T10:17:28Z</time>
<speed>0.0</speed>
</trkpt>
<trkpt lat="47.408518" lon="8.726503">
<ele>509.4</ele>
<time>2003-09-19T10:17:33Z</time>
<speed>0.0</speed>
</trkpt>
<trkpt lat="47.408518" lon="8.726503">
<ele>509.4</ele>
<time>2003-09-19T10:17:38Z</time>
<speed>0.0</speed>
</trkpt>
<trkpt lat="47.408518" lon="8.726503">
<ele>509.4</ele>
<time>2003-09-19T10:17:43Z</time>
<speed>0.0</speed>
</trkpt>
<trkpt lat="47.408512" lon="8.726503">
<ele>508.6</ele>
<time>2003-09-19T10:17:48Z</time>
<speed>0.0</speed>
</trkpt>
<trkpt lat="47.408512" lon="8.726503">
<ele>508.6</ele>
<time>2003-09-19T10:17:53Z</time>
<speed>0.0</speed>
</trkpt>
<trkpt lat="47.408512" lon="8.726503">
<ele>508.6</ele>
<time>2003-09-19T10:17:58Z</time>
<speed>0.0</speed>
</trkpt>
<trkpt lat="47.408512" lon="8.726503">
<ele>508.6</ele>
<time>2003-09-19T10:18:03Z</time>
<speed>0.0</speed>
</trkpt>
<trkpt lat="47.408512" lon="8.726503">
<ele>508.6</ele>
<time>2003-09-19T10:18:08Z</time>
<speed>0.0</speed>
</trkpt>
<trkpt lat="47.408512" lon="8.726503">
<ele>508.6</ele>
<time>2003-09-19T10:18:13Z</time>
<speed>0.0</speed>
</trkpt>
<trkpt lat="47.408518" lon="8.726505">
<ele>508.0</ele>
<time>2003-09-19T10:18:18Z</time>
<speed>0.0</speed>
</trkpt>
</trkseg>
</trk>
</gpx>
